<?xml version="1.0" encoding="utf-8"?>
<gpx xmlns:xsi="http://www.w3.org/2001/XMLSchema-instance" xmlns:xsd="http://www.w3.org/2001/XMLSchema" version="1.1" creator="Shapelink.com" xmlns="http://www.topografix.com/GPX/1/1" xmlns:gpxtpx="http://www.garmin.com/xmlschemas/TrackPointExtension/v1">
  <metadata>
    <name>Walking 13.49 km, 2012-08-06</name>
    <desc></desc>
    <author><name>Ulf Andrae</name></author> 
    <time>2012-08-06T08:46:48Z</time>
  </metadata>
  <trk>
    <name>Walking 13.49 km, 2012-08-06</name>
    <trkseg>
      <trkpt lat="61.6225789022" lon="8.63264570944">
        <ele>1402.7</ele>
        <time>2012-08-06T08:46:48Z</time>
      </trkpt>
      <trkpt lat="61.6224128567" lon="8.6328692548">
        <ele>1403.66</ele>
        <time>2012-08-06T08:47:09Z</time>
      </trkpt>
      <trkpt lat="61.6223017965" lon="8.63279767334">
        <ele>1402.7</ele>
        <time>2012-08-06T08:47:25Z</time>
      </trkpt>
      <trkpt lat="61.622344628" lon="8.63275702111">
        <ele>1403.66</ele>
        <time>2012-08-06T08:47:29Z</time>
      </trkpt>
      <trkpt lat="61.6224705242" lon="8.63275777549">
        <ele>1404.14</ele>
        <time>2012-08-06T08:47:37Z</time>
      </trkpt>
      <trkpt lat="61.6226177104" lon="8.63269709051">
        <ele>1404.62</ele>
        <time>2012-08-06T08:47:47Z</time>
      </trkpt>
      <trkpt lat="61.6226742882" lon="8.63272055984">
        <ele>1405.58</ele>
        <time>2012-08-06T08:48:00Z</time>
      </trkpt>
      <trkpt lat="61.6226747911" lon="8.63275190815">
        <ele>1405.58</ele>
        <time>2012-08-06T08:48:09Z</time>
      </trkpt>
      <trkpt lat="61.6226932313" lon="8.63278820179">
        <ele>1406.07</ele>
        <time>2012-08-06T08:48:12Z</time>
      </trkpt>
      <trkpt lat="61.622713767" lon="8.63278325647">
        <ele>1406.07</ele>
        <time>2012-08-06T08:48:16Z</time>
      </trkpt>
      <trkpt lat="61.6226641461" lon="8.63278199919">
        <ele>1406.07</ele>
        <time>2012-08-06T08:48:32Z</time>
      </trkpt>
      <trkpt lat="61.6226557642" lon="8.63276246935">
        <ele>1406.07</ele>
        <time>2012-08-06T08:48:47Z</time>
      </trkpt>
      <trkpt lat="61.6226286069" lon="8.6328168679">
        <ele>1406.55</ele>
        <time>2012-08-06T08:49:02Z</time>
      </trkpt>
      <trkpt lat="61.6226340551" lon="8.63279708661">
        <ele>1406.07</ele>
        <time>2012-08-06T08:49:08Z</time>
      </trkpt>
      <trkpt lat="61.6226825863" lon="8.63274361007">
        <ele>1401.26</ele>
        <time>2012-08-06T08:49:12Z</time>
      </trkpt>
      <trkpt lat="61.6227150243" lon="8.63273388706">
        <ele>1396.45</ele>
        <time>2012-08-06T08:49:16Z</time>
      </trkpt>
      <trkpt lat="61.6227257531" lon="8.63274210133">
        <ele>1393.09</ele>
        <time>2012-08-06T08:49:19Z</time>
      </trkpt>
      <trkpt lat="61.6227332968" lon="8.63275417127">
        <ele>1389.72</ele>
        <time>2012-08-06T08:49:22Z</time>
      </trkpt>
      <trkpt lat="61.6227375716" lon="8.63275702111">
        <ele>1388.76</ele>
        <time>2012-08-06T08:49:24Z</time>
      </trkpt>
      <trkpt lat="61.6227400862" lon="8.63275819458">
        <ele>1385.88</ele>
        <time>2012-08-06T08:49:27Z</time>
      </trkpt>
      <trkpt lat="61.62274017" lon="8.63276431337">
        <ele>1382.51</ele>
        <time>2012-08-06T08:49:31Z</time>
      </trkpt>
      <trkpt lat="61.6227398347" lon="8.63276766613">
        <ele>1382.51</ele>
        <time>2012-08-06T08:49:32Z</time>
      </trkpt>
      <trkpt lat="61.6227352247" lon="8.63278342411">
        <ele>1379.63</ele>
        <time>2012-08-06T08:49:38Z</time>
      </trkpt>
      <trkpt lat="61.6227245796" lon="8.63275861368">
        <ele>1376.26</ele>
        <time>2012-08-06T08:49:46Z</time>
      </trkpt>
      <trkpt lat="61.6227155272" lon="8.63281913102">
        <ele>1374.82</ele>
        <time>2012-08-06T08:50:11Z</time>
      </trkpt>
      <trkpt lat="61.6226840951" lon="8.6326406803">
        <ele>1373.38</ele>
        <time>2012-08-06T08:50:36Z</time>
      </trkpt>
      <trkpt lat="61.6226537526" lon="8.63257437944">
        <ele>1373.38</ele>
        <time>2012-08-06T08:50:50Z</time>
      </trkpt>
      <trkpt lat="61.622640593" lon="8.63260044716">
        <ele>1375.3</ele>
        <time>2012-08-06T08:51:07Z</time>
      </trkpt>
      <trkpt lat="61.6226358153" lon="8.63260824233">
        <ele>1372.9</ele>
        <time>2012-08-06T08:51:09Z</time>
      </trkpt>
      <trkpt lat="61.6226107534" lon="8.6325904727">
        <ele>1373.38</ele>
        <time>2012-08-06T08:51:26Z</time>
      </trkpt>
      <trkpt lat="61.6225801595" lon="8.63260447048">
        <ele>1373.86</ele>
        <time>2012-08-06T08:51:40Z</time>
      </trkpt>
      <trkpt lat="61.6226129327" lon="8.63259097561">
        <ele>1373.38</ele>
        <time>2012-08-06T08:52:02Z</time>
      </trkpt>
      <trkpt lat="61.6226713546" lon="8.63254353404">
        <ele>1373.86</ele>
        <time>2012-08-06T08:52:21Z</time>
      </trkpt>
      <trkpt lat="61.6226840951" lon="8.63260002807">
        <ele>1373.86</ele>
        <time>2012-08-06T08:52:36Z</time>
      </trkpt>
      <trkpt lat="61.6226667445" lon="8.63268141635">
        <ele>1374.34</ele>
        <time>2012-08-06T08:53:05Z</time>
      </trkpt>
      <trkpt lat="61.6226657387" lon="8.63267085515">
        <ele>1374.34</ele>
        <time>2012-08-06T08:53:11Z</time>
      </trkpt>
      <trkpt lat="61.6225985158" lon="8.63259667531">
        <ele>1374.34</ele>
        <time>2012-08-06T08:53:26Z</time>
      </trkpt>
      <trkpt lat="61.6225849371" lon="8.63266180269">
        <ele>1374.34</ele>
        <time>2012-08-06T08:53:44Z</time>
      </trkpt>
      <trkpt lat="61.6225945763" lon="8.63254579715">
        <ele>1375.3</ele>
        <time>2012-08-06T08:54:05Z</time>
      </trkpt>
      <trkpt lat="61.6225968394" lon="8.63248846494">
        <ele>1371.46</ele>
        <time>2012-08-06T08:54:22Z</time>
      </trkpt>
      <trkpt lat="61.6225961689" lon="8.63248662092">
        <ele>1376.26</ele>
        <time>2012-08-06T08:54:23Z</time>
      </trkpt>
      <trkpt lat="61.6226054728" lon="8.63246197812">
        <ele>1374.82</ele>
        <time>2012-08-06T08:54:41Z</time>
      </trkpt>
      <trkpt lat="61.6225074884" lon="8.63217238337">
        <ele>1374.34</ele>
        <time>2012-08-06T08:54:57Z</time>
      </trkpt>
      <trkpt lat="61.6225685924" lon="8.63198563457">
        <ele>1375.3</ele>
        <time>2012-08-06T08:55:10Z</time>
      </trkpt>
      <trkpt lat="61.6225509066" lon="8.63197465427">
        <ele>1375.3</ele>
        <time>2012-08-06T08:55:30Z</time>
      </trkpt>
      <trkpt lat="61.6225563549" lon="8.6319795996">
        <ele>1374.82</ele>
        <time>2012-08-06T08:55:50Z</time>
      </trkpt>
      <trkpt lat="61.6225523315" lon="8.63197557628">
        <ele>1374.82</ele>
        <time>2012-08-06T08:56:00Z</time>
      </trkpt>
      <trkpt lat="61.6225844342" lon="8.63181942143">
        <ele>1376.75</ele>
        <time>2012-08-06T08:56:11Z</time>
      </trkpt>
      <trkpt lat="61.6226030421" lon="8.63173099235">
        <ele>1377.71</ele>
        <time>2012-08-06T08:56:21Z</time>
      </trkpt>
      <trkpt lat="61.6226164531" lon="8.6316347681">
        <ele>1380.11</ele>
        <time>2012-08-06T08:56:28Z</time>
      </trkpt>
      <trkpt lat="61.6226168722" lon="8.63155522384">
        <ele>1380.11</ele>
        <time>2012-08-06T08:56:34Z</time>
      </trkpt>
      <trkpt lat="61.6226426885" lon="8.63155254163">
        <ele>1380.11</ele>
        <time>2012-08-06T08:56:46Z</time>
      </trkpt>
      <trkpt lat="61.6226644814" lon="8.6314757634">
        <ele>1380.11</ele>
        <time>2012-08-06T08:56:51Z</time>
      </trkpt>
      <trkpt lat="61.6226754617" lon="8.63142304122">
        <ele>1380.11</ele>
        <time>2012-08-06T08:56:57Z</time>
      </trkpt>
      <trkpt lat="61.6226820834" lon="8.63136210479">
        <ele>1381.07</ele>
        <time>2012-08-06T08:57:01Z</time>
      </trkpt>
      <trkpt lat="61.6227042116" lon="8.63119320944">
        <ele>1381.07</ele>
        <time>2012-08-06T08:57:10Z</time>
      </trkpt>
      <trkpt lat="61.6227115039" lon="8.63115347922">
        <ele>1381.55</ele>
        <time>2012-08-06T08:57:12Z</time>
      </trkpt>
      <trkpt lat="61.6227747872" lon="8.63101316616">
        <ele>1383.47</ele>
        <time>2012-08-06T08:57:27Z</time>
      </trkpt>
      <trkpt lat="61.6228111647" lon="8.63079347648">
        <ele>1384.44</ele>
        <time>2012-08-06T08:57:40Z</time>
      </trkpt>
      <trkpt lat="61.6228352208" lon="8.6306671612">
        <ele>1384.92</ele>
        <time>2012-08-06T08:57:46Z</time>
      </trkpt>
      <trkpt lat="61.6228750348" lon="8.63041914068">
        <ele>1386.36</ele>
        <time>2012-08-06T08:58:00Z</time>
      </trkpt>
      <trkpt lat="61.6228948161" lon="8.63027195446">
        <ele>1387.32</ele>
        <time>2012-08-06T08:58:09Z</time>
      </trkpt>
      <trkpt lat="61.6229368933" lon="8.63008419983">
        <ele>1388.76</ele>
        <time>2012-08-06T08:58:18Z</time>
      </trkpt>
      <trkpt lat="61.622978216" lon="8.62994749099">
        <ele>1389.72</ele>
        <time>2012-08-06T08:58:28Z</time>
      </trkpt>
      <trkpt lat="61.6229953151" lon="8.62991061062">
        <ele>1390.2</ele>
        <time>2012-08-06T08:58:32Z</time>
      </trkpt>
      <trkpt lat="61.622991208" lon="8.62987197004">
        <ele>1390.68</ele>
        <time>2012-08-06T08:58:35Z</time>
      </trkpt>
      <trkpt lat="61.6230114922" lon="8.62975914963">
        <ele>1392.61</ele>
        <time>2012-08-06T08:58:47Z</time>
      </trkpt>
      <trkpt lat="61.623040745" lon="8.62965479493">
        <ele>1393.57</ele>
        <time>2012-08-06T08:59:01Z</time>
      </trkpt>
      <trkpt lat="61.6230287589" lon="8.62962579355">
        <ele>1394.53</ele>
        <time>2012-08-06T08:59:17Z</time>
      </trkpt>
      <trkpt lat="61.6230202094" lon="8.62959771417">
        <ele>1394.05</ele>
        <time>2012-08-06T08:59:21Z</time>
      </trkpt>
      <trkpt lat="61.6230287589" lon="8.62950366922">
        <ele>1396.93</ele>
        <time>2012-08-06T08:59:31Z</time>
      </trkpt>
      <trkpt lat="61.6230714228" lon="8.62939051352">
        <ele>1398.86</ele>
        <time>2012-08-06T08:59:42Z</time>
      </trkpt>
      <trkpt lat="61.6231169365" lon="8.62935346551">
        <ele>1398.37</ele>
        <time>2012-08-06T09:00:04Z</time>
      </trkpt>
      <trkpt lat="61.6231179424" lon="8.62925774418">
        <ele>1401.26</ele>
        <time>2012-08-06T09:00:16Z</time>
      </trkpt>
      <trkpt lat="61.6231404059" lon="8.62914148718">
        <ele>1402.7</ele>
        <time>2012-08-06T09:00:25Z</time>
      </trkpt>
      <trkpt lat="61.6231575049" lon="8.62899463624">
        <ele>1403.66</ele>
        <time>2012-08-06T09:00:36Z</time>
      </trkpt>
      <trkpt lat="61.6231677309" lon="8.6288610287">
        <ele>1405.58</ele>
        <time>2012-08-06T09:00:47Z</time>
      </trkpt>
      <trkpt lat="61.6231881827" lon="8.62878215499">
        <ele>1408.95</ele>
        <time>2012-08-06T09:00:59Z</time>
      </trkpt>
      <trkpt lat="61.6231904458" lon="8.62862080336">
        <ele>1410.39</ele>
        <time>2012-08-06T09:01:13Z</time>
      </trkpt>
      <trkpt lat="61.6231776215" lon="8.6284972541">
        <ele>1412.31</ele>
        <time>2012-08-06T09:01:25Z</time>
      </trkpt>
      <trkpt lat="61.6231292579" lon="8.6284633074">
        <ele>1410.87</ele>
        <time>2012-08-06T09:01:38Z</time>
      </trkpt>
      <trkpt lat="61.6231389809" lon="8.62848484889">
        <ele>1410.87</ele>
        <time>2012-08-06T09:01:54Z</time>
      </trkpt>
      <trkpt lat="61.6231397353" lon="8.62851569429">
        <ele>1410.87</ele>
        <time>2012-08-06T09:02:28Z</time>
      </trkpt>
      <trkpt lat="61.6231573373" lon="8.62849960104">
        <ele>1411.35</ele>
        <time>2012-08-06T09:02:56Z</time>
      </trkpt>
      <trkpt lat="61.623159349" lon="8.62851125188">
        <ele>1411.83</ele>
        <time>2012-08-06T09:03:35Z</time>
      </trkpt>
      <trkpt lat="61.6231554095" lon="8.62848912366">
        <ele>1411.35</ele>
        <time>2012-08-06T09:04:10Z</time>
      </trkpt>
      <trkpt lat="61.6231474467" lon="8.62851209007">
        <ele>1411.83</ele>
        <time>2012-08-06T09:04:45Z</time>
      </trkpt>
      <trkpt lat="61.6231443454" lon="8.62850354053">
        <ele>1411.83</ele>
        <time>2012-08-06T09:05:23Z</time>
      </trkpt>
      <trkpt lat="61.6231516376" lon="8.62849926576">
        <ele>1412.31</ele>
        <time>2012-08-06T09:06:00Z</time>
      </trkpt>
      <trkpt lat="61.6231703293" lon="8.62848510034">
        <ele>1412.31</ele>
        <time>2012-08-06T09:06:34Z</time>
      </trkpt>
      <trkpt lat="61.6231692396" lon="8.62850136124">
        <ele>1412.31</ele>
        <time>2012-08-06T09:07:06Z</time>
      </trkpt>
      <trkpt lat="61.6231712513" lon="8.62847898155">
        <ele>1412.31</ele>
        <time>2012-08-06T09:07:40Z</time>
      </trkpt>
      <trkpt lat="61.6231622826" lon="8.62849281169">
        <ele>1412.79</ele>
        <time>2012-08-06T09:08:14Z</time>
      </trkpt>
      <trkpt lat="61.623166725" lon="8.62849557772">
        <ele>1412.79</ele>
        <time>2012-08-06T09:08:42Z</time>
      </trkpt>
      <trkpt lat="61.6231703293" lon="8.62850261852">
        <ele>1413.28</ele>
        <time>2012-08-06T09:09:15Z</time>
      </trkpt>
      <trkpt lat="61.6231694072" lon="8.62853287719">
        <ele>1413.76</ele>
        <time>2012-08-06T09:09:42Z</time>
      </trkpt>
      <trkpt lat="61.623176448" lon="8.62848652527">
        <ele>1413.28</ele>
        <time>2012-08-06T09:10:01Z</time>
      </trkpt>
      <trkpt lat="61.6231870092" lon="8.62844972871">
        <ele>1414.72</ele>
        <time>2012-08-06T09:10:16Z</time>
      </trkpt>
      <trkpt lat="61.6232077125" lon="8.62842525356">
        <ele>1415.2</ele>
        <time>2012-08-06T09:10:19Z</time>
      </trkpt>
      <trkpt lat="61.6232554894" lon="8.62826893106">
        <ele>1416.64</ele>
        <time>2012-08-06T09:10:31Z</time>
      </trkpt>
      <trkpt lat="61.6232698224" lon="8.6281704437">
        <ele>1419.52</ele>
        <time>2012-08-06T09:10:44Z</time>
      </trkpt>
      <trkpt lat="61.6233010869" lon="8.62814890221">
        <ele>1420.49</ele>
        <time>2012-08-06T09:10:56Z</time>
      </trkpt>
      <trkpt lat="61.6233576648" lon="8.62807874568">
        <ele>1422.89</ele>
        <time>2012-08-06T09:11:09Z</time>
      </trkpt>
      <trkpt lat="61.6234002449" lon="8.62798059359">
        <ele>1425.29</ele>
        <time>2012-08-06T09:11:23Z</time>
      </trkpt>
      <trkpt lat="61.6234056093" lon="8.62797363661">
        <ele>1425.77</ele>
        <time>2012-08-06T09:11:25Z</time>
      </trkpt>
      <trkpt lat="61.6234214511" lon="8.62786056474">
        <ele>1428.18</ele>
        <time>2012-08-06T09:11:38Z</time>
      </trkpt>
      <trkpt lat="61.6234974749" lon="8.62780482508">
        <ele>1431.06</ele>
        <time>2012-08-06T09:11:52Z</time>
      </trkpt>
      <trkpt lat="61.6235198546" lon="8.62779208459">
        <ele>1432.02</ele>
        <time>2012-08-06T09:11:56Z</time>
      </trkpt>
      <trkpt lat="61.6235042643" lon="8.62774673849">
        <ele>1432.98</ele>
        <time>2012-08-06T09:11:59Z</time>
      </trkpt>
      <trkpt lat="61.6235263925" lon="8.62771756947">
        <ele>1433.94</ele>
        <time>2012-08-06T09:12:03Z</time>
      </trkpt>
      <trkpt lat="61.6235356964" lon="8.62766476348">
        <ele>1434.42</ele>
        <time>2012-08-06T09:12:07Z</time>
      </trkpt>
      <trkpt lat="61.6235492751" lon="8.62763458863">
        <ele>1437.79</ele>
        <time>2012-08-06T09:12:10Z</time>
      </trkpt>
      <trkpt lat="61.6235543881" lon="8.62762679346">
        <ele>1435.87</ele>
        <time>2012-08-06T09:12:11Z</time>
      </trkpt>
      <trkpt lat="61.6235902626" lon="8.62753878348">
        <ele>1437.31</ele>
        <time>2012-08-06T09:12:20Z</time>
      </trkpt>
      <trkpt lat="61.6236075293" lon="8.62748555839">
        <ele>1439.23</ele>
        <time>2012-08-06T09:12:27Z</time>
      </trkpt>
      <trkpt lat="61.6236123908" lon="8.62747793086">
        <ele>1438.75</ele>
        <time>2012-08-06T09:12:29Z</time>
      </trkpt>
      <trkpt lat="61.623615073" lon="8.62739805132">
        <ele>1440.67</ele>
        <time>2012-08-06T09:12:36Z</time>
      </trkpt>
      <trkpt lat="61.6236407217" lon="8.62734734081">
        <ele>1441.63</ele>
        <time>2012-08-06T09:12:47Z</time>
      </trkpt>
      <trkpt lat="61.6236760095" lon="8.62734097056">
        <ele>1443.08</ele>
        <time>2012-08-06T09:12:53Z</time>
      </trkpt>
      <trkpt lat="61.623673914" lon="8.6272874102">
        <ele>1442.6</ele>
        <time>2012-08-06T09:12:57Z</time>
      </trkpt>
      <trkpt lat="61.6236925218" lon="8.62722395919">
        <ele>1445</ele>
        <time>2012-08-06T09:13:01Z</time>
      </trkpt>
      <trkpt lat="61.6237460822" lon="8.62719302997">
        <ele>1445</ele>
        <time>2012-08-06T09:13:15Z</time>
      </trkpt>
      <trkpt lat="61.6237574816" lon="8.62718121149">
        <ele>1445</ele>
        <time>2012-08-06T09:13:36Z</time>
      </trkpt>
      <trkpt lat="61.6237732396" lon="8.62713661976">
        <ele>1445.96</ele>
        <time>2012-08-06T09:13:48Z</time>
      </trkpt>
      <trkpt lat="61.6237808671" lon="8.6269914452">
        <ele>1447.4</ele>
        <time>2012-08-06T09:14:00Z</time>
      </trkpt>
      <trkpt lat="61.6237729881" lon="8.62693645991">
        <ele>1447.88</ele>
        <time>2012-08-06T09:14:04Z</time>
      </trkpt>
      <trkpt lat="61.6237902548" lon="8.62682959065">
        <ele>1450.77</ele>
        <time>2012-08-06T09:14:15Z</time>
      </trkpt>
      <trkpt lat="61.6237957031" lon="8.62672196701">
        <ele>1450.77</ele>
        <time>2012-08-06T09:14:23Z</time>
      </trkpt>
      <trkpt lat="61.62379805" lon="8.62669615075">
        <ele>1450.29</ele>
        <time>2012-08-06T09:14:25Z</time>
      </trkpt>
      <trkpt lat="61.6237884946" lon="8.6266342923">
        <ele>1448.84</ele>
        <time>2012-08-06T09:14:29Z</time>
      </trkpt>
      <trkpt lat="61.6238135565" lon="8.6265831627">
        <ele>1451.73</ele>
        <time>2012-08-06T09:14:33Z</time>
      </trkpt>
      <trkpt lat="61.6238171607" lon="8.62646548077">
        <ele>1453.65</ele>
        <time>2012-08-06T09:14:40Z</time>
      </trkpt>
      <trkpt lat="61.6238426417" lon="8.62630119547">
        <ele>1452.69</ele>
        <time>2012-08-06T09:14:51Z</time>
      </trkpt>
      <trkpt lat="61.6238421388" lon="8.62628602423">
        <ele>1454.13</ele>
        <time>2012-08-06T09:14:52Z</time>
      </trkpt>
      <trkpt lat="61.6238578968" lon="8.62609349191">
        <ele>1456.53</ele>
        <time>2012-08-06T09:15:05Z</time>
      </trkpt>
      <trkpt lat="61.623854544" lon="8.62595946528">
        <ele>1456.53</ele>
        <time>2012-08-06T09:15:12Z</time>
      </trkpt>
      <trkpt lat="61.6238713916" lon="8.62585142255">
        <ele>1458.94</ele>
        <time>2012-08-06T09:15:20Z</time>
      </trkpt>
      <trkpt lat="61.6238824558" lon="8.6258001253">
        <ele>1459.42</ele>
        <time>2012-08-06T09:15:24Z</time>
      </trkpt>
      <trkpt lat="61.6238748282" lon="8.62573558465">
        <ele>1462.78</ele>
        <time>2012-08-06T09:15:27Z</time>
      </trkpt>
      <trkpt lat="61.6238682065" lon="8.62571756355">
        <ele>1459.9</ele>
        <time>2012-08-06T09:15:28Z</time>
      </trkpt>
      <trkpt lat="61.6238326672" lon="8.62564195879">
        <ele>1461.34</ele>
        <time>2012-08-06T09:15:36Z</time>
      </trkpt>
      <trkpt lat="61.6238279734" lon="8.62547054887">
        <ele>1460.86</ele>
        <time>2012-08-06T09:15:47Z</time>
      </trkpt>
      <trkpt lat="61.6238340922" lon="8.62543584779">
        <ele>1463.26</ele>
        <time>2012-08-06T09:15:49Z</time>
      </trkpt>
      <trkpt lat="61.6238246206" lon="8.6253531184">
        <ele>1463.26</ele>
        <time>2012-08-06T09:15:54Z</time>
      </trkpt>
      <trkpt lat="61.6238060128" lon="8.62524851225">
        <ele>1465.67</ele>
        <time>2012-08-06T09:16:05Z</time>
      </trkpt>
      <trkpt lat="61.6238080245" lon="8.62519109622">
        <ele>1465.19</ele>
        <time>2012-08-06T09:16:09Z</time>
      </trkpt>
      <trkpt lat="61.6237944458" lon="8.62512756139">
        <ele>1466.63</ele>
        <time>2012-08-06T09:16:13Z</time>
      </trkpt>
      <trkpt lat="61.623812383" lon="8.62506696023">
        <ele>1466.63</ele>
        <time>2012-08-06T09:16:18Z</time>
      </trkpt>
      <trkpt lat="61.6238328349" lon="8.62499177456">
        <ele>1468.07</ele>
        <time>2012-08-06T09:16:25Z</time>
      </trkpt>
      <trkpt lat="61.6238338407" lon="8.62496973015">
        <ele>1469.99</ele>
        <time>2012-08-06T09:16:27Z</time>
      </trkpt>
      <trkpt lat="61.6238787677" lon="8.62489202991">
        <ele>1470.47</ele>
        <time>2012-08-06T09:16:39Z</time>
      </trkpt>
      <trkpt lat="61.6238656081" lon="8.62488909625">
        <ele>1470.95</ele>
        <time>2012-08-06T09:16:41Z</time>
      </trkpt>
      <trkpt lat="61.623876337" lon="8.62485447899">
        <ele>1472.88</ele>
        <time>2012-08-06T09:16:45Z</time>
      </trkpt>
      <trkpt lat="61.6238785163" lon="8.62481265329">
        <ele>1470.95</ele>
        <time>2012-08-06T09:16:48Z</time>
      </trkpt>
      <trkpt lat="61.6238756664" lon="8.62477619201">
        <ele>1473.84</ele>
        <time>2012-08-06T09:16:50Z</time>
      </trkpt>
      <trkpt lat="61.6238966212" lon="8.62467468716">
        <ele>1473.84</ele>
        <time>2012-08-06T09:17:03Z</time>
      </trkpt>
      <trkpt lat="61.6238946095" lon="8.62461006269">
        <ele>1475.76</ele>
        <time>2012-08-06T09:17:22Z</time>
      </trkpt>
      <trkpt lat="61.6238950286" lon="8.62463579513">
        <ele>1474.8</ele>
        <time>2012-08-06T09:17:47Z</time>
      </trkpt>
      <trkpt lat="61.6239102837" lon="8.62458013929">
        <ele>1474.8</ele>
        <time>2012-08-06T09:18:04Z</time>
      </trkpt>
      <trkpt lat="61.6239143908" lon="8.6244581826">
        <ele>1475.76</ele>
        <time>2012-08-06T09:18:18Z</time>
      </trkpt>
      <trkpt lat="61.6239175759" lon="8.62433681265">
        <ele>1477.2</ele>
        <time>2012-08-06T09:18:29Z</time>
      </trkpt>
      <trkpt lat="61.6239381116" lon="8.62418434583">
        <ele>1479.13</ele>
        <time>2012-08-06T09:18:41Z</time>
      </trkpt>
      <trkpt lat="61.6239491757" lon="8.62413204275">
        <ele>1479.13</ele>
        <time>2012-08-06T09:18:45Z</time>
      </trkpt>
      <trkpt lat="61.6239621677" lon="8.62402131781">
        <ele>1479.61</ele>
        <time>2012-08-06T09:18:54Z</time>
      </trkpt>
      <trkpt lat="61.6239751596" lon="8.62390715629">
        <ele>1482.01</ele>
        <time>2012-08-06T09:19:04Z</time>
      </trkpt>
      <trkpt lat="61.6240042448" lon="8.62381193787">
        <ele>1483.93</ele>
        <time>2012-08-06T09:19:13Z</time>
      </trkpt>
      <trkpt lat="61.6240758263" lon="8.62368109636">
        <ele>1484.41</ele>
        <time>2012-08-06T09:19:26Z</time>
      </trkpt>
      <trkpt lat="61.6240818612" lon="8.62365008332">
        <ele>1485.37</ele>
        <time>2012-08-06T09:19:28Z</time>
      </trkpt>
      <trkpt lat="61.6241526883" lon="8.62351932563">
        <ele>1486.34</ele>
        <time>2012-08-06T09:19:40Z</time>
      </trkpt>
      <trkpt lat="61.6242095176" lon="8.62346601672">
        <ele>1488.74</ele>
        <time>2012-08-06T09:19:52Z</time>
      </trkpt>
      <trkpt lat="61.6242443025" lon="8.6234055832">
        <ele>1489.22</ele>
        <time>2012-08-06T09:19:58Z</time>
      </trkpt>
      <trkpt lat="61.6242585517" lon="8.62337683327">
        <ele>1489.22</ele>
        <time>2012-08-06T09:20:01Z</time>
      </trkpt>
      <trkpt lat="61.6242650896" lon="8.62334682606">
        <ele>1489.22</ele>
        <time>2012-08-06T09:20:03Z</time>
      </trkpt>
      <trkpt lat="61.6243239306" lon="8.62321447581">
        <ele>1489.7</ele>
        <time>2012-08-06T09:20:15Z</time>
      </trkpt>
      <trkpt lat="61.6243814304" lon="8.62309981138">
        <ele>1490.18</ele>
        <time>2012-08-06T09:20:27Z</time>
      </trkpt>
      <trkpt lat="61.6243926622" lon="8.62308799289">
        <ele>1490.18</ele>
        <time>2012-08-06T09:20:29Z</time>
      </trkpt>
      <trkpt lat="61.6244313866" lon="8.62300115637">
        <ele>1493.55</ele>
        <time>2012-08-06T09:20:41Z</time>
      </trkpt>
      <trkpt lat="61.6244328953" lon="8.62298875116">
        <ele>1493.55</ele>
        <time>2012-08-06T09:20:42Z</time>
      </trkpt>
      <trkpt lat="61.6244727094" lon="8.62290023826">
        <ele>1494.03</ele>
        <time>2012-08-06T09:20:51Z</time>
      </trkpt>
      <trkpt lat="61.6244986933" lon="8.62285229377">
        <ele>1494.99</ele>
        <time>2012-08-06T09:20:55Z</time>
      </trkpt>
      <trkpt lat="61.6245356575" lon="8.62274928018">
        <ele>1495.47</ele>
        <time>2012-08-06T09:21:06Z</time>
      </trkpt>
      <trkpt lat="61.6245719511" lon="8.62268524244">
        <ele>1495.95</ele>
        <time>2012-08-06T09:21:13Z</time>
      </trkpt>
      <trkpt lat="61.6246158723" lon="8.6225590948">
        <ele>1497.87</ele>
        <time>2012-08-06T09:21:25Z</time>
      </trkpt>
      <trkpt lat="61.6246250086" lon="8.62254777923">
        <ele>1497.39</ele>
        <time>2012-08-06T09:21:27Z</time>
      </trkpt>
      <trkpt lat="61.6247017868" lon="8.6224291753">
        <ele>1498.83</ele>
        <time>2012-08-06T09:21:38Z</time>
      </trkpt>
      <trkpt lat="61.6247039661" lon="8.62240084447">
        <ele>1498.83</ele>
        <time>2012-08-06T09:21:40Z</time>
      </trkpt>
      <trkpt lat="61.6247300338" lon="8.62224452198">
        <ele>1499.79</ele>
        <time>2012-08-06T09:21:50Z</time>
      </trkpt>
      <trkpt lat="61.6247380804" lon="8.62219163217">
        <ele>1501.24</ele>
        <time>2012-08-06T09:21:53Z</time>
      </trkpt>
      <trkpt lat="61.6247474682" lon="8.62212558277">
        <ele>1501.24</ele>
        <time>2012-08-06T09:21:57Z</time>
      </trkpt>
      <trkpt lat="61.6247482225" lon="8.62206255086">
        <ele>1501.72</ele>
        <time>2012-08-06T09:22:03Z</time>
      </trkpt>
      <trkpt lat="61.6247458756" lon="8.62192542292">
        <ele>1502.2</ele>
        <time>2012-08-06T09:22:13Z</time>
      </trkpt>
      <trkpt lat="61.6247489769" lon="8.62191569991">
        <ele>1502.2</ele>
        <time>2012-08-06T09:22:14Z</time>
      </trkpt>
      <trkpt lat="61.6247553471" lon="8.6217368301">
        <ele>1503.64</ele>
        <time>2012-08-06T09:22:25Z</time>
      </trkpt>
      <trkpt lat="61.6248021182" lon="8.62171310931">
        <ele>1504.12</ele>
        <time>2012-08-06T09:22:28Z</time>
      </trkpt>
      <trkpt lat="61.6248189658" lon="8.62164689228">
        <ele>1505.56</ele>
        <time>2012-08-06T09:22:32Z</time>
      </trkpt>
      <trkpt lat="61.6248162836" lon="8.62155326642">
        <ele>1505.56</ele>
        <time>2012-08-06T09:22:37Z</time>
      </trkpt>
      <trkpt lat="61.624837406" lon="8.6214998737">
        <ele>1505.56</ele>
        <time>2012-08-06T09:22:40Z</time>
      </trkpt>
      <trkpt lat="61.6248603724" lon="8.62137297168">
        <ele>1506.04</ele>
        <time>2012-08-06T09:22:48Z</time>
      </trkpt>
      <trkpt lat="61.6249019466" lon="8.62125654705">
        <ele>1507.48</ele>
        <time>2012-08-06T09:22:57Z</time>
      </trkpt>
      <trkpt lat="61.6249146871" lon="8.62122628838">
        <ele>1506.52</ele>
        <time>2012-08-06T09:22:59Z</time>
      </trkpt>
      <trkpt lat="61.6249557585" lon="8.62111707218">
        <ele>1507.48</ele>
        <time>2012-08-06T09:23:09Z</time>
      </trkpt>
      <trkpt lat="61.624978641" lon="8.62098949961">
        <ele>1508.93</ele>
        <time>2012-08-06T09:23:18Z</time>
      </trkpt>
      <trkpt lat="61.6250079777" lon="8.62084038556">
        <ele>1510.37</ele>
        <time>2012-08-06T09:23:30Z</time>
      </trkpt>
      <trkpt lat="61.6250219755" lon="8.62075086683">
        <ele>1510.85</ele>
        <time>2012-08-06T09:23:36Z</time>
      </trkpt>
      <trkpt lat="61.6250397451" lon="8.62072345801">
        <ele>1510.37</ele>
        <time>2012-08-06T09:23:38Z</time>
      </trkpt>
      <trkpt lat="61.6250496358" lon="8.62066855654">
        <ele>1511.33</ele>
        <time>2012-08-06T09:23:42Z</time>
      </trkpt>
      <trkpt lat="61.625070842" lon="8.62061625347">
        <ele>1511.81</ele>
        <time>2012-08-06T09:23:46Z</time>
      </trkpt>
      <trkpt lat="61.62512457" lon="8.6204922013">
        <ele>1513.25</ele>
        <time>2012-08-06T09:23:56Z</time>
      </trkpt>
      <trkpt lat="61.6251469497" lon="8.62037979998">
        <ele>1513.25</ele>
        <time>2012-08-06T09:24:11Z</time>
      </trkpt>
      <trkpt lat="61.6251673177" lon="8.62027955242">
        <ele>1514.21</ele>
        <time>2012-08-06T09:24:23Z</time>
      </trkpt>
      <trkpt lat="61.6251599416" lon="8.62020193599">
        <ele>1515.18</ele>
        <time>2012-08-06T09:24:37Z</time>
      </trkpt>
      <trkpt lat="61.625171341" lon="8.62017461099">
        <ele>1516.14</ele>
        <time>2012-08-06T09:24:40Z</time>
      </trkpt>
      <trkpt lat="61.6252005938" lon="8.6201350484">
        <ele>1516.14</ele>
        <time>2012-08-06T09:24:44Z</time>
      </trkpt>
      <trkpt lat="61.6252330318" lon="8.62008274533">
        <ele>1517.58</ele>
        <time>2012-08-06T09:24:51Z</time>
      </trkpt>
      <trkpt lat="61.6252479516" lon="8.61998861656">
        <ele>1519.02</ele>
        <time>2012-08-06T09:24:56Z</time>
      </trkpt>
      <trkpt lat="61.625251472" lon="8.61994586885">
        <ele>1517.58</ele>
        <time>2012-08-06T09:24:58Z</time>
      </trkpt>
      <trkpt lat="61.6253220476" lon="8.61981997266">
        <ele>1520.94</ele>
        <time>2012-08-06T09:25:11Z</time>
      </trkpt>
      <trkpt lat="61.6253274959" lon="8.61981812865">
        <ele>1520.94</ele>
        <time>2012-08-06T09:25:12Z</time>
      </trkpt>
      <trkpt lat="61.6253688186" lon="8.61975777894">
        <ele>1522.39</ele>
        <time>2012-08-06T09:25:21Z</time>
      </trkpt>
      <trkpt lat="61.6254132427" lon="8.61964127049">
        <ele>1523.83</ele>
        <time>2012-08-06T09:25:33Z</time>
      </trkpt>
      <trkpt lat="61.6254356224" lon="8.61960723996">
        <ele>1523.83</ele>
        <time>2012-08-06T09:25:37Z</time>
      </trkpt>
      <trkpt lat="61.6254613549" lon="8.61956298351">
        <ele>1524.79</ele>
        <time>2012-08-06T09:25:41Z</time>
      </trkpt>
      <trkpt lat="61.6254937928" lon="8.61950824969">
        <ele>1525.75</ele>
        <time>2012-08-06T09:25:46Z</time>
      </trkpt>
      <trkpt lat="61.6255168431" lon="8.61945527606">
        <ele>1525.75</ele>
        <time>2012-08-06T09:25:57Z</time>
      </trkpt>
      <trkpt lat="61.6255375464" lon="8.6194519233">
        <ele>1525.75</ele>
        <time>2012-08-06T09:26:27Z</time>
      </trkpt>
      <trkpt lat="61.6255425755" lon="8.6194536835">
        <ele>1525.75</ele>
        <time>2012-08-06T09:26:54Z</time>
      </trkpt>
      <trkpt lat="61.6255352832" lon="8.6194598861">
        <ele>1525.75</ele>
        <time>2012-08-06T09:27:24Z</time>
      </trkpt>
      <trkpt lat="61.6255481914" lon="8.61944102682">
        <ele>1525.75</ele>
        <time>2012-08-06T09:27:42Z</time>
      </trkpt>
      <trkpt lat="61.625565039" lon="8.61938847229">
        <ele>1526.71</ele>
        <time>2012-08-06T09:27:45Z</time>
      </trkpt>
      <trkpt lat="61.6255621891" lon="8.61934874207">
        <ele>1526.71</ele>
        <time>2012-08-06T09:27:48Z</time>
      </trkpt>
      <trkpt lat="61.6255787853" lon="8.61932502128">
        <ele>1526.71</ele>
        <time>2012-08-06T09:27:50Z</time>
      </trkpt>
      <trkpt lat="61.6256123129" lon="8.61930859275">
        <ele>1528.15</ele>
        <time>2012-08-06T09:27:55Z</time>
      </trkpt>
      <trkpt lat="61.6256641969" lon="8.61926903017">
        <ele>1527.67</ele>
        <time>2012-08-06T09:28:04Z</time>
      </trkpt>
      <trkpt lat="61.6257315874" lon="8.61918630078">
        <ele>1531.52</ele>
        <time>2012-08-06T09:28:16Z</time>
      </trkpt>
      <trkpt lat="61.6257527098" lon="8.61917716451">
        <ele>1532.48</ele>
        <time>2012-08-06T09:28:21Z</time>
      </trkpt>
      <trkpt lat="61.6257908475" lon="8.61914925277">
        <ele>1531.52</ele>
        <time>2012-08-06T09:28:25Z</time>
      </trkpt>
      <trkpt lat="61.6258184239" lon="8.61915218644">
        <ele>1532.96</ele>
        <time>2012-08-06T09:28:28Z</time>
      </trkpt>
      <trkpt lat="61.6258581541" lon="8.61910818145">
        <ele>1535.84</ele>
        <time>2012-08-06T09:28:36Z</time>
      </trkpt>
      <trkpt lat="61.6258651949" lon="8.61911186948">
        <ele>1533.44</ele>
        <time>2012-08-06T09:28:38Z</time>
      </trkpt>
      <trkpt lat="61.6258972976" lon="8.61909125">
        <ele>1537.29</ele>
        <time>2012-08-06T09:28:43Z</time>
      </trkpt>
      <trkpt lat="61.6259083617" lon="8.6191101931">
        <ele>1531.52</ele>
        <time>2012-08-06T09:28:47Z</time>
      </trkpt>
      <trkpt lat="61.6259095352" lon="8.61910952255">
        <ele>1537.77</ele>
        <time>2012-08-06T09:28:48Z</time>
      </trkpt>
      <trkpt lat="61.6259114631" lon="8.61910365522">
        <ele>1534.4</ele>
        <time>2012-08-06T09:28:49Z</time>
      </trkpt>
      <trkpt lat="61.6259271372" lon="8.619072726">
        <ele>1533.92</ele>
        <time>2012-08-06T09:28:55Z</time>
      </trkpt>
      <trkpt lat="61.6259667836" lon="8.61905738711">
        <ele>1535.84</ele>
        <time>2012-08-06T09:29:01Z</time>
      </trkpt>
      <trkpt lat="61.6260108724" lon="8.61909091473">
        <ele>1537.29</ele>
        <time>2012-08-06T09:29:15Z</time>
      </trkpt>
      <trkpt lat="61.6260247864" lon="8.61906627193">
        <ele>1537.77</ele>
        <time>2012-08-06T09:29:51Z</time>
      </trkpt>
      <trkpt lat="61.6261008102" lon="8.61900441349">
        <ele>1538.25</ele>
        <time>2012-08-06T09:30:02Z</time>
      </trkpt>
      <trkpt lat="61.6261487547" lon="8.61903525889">
        <ele>1544.01</ele>
        <time>2012-08-06T09:30:11Z</time>
      </trkpt>
      <trkpt lat="61.6261514369" lon="8.61904053949">
        <ele>1540.65</ele>
        <time>2012-08-06T09:30:13Z</time>
      </trkpt>
      <trkpt lat="61.6261474974" lon="8.61904766411">
        <ele>1540.65</ele>
        <time>2012-08-06T09:30:14Z</time>
      </trkpt>
      <trkpt lat="61.6261431389" lon="8.61903140321">
        <ele>1542.57</ele>
        <time>2012-08-06T09:30:33Z</time>
      </trkpt>
      <trkpt lat="61.6261868086" lon="8.6190260388">
        <ele>1542.57</ele>
        <time>2012-08-06T09:30:45Z</time>
      </trkpt>
      <trkpt lat="61.626202818" lon="8.61900927499">
        <ele>1542.57</ele>
        <time>2012-08-06T09:31:16Z</time>
      </trkpt>
      <trkpt lat="61.6262766626" lon="8.61901883036">
        <ele>1544.5</ele>
        <time>2012-08-06T09:31:28Z</time>
      </trkpt>
      <trkpt lat="61.6262811888" lon="8.6190225184">
        <ele>1543.53</ele>
        <time>2012-08-06T09:31:29Z</time>
      </trkpt>
      <trkpt lat="61.6263103578" lon="8.6190537829">
        <ele>1544.98</ele>
        <time>2012-08-06T09:31:33Z</time>
      </trkpt>
      <trkpt lat="61.6263474897" lon="8.61907021143">
        <ele>1545.94</ele>
        <time>2012-08-06T09:31:38Z</time>
      </trkpt>
      <trkpt lat="61.6263696179" lon="8.6190811079">
        <ele>1546.9</ele>
        <time>2012-08-06T09:31:41Z</time>
      </trkpt>
      <trkpt lat="61.6263905726" lon="8.61909418367">
        <ele>1546.9</ele>
        <time>2012-08-06T09:31:44Z</time>
      </trkpt>
      <trkpt lat="61.6264522634" lon="8.61915034242">
        <ele>1547.86</ele>
        <time>2012-08-06T09:31:51Z</time>
      </trkpt>
      <trkpt lat="61.6264781635" lon="8.61919116229">
        <ele>1548.34</ele>
        <time>2012-08-06T09:32:09Z</time>
      </trkpt>
      <trkpt lat="61.626482103" lon="8.61912846565">
        <ele>1548.82</ele>
        <time>2012-08-06T09:32:28Z</time>
      </trkpt>
      <trkpt lat="61.6265051533" lon="8.61913743429">
        <ele>1548.82</ele>
        <time>2012-08-06T09:32:50Z</time>
      </trkpt>
      <trkpt lat="61.6265380941" lon="8.61923332326">
        <ele>1549.78</ele>
        <time>2012-08-06T09:33:07Z</time>
      </trkpt>
      <trkpt lat="61.6265396867" lon="8.61927221529">
        <ele>1549.78</ele>
        <time>2012-08-06T09:33:24Z</time>
      </trkpt>
      <trkpt lat="61.6265456378" lon="8.61926668324">
        <ele>1548.82</ele>
        <time>2012-08-06T09:33:29Z</time>
      </trkpt>
      <trkpt lat="61.6265911516" lon="8.61926190555">
        <ele>1551.71</ele>
        <time>2012-08-06T09:33:38Z</time>
      </trkpt>
      <trkpt lat="61.6265985277" lon="8.61926224083">
        <ele>1549.3</ele>
        <time>2012-08-06T09:33:40Z</time>
      </trkpt>
      <trkpt lat="61.6266092565" lon="8.61926165409">
        <ele>1551.22</ele>
        <time>2012-08-06T09:33:45Z</time>
      </trkpt>
      <trkpt lat="61.6266066581" lon="8.61929694191">
        <ele>1563.24</ele>
        <time>2012-08-06T09:33:50Z</time>
      </trkpt>
      <trkpt lat="61.6265917383" lon="8.61933759414">
        <ele>1555.07</ele>
        <time>2012-08-06T09:33:51Z</time>
      </trkpt>
      <trkpt lat="61.6265848652" lon="8.61934706569">
        <ele>1551.22</ele>
        <time>2012-08-06T09:33:53Z</time>
      </trkpt>
      <trkpt lat="61.6265822668" lon="8.61937254667">
        <ele>1550.74</ele>
        <time>2012-08-06T09:34:14Z</time>
      </trkpt>
      <trkpt lat="61.6265888885" lon="8.6193651706">
        <ele>1551.22</ele>
        <time>2012-08-06T09:34:39Z</time>
      </trkpt>
      <trkpt lat="61.6265808418" lon="8.61937648617">
        <ele>1551.22</ele>
        <time>2012-08-06T09:34:59Z</time>
      </trkpt>
      <trkpt lat="61.6265905648" lon="8.61937372014">
        <ele>1543.53</ele>
        <time>2012-08-06T09:35:09Z</time>
      </trkpt>
      <trkpt lat="61.6265934985" lon="8.61937187612">
        <ele>1547.86</ele>
        <time>2012-08-06T09:35:10Z</time>
      </trkpt>
      <trkpt lat="61.6265969351" lon="8.61936919391">
        <ele>1551.71</ele>
        <time>2012-08-06T09:35:12Z</time>
      </trkpt>
      <trkpt lat="61.626597438" lon="8.6193669308">
        <ele>1551.22</ele>
        <time>2012-08-06T09:35:13Z</time>
      </trkpt>
      <trkpt lat="61.6266081668" lon="8.61930054612">
        <ele>1562.76</ele>
        <time>2012-08-06T09:35:38Z</time>
      </trkpt>
      <trkpt lat="61.6266601346" lon="8.61932770349">
        <ele>1552.67</ele>
        <time>2012-08-06T09:35:44Z</time>
      </trkpt>
      <trkpt lat="61.6266789101" lon="8.61937137321">
        <ele>1543.53</ele>
        <time>2012-08-06T09:35:50Z</time>
      </trkpt>
      <trkpt lat="61.6266797483" lon="8.61937372014">
        <ele>1551.71</ele>
        <time>2012-08-06T09:35:51Z</time>
      </trkpt>
      <trkpt lat="61.6266793292" lon="8.6193704512">
        <ele>1553.15</ele>
        <time>2012-08-06T09:35:53Z</time>
      </trkpt>
      <trkpt lat="61.6266791616" lon="8.61936659552">
        <ele>1559.4</ele>
        <time>2012-08-06T09:35:54Z</time>
      </trkpt>
      <trkpt lat="61.626681257" lon="8.61936919391">
        <ele>1557.95</ele>
        <time>2012-08-06T09:35:55Z</time>
      </trkpt>
      <trkpt lat="61.6266986076" lon="8.61939794384">
        <ele>1554.11</ele>
        <time>2012-08-06T09:35:58Z</time>
      </trkpt>
      <trkpt lat="61.6267072409" lon="8.61941638403">
        <ele>1554.11</ele>
        <time>2012-08-06T09:35:59Z</time>
      </trkpt>
      <trkpt lat="61.6266981885" lon="8.61940632574">
        <ele>1544.98</ele>
        <time>2012-08-06T09:36:10Z</time>
      </trkpt>
      <trkpt lat="61.6266972665" lon="8.61940213479">
        <ele>1550.74</ele>
        <time>2012-08-06T09:36:11Z</time>
      </trkpt>
      <trkpt lat="61.6266919859" lon="8.61939023249">
        <ele>1553.63</ele>
        <time>2012-08-06T09:36:13Z</time>
      </trkpt>
      <trkpt lat="61.6266849451" lon="8.61938394606">
        <ele>1561.8</ele>
        <time>2012-08-06T09:36:15Z</time>
      </trkpt>
      <trkpt lat="61.6266872082" lon="8.61938470043">
        <ele>1555.07</ele>
        <time>2012-08-06T09:36:16Z</time>
      </trkpt>
      <trkpt lat="61.6266824305" lon="8.61939450726">
        <ele>1554.11</ele>
        <time>2012-08-06T09:36:36Z</time>
      </trkpt>
      <trkpt lat="61.6266886331" lon="8.61943532713">
        <ele>1554.11</ele>
        <time>2012-08-06T09:37:02Z</time>
      </trkpt>
      <trkpt lat="61.6266934108" lon="8.61938335933">
        <ele>1554.11</ele>
        <time>2012-08-06T09:37:26Z</time>
      </trkpt>
      <trkpt lat="61.6266968474" lon="8.61938562244">
        <ele>1542.09</ele>
        <time>2012-08-06T09:37:27Z</time>
      </trkpt>
      <trkpt lat="61.6266992781" lon="8.61938738264">
        <ele>1553.63</ele>
        <time>2012-08-06T09:37:28Z</time>
      </trkpt>
      <trkpt lat="61.6267009545" lon="8.61938444898">
        <ele>1560.36</ele>
        <time>2012-08-06T09:37:30Z</time>
      </trkpt>
      <trkpt lat="61.6267001163" lon="8.61938042566">
        <ele>1559.88</ele>
        <time>2012-08-06T09:37:31Z</time>
      </trkpt>
      <trkpt lat="61.626698859" lon="8.61937472597">
        <ele>1554.59</ele>
        <time>2012-08-06T09:37:32Z</time>
      </trkpt>
      <trkpt lat="61.6266982723" lon="8.61938042566">
        <ele>1555.55</ele>
        <time>2012-08-06T09:37:33Z</time>
      </trkpt>
      <trkpt lat="61.6266895551" lon="8.61936835572">
        <ele>1554.59</ele>
        <time>2012-08-06T09:37:49Z</time>
      </trkpt>
      <trkpt lat="61.6266968474" lon="8.61937623471">
        <ele>1555.07</ele>
        <time>2012-08-06T09:38:19Z</time>
      </trkpt>
      <trkpt lat="61.6267079115" lon="8.6194413621">
        <ele>1555.07</ele>
        <time>2012-08-06T09:38:33Z</time>
      </trkpt>
      <trkpt lat="61.6267467197" lon="8.61944496632">
        <ele>1556.51</ele>
        <time>2012-08-06T09:38:42Z</time>
      </trkpt>
      <trkpt lat="61.6267548501" lon="8.61948017031">
        <ele>1556.99</ele>
        <time>2012-08-06T09:38:57Z</time>
      </trkpt>
      <trkpt lat="61.6267951671" lon="8.61958527938">
        <ele>1557.47</ele>
        <time>2012-08-06T09:39:12Z</time>
      </trkpt>
      <trkpt lat="61.6267609689" lon="8.61959919333">
        <ele>1558.43</ele>
        <time>2012-08-06T09:39:37Z</time>
      </trkpt>
      <trkpt lat="61.6267562751" lon="8.61959047616">
        <ele>1558.43</ele>
        <time>2012-08-06T09:40:07Z</time>
      </trkpt>
      <trkpt lat="61.6267802473" lon="8.61959718168">
        <ele>1557.95</ele>
        <time>2012-08-06T09:40:24Z</time>
      </trkpt>
      <trkpt lat="61.626811428" lon="8.61959190108">
        <ele>1558.92</ele>
        <time>2012-08-06T09:40:52Z</time>
      </trkpt>
      <trkpt lat="61.6268084105" lon="8.61960573122">
        <ele>1558.92</ele>
        <time>2012-08-06T09:41:15Z</time>
      </trkpt>
      <trkpt lat="61.6268048063" lon="8.61962073483">
        <ele>1558.92</ele>
        <time>2012-08-06T09:41:44Z</time>
      </trkpt>
      <trkpt lat="61.626834562" lon="8.61959617585">
        <ele>1559.88</ele>
        <time>2012-08-06T09:42:05Z</time>
      </trkpt>
      <trkpt lat="61.626843363" lon="8.61958896741">
        <ele>1559.88</ele>
        <time>2012-08-06T09:42:07Z</time>
      </trkpt>
      <trkpt lat="61.626911927" lon="8.61963850446">
        <ele>1562.76</ele>
        <time>2012-08-06T09:42:19Z</time>
      </trkpt>
      <trkpt lat="61.6269546747" lon="8.61963179894">
        <ele>1562.76</ele>
        <time>2012-08-06T09:42:26Z</time>
      </trkpt>
      <trkpt lat="61.6270519886" lon="8.61968066543">
        <ele>1566.12</ele>
        <time>2012-08-06T09:42:40Z</time>
      </trkpt>
      <trkpt lat="61.6271370649" lon="8.61968133599">
        <ele>1567.57</ele>
        <time>2012-08-06T09:42:52Z</time>
      </trkpt>
      <trkpt lat="61.6271669883" lon="8.61970203929">
        <ele>1570.45</ele>
        <time>2012-08-06T09:42:59Z</time>
      </trkpt>
      <trkpt lat="61.6271763761" lon="8.61970212311">
        <ele>1570.45</ele>
        <time>2012-08-06T09:43:00Z</time>
      </trkpt>
      <trkpt lat="61.6272582673" lon="8.61971285194">
        <ele>1573.33</ele>
        <time>2012-08-06T09:43:14Z</time>
      </trkpt>
      <trkpt lat="61.6272629611" lon="8.61971519887">
        <ele>1572.85</ele>
        <time>2012-08-06T09:43:15Z</time>
      </trkpt>
      <trkpt lat="61.6272783" lon="8.61982617527">
        <ele>1573.82</ele>
        <time>2012-08-06T09:43:27Z</time>
      </trkpt>
      <trkpt lat="61.6272980813" lon="8.61982692964">
        <ele>1574.3</ele>
        <time>2012-08-06T09:43:42Z</time>
      </trkpt>
      <trkpt lat="61.6272925492" lon="8.61981921829">
        <ele>1573.82</ele>
        <time>2012-08-06T09:44:08Z</time>
      </trkpt>
      <trkpt lat="61.6272851732" lon="8.6198342219">
        <ele>1573.82</ele>
        <time>2012-08-06T09:44:33Z</time>
      </trkpt>
      <trkpt lat="61.6272439342" lon="8.61987294629">
        <ele>1573.33</ele>
        <time>2012-08-06T09:44:58Z</time>
      </trkpt>
      <trkpt lat="61.6272302717" lon="8.61985878088">
        <ele>1573.82</ele>
        <time>2012-08-06T09:45:24Z</time>
      </trkpt>
      <trkpt lat="61.6273531504" lon="8.61988501623">
        <ele>1577.18</ele>
        <time>2012-08-06T09:45:43Z</time>
      </trkpt>
      <trkpt lat="61.627352396" lon="8.6198773887">
        <ele>1573.82</ele>
        <time>2012-08-06T09:45:46Z</time>
      </trkpt>
      <trkpt lat="61.6274352092" lon="8.619906893">
        <ele>1577.18</ele>
        <time>2012-08-06T09:45:59Z</time>
      </trkpt>
      <trkpt lat="61.6274948884" lon="8.61995316111">
        <ele>1579.58</ele>
        <time>2012-08-06T09:46:08Z</time>
      </trkpt>
      <trkpt lat="61.6275125742" lon="8.61998685636">
        <ele>1580.06</ele>
        <time>2012-08-06T09:46:11Z</time>
      </trkpt>
      <trkpt lat="61.6275383905" lon="8.61998107284">
        <ele>1581.51</ele>
        <time>2012-08-06T09:46:14Z</time>
      </trkpt>
      <trkpt lat="61.627579378" lon="8.62002935261">
        <ele>1581.99</ele>
        <time>2012-08-06T09:46:27Z</time>
      </trkpt>
      <trkpt lat="61.6276090499" lon="8.62007796764">
        <ele>1581.51</ele>
        <time>2012-08-06T09:46:51Z</time>
      </trkpt>
      <trkpt lat="61.6276212037" lon="8.62002599984">
        <ele>1582.47</ele>
        <time>2012-08-06T09:47:18Z</time>
      </trkpt>
      <trkpt lat="61.627688678" lon="8.6200090684">
        <ele>1582.95</ele>
        <time>2012-08-06T09:47:30Z</time>
      </trkpt>
      <trkpt lat="61.6276841518" lon="8.62002742477">
        <ele>1583.43</ele>
        <time>2012-08-06T09:47:43Z</time>
      </trkpt>
      <trkpt lat="61.6276916116" lon="8.61993664876">
        <ele>1584.87</ele>
        <time>2012-08-06T09:48:01Z</time>
      </trkpt>
      <trkpt lat="61.6277173441" lon="8.61983874813">
        <ele>1584.87</ele>
        <time>2012-08-06T09:48:08Z</time>
      </trkpt>
      <trkpt lat="61.627784064" lon="8.61979206093">
        <ele>1583.91</ele>
        <time>2012-08-06T09:48:17Z</time>
      </trkpt>
      <trkpt lat="61.6278394684" lon="8.61991167068">
        <ele>1585.35</ele>
        <time>2012-08-06T09:48:26Z</time>
      </trkpt>
      <trkpt lat="61.6278514545" lon="8.61992768012">
        <ele>1586.79</ele>
        <time>2012-08-06T09:48:28Z</time>
      </trkpt>
      <trkpt lat="61.6279328428" lon="8.61998224631">
        <ele>1588.24</ele>
        <time>2012-08-06T09:48:42Z</time>
      </trkpt>
      <trkpt lat="61.6280222777" lon="8.61999808811">
        <ele>1588.72</ele>
        <time>2012-08-06T09:48:55Z</time>
      </trkpt>
      <trkpt lat="61.6280979663" lon="8.61999649554">
        <ele>1589.68</ele>
        <time>2012-08-06T09:49:04Z</time>
      </trkpt>
      <trkpt lat="61.6281150654" lon="8.61999800429">
        <ele>1591.6</ele>
        <time>2012-08-06T09:49:06Z</time>
      </trkpt>
      <trkpt lat="61.628120346" lon="8.61999590881">
        <ele>1592.08</ele>
        <time>2012-08-06T09:49:07Z</time>
      </trkpt>
      <trkpt lat="61.6281418875" lon="8.61999490298">
        <ele>1589.2</ele>
        <time>2012-08-06T09:49:09Z</time>
      </trkpt>
      <trkpt lat="61.6281532031" lon="8.61999733374">
        <ele>1593.04</ele>
        <time>2012-08-06T09:49:10Z</time>
      </trkpt>
      <trkpt lat="61.6281584837" lon="8.61999666318">
        <ele>1592.56</ele>
        <time>2012-08-06T09:49:11Z</time>
      </trkpt>
      <trkpt lat="61.6282219347" lon="8.62003563903">
        <ele>1591.12</ele>
        <time>2012-08-06T09:49:23Z</time>
      </trkpt>
      <trkpt lat="61.6282283887" lon="8.6200399138">
        <ele>1595.45</ele>
        <time>2012-08-06T09:49:24Z</time>
      </trkpt>
      <trkpt lat="61.628297288" lon="8.62010336481">
        <ele>1595.93</ele>
        <time>2012-08-06T09:49:36Z</time>
      </trkpt>
      <trkpt lat="61.6283103637" lon="8.6201438494">
        <ele>1595.93</ele>
        <time>2012-08-06T09:49:53Z</time>
      </trkpt>
      <trkpt lat="61.6283112857" lon="8.62013043836">
        <ele>1595.45</ele>
        <time>2012-08-06T09:50:25Z</time>
      </trkpt>
      <trkpt lat="61.628300054" lon="8.62015893683">
        <ele>1595.45</ele>
        <time>2012-08-06T09:50:58Z</time>
      </trkpt>
      <trkpt lat="61.6283130459" lon="8.62013219856">
        <ele>1592.08</ele>
        <time>2012-08-06T09:51:13Z</time>
      </trkpt>
      <trkpt lat="61.6283314023" lon="8.6201284267">
        <ele>1598.81</ele>
        <time>2012-08-06T09:51:15Z</time>
      </trkpt>
      <trkpt lat="61.6283359285" lon="8.62013429403">
        <ele>1596.41</ele>
        <time>2012-08-06T09:51:16Z</time>
      </trkpt>
      <trkpt lat="61.62837415" lon="8.62015030347">
        <ele>1596.89</ele>
        <time>2012-08-06T09:51:23Z</time>
      </trkpt>
      <trkpt lat="61.6284619924" lon="8.62017561682">
        <ele>1598.81</ele>
        <time>2012-08-06T09:51:34Z</time>
      </trkpt>
      <trkpt lat="61.6285583004" lon="8.62024066038">
        <ele>1600.25</ele>
        <time>2012-08-06T09:51:46Z</time>
      </trkpt>
      <trkpt lat="61.6285770759" lon="8.62024342641">
        <ele>1602.17</ele>
        <time>2012-08-06T09:51:48Z</time>
      </trkpt>
      <trkpt lat="61.628610855" lon="8.62016916275">
        <ele>1603.62</ele>
        <time>2012-08-06T09:51:56Z</time>
      </trkpt>
      <trkpt lat="61.6286343243" lon="8.62012901343">
        <ele>1605.06</ele>
        <time>2012-08-06T09:52:00Z</time>
      </trkpt>
      <trkpt lat="61.6286676843" lon="8.62011727877">
        <ele>1604.58</ele>
        <time>2012-08-06T09:52:04Z</time>
      </trkpt>
      <trkpt lat="61.6287459712" lon="8.6201565899">
        <ele>1606.5</ele>
        <time>2012-08-06T09:52:17Z</time>
      </trkpt>
      <trkpt lat="61.6287639085" lon="8.62017503008">
        <ele>1606.5</ele>
        <time>2012-08-06T09:52:30Z</time>
      </trkpt>
      <trkpt lat="61.6287855338" lon="8.62016555853">
        <ele>1607.46</ele>
        <time>2012-08-06T09:52:34Z</time>
      </trkpt>
      <trkpt lat="61.6288315505" lon="8.62014963292">
        <ele>1609.38</ele>
        <time>2012-08-06T09:52:39Z</time>
      </trkpt>
      <trkpt lat="61.6288605519" lon="8.62010822631">
        <ele>1606.98</ele>
        <time>2012-08-06T09:52:44Z</time>
      </trkpt>
      <trkpt lat="61.6288778186" lon="8.62009556964">
        <ele>1609.38</ele>
        <time>2012-08-06T09:52:46Z</time>
      </trkpt>
      <trkpt lat="61.6289204825" lon="8.62006883137">
        <ele>1610.83</ele>
        <time>2012-08-06T09:52:52Z</time>
      </trkpt>
      <trkpt lat="61.6289628111" lon="8.62006522715">
        <ele>1611.31</ele>
        <time>2012-08-06T09:52:58Z</time>
      </trkpt>
      <trkpt lat="61.6289861128" lon="8.62007754855">
        <ele>1615.63</ele>
        <time>2012-08-06T09:53:01Z</time>
      </trkpt>
      <trkpt lat="61.6289936565" lon="8.62008819357">
        <ele>1612.27</ele>
        <time>2012-08-06T09:53:02Z</time>
      </trkpt>
      <trkpt lat="61.6290421877" lon="8.62009422854">
        <ele>1613.71</ele>
        <time>2012-08-06T09:53:09Z</time>
      </trkpt>
      <trkpt lat="61.6290668305" lon="8.62007059157">
        <ele>1610.83</ele>
        <time>2012-08-06T09:53:12Z</time>
      </trkpt>
      <trkpt lat="61.6290730331" lon="8.6200694181">
        <ele>1618.52</ele>
        <time>2012-08-06T09:53:13Z</time>
      </trkpt>
      <trkpt lat="61.6291336343" lon="8.62014628015">
        <ele>1616.11</ele>
        <time>2012-08-06T09:53:24Z</time>
      </trkpt>
      <trkpt lat="61.629141178" lon="8.62006841227">
        <ele>1617.07</ele>
        <time>2012-08-06T09:53:29Z</time>
      </trkpt>
      <trkpt lat="61.6291690897" lon="8.62004125491">
        <ele>1619</ele>
        <time>2012-08-06T09:53:34Z</time>
      </trkpt>
      <trkpt lat="61.6291924752" lon="8.62003823742">
        <ele>1619.48</ele>
        <time>2012-08-06T09:53:39Z</time>
      </trkpt>
      <trkpt lat="61.6292255837" lon="8.62005332485">
        <ele>1619.96</ele>
        <time>2012-08-06T09:53:43Z</time>
      </trkpt>
      <trkpt lat="61.6292932257" lon="8.62001971342">
        <ele>1619.96</ele>
        <time>2012-08-06T09:53:54Z</time>
      </trkpt>
      <trkpt lat="61.629306972" lon="8.62001803704">
        <ele>1622.84</ele>
        <time>2012-08-06T09:53:56Z</time>
      </trkpt>
      <trkpt lat="61.6293177847" lon="8.62000336871">
        <ele>1623.32</ele>
        <time>2012-08-06T09:53:59Z</time>
      </trkpt>
      <trkpt lat="61.629336644" lon="8.61997101456">
        <ele>1622.84</ele>
        <time>2012-08-06T09:54:03Z</time>
      </trkpt>
      <trkpt lat="61.629370423" lon="8.61996657215">
        <ele>1623.8</ele>
        <time>2012-08-06T09:54:08Z</time>
      </trkpt>
      <trkpt lat="61.6294008493" lon="8.6199315358">
        <ele>1626.69</ele>
        <time>2012-08-06T09:54:13Z</time>
      </trkpt>
      <trkpt lat="61.6294072196" lon="8.61992172897">
        <ele>1626.21</ele>
        <time>2012-08-06T09:54:14Z</time>
      </trkpt>
      <trkpt lat="61.6294444352" lon="8.61992214806">
        <ele>1627.17</ele>
        <time>2012-08-06T09:54:19Z</time>
      </trkpt>
      <trkpt lat="61.6295013484" lon="8.61986204982">
        <ele>1631.49</ele>
        <time>2012-08-06T09:54:30Z</time>
      </trkpt>
      <trkpt lat="61.6295062099" lon="8.61985559575">
        <ele>1630.05</ele>
        <time>2012-08-06T09:54:31Z</time>
      </trkpt>
      <trkpt lat="61.6295465268" lon="8.61978384666">
        <ele>1631.49</ele>
        <time>2012-08-06T09:54:39Z</time>
      </trkpt>
      <trkpt lat="61.6295601893" lon="8.61975551583">
        <ele>1633.42</ele>
        <time>2012-08-06T09:54:41Z</time>
      </trkpt>
      <trkpt lat="61.6295730975" lon="8.61974168569">
        <ele>1631.01</ele>
        <time>2012-08-06T09:54:43Z</time>
      </trkpt>
      <trkpt lat="61.6295917053" lon="8.61972492188">
        <ele>1632.46</ele>
        <time>2012-08-06T09:54:45Z</time>
      </trkpt>
      <trkpt lat="61.6296114866" lon="8.61967630684">
        <ele>1632.46</ele>
        <time>2012-08-06T09:54:50Z</time>
      </trkpt>
      <trkpt lat="61.6296237241" lon="8.6196488142">
        <ele>1635.34</ele>
        <time>2012-08-06T09:54:52Z</time>
      </trkpt>
      <trkpt lat="61.6296279989" lon="8.61963129602">
        <ele>1633.9</ele>
        <time>2012-08-06T09:54:53Z</time>
      </trkpt>
      <trkpt lat="61.6296493728" lon="8.61957874149">
        <ele>1634.86</ele>
        <time>2012-08-06T09:54:58Z</time>
      </trkpt>
      <trkpt lat="61.6296523064" lon="8.61957639456">
        <ele>1634.86</ele>
        <time>2012-08-06T09:54:59Z</time>
      </trkpt>
      <trkpt lat="61.6297144163" lon="8.61957865767">
        <ele>1636.78</ele>
        <time>2012-08-06T09:55:10Z</time>
      </trkpt>
      <trkpt lat="61.6297588404" lon="8.61956046894">
        <ele>1636.3</ele>
        <time>2012-08-06T09:55:19Z</time>
      </trkpt>
      <trkpt lat="61.6297643725" lon="8.61955644563">
        <ele>1641.59</ele>
        <time>2012-08-06T09:55:20Z</time>
      </trkpt>
      <trkpt lat="61.629770156" lon="8.61954982392">
        <ele>1638.22</ele>
        <time>2012-08-06T09:55:21Z</time>
      </trkpt>
      <trkpt lat="61.629776191" lon="8.61954077147">
        <ele>1640.15</ele>
        <time>2012-08-06T09:55:22Z</time>
      </trkpt>
      <trkpt lat="61.6297916975" lon="8.61947212368">
        <ele>1639.19</ele>
        <time>2012-08-06T09:55:38Z</time>
      </trkpt>
      <trkpt lat="61.6297846567" lon="8.61943884753">
        <ele>1638.7</ele>
        <time>2012-08-06T09:55:57Z</time>
      </trkpt>
      <trkpt lat="61.6297755204" lon="8.61939568073">
        <ele>1638.22</ele>
        <time>2012-08-06T09:56:00Z</time>
      </trkpt>
      <trkpt lat="61.6297512967" lon="8.61918688752">
        <ele>1637.74</ele>
        <time>2012-08-06T09:56:15Z</time>
      </trkpt>
      <trkpt lat="61.6297452617" lon="8.61921295524">
        <ele>1637.26</ele>
        <time>2012-08-06T09:56:46Z</time>
      </trkpt>
      <trkpt lat="61.6297487821" lon="8.61919040792">
        <ele>1637.74</ele>
        <time>2012-08-06T09:56:58Z</time>
      </trkpt>
      <trkpt lat="61.6297582537" lon="8.61919853836">
        <ele>1637.74</ele>
        <time>2012-08-06T09:57:23Z</time>
      </trkpt>
      <trkpt lat="61.6297611874" lon="8.6191969458">
        <ele>1637.74</ele>
        <time>2012-08-06T09:57:58Z</time>
      </trkpt>
      <trkpt lat="61.6297581699" lon="8.61917783506">
        <ele>1637.74</ele>
        <time>2012-08-06T09:58:34Z</time>
      </trkpt>
      <trkpt lat="61.6297572479" lon="8.61918470822">
        <ele>1638.22</ele>
        <time>2012-08-06T09:59:08Z</time>
      </trkpt>
      <trkpt lat="61.6297606844" lon="8.61919292249">
        <ele>1638.22</ele>
        <time>2012-08-06T09:59:34Z</time>
      </trkpt>
      <trkpt lat="61.629765965" lon="8.61917599104">
        <ele>1636.3</ele>
        <time>2012-08-06T09:59:41Z</time>
      </trkpt>
      <trkpt lat="61.6297927033" lon="8.61917054281">
        <ele>1639.19</ele>
        <time>2012-08-06T09:59:57Z</time>
      </trkpt>
      <trkpt lat="61.6298054438" lon="8.61913852394">
        <ele>1638.22</ele>
        <time>2012-08-06T10:00:21Z</time>
      </trkpt>
      <trkpt lat="61.6298179328" lon="8.61916174181">
        <ele>1642.07</ele>
        <time>2012-08-06T10:00:24Z</time>
      </trkpt>
      <trkpt lat="61.6298254766" lon="8.61916090362">
        <ele>1639.19</ele>
        <time>2012-08-06T10:00:26Z</time>
      </trkpt>
      <trkpt lat="61.6298413184" lon="8.6191291362">
        <ele>1642.07</ele>
        <time>2012-08-06T10:00:29Z</time>
      </trkpt>
      <trkpt lat="61.6298918612" lon="8.61909066327">
        <ele>1643.03</ele>
        <time>2012-08-06T10:00:41Z</time>
      </trkpt>
      <trkpt lat="61.6299077868" lon="8.61907633021">
        <ele>1643.03</ele>
        <time>2012-08-06T10:01:01Z</time>
      </trkpt>
      <trkpt lat="61.6299205273" lon="8.6190533638">
        <ele>1644.47</ele>
        <time>2012-08-06T10:01:04Z</time>
      </trkpt>
      <trkpt lat="61.6299419012" lon="8.61903685145">
        <ele>1644.47</ele>
        <time>2012-08-06T10:01:07Z</time>
      </trkpt>
      <trkpt lat="61.6299749259" lon="8.61906057224">
        <ele>1645.43</ele>
        <time>2012-08-06T10:01:21Z</time>
      </trkpt>
      <trkpt lat="61.6299916897" lon="8.61907825805">
        <ele>1644.95</ele>
        <time>2012-08-06T10:01:40Z</time>
      </trkpt>
      <trkpt lat="61.630014237" lon="8.61904749647">
        <ele>1645.43</ele>
        <time>2012-08-06T10:01:44Z</time>
      </trkpt>
      <trkpt lat="61.6300439928" lon="8.61903358251">
        <ele>1646.88</ele>
        <time>2012-08-06T10:01:47Z</time>
      </trkpt>
      <trkpt lat="61.6300489381" lon="8.61902813427">
        <ele>1647.36</ele>
        <time>2012-08-06T10:01:48Z</time>
      </trkpt>
      <trkpt lat="61.6300753411" lon="8.61900332384">
        <ele>1647.84</ele>
        <time>2012-08-06T10:01:52Z</time>
      </trkpt>
      <trkpt lat="61.6301007383" lon="8.6190018151">
        <ele>1648.8</ele>
        <time>2012-08-06T10:01:56Z</time>
      </trkpt>
      <trkpt lat="61.6301291529" lon="8.61891372129">
        <ele>1650.24</ele>
        <time>2012-08-06T10:02:04Z</time>
      </trkpt>
      <trkpt lat="61.6301384568" lon="8.61887474544">
        <ele>1652.64</ele>
        <time>2012-08-06T10:02:06Z</time>
      </trkpt>
      <trkpt lat="61.6301783547" lon="8.61885974184">
        <ele>1651.2</ele>
        <time>2012-08-06T10:02:12Z</time>
      </trkpt>
      <trkpt lat="61.6302143969" lon="8.61886904575">
        <ele>1653.12</ele>
        <time>2012-08-06T10:02:22Z</time>
      </trkpt>
      <trkpt lat="61.6302498523" lon="8.61868908629">
        <ele>1654.57</ele>
        <time>2012-08-06T10:02:33Z</time>
      </trkpt>
      <trkpt lat="61.6302993055" lon="8.61871565692">
        <ele>1654.09</ele>
        <time>2012-08-06T10:02:39Z</time>
      </trkpt>
      <trkpt lat="61.6303161532" lon="8.61870199442">
        <ele>1654.09</ele>
        <time>2012-08-06T10:02:43Z</time>
      </trkpt>
      <trkpt lat="61.63036393" lon="8.61864910461">
        <ele>1655.05</ele>
        <time>2012-08-06T10:02:53Z</time>
      </trkpt>
      <trkpt lat="61.6303880699" lon="8.61860216595">
        <ele>1657.93</ele>
        <time>2012-08-06T10:03:01Z</time>
      </trkpt>
      <trkpt lat="61.6303877346" lon="8.61860007048">
        <ele>1654.09</ele>
        <time>2012-08-06T10:03:02Z</time>
      </trkpt>
      <trkpt lat="61.6303890757" lon="8.61859529279">
        <ele>1659.37</ele>
        <time>2012-08-06T10:03:03Z</time>
      </trkpt>
      <trkpt lat="61.6303926799" lon="8.61855505966">
        <ele>1656.01</ele>
        <time>2012-08-06T10:03:08Z</time>
      </trkpt>
      <trkpt lat="61.6304220166" lon="8.61855732277">
        <ele>1659.85</ele>
        <time>2012-08-06T10:03:18Z</time>
      </trkpt>
      <trkpt lat="61.6304493416" lon="8.61851759255">
        <ele>1660.81</ele>
        <time>2012-08-06T10:03:27Z</time>
      </trkpt>
      <trkpt lat="61.6304507665" lon="8.61850912683">
        <ele>1657.45</ele>
        <time>2012-08-06T10:03:28Z</time>
      </trkpt>
      <trkpt lat="61.6304522753" lon="8.61850099638">
        <ele>1663.22</ele>
        <time>2012-08-06T10:03:29Z</time>
      </trkpt>
      <trkpt lat="61.6304713022" lon="8.61845833249">
        <ele>1659.85</ele>
        <time>2012-08-06T10:03:36Z</time>
      </trkpt>
      <trkpt lat="61.6305050813" lon="8.61839773133">
        <ele>1663.7</ele>
        <time>2012-08-06T10:03:44Z</time>
      </trkpt>
      <trkpt lat="61.6305116192" lon="8.61835875548">
        <ele>1663.22</ele>
        <time>2012-08-06T10:03:48Z</time>
      </trkpt>
      <trkpt lat="61.6305958573" lon="8.6182953883">
        <ele>1663.7</ele>
        <time>2012-08-06T10:04:00Z</time>
      </trkpt>
      <trkpt lat="61.6306205001" lon="8.61829563975">
        <ele>1665.62</ele>
        <time>2012-08-06T10:04:05Z</time>
      </trkpt>
      <trkpt lat="61.6306769103" lon="8.61826806329">
        <ele>1668.02</ele>
        <time>2012-08-06T10:04:16Z</time>
      </trkpt>
      <trkpt lat="61.6306764074" lon="8.61824316904">
        <ele>1668.02</ele>
        <time>2012-08-06T10:04:18Z</time>
      </trkpt>
      <trkpt lat="61.6307115275" lon="8.61817527562">
        <ele>1668.51</ele>
        <time>2012-08-06T10:04:25Z</time>
      </trkpt>
      <trkpt lat="61.6307679377" lon="8.61816035584">
        <ele>1668.51</ele>
        <time>2012-08-06T10:04:32Z</time>
      </trkpt>
      <trkpt lat="61.6308202408" lon="8.61805683933">
        <ele>1669.47</ele>
        <time>2012-08-06T10:04:43Z</time>
      </trkpt>
      <trkpt lat="61.6308899783" lon="8.6179492157">
        <ele>1671.39</ele>
        <time>2012-08-06T10:04:55Z</time>
      </trkpt>
      <trkpt lat="61.6309055686" lon="8.61791258678">
        <ele>1669.47</ele>
        <time>2012-08-06T10:04:58Z</time>
      </trkpt>
      <trkpt lat="61.6309614759" lon="8.61783606">
        <ele>1672.35</ele>
        <time>2012-08-06T10:05:06Z</time>
      </trkpt>
      <trkpt lat="61.6309867892" lon="8.61775542609">
        <ele>1672.83</ele>
        <time>2012-08-06T10:05:11Z</time>
      </trkpt>
      <trkpt lat="61.6310080793" lon="8.617728604">
        <ele>1671.87</ele>
        <time>2012-08-06T10:05:13Z</time>
      </trkpt>
      <trkpt lat="61.6310506593" lon="8.6177167017">
        <ele>1671.87</ele>
        <time>2012-08-06T10:05:18Z</time>
      </trkpt>
      <trkpt lat="61.6310762241" lon="8.61767688766">
        <ele>1673.79</ele>
        <time>2012-08-06T10:05:23Z</time>
      </trkpt>
      <trkpt lat="61.6311319638" lon="8.6177620478">
        <ele>1676.68</ele>
        <time>2012-08-06T10:05:32Z</time>
      </trkpt>
      <trkpt lat="61.6311520804" lon="8.61773338169">
        <ele>1676.2</ele>
        <time>2012-08-06T10:05:37Z</time>
      </trkpt>
      <trkpt lat="61.631209664" lon="8.61777185462">
        <ele>1679.08</ele>
        <time>2012-08-06T10:05:48Z</time>
      </trkpt>
      <trkpt lat="61.6312210634" lon="8.6177585274">
        <ele>1679.08</ele>
        <time>2012-08-06T10:05:50Z</time>
      </trkpt>
      <trkpt lat="61.6312562674" lon="8.61774469726">
        <ele>1678.6</ele>
        <time>2012-08-06T10:05:54Z</time>
      </trkpt>
      <trkpt lat="61.63129122" lon="8.61771116965">
        <ele>1681.96</ele>
        <time>2012-08-06T10:06:02Z</time>
      </trkpt>
      <trkpt lat="61.6313113365" lon="8.61771200784">
        <ele>1681.48</ele>
        <time>2012-08-06T10:06:05Z</time>
      </trkpt>
      <trkpt lat="61.6313299444" lon="8.61770446412">
        <ele>1681.96</ele>
        <time>2012-08-06T10:06:08Z</time>
      </trkpt>
      <trkpt lat="61.6313494742" lon="8.61771175638">
        <ele>1681.48</ele>
        <time>2012-08-06T10:06:12Z</time>
      </trkpt>
      <trkpt lat="61.6313679982" lon="8.61771058291">
        <ele>1682.93</ele>
        <time>2012-08-06T10:06:14Z</time>
      </trkpt>
      <trkpt lat="61.6314135958" lon="8.61771242693">
        <ele>1683.89</ele>
        <time>2012-08-06T10:06:24Z</time>
      </trkpt>
      <trkpt lat="61.631462127" lon="8.61767906696">
        <ele>1687.25</ele>
        <time>2012-08-06T10:06:34Z</time>
      </trkpt>
      <trkpt lat="61.6314988397" lon="8.61765501089">
        <ele>1688.69</ele>
        <time>2012-08-06T10:06:43Z</time>
      </trkpt>
      <trkpt lat="61.6315234825" lon="8.61764159985">
        <ele>1689.17</ele>
        <time>2012-08-06T10:06:48Z</time>
      </trkpt>
      <trkpt lat="61.6315285116" lon="8.61764118075">
        <ele>1687.73</ele>
        <time>2012-08-06T10:06:52Z</time>
      </trkpt>
      <trkpt lat="61.6315405816" lon="8.61761310138">
        <ele>1689.17</ele>
        <time>2012-08-06T10:06:54Z</time>
      </trkpt>
      <trkpt lat="61.6315709241" lon="8.61764947884">
        <ele>1690.62</ele>
        <time>2012-08-06T10:07:06Z</time>
      </trkpt>
      <trkpt lat="61.6315994225" lon="8.61770463176">
        <ele>1692.54</ele>
        <time>2012-08-06T10:07:13Z</time>
      </trkpt>
      <trkpt lat="61.6315943096" lon="8.61769901589">
        <ele>1692.54</ele>
        <time>2012-08-06T10:07:28Z</time>
      </trkpt>
      <trkpt lat="61.6315678228" lon="8.61767319962">
        <ele>1692.54</ele>
        <time>2012-08-06T10:07:41Z</time>
      </trkpt>
      <trkpt lat="61.6315741092" lon="8.61767923459">
        <ele>1692.06</ele>
        <time>2012-08-06T10:07:55Z</time>
      </trkpt>
      <trkpt lat="61.6315814853" lon="8.61773589626">
        <ele>1693.02</ele>
        <time>2012-08-06T10:08:09Z</time>
      </trkpt>
      <trkpt lat="61.6315745283" lon="8.61770245247">
        <ele>1693.02</ele>
        <time>2012-08-06T10:08:33Z</time>
      </trkpt>
      <trkpt lat="61.6315795574" lon="8.61775618047">
        <ele>1693.98</ele>
        <time>2012-08-06T10:08:59Z</time>
      </trkpt>
      <trkpt lat="61.6315835807" lon="8.61773908138">
        <ele>1692.54</ele>
        <time>2012-08-06T10:09:26Z</time>
      </trkpt>
      <trkpt lat="61.6315777972" lon="8.61773405224">
        <ele>1693.02</ele>
        <time>2012-08-06T10:09:58Z</time>
      </trkpt>
      <trkpt lat="61.6315778811" lon="8.61773153767">
        <ele>1692.54</ele>
        <time>2012-08-06T10:10:26Z</time>
      </trkpt>
      <trkpt lat="61.6315776296" lon="8.61773866229">
        <ele>1693.02</ele>
        <time>2012-08-06T10:11:04Z</time>
      </trkpt>
      <trkpt lat="61.6315834131" lon="8.61772608943">
        <ele>1693.02</ele>
        <time>2012-08-06T10:11:24Z</time>
      </trkpt>
      <trkpt lat="61.6315830778" lon="8.61773690209">
        <ele>1693.02</ele>
        <time>2012-08-06T10:11:47Z</time>
      </trkpt>
      <trkpt lat="61.6315788031" lon="8.61773204058">
        <ele>1693.02</ele>
        <time>2012-08-06T10:12:14Z</time>
      </trkpt>
      <trkpt lat="61.6315855924" lon="8.6177466251">
        <ele>1693.02</ele>
        <time>2012-08-06T10:12:39Z</time>
      </trkpt>
      <trkpt lat="61.6315834131" lon="8.61774193123">
        <ele>1693.5</ele>
        <time>2012-08-06T10:13:02Z</time>
      </trkpt>
      <trkpt lat="61.6316045355" lon="8.61775073223">
        <ele>1693.5</ele>
        <time>2012-08-06T10:13:23Z</time>
      </trkpt>
      <trkpt lat="61.6316346265" lon="8.61765040085">
        <ele>1693.5</ele>
        <time>2012-08-06T10:13:35Z</time>
      </trkpt>
      <trkpt lat="61.6316358838" lon="8.61762902699">
        <ele>1693.5</ele>
        <time>2012-08-06T10:13:39Z</time>
      </trkpt>
      <trkpt lat="61.6316951439" lon="8.6176422704">
        <ele>1694.46</ele>
        <time>2012-08-06T10:13:48Z</time>
      </trkpt>
      <trkpt lat="61.6317732632" lon="8.61760186963">
        <ele>1696.38</ele>
        <time>2012-08-06T10:13:59Z</time>
      </trkpt>
      <trkpt lat="61.6317824833" lon="8.61760346219">
        <ele>1693.02</ele>
        <time>2012-08-06T10:14:01Z</time>
      </trkpt>
      <trkpt lat="61.6318274941" lon="8.61761854962">
        <ele>1693.98</ele>
        <time>2012-08-06T10:14:10Z</time>
      </trkpt>
      <trkpt lat="61.631835876" lon="8.61758644693">
        <ele>1695.9</ele>
        <time>2012-08-06T10:14:13Z</time>
      </trkpt>
      <trkpt lat="61.631852556" lon="8.61754336394">
        <ele>1693.98</ele>
        <time>2012-08-06T10:14:17Z</time>
      </trkpt>
      <trkpt lat="61.6318540648" lon="8.61753690988">
        <ele>1697.83</ele>
        <time>2012-08-06T10:14:18Z</time>
      </trkpt>
      <trkpt lat="61.6318559088" lon="8.61753288656">
        <ele>1694.46</ele>
        <time>2012-08-06T10:14:19Z</time>
      </trkpt>
      <trkpt lat="61.6318595968" lon="8.61752626486">
        <ele>1696.86</ele>
        <time>2012-08-06T10:14:20Z</time>
      </trkpt>
      <trkpt lat="61.6318683978" lon="8.61750287935">
        <ele>1694.46</ele>
        <time>2012-08-06T10:14:22Z</time>
      </trkpt>
      <trkpt lat="61.6318730079" lon="8.61749592237">
        <ele>1698.31</ele>
        <time>2012-08-06T10:14:23Z</time>
      </trkpt>
      <trkpt lat="61.6319074575" lon="8.61744118854">
        <ele>1698.79</ele>
        <time>2012-08-06T10:14:33Z</time>
      </trkpt>
      <trkpt lat="61.6319252271" lon="8.61743582413">
        <ele>1697.34</ele>
        <time>2012-08-06T10:14:43Z</time>
      </trkpt>
      <trkpt lat="61.631958168" lon="8.61739617772">
        <ele>1698.79</ele>
        <time>2012-08-06T10:14:50Z</time>
      </trkpt>
      <trkpt lat="61.6319973115" lon="8.61734714359">
        <ele>1699.27</ele>
        <time>2012-08-06T10:14:58Z</time>
      </trkpt>
      <trkpt lat="61.6320842318" lon="8.61729064956">
        <ele>1702.63</ele>
        <time>2012-08-06T10:15:12Z</time>
      </trkpt>
      <trkpt lat="61.632149443" lon="8.61726818606">
        <ele>1705.04</ele>
        <time>2012-08-06T10:15:23Z</time>
      </trkpt>
      <trkpt lat="61.6321734991" lon="8.61725158989">
        <ele>1704.55</ele>
        <time>2012-08-06T10:15:29Z</time>
      </trkpt>
      <trkpt lat="61.6322165821" lon="8.61722954549">
        <ele>1706.48</ele>
        <time>2012-08-06T10:15:36Z</time>
      </trkpt>
      <trkpt lat="61.6322538815" lon="8.61720750108">
        <ele>1706.96</ele>
        <time>2012-08-06T10:15:41Z</time>
      </trkpt>
      <trkpt lat="61.6322627664" lon="8.61717816442">
        <ele>1706.48</ele>
        <time>2012-08-06T10:15:43Z</time>
      </trkpt>
      <trkpt lat="61.6323064361" lon="8.61714731902">
        <ele>1707.92</ele>
        <time>2012-08-06T10:15:49Z</time>
      </trkpt>
      <trkpt lat="61.632312974" lon="8.61712745391">
        <ele>1707.44</ele>
        <time>2012-08-06T10:15:51Z</time>
      </trkpt>
      <trkpt lat="61.6323560569" lon="8.61705327407">
        <ele>1708.4</ele>
        <time>2012-08-06T10:15:58Z</time>
      </trkpt>
      <trkpt lat="61.6324288957" lon="8.61696685664">
        <ele>1709.84</ele>
        <time>2012-08-06T10:16:09Z</time>
      </trkpt>
      <trkpt lat="61.6324868146" lon="8.61690348946">
        <ele>1708.88</ele>
        <time>2012-08-06T10:16:18Z</time>
      </trkpt>
      <trkpt lat="61.6325226892" lon="8.61688295379">
        <ele>1712.25</ele>
        <time>2012-08-06T10:16:24Z</time>
      </trkpt>
      <trkpt lat="61.6325373575" lon="8.61684196629">
        <ele>1711.76</ele>
        <time>2012-08-06T10:16:37Z</time>
      </trkpt>
      <trkpt lat="61.6325350944" lon="8.61684330739">
        <ele>1711.76</ele>
        <time>2012-08-06T10:17:06Z</time>
      </trkpt>
      <trkpt lat="61.6325572226" lon="8.61687046476">
        <ele>1715.13</ele>
        <time>2012-08-06T10:17:26Z</time>
      </trkpt>
      <trkpt lat="61.6326732282" lon="8.6168842949">
        <ele>1715.13</ele>
        <time>2012-08-06T10:17:38Z</time>
      </trkpt>
      <trkpt lat="61.6327485815" lon="8.61687591299">
        <ele>1717.53</ele>
        <time>2012-08-06T10:17:50Z</time>
      </trkpt>
      <trkpt lat="61.6328120325" lon="8.61688379198">
        <ele>1717.05</ele>
        <time>2012-08-06T10:18:00Z</time>
      </trkpt>
      <trkpt lat="61.6328160558" lon="8.61689787358">
        <ele>1716.57</ele>
        <time>2012-08-06T10:18:01Z</time>
      </trkpt>
      <trkpt lat="61.632814128" lon="8.61694799736">
        <ele>1714.65</ele>
        <time>2012-08-06T10:18:15Z</time>
      </trkpt>
      <trkpt lat="61.632817816" lon="8.61695545726">
        <ele>1720.42</ele>
        <time>2012-08-06T10:18:16Z</time>
      </trkpt>
      <trkpt lat="61.6328294668" lon="8.61697146669">
        <ele>1718.01</ele>
        <time>2012-08-06T10:18:19Z</time>
      </trkpt>
      <trkpt lat="61.6328482423" lon="8.61701454967">
        <ele>1718.49</ele>
        <time>2012-08-06T10:18:33Z</time>
      </trkpt>
      <trkpt lat="61.6328646708" lon="8.61695805565">
        <ele>1717.05</ele>
        <time>2012-08-06T10:18:44Z</time>
      </trkpt>
      <trkpt lat="61.6328685265" lon="8.61696082167">
        <ele>1718.49</ele>
        <time>2012-08-06T10:18:57Z</time>
      </trkpt>
      <trkpt lat="61.6328743938" lon="8.61693928018">
        <ele>1718.97</ele>
        <time>2012-08-06T10:19:13Z</time>
      </trkpt>
      <trkpt lat="61.6328722145" lon="8.61693928018">
        <ele>1718.49</ele>
        <time>2012-08-06T10:19:35Z</time>
      </trkpt>
      <trkpt lat="61.632875232" lon="8.61692687497">
        <ele>1708.88</ele>
        <time>2012-08-06T10:19:36Z</time>
      </trkpt>
      <trkpt lat="61.6328741424" lon="8.61693475395">
        <ele>1721.86</ele>
        <time>2012-08-06T10:19:37Z</time>
      </trkpt>
      <trkpt lat="61.6328735556" lon="8.61693425104">
        <ele>1718.01</ele>
        <time>2012-08-06T10:19:38Z</time>
      </trkpt>
      <trkpt lat="61.6328709573" lon="8.61692913808">
        <ele>1722.34</ele>
        <time>2012-08-06T10:19:48Z</time>
      </trkpt>
      <trkpt lat="61.6328562051" lon="8.61689032987">
        <ele>1717.53</ele>
        <time>2012-08-06T10:19:57Z</time>
      </trkpt>
      <trkpt lat="61.6328392737" lon="8.61695143394">
        <ele>1718.01</ele>
        <time>2012-08-06T10:20:04Z</time>
      </trkpt>
      <trkpt lat="61.6328277905" lon="8.61690759659">
        <ele>1718.01</ele>
        <time>2012-08-06T10:20:22Z</time>
      </trkpt>
      <trkpt lat="61.6328272875" lon="8.61692075618">
        <ele>1718.49</ele>
        <time>2012-08-06T10:20:29Z</time>
      </trkpt>
      <trkpt lat="61.6328759026" lon="8.6169587262">
        <ele>1717.53</ele>
        <time>2012-08-06T10:20:36Z</time>
      </trkpt>
      <trkpt lat="61.6328820214" lon="8.61695931293">
        <ele>1719.46</ele>
        <time>2012-08-06T10:20:37Z</time>
      </trkpt>
      <trkpt lat="61.6329694446" lon="8.61691245809">
        <ele>1721.38</ele>
        <time>2012-08-06T10:20:49Z</time>
      </trkpt>
      <trkpt lat="61.6329936683" lon="8.61689519137">
        <ele>1721.38</ele>
        <time>2012-08-06T10:20:51Z</time>
      </trkpt>
      <trkpt lat="61.6330941673" lon="8.61692268401">
        <ele>1723.3</ele>
        <time>2012-08-06T10:21:03Z</time>
      </trkpt>
      <trkpt lat="61.6331276949" lon="8.61692494713">
        <ele>1724.26</ele>
        <time>2012-08-06T10:21:07Z</time>
      </trkpt>
      <trkpt lat="61.6332128551" lon="8.61682084389">
        <ele>1726.67</ele>
        <time>2012-08-06T10:21:19Z</time>
      </trkpt>
      <trkpt lat="61.633292567" lon="8.61674658023">
        <ele>1726.18</ele>
        <time>2012-08-06T10:21:31Z</time>
      </trkpt>
      <trkpt lat="61.6333119292" lon="8.61672512256">
        <ele>1726.67</ele>
        <time>2012-08-06T10:21:34Z</time>
      </trkpt>
      <trkpt lat="61.6333549283" lon="8.61666192301">
        <ele>1726.18</ele>
        <time>2012-08-06T10:21:40Z</time>
      </trkpt>
      <trkpt lat="61.6334493086" lon="8.61652119085">
        <ele>1728.59</ele>
        <time>2012-08-06T10:21:52Z</time>
      </trkpt>
      <trkpt lat="61.6334507335" lon="8.61651155166">
        <ele>1728.59</ele>
        <time>2012-08-06T10:21:53Z</time>
      </trkpt>
      <trkpt lat="61.6334867757" lon="8.61649218947">
        <ele>1730.51</ele>
        <time>2012-08-06T10:21:59Z</time>
      </trkpt>
      <trkpt lat="61.6335442755" lon="8.61642396078">
        <ele>1730.99</ele>
        <time>2012-08-06T10:22:11Z</time>
      </trkpt>
      <trkpt lat="61.6335528251" lon="8.61641230993">
        <ele>1730.51</ele>
        <time>2012-08-06T10:22:13Z</time>
      </trkpt>
      <trkpt lat="61.6335813235" lon="8.61642513424">
        <ele>1730.51</ele>
        <time>2012-08-06T10:22:24Z</time>
      </trkpt>
      <trkpt lat="61.6335897893" lon="8.6163786985">
        <ele>1730.99</ele>
        <time>2012-08-06T10:22:27Z</time>
      </trkpt>
      <trkpt lat="61.633617701" lon="8.6163544748">
        <ele>1730.03</ele>
        <time>2012-08-06T10:22:31Z</time>
      </trkpt>
      <trkpt lat="61.633654749" lon="8.61632438377">
        <ele>1732.43</ele>
        <time>2012-08-06T10:22:37Z</time>
      </trkpt>
      <trkpt lat="61.6336823255" lon="8.61627057195">
        <ele>1731.95</ele>
        <time>2012-08-06T10:22:41Z</time>
      </trkpt>
      <trkpt lat="61.6337157693" lon="8.6162280757">
        <ele>1733.39</ele>
        <time>2012-08-06T10:22:45Z</time>
      </trkpt>
      <trkpt lat="61.6337896977" lon="8.61616764218">
        <ele>1735.32</ele>
        <time>2012-08-06T10:22:55Z</time>
      </trkpt>
      <trkpt lat="61.6338033602" lon="8.61614911817">
        <ele>1733.88</ele>
        <time>2012-08-06T10:22:57Z</time>
      </trkpt>
      <trkpt lat="61.6338128317" lon="8.61613051035">
        <ele>1735.32</ele>
        <time>2012-08-06T10:22:59Z</time>
      </trkpt>
      <trkpt lat="61.6338893585" lon="8.61606915481">
        <ele>1735.8</ele>
        <time>2012-08-06T10:23:10Z</time>
      </trkpt>
      <trkpt lat="61.6339072958" lon="8.61602297053">
        <ele>1740.12</ele>
        <time>2012-08-06T10:23:14Z</time>
      </trkpt>
      <trkpt lat="61.6339179408" lon="8.61603470519">
        <ele>1736.76</ele>
        <time>2012-08-06T10:23:21Z</time>
      </trkpt>
      <trkpt lat="61.6339367162" lon="8.61608306877">
        <ele>1738.2</ele>
        <time>2012-08-06T10:23:40Z</time>
      </trkpt>
      <trkpt lat="61.6339293402" lon="8.61607694998">
        <ele>1738.68</ele>
        <time>2012-08-06T10:23:58Z</time>
      </trkpt>
      <trkpt lat="61.6338973213" lon="8.61603160389">
        <ele>1737.72</ele>
        <time>2012-08-06T10:24:19Z</time>
      </trkpt>
      <trkpt lat="61.6339023504" lon="8.61600821838">
        <ele>1737.72</ele>
        <time>2012-08-06T10:24:49Z</time>
      </trkpt>
      <trkpt lat="61.6339004226" lon="8.61601157114">
        <ele>1737.72</ele>
        <time>2012-08-06T10:25:19Z</time>
      </trkpt>
      <trkpt lat="61.6339241434" lon="8.61603948288">
        <ele>1737.24</ele>
        <time>2012-08-06T10:25:35Z</time>
      </trkpt>
      <trkpt lat="61.6339942999" lon="8.61606588587">
        <ele>1739.16</ele>
        <time>2012-08-06T10:25:46Z</time>
      </trkpt>
      <trkpt lat="61.6340345331" lon="8.6160668917">
        <ele>1741.08</ele>
        <time>2012-08-06T10:25:55Z</time>
      </trkpt>
      <trkpt lat="61.6340557393" lon="8.61608164385">
        <ele>1741.08</ele>
        <time>2012-08-06T10:26:02Z</time>
      </trkpt>
      <trkpt lat="61.6340883449" lon="8.61605591141">
        <ele>1743.01</ele>
        <time>2012-08-06T10:26:09Z</time>
      </trkpt>
      <trkpt lat="61.6341135744" lon="8.61605222337">
        <ele>1742.05</ele>
        <time>2012-08-06T10:26:15Z</time>
      </trkpt>
      <trkpt lat="61.6341484431" lon="8.61601400189">
        <ele>1742.53</ele>
        <time>2012-08-06T10:26:28Z</time>
      </trkpt>
      <trkpt lat="61.6341884248" lon="8.61591702327">
        <ele>1744.45</ele>
        <time>2012-08-06T10:26:37Z</time>
      </trkpt>
      <trkpt lat="61.63420083" lon="8.61587595195">
        <ele>1745.41</ele>
        <time>2012-08-06T10:26:40Z</time>
      </trkpt>
      <trkpt lat="61.6342266463" lon="8.61584686674">
        <ele>1745.41</ele>
        <time>2012-08-06T10:26:44Z</time>
      </trkpt>
      <trkpt lat="61.6342707351" lon="8.61578727141">
        <ele>1745.41</ele>
        <time>2012-08-06T10:26:59Z</time>
      </trkpt>
      <trkpt lat="61.6342882533" lon="8.61576153897">
        <ele>1745.41</ele>
        <time>2012-08-06T10:27:04Z</time>
      </trkpt>
      <trkpt lat="61.634306442" lon="8.61572918482">
        <ele>1746.37</ele>
        <time>2012-08-06T10:27:07Z</time>
      </trkpt>
      <trkpt lat="61.6343667917" lon="8.61563187093">
        <ele>1748.29</ele>
        <time>2012-08-06T10:27:19Z</time>
      </trkpt>
      <trkpt lat="61.6344278958" lon="8.61558442935">
        <ele>1749.74</ele>
        <time>2012-08-06T10:27:31Z</time>
      </trkpt>
      <trkpt lat="61.6344457492" lon="8.61557202414">
        <ele>1749.74</ele>
        <time>2012-08-06T10:27:46Z</time>
      </trkpt>
      <trkpt lat="61.6344542988" lon="8.61558099277">
        <ele>1749.74</ele>
        <time>2012-08-06T10:28:22Z</time>
      </trkpt>
      <trkpt lat="61.6344479285" lon="8.61557026394">
        <ele>1749.74</ele>
        <time>2012-08-06T10:28:53Z</time>
      </trkpt>
      <trkpt lat="61.6344455816" lon="8.61556758173">
        <ele>1749.74</ele>
        <time>2012-08-06T10:29:06Z</time>
      </trkpt>
      <trkpt lat="61.6344681289" lon="8.61551360227">
        <ele>1750.7</ele>
        <time>2012-08-06T10:29:10Z</time>
      </trkpt>
      <trkpt lat="61.6344851442" lon="8.6154630594">
        <ele>1751.18</ele>
        <time>2012-08-06T10:29:20Z</time>
      </trkpt>
      <trkpt lat="61.6345123854" lon="8.6154194735">
        <ele>1751.66</ele>
        <time>2012-08-06T10:29:27Z</time>
      </trkpt>
      <trkpt lat="61.6345262155" lon="8.61539273523">
        <ele>1752.62</ele>
        <time>2012-08-06T10:29:30Z</time>
      </trkpt>
      <trkpt lat="61.6345715616" lon="8.61531008966">
        <ele>1753.58</ele>
        <time>2012-08-06T10:29:41Z</time>
      </trkpt>
      <trkpt lat="61.6345893312" lon="8.615253428">
        <ele>1753.58</ele>
        <time>2012-08-06T10:29:49Z</time>
      </trkpt>
      <trkpt lat="61.63461674" lon="8.61521612853">
        <ele>1754.54</ele>
        <time>2012-08-06T10:30:01Z</time>
      </trkpt>
      <trkpt lat="61.6346670315" lon="8.61510221846">
        <ele>1756.95</ele>
        <time>2012-08-06T10:30:12Z</time>
      </trkpt>
      <trkpt lat="61.6346655227" lon="8.61503105611">
        <ele>1757.43</ele>
        <time>2012-08-06T10:30:24Z</time>
      </trkpt>
      <trkpt lat="61.63468346" lon="8.614957463">
        <ele>1757.91</ele>
        <time>2012-08-06T10:30:41Z</time>
      </trkpt>
      <trkpt lat="61.6346933506" lon="8.61496257596">
        <ele>1757.91</ele>
        <time>2012-08-06T10:31:01Z</time>
      </trkpt>
      <trkpt lat="61.634709863" lon="8.61496064812">
        <ele>1758.87</ele>
        <time>2012-08-06T10:31:03Z</time>
      </trkpt>
      <trkpt lat="61.6347668599" lon="8.61494329758">
        <ele>1759.83</ele>
        <time>2012-08-06T10:31:15Z</time>
      </trkpt>
      <trkpt lat="61.6348123737" lon="8.61489661038">
        <ele>1761.27</ele>
        <time>2012-08-06T10:31:26Z</time>
      </trkpt>
      <trkpt lat="61.6348372679" lon="8.61494639888">
        <ele>1761.75</ele>
        <time>2012-08-06T10:31:41Z</time>
      </trkpt>
      <trkpt lat="61.6348324902" lon="8.61493902281">
        <ele>1761.75</ele>
        <time>2012-08-06T10:31:59Z</time>
      </trkpt>
      <trkpt lat="61.6348624974" lon="8.61488252878">
        <ele>1762.23</ele>
        <time>2012-08-06T10:32:04Z</time>
      </trkpt>
      <trkpt lat="61.6349218413" lon="8.61477306113">
        <ele>1763.68</ele>
        <time>2012-08-06T10:32:14Z</time>
      </trkpt>
      <trkpt lat="61.6349347495" lon="8.61474841833">
        <ele>1767.04</ele>
        <time>2012-08-06T10:32:16Z</time>
      </trkpt>
      <trkpt lat="61.6349698696" lon="8.61465613358">
        <ele>1766.08</ele>
        <time>2012-08-06T10:32:28Z</time>
      </trkpt>
      <trkpt lat="61.6349604819" lon="8.61462763511">
        <ele>1765.12</ele>
        <time>2012-08-06T10:32:35Z</time>
      </trkpt>
      <trkpt lat="61.6350083426" lon="8.61457910389">
        <ele>1767.04</ele>
        <time>2012-08-06T10:32:47Z</time>
      </trkpt>
      <trkpt lat="61.6350308899" lon="8.61452152021">
        <ele>1768</ele>
        <time>2012-08-06T10:33:02Z</time>
      </trkpt>
      <trkpt lat="61.6350607295" lon="8.61444348469">
        <ele>1768.96</ele>
        <time>2012-08-06T10:33:12Z</time>
      </trkpt>
      <trkpt lat="61.6351335682" lon="8.61439520493">
        <ele>1770.89</ele>
        <time>2012-08-06T10:33:25Z</time>
      </trkpt>
      <trkpt lat="61.6351817641" lon="8.61431540921">
        <ele>1770.41</ele>
        <time>2012-08-06T10:33:36Z</time>
      </trkpt>
      <trkpt lat="61.6351886373" lon="8.6143144872">
        <ele>1774.73</ele>
        <time>2012-08-06T10:33:37Z</time>
      </trkpt>
      <trkpt lat="61.6351920739" lon="8.61431926489">
        <ele>1773.77</ele>
        <time>2012-08-06T10:33:38Z</time>
      </trkpt>
      <trkpt lat="61.6352481488" lon="8.61430015415">
        <ele>1775.21</ele>
        <time>2012-08-06T10:33:49Z</time>
      </trkpt>
      <trkpt lat="61.6352588776" lon="8.61427609809">
        <ele>1779.06</ele>
        <time>2012-08-06T10:33:55Z</time>
      </trkpt>
      <trkpt lat="61.6352686007" lon="8.61424818635">
        <ele>1777.61</ele>
        <time>2012-08-06T10:34:00Z</time>
      </trkpt>
      <trkpt lat="61.6353126056" lon="8.61417165957">
        <ele>1779.06</ele>
        <time>2012-08-06T10:34:13Z</time>
      </trkpt>
      <trkpt lat="61.6353259329" lon="8.61409069039">
        <ele>1779.54</ele>
        <time>2012-08-06T10:34:29Z</time>
      </trkpt>
      <trkpt lat="61.6353217419" lon="8.6140537262">
        <ele>1779.54</ele>
        <time>2012-08-06T10:34:51Z</time>
      </trkpt>
      <trkpt lat="61.6353427805" lon="8.61403662711">
        <ele>1780.5</ele>
        <time>2012-08-06T10:35:17Z</time>
      </trkpt>
      <trkpt lat="61.6353422776" lon="8.61403109506">
        <ele>1777.61</ele>
        <time>2012-08-06T10:35:20Z</time>
      </trkpt>
      <trkpt lat="61.6353421099" lon="8.61403226852">
        <ele>1781.46</ele>
        <time>2012-08-06T10:35:21Z</time>
      </trkpt>
      <trkpt lat="61.6353196464" lon="8.61411726102">
        <ele>1779.54</ele>
        <time>2012-08-06T10:35:30Z</time>
      </trkpt>
      <trkpt lat="61.6352868732" lon="8.61417987384">
        <ele>1778.58</ele>
        <time>2012-08-06T10:35:40Z</time>
      </trkpt>
      <trkpt lat="61.6353009548" lon="8.61417945474">
        <ele>1778.1</ele>
        <time>2012-08-06T10:35:44Z</time>
      </trkpt>
      <trkpt lat="61.6352888849" lon="8.61415271647">
        <ele>1778.58</ele>
        <time>2012-08-06T10:35:55Z</time>
      </trkpt>
      <trkpt lat="61.6353251785" lon="8.61404433846">
        <ele>1779.54</ele>
        <time>2012-08-06T10:36:01Z</time>
      </trkpt>
      <trkpt lat="61.6353490669" lon="8.61404215917">
        <ele>1780.02</ele>
        <time>2012-08-06T10:36:16Z</time>
      </trkpt>
      <trkpt lat="61.635352755" lon="8.61403997988">
        <ele>1780.02</ele>
        <time>2012-08-06T10:36:17Z</time>
      </trkpt>
      <trkpt lat="61.6353659984" lon="8.61399237067">
        <ele>1781.46</ele>
        <time>2012-08-06T10:36:20Z</time>
      </trkpt>
      <trkpt lat="61.635367088" lon="8.61397317611">
        <ele>1780.98</ele>
        <time>2012-08-06T10:36:21Z</time>
      </trkpt>
      <trkpt lat="61.6353965085" lon="8.613845855">
        <ele>1781.94</ele>
        <time>2012-08-06T10:36:33Z</time>
      </trkpt>
      <trkpt lat="61.6354058962" lon="8.61381852999">
        <ele>1782.42</ele>
        <time>2012-08-06T10:36:38Z</time>
      </trkpt>
      <trkpt lat="61.6354207322" lon="8.61376253888">
        <ele>1785.79</ele>
        <time>2012-08-06T10:36:42Z</time>
      </trkpt>
      <trkpt lat="61.635425007" lon="8.61376161687">
        <ele>1783.38</ele>
        <time>2012-08-06T10:36:43Z</time>
      </trkpt>
      <trkpt lat="61.6354941577" lon="8.61373261549">
        <ele>1785.31</ele>
        <time>2012-08-06T10:36:52Z</time>
      </trkpt>
      <trkpt lat="61.6355637275" lon="8.61367327161">
        <ele>1788.19</ele>
        <time>2012-08-06T10:37:04Z</time>
      </trkpt>
      <trkpt lat="61.6355885379" lon="8.61370218918">
        <ele>1790.11</ele>
        <time>2012-08-06T10:37:06Z</time>
      </trkpt>
      <trkpt lat="61.6356427688" lon="8.61365541816">
        <ele>1790.11</ele>
        <time>2012-08-06T10:37:17Z</time>
      </trkpt>
      <trkpt lat="61.635645451" lon="8.6136498861">
        <ele>1789.15</ele>
        <time>2012-08-06T10:37:18Z</time>
      </trkpt>
      <trkpt lat="61.6356799845" lon="8.61357570626">
        <ele>1789.63</ele>
        <time>2012-08-06T10:37:25Z</time>
      </trkpt>
      <trkpt lat="61.6357331257" lon="8.61341569573">
        <ele>1790.11</ele>
        <time>2012-08-06T10:37:36Z</time>
      </trkpt>
      <trkpt lat="61.6357446928" lon="8.61338585615">
        <ele>1791.07</ele>
        <time>2012-08-06T10:37:38Z</time>
      </trkpt>
      <trkpt lat="61.6357923858" lon="8.61331896856">
        <ele>1791.07</ele>
        <time>2012-08-06T10:37:46Z</time>
      </trkpt>
      <trkpt lat="61.6358402465" lon="8.6131794937">
        <ele>1793</ele>
        <time>2012-08-06T10:37:57Z</time>
      </trkpt>
      <trkpt lat="61.6358933877" lon="8.61311268993">
        <ele>1794.44</ele>
        <time>2012-08-06T10:38:08Z</time>
      </trkpt>
      <trkpt lat="61.6359226406" lon="8.61304898746">
        <ele>1797.8</ele>
        <time>2012-08-06T10:38:16Z</time>
      </trkpt>
      <trkpt lat="61.6359275021" lon="8.61304001883">
        <ele>1794.92</ele>
        <time>2012-08-06T10:38:17Z</time>
      </trkpt>
      <trkpt lat="61.6359523125" lon="8.61299358308">
        <ele>1797.32</ele>
        <time>2012-08-06T10:38:22Z</time>
      </trkpt>
      <trkpt lat="61.6359990835" lon="8.61285855062">
        <ele>1799.73</ele>
        <time>2012-08-06T10:38:32Z</time>
      </trkpt>
      <trkpt lat="61.6360353772" lon="8.61274011433">
        <ele>1801.17</ele>
        <time>2012-08-06T10:38:42Z</time>
      </trkpt>
      <trkpt lat="61.6360496264" lon="8.61278185621">
        <ele>1801.17</ele>
        <time>2012-08-06T10:38:56Z</time>
      </trkpt>
      <trkpt lat="61.6360701621" lon="8.61278889701">
        <ele>1801.65</ele>
        <time>2012-08-06T10:39:26Z</time>
      </trkpt>
      <trkpt lat="61.6360801365" lon="8.61266719177">
        <ele>1802.61</ele>
        <time>2012-08-06T10:39:42Z</time>
      </trkpt>
      <trkpt lat="61.6361041088" lon="8.61260592006">
        <ele>1802.61</ele>
        <time>2012-08-06T10:39:51Z</time>
      </trkpt>
      <trkpt lat="61.6361428332" lon="8.61253433861">
        <ele>1806.94</ele>
        <time>2012-08-06T10:39:59Z</time>
      </trkpt>
      <trkpt lat="61.6361524723" lon="8.61253702082">
        <ele>1803.57</ele>
        <time>2012-08-06T10:40:00Z</time>
      </trkpt>
      <trkpt lat="61.6361646261" lon="8.61248488538">
        <ele>1806.94</ele>
        <time>2012-08-06T10:40:04Z</time>
      </trkpt>
      <trkpt lat="61.636158172" lon="8.61242939718">
        <ele>1806.45</ele>
        <time>2012-08-06T10:40:19Z</time>
      </trkpt>
      <trkpt lat="61.6361668892" lon="8.61248337664">
        <ele>1807.42</ele>
        <time>2012-08-06T10:40:34Z</time>
      </trkpt>
      <trkpt lat="61.6362609342" lon="8.61258756369">
        <ele>1806.45</ele>
        <time>2012-08-06T10:40:40Z</time>
      </trkpt>
      <trkpt lat="61.6362794582" lon="8.6125972867">
        <ele>1806.94</ele>
        <time>2012-08-06T10:40:41Z</time>
      </trkpt>
      <trkpt lat="61.6362966411" lon="8.61261748709">
        <ele>1807.9</ele>
        <time>2012-08-06T10:40:42Z</time>
      </trkpt>
      <trkpt lat="61.6363223735" lon="8.6126316525">
        <ele>1807.9</ele>
        <time>2012-08-06T10:40:43Z</time>
      </trkpt>
      <trkpt lat="61.6363426577" lon="8.61264204606">
        <ele>1807.9</ele>
        <time>2012-08-06T10:40:44Z</time>
      </trkpt>
      <trkpt lat="61.6363696475" lon="8.61264430918">
        <ele>1807.9</ele>
        <time>2012-08-06T10:40:45Z</time>
      </trkpt>
      <trkpt lat="61.6364677157" lon="8.6127043236">
        <ele>1809.82</ele>
        <time>2012-08-06T10:40:49Z</time>
      </trkpt>
      <trkpt lat="61.636579698" lon="8.61281546764">
        <ele>1811.26</ele>
        <time>2012-08-06T10:40:54Z</time>
      </trkpt>
      <trkpt lat="61.6366520338" lon="8.6129645817">
        <ele>1812.7</ele>
        <time>2012-08-06T10:40:58Z</time>
      </trkpt>
      <trkpt lat="61.636684807" lon="8.61301311292">
        <ele>1812.22</ele>
        <time>2012-08-06T10:41:14Z</time>
      </trkpt>
      <trkpt lat="61.6366348509" lon="8.61293407157">
        <ele>1811.74</ele>
        <time>2012-08-06T10:41:36Z</time>
      </trkpt>
      <trkpt lat="61.6365721542" lon="8.61286148429">
        <ele>1812.7</ele>
        <time>2012-08-06T10:41:41Z</time>
      </trkpt>
      <trkpt lat="61.6365403868" lon="8.61284715123">
        <ele>1804.05</ele>
        <time>2012-08-06T10:41:45Z</time>
      </trkpt>
      <trkpt lat="61.6365244612" lon="8.61281546764">
        <ele>1811.74</ele>
        <time>2012-08-06T10:41:47Z</time>
      </trkpt>
      <trkpt lat="61.6364663746" lon="8.61276014708">
        <ele>1810.78</ele>
        <time>2012-08-06T10:41:52Z</time>
      </trkpt>
      <trkpt lat="61.6363326833" lon="8.61263358034">
        <ele>1808.86</ele>
        <time>2012-08-06T10:42:02Z</time>
      </trkpt>
      <trkpt lat="61.6363195237" lon="8.61260483041">
        <ele>1808.38</ele>
        <time>2012-08-06T10:42:06Z</time>
      </trkpt>
      <trkpt lat="61.6362343635" lon="8.612555461">
        <ele>1807.42</ele>
        <time>2012-08-06T10:42:17Z</time>
      </trkpt>
      <trkpt lat="61.636194298" lon="8.61248890869">
        <ele>1806.45</ele>
        <time>2012-08-06T10:42:31Z</time>
      </trkpt>
      <trkpt lat="61.6361826472" lon="8.61248739995">
        <ele>1805.97</ele>
        <time>2012-08-06T10:42:41Z</time>
      </trkpt>
      <trkpt lat="61.6362006683" lon="8.61249662004">
        <ele>1808.38</ele>
        <time>2012-08-06T10:42:43Z</time>
      </trkpt>
      <trkpt lat="61.6362033505" lon="8.61245353706">
        <ele>1806.45</ele>
        <time>2012-08-06T10:43:04Z</time>
      </trkpt>
      <trkpt lat="61.6362061165" lon="8.61248538829">
        <ele>1805.97</ele>
        <time>2012-08-06T10:43:32Z</time>
      </trkpt>
      <trkpt lat="61.6361903585" lon="8.61243451014">
        <ele>1805.97</ele>
        <time>2012-08-06T10:43:53Z</time>
      </trkpt>
      <trkpt lat="61.6361549031" lon="8.61241380684">
        <ele>1806.94</ele>
        <time>2012-08-06T10:44:12Z</time>
      </trkpt>
      <trkpt lat="61.6361467727" lon="8.61233510077">
        <ele>1803.57</ele>
        <time>2012-08-06T10:44:20Z</time>
      </trkpt>
      <trkpt lat="61.6361479461" lon="8.6123708915">
        <ele>1807.9</ele>
        <time>2012-08-06T10:44:24Z</time>
      </trkpt>
      <trkpt lat="61.6361527238" lon="8.61237013713">
        <ele>1813.66</ele>
        <time>2012-08-06T10:44:25Z</time>
      </trkpt>
      <trkpt lat="61.6361537296" lon="8.61237784848">
        <ele>1806.45</ele>
        <time>2012-08-06T10:44:26Z</time>
      </trkpt>
      <trkpt lat="61.6361626144" lon="8.61233627424">
        <ele>1799.24</ele>
        <time>2012-08-06T10:44:36Z</time>
      </trkpt>
      <trkpt lat="61.6361612733" lon="8.61233694479">
        <ele>1804.53</ele>
        <time>2012-08-06T10:44:37Z</time>
      </trkpt>
      <trkpt lat="61.6361544002" lon="8.6123356875">
        <ele>1815.59</ele>
        <time>2012-08-06T10:44:40Z</time>
      </trkpt>
      <trkpt lat="61.6361613572" lon="8.61233660951">
        <ele>1806.45</ele>
        <time>2012-08-06T10:44:41Z</time>
      </trkpt>
      <trkpt lat="61.6361657158" lon="8.61244632863">
        <ele>1805.97</ele>
        <time>2012-08-06T10:44:51Z</time>
      </trkpt>
      <trkpt lat="61.6362192761" lon="8.61237189732">
        <ele>1805.97</ele>
        <time>2012-08-06T10:45:09Z</time>
      </trkpt>
      <trkpt lat="61.6362281609" lon="8.61236141995">
        <ele>1805.49</ele>
        <time>2012-08-06T10:45:10Z</time>
      </trkpt>
      <trkpt lat="61.6362726688" lon="8.61234297976">
        <ele>1806.45</ele>
        <time>2012-08-06T10:45:22Z</time>
      </trkpt>
      <trkpt lat="61.6362921987" lon="8.612339627">
        <ele>1806.94</ele>
        <time>2012-08-06T10:45:41Z</time>
      </trkpt>
      <trkpt lat="61.6363085434" lon="8.61234918237">
        <ele>1808.38</ele>
        <time>2012-08-06T10:45:58Z</time>
      </trkpt>
      <trkpt lat="61.6363372933" lon="8.61236259341">
        <ele>1806.45</ele>
        <time>2012-08-06T10:46:02Z</time>
      </trkpt>
      <trkpt lat="61.6364112217" lon="8.61230978742">
        <ele>1808.38</ele>
        <time>2012-08-06T10:46:11Z</time>
      </trkpt>
      <trkpt lat="61.6365184262" lon="8.61219579354">
        <ele>1808.86</ele>
        <time>2012-08-06T10:46:24Z</time>
      </trkpt>
      <trkpt lat="61.6365561448" lon="8.61218405887">
        <ele>1807.9</ele>
        <time>2012-08-06T10:46:28Z</time>
      </trkpt>
      <trkpt lat="61.6366491001" lon="8.61210283823">
        <ele>1809.82</ele>
        <time>2012-08-06T10:46:39Z</time>
      </trkpt>
      <trkpt lat="61.6366683785" lon="8.61207920127">
        <ele>1809.34</ele>
        <time>2012-08-06T10:46:41Z</time>
      </trkpt>
      <trkpt lat="61.6367368586" lon="8.61197769642">
        <ele>1812.22</ele>
        <time>2012-08-06T10:46:53Z</time>
      </trkpt>
      <trkpt lat="61.6367752478" lon="8.61184853129">
        <ele>1812.7</ele>
        <time>2012-08-06T10:47:08Z</time>
      </trkpt>
      <trkpt lat="61.6367812827" lon="8.61179321073">
        <ele>1812.7</ele>
        <time>2012-08-06T10:47:34Z</time>
      </trkpt>
      <trkpt lat="61.6368148103" lon="8.61160553992">
        <ele>1813.66</ele>
        <time>2012-08-06T10:47:47Z</time>
      </trkpt>
      <trkpt lat="61.6368216835" lon="8.61153186299">
        <ele>1815.59</ele>
        <time>2012-08-06T10:47:51Z</time>
      </trkpt>
      <trkpt lat="61.6368242819" lon="8.6115081422">
        <ele>1814.15</ele>
        <time>2012-08-06T10:47:52Z</time>
      </trkpt>
      <trkpt lat="61.6368659399" lon="8.61147386022">
        <ele>1816.07</ele>
        <time>2012-08-06T10:48:05Z</time>
      </trkpt>
      <trkpt lat="61.6368609946" lon="8.61148836091">
        <ele>1814.63</ele>
        <time>2012-08-06T10:48:30Z</time>
      </trkpt>
      <trkpt lat="61.6369255353" lon="8.61142650247">
        <ele>1816.55</ele>
        <time>2012-08-06T10:48:37Z</time>
      </trkpt>
      <trkpt lat="61.636950681" lon="8.61137277447">
        <ele>1818.47</ele>
        <time>2012-08-06T10:48:45Z</time>
      </trkpt>
      <trkpt lat="61.6369901597" lon="8.61125207506">
        <ele>1820.39</ele>
        <time>2012-08-06T10:48:56Z</time>
      </trkpt>
      <trkpt lat="61.6370334104" lon="8.61112114973">
        <ele>1822.8</ele>
        <time>2012-08-06T10:49:06Z</time>
      </trkpt>
      <trkpt lat="61.6371099371" lon="8.6110980995">
        <ele>1823.76</ele>
        <time>2012-08-06T10:49:17Z</time>
      </trkpt>
      <trkpt lat="61.6371420398" lon="8.61111989245">
        <ele>1824.72</ele>
        <time>2012-08-06T10:49:28Z</time>
      </trkpt>
      <trkpt lat="61.6371437162" lon="8.61109533347">
        <ele>1825.2</ele>
        <time>2012-08-06T10:49:50Z</time>
      </trkpt>
      <trkpt lat="61.6371482424" lon="8.61105862074">
        <ele>1824.72</ele>
        <time>2012-08-06T10:50:04Z</time>
      </trkpt>
      <trkpt lat="61.6371355858" lon="8.61108988523">
        <ele>1824.24</ele>
        <time>2012-08-06T10:50:29Z</time>
      </trkpt>
      <trkpt lat="61.6371862963" lon="8.61106364988">
        <ele>1824.72</ele>
        <time>2012-08-06T10:50:39Z</time>
      </trkpt>
      <trkpt lat="61.6372225061" lon="8.61103255302">
        <ele>1825.68</ele>
        <time>2012-08-06T10:50:44Z</time>
      </trkpt>
      <trkpt lat="61.6373173054" lon="8.61099684611">
        <ele>1827.12</ele>
        <time>2012-08-06T10:50:56Z</time>
      </trkpt>
      <trkpt lat="61.6373361647" lon="8.61097379588">
        <ele>1828.08</ele>
        <time>2012-08-06T10:50:58Z</time>
      </trkpt>
      <trkpt lat="61.6373739671" lon="8.61094772816">
        <ele>1828.56</ele>
        <time>2012-08-06T10:51:04Z</time>
      </trkpt>
      <trkpt lat="61.6373871267" lon="8.61087463796">
        <ele>1829.05</ele>
        <time>2012-08-06T10:51:08Z</time>
      </trkpt>
      <trkpt lat="61.6373909824" lon="8.61085393466">
        <ele>1829.05</ele>
        <time>2012-08-06T10:51:10Z</time>
      </trkpt>
      <trkpt lat="61.6374497395" lon="8.6106325686">
        <ele>1830.97</ele>
        <time>2012-08-06T10:51:22Z</time>
      </trkpt>
      <trkpt lat="61.6375015397" lon="8.6104969494">
        <ele>1832.41</ele>
        <time>2012-08-06T10:51:34Z</time>
      </trkpt>
      <trkpt lat="61.6375350673" lon="8.61043073237">
        <ele>1831.93</ele>
        <time>2012-08-06T10:51:40Z</time>
      </trkpt>
      <trkpt lat="61.6375613026" lon="8.61040349118">
        <ele>1832.41</ele>
        <time>2012-08-06T10:51:43Z</time>
      </trkpt>
      <trkpt lat="61.6376033798" lon="8.61038940959">
        <ele>1833.85</ele>
        <time>2012-08-06T10:51:48Z</time>
      </trkpt>
      <trkpt lat="61.6376181319" lon="8.6103661079">
        <ele>1833.85</ele>
        <time>2012-08-06T10:51:50Z</time>
      </trkpt>
      <trkpt lat="61.63769315" lon="8.61019662581">
        <ele>1834.33</ele>
        <time>2012-08-06T10:52:02Z</time>
      </trkpt>
      <trkpt lat="61.6377660725" lon="8.61004231498">
        <ele>1834.33</ele>
        <time>2012-08-06T10:52:13Z</time>
      </trkpt>
      <trkpt lat="61.6377735324" lon="8.61002068967">
        <ele>1835.77</ele>
        <time>2012-08-06T10:52:15Z</time>
      </trkpt>
      <trkpt lat="61.6378390789" lon="8.60986193642">
        <ele>1835.77</ele>
        <time>2012-08-06T10:52:27Z</time>
      </trkpt>
      <trkpt lat="61.6379124206" lon="8.60971190035">
        <ele>1836.74</ele>
        <time>2012-08-06T10:52:39Z</time>
      </trkpt>
      <trkpt lat="61.6379353032" lon="8.60966881737">
        <ele>1835.77</ele>
        <time>2012-08-06T10:52:42Z</time>
      </trkpt>
      <trkpt lat="61.6379514802" lon="8.60955649987">
        <ele>1836.74</ele>
        <time>2012-08-06T10:52:49Z</time>
      </trkpt>
      <trkpt lat="61.6380066331" lon="8.60945868306">
        <ele>1838.66</ele>
        <time>2012-08-06T10:52:57Z</time>
      </trkpt>
      <trkpt lat="61.6380470339" lon="8.60945558175">
        <ele>1838.18</ele>
        <time>2012-08-06T10:53:01Z</time>
      </trkpt>
      <trkpt lat="61.6380812321" lon="8.60944870859">
        <ele>1839.14</ele>
        <time>2012-08-06T10:53:05Z</time>
      </trkpt>
      <trkpt lat="61.6381415818" lon="8.60942465253">
        <ele>1839.14</ele>
        <time>2012-08-06T10:53:12Z</time>
      </trkpt>
      <trkpt lat="61.6381839104" lon="8.60932809301">
        <ele>1840.58</ele>
        <time>2012-08-06T10:53:26Z</time>
      </trkpt>
      <trkpt lat="61.6381722596" lon="8.6093166098">
        <ele>1839.62</ele>
        <time>2012-08-06T10:53:56Z</time>
      </trkpt>
      <trkpt lat="61.6381886881" lon="8.60931334086">
        <ele>1839.62</ele>
        <time>2012-08-06T10:54:23Z</time>
      </trkpt>
      <trkpt lat="61.6381735168" lon="8.6092994269">
        <ele>1840.1</ele>
        <time>2012-08-06T10:54:50Z</time>
      </trkpt>
      <trkpt lat="61.6381871793" lon="8.60927947797">
        <ele>1839.62</ele>
        <time>2012-08-06T10:54:52Z</time>
      </trkpt>
      <trkpt lat="61.6382009257" lon="8.60925106332">
        <ele>1840.58</ele>
        <time>2012-08-06T10:54:54Z</time>
      </trkpt>
      <trkpt lat="61.6382197011" lon="8.60921627842">
        <ele>1840.58</ele>
        <time>2012-08-06T10:54:57Z</time>
      </trkpt>
      <trkpt lat="61.6382388957" lon="8.60920177773">
        <ele>1840.1</ele>
        <time>2012-08-06T10:54:59Z</time>
      </trkpt>
      <trkpt lat="61.6382625327" lon="8.60915567726">
        <ele>1841.06</ele>
        <time>2012-08-06T10:55:03Z</time>
      </trkpt>
      <trkpt lat="61.6382879298" lon="8.60909884796">
        <ele>1840.1</ele>
        <time>2012-08-06T10:55:07Z</time>
      </trkpt>
      <trkpt lat="61.6383059509" lon="8.60907127149">
        <ele>1842.02</ele>
        <time>2012-08-06T10:55:10Z</time>
      </trkpt>
      <trkpt lat="61.6383887641" lon="8.60907512717">
        <ele>1842.5</ele>
        <time>2012-08-06T10:55:19Z</time>
      </trkpt>
      <trkpt lat="61.6384233814" lon="8.60900580883">
        <ele>1842.02</ele>
        <time>2012-08-06T10:55:24Z</time>
      </trkpt>
      <trkpt lat="61.6384502035" lon="8.6089823395">
        <ele>1844.43</ele>
        <time>2012-08-06T10:55:28Z</time>
      </trkpt>
      <trkpt lat="61.6384875868" lon="8.60886138864">
        <ele>1844.43</ele>
        <time>2012-08-06T10:55:35Z</time>
      </trkpt>
      <trkpt lat="61.6384963039" lon="8.60884085298">
        <ele>1842.5</ele>
        <time>2012-08-06T10:55:37Z</time>
      </trkpt>
      <trkpt lat="61.6385211144" lon="8.60877740197">
        <ele>1844.43</ele>
        <time>2012-08-06T10:55:48Z</time>
      </trkpt>
      <trkpt lat="61.6385340225" lon="8.60869266093">
        <ele>1845.39</ele>
        <time>2012-08-06T10:56:02Z</time>
      </trkpt>
      <trkpt lat="61.638538884" lon="8.6086828541">
        <ele>1844.43</ele>
        <time>2012-08-06T10:56:03Z</time>
      </trkpt>
      <trkpt lat="61.6386215296" lon="8.60859501176">
        <ele>1844.91</ele>
        <time>2012-08-06T10:56:17Z</time>
      </trkpt>
      <trkpt lat="61.6386469267" lon="8.60853273422">
        <ele>1848.27</ele>
        <time>2012-08-06T10:56:24Z</time>
      </trkpt>
      <trkpt lat="61.6386859026" lon="8.60844103619">
        <ele>1848.27</ele>
        <time>2012-08-06T10:56:36Z</time>
      </trkpt>
      <trkpt lat="61.6387111321" lon="8.60840021633">
        <ele>1849.71</ele>
        <time>2012-08-06T10:56:47Z</time>
      </trkpt>
      <trkpt lat="61.6387202684" lon="8.6083331611">
        <ele>1850.19</ele>
        <time>2012-08-06T10:57:06Z</time>
      </trkpt>
      <trkpt lat="61.6387174185" lon="8.60833659768">
        <ele>1850.19</ele>
        <time>2012-08-06T10:57:08Z</time>
      </trkpt>
      <trkpt lat="61.6387540475" lon="8.60828102566">
        <ele>1850.68</ele>
        <time>2012-08-06T10:57:19Z</time>
      </trkpt>
      <trkpt lat="61.6387651116" lon="8.60827264376">
        <ele>1851.64</ele>
        <time>2012-08-06T10:57:21Z</time>
      </trkpt>
      <trkpt lat="61.638795035" lon="8.60823836178">
        <ele>1855</ele>
        <time>2012-08-06T10:57:28Z</time>
      </trkpt>
      <trkpt lat="61.6388367768" lon="8.6081723962">
        <ele>1853.56</ele>
        <time>2012-08-06T10:57:37Z</time>
      </trkpt>
      <trkpt lat="61.6388754174" lon="8.60816099681">
        <ele>1857.4</ele>
        <time>2012-08-06T10:57:43Z</time>
      </trkpt>
      <trkpt lat="61.6388915107" lon="8.60814959742">
        <ele>1856.44</ele>
        <time>2012-08-06T10:57:46Z</time>
      </trkpt>
      <trkpt lat="61.6389502678" lon="8.60808866099">
        <ele>1856.92</ele>
        <time>2012-08-06T10:57:56Z</time>
      </trkpt>
      <trkpt lat="61.6390021518" lon="8.60808799043">
        <ele>1860.29</ele>
        <time>2012-08-06T10:58:03Z</time>
      </trkpt>
      <trkpt lat="61.6390215978" lon="8.60807851888">
        <ele>1861.25</ele>
        <time>2012-08-06T10:58:06Z</time>
      </trkpt>
      <trkpt lat="61.6390620824" lon="8.60807323828">
        <ele>1862.69</ele>
        <time>2012-08-06T10:58:11Z</time>
      </trkpt>
      <trkpt lat="61.6390882339" lon="8.60798975453">
        <ele>1862.69</ele>
        <time>2012-08-06T10:58:17Z</time>
      </trkpt>
      <trkpt lat="61.6391222645" lon="8.60792680643">
        <ele>1863.17</ele>
        <time>2012-08-06T10:58:23Z</time>
      </trkpt>
      <trkpt lat="61.6391745675" lon="8.6078879144">
        <ele>1865.58</ele>
        <time>2012-08-06T10:58:31Z</time>
      </trkpt>
      <trkpt lat="61.6391987074" lon="8.60781365074">
        <ele>1866.54</ele>
        <time>2012-08-06T10:58:36Z</time>
      </trkpt>
      <trkpt lat="61.6392581351" lon="8.60775028355">
        <ele>1867.02</ele>
        <time>2012-08-06T10:58:44Z</time>
      </trkpt>
      <trkpt lat="61.6392890643" lon="8.60766856">
        <ele>1868.94</ele>
        <time>2012-08-06T10:58:52Z</time>
      </trkpt>
      <trkpt lat="61.6393333208" lon="8.60757719725">
        <ele>1870.86</ele>
        <time>2012-08-06T10:58:59Z</time>
      </trkpt>
      <trkpt lat="61.639367016" lon="8.60761541873">
        <ele>1870.38</ele>
        <time>2012-08-06T10:59:11Z</time>
      </trkpt>
      <trkpt lat="61.6393602267" lon="8.60761642456">
        <ele>1870.86</ele>
        <time>2012-08-06T10:59:30Z</time>
      </trkpt>
      <trkpt lat="61.6393556166" lon="8.6076126527">
        <ele>1870.86</ele>
        <time>2012-08-06T10:59:55Z</time>
      </trkpt>
      <trkpt lat="61.6393522639" lon="8.60760049894">
        <ele>1871.34</ele>
        <time>2012-08-06T11:00:14Z</time>
      </trkpt>
      <trkpt lat="61.6393870488" lon="8.60757669434">
        <ele>1870.86</ele>
        <time>2012-08-06T11:00:35Z</time>
      </trkpt>
      <trkpt lat="61.6394010466" lon="8.60760661773">
        <ele>1870.86</ele>
        <time>2012-08-06T11:01:07Z</time>
      </trkpt>
      <trkpt lat="61.6393851209" lon="8.60755984671">
        <ele>1870.86</ele>
        <time>2012-08-06T11:01:30Z</time>
      </trkpt>
      <trkpt lat="61.6393962689" lon="8.60753394663">
        <ele>1871.82</ele>
        <time>2012-08-06T11:01:35Z</time>
      </trkpt>
      <trkpt lat="61.6394356638" lon="8.6075175181">
        <ele>1871.82</ele>
        <time>2012-08-06T11:01:44Z</time>
      </trkpt>
      <trkpt lat="61.6395146213" lon="8.60743026249">
        <ele>1872.79</ele>
        <time>2012-08-06T11:01:56Z</time>
      </trkpt>
      <trkpt lat="61.6396049783" lon="8.60746881925">
        <ele>1873.75</ele>
        <time>2012-08-06T11:02:09Z</time>
      </trkpt>
      <trkpt lat="61.6396927368" lon="8.60744451173">
        <ele>1875.19</ele>
        <time>2012-08-06T11:02:21Z</time>
      </trkpt>
      <trkpt lat="61.6397317965" lon="8.6074399855">
        <ele>1876.15</ele>
        <time>2012-08-06T11:02:26Z</time>
      </trkpt>
      <trkpt lat="61.6398167051" lon="8.60742355697">
        <ele>1877.59</ele>
        <time>2012-08-06T11:02:37Z</time>
      </trkpt>
      <trkpt lat="61.6399141867" lon="8.60728357919">
        <ele>1878.55</ele>
        <time>2012-08-06T11:02:51Z</time>
      </trkpt>
      <trkpt lat="61.6399384104" lon="8.60724326223">
        <ele>1878.07</ele>
        <time>2012-08-06T11:03:07Z</time>
      </trkpt>
      <trkpt lat="61.6399522405" lon="8.60718609765">
        <ele>1878.55</ele>
        <time>2012-08-06T11:03:41Z</time>
      </trkpt>
      <trkpt lat="61.640007142" lon="8.6071607843">
        <ele>1879.51</ele>
        <time>2012-08-06T11:03:53Z</time>
      </trkpt>
      <trkpt lat="61.6400459502" lon="8.60714133829">
        <ele>1880.96</ele>
        <time>2012-08-06T11:03:58Z</time>
      </trkpt>
      <trkpt lat="61.6401078925" lon="8.60701292753">
        <ele>1881.44</ele>
        <time>2012-08-06T11:04:07Z</time>
      </trkpt>
      <trkpt lat="61.6401648894" lon="8.60690295696">
        <ele>1882.4</ele>
        <time>2012-08-06T11:04:22Z</time>
      </trkpt>
      <trkpt lat="61.6402024403" lon="8.60683606938">
        <ele>1883.36</ele>
        <time>2012-08-06T11:04:33Z</time>
      </trkpt>
      <trkpt lat="61.6402611136" lon="8.60682140104">
        <ele>1883.84</ele>
        <time>2012-08-06T11:04:45Z</time>
      </trkpt>
      <trkpt lat="61.6403024364" lon="8.60676524229">
        <ele>1884.32</ele>
        <time>2012-08-06T11:04:55Z</time>
      </trkpt>
      <trkpt lat="61.6403543204" lon="8.60667195171">
        <ele>1884.8</ele>
        <time>2012-08-06T11:05:09Z</time>
      </trkpt>
      <trkpt lat="61.6404328588" lon="8.60657849349">
        <ele>1886.24</ele>
        <time>2012-08-06T11:05:22Z</time>
      </trkpt>
      <trkpt lat="61.6404574178" lon="8.60654530115">
        <ele>1886.72</ele>
        <time>2012-08-06T11:05:29Z</time>
      </trkpt>
      <trkpt lat="61.640487425" lon="8.60644396394">
        <ele>1888.17</ele>
        <time>2012-08-06T11:05:41Z</time>
      </trkpt>
      <trkpt lat="61.640507374" lon="8.60645678826">
        <ele>1888.65</ele>
        <time>2012-08-06T11:05:46Z</time>
      </trkpt>
      <trkpt lat="61.6405418236" lon="8.60648713075">
        <ele>1889.13</ele>
        <time>2012-08-06T11:06:01Z</time>
      </trkpt>
      <trkpt lat="61.6405688971" lon="8.6065190658">
        <ele>1889.61</ele>
        <time>2012-08-06T11:06:14Z</time>
      </trkpt>
      <trkpt lat="61.6405767761" lon="8.60651562922">
        <ele>1890.09</ele>
        <time>2012-08-06T11:06:52Z</time>
      </trkpt>
      <trkpt lat="61.6405978985" lon="8.60640037805">
        <ele>1891.53</ele>
        <time>2012-08-06T11:07:07Z</time>
      </trkpt>
      <trkpt lat="61.6406098008" lon="8.60638981685">
        <ele>1890.57</ele>
        <time>2012-08-06T11:07:10Z</time>
      </trkpt>
      <trkpt lat="61.6406375449" lon="8.60631362535">
        <ele>1892.97</ele>
        <time>2012-08-06T11:07:18Z</time>
      </trkpt>
      <trkpt lat="61.6406593379" lon="8.60619049519">
        <ele>1893.93</ele>
        <time>2012-08-06T11:07:26Z</time>
      </trkpt>
      <trkpt lat="61.6407056898" lon="8.60610273667">
        <ele>1895.86</ele>
        <time>2012-08-06T11:07:39Z</time>
      </trkpt>
      <trkpt lat="61.6407478508" lon="8.60609259456">
        <ele>1896.34</ele>
        <time>2012-08-06T11:07:47Z</time>
      </trkpt>
      <trkpt lat="61.6407606751" lon="8.60604892485">
        <ele>1896.34</ele>
        <time>2012-08-06T11:07:52Z</time>
      </trkpt>
      <trkpt lat="61.6407678835" lon="8.60598555766">
        <ele>1897.3</ele>
        <time>2012-08-06T11:07:56Z</time>
      </trkpt>
      <trkpt lat="61.6407753434" lon="8.6059055943">
        <ele>1896.82</ele>
        <time>2012-08-06T11:08:02Z</time>
      </trkpt>
      <trkpt lat="61.6407915205" lon="8.60583250411">
        <ele>1896.82</ele>
        <time>2012-08-06T11:08:10Z</time>
      </trkpt>
      <trkpt lat="61.6408018302" lon="8.60578145832">
        <ele>1897.3</ele>
        <time>2012-08-06T11:08:13Z</time>
      </trkpt>
      <trkpt lat="61.6408444103" lon="8.60565740615">
        <ele>1899.22</ele>
        <time>2012-08-06T11:08:24Z</time>
      </trkpt>
      <trkpt lat="61.6408802848" lon="8.60557291657">
        <ele>1900.66</ele>
        <time>2012-08-06T11:08:35Z</time>
      </trkpt>
      <trkpt lat="61.6409035027" lon="8.60549219884">
        <ele>1900.66</ele>
        <time>2012-08-06T11:08:45Z</time>
      </trkpt>
      <trkpt lat="61.6409545485" lon="8.60547493212">
        <ele>1901.14</ele>
        <time>2012-08-06T11:08:56Z</time>
      </trkpt>
      <trkpt lat="61.6409692168" lon="8.60546302982">
        <ele>1901.63</ele>
        <time>2012-08-06T11:09:32Z</time>
      </trkpt>
      <trkpt lat="61.6409676243" lon="8.60545070842">
        <ele>1901.63</ele>
        <time>2012-08-06T11:10:09Z</time>
      </trkpt>
      <trkpt lat="61.6409649421" lon="8.60546847805">
        <ele>1901.63</ele>
        <time>2012-08-06T11:10:44Z</time>
      </trkpt>
      <trkpt lat="61.640955219" lon="8.60549001954">
        <ele>1901.63</ele>
        <time>2012-08-06T11:11:16Z</time>
      </trkpt>
      <trkpt lat="61.6409672052" lon="8.60547015443">
        <ele>1901.14</ele>
        <time>2012-08-06T11:11:45Z</time>
      </trkpt>
      <trkpt lat="61.6409666184" lon="8.60546017997">
        <ele>1901.14</ele>
        <time>2012-08-06T11:11:50Z</time>
      </trkpt>
      <trkpt lat="61.6410116293" lon="8.60533772036">
        <ele>1903.55</ele>
        <time>2012-08-06T11:12:02Z</time>
      </trkpt>
      <trkpt lat="61.6410169937" lon="8.60530511476">
        <ele>1904.03</ele>
        <time>2012-08-06T11:12:05Z</time>
      </trkpt>
      <trkpt lat="61.6410578135" lon="8.60520537011">
        <ele>1905.47</ele>
        <time>2012-08-06T11:12:17Z</time>
      </trkpt>
      <trkpt lat="61.6410629265" lon="8.60521241091">
        <ele>1905.47</ele>
        <time>2012-08-06T11:12:19Z</time>
      </trkpt>
      <trkpt lat="61.6411083564" lon="8.60512725078">
        <ele>1906.91</ele>
        <time>2012-08-06T11:12:31Z</time>
      </trkpt>
      <trkpt lat="61.6411461588" lon="8.60506271012">
        <ele>1906.91</ele>
        <time>2012-08-06T11:12:42Z</time>
      </trkpt>
      <trkpt lat="61.6411594022" lon="8.60501325689">
        <ele>1909.8</ele>
        <time>2012-08-06T11:12:49Z</time>
      </trkpt>
      <trkpt lat="61.6411778424" lon="8.60497855581">
        <ele>1910.28</ele>
        <time>2012-08-06T11:12:56Z</time>
      </trkpt>
      <trkpt lat="61.6412008088" lon="8.60488216393">
        <ele>1912.2</ele>
        <time>2012-08-06T11:13:09Z</time>
      </trkpt>
      <trkpt lat="61.6412473284" lon="8.60480915755">
        <ele>1915.56</ele>
        <time>2012-08-06T11:13:18Z</time>
      </trkpt>
      <trkpt lat="61.6412348393" lon="8.60480530187">
        <ele>1913.64</ele>
        <time>2012-08-06T11:13:39Z</time>
      </trkpt>
      <trkpt lat="61.6412352584" lon="8.60479960218">
        <ele>1917.01</ele>
        <time>2012-08-06T11:13:40Z</time>
      </trkpt>
      <trkpt lat="61.6412712168" lon="8.60474486835">
        <ele>1914.12</ele>
        <time>2012-08-06T11:14:03Z</time>
      </trkpt>
      <trkpt lat="61.64126602" lon="8.60474470071">
        <ele>1914.6</ele>
        <time>2012-08-06T11:14:36Z</time>
      </trkpt>
      <trkpt lat="61.6412552074" lon="8.60476833768">
        <ele>1914.6</ele>
        <time>2012-08-06T11:15:03Z</time>
      </trkpt>
      <trkpt lat="61.6412829515" lon="8.60474553891">
        <ele>1915.08</ele>
        <time>2012-08-06T11:15:29Z</time>
      </trkpt>
      <trkpt lat="61.6412935127" lon="8.60477043316">
        <ele>1913.64</ele>
        <time>2012-08-06T11:15:46Z</time>
      </trkpt>
      <trkpt lat="61.6412991285" lon="8.60475945286">
        <ele>1917.97</ele>
        <time>2012-08-06T11:15:47Z</time>
      </trkpt>
      <trkpt lat="61.6413058341" lon="8.60474302433">
        <ele>1916.04</ele>
        <time>2012-08-06T11:15:48Z</time>
      </trkpt>
      <trkpt lat="61.6413477436" lon="8.60462039709">
        <ele>1917.49</ele>
        <time>2012-08-06T11:15:59Z</time>
      </trkpt>
      <trkpt lat="61.6413536947" lon="8.6046244204">
        <ele>1917.01</ele>
        <time>2012-08-06T11:16:04Z</time>
      </trkpt>
      <trkpt lat="61.6414225101" lon="8.60450908542">
        <ele>1917.01</ele>
        <time>2012-08-06T11:16:15Z</time>
      </trkpt>
      <trkpt lat="61.6414764058" lon="8.60448838212">
        <ele>1919.89</ele>
        <time>2012-08-06T11:16:27Z</time>
      </trkpt>
      <trkpt lat="61.6414987855" lon="8.6044790782">
        <ele>1919.89</ele>
        <time>2012-08-06T11:16:31Z</time>
      </trkpt>
      <trkpt lat="61.6415232606" lon="8.60447706655">
        <ele>1920.37</ele>
        <time>2012-08-06T11:16:34Z</time>
      </trkpt>
      <trkpt lat="61.6415769048" lon="8.60450271517">
        <ele>1924.22</ele>
        <time>2012-08-06T11:16:42Z</time>
      </trkpt>
      <trkpt lat="61.6416358296" lon="8.60454437323">
        <ele>1922.77</ele>
        <time>2012-08-06T11:16:54Z</time>
      </trkpt>
      <trkpt lat="61.6416760627" lon="8.60449642874">
        <ele>1924.22</ele>
        <time>2012-08-06T11:17:06Z</time>
      </trkpt>
      <trkpt lat="61.6417780705" lon="8.60453615896">
        <ele>1925.66</ele>
        <time>2012-08-06T11:17:17Z</time>
      </trkpt>
      <trkpt lat="61.641789386" lon="8.60452325083">
        <ele>1927.58</ele>
        <time>2012-08-06T11:17:31Z</time>
      </trkpt>
      <trkpt lat="61.6417748015" lon="8.60453934409">
        <ele>1926.62</ele>
        <time>2012-08-06T11:17:42Z</time>
      </trkpt>
      <trkpt lat="61.6417939961" lon="8.60451059416">
        <ele>1927.58</ele>
        <time>2012-08-06T11:17:52Z</time>
      </trkpt>
      <trkpt lat="61.6418154538" lon="8.60451394692">
        <ele>1927.58</ele>
        <time>2012-08-06T11:18:09Z</time>
      </trkpt>
      <trkpt lat="61.6418127716" lon="8.60452258028">
        <ele>1927.58</ele>
        <time>2012-08-06T11:18:14Z</time>
      </trkpt>
      <trkpt lat="61.6418812517" lon="8.60444186255">
        <ele>1929.02</ele>
        <time>2012-08-06T11:18:19Z</time>
      </trkpt>
      <trkpt lat="61.6419063974" lon="8.60439794138">
        <ele>1929.5</ele>
        <time>2012-08-06T11:18:21Z</time>
      </trkpt>
      <trkpt lat="61.641925592" lon="8.60439743847">
        <ele>1929.5</ele>
        <time>2012-08-06T11:18:23Z</time>
      </trkpt>
      <trkpt lat="61.642016368" lon="8.60443758778">
        <ele>1931.43</ele>
        <time>2012-08-06T11:18:36Z</time>
      </trkpt>
      <trkpt lat="61.6420638096" lon="8.60442149453">
        <ele>1931.91</ele>
        <time>2012-08-06T11:18:42Z</time>
      </trkpt>
      <trkpt lat="61.6420677491" lon="8.60441152006">
        <ele>1931.91</ele>
        <time>2012-08-06T11:18:55Z</time>
      </trkpt>
      <trkpt lat="61.6421719361" lon="8.60443733633">
        <ele>1934.31</ele>
        <time>2012-08-06T11:19:08Z</time>
      </trkpt>
      <trkpt lat="61.6422687471" lon="8.60442174599">
        <ele>1936.71</ele>
        <time>2012-08-06T11:19:14Z</time>
      </trkpt>
      <trkpt lat="61.6423745267" lon="8.60435318202">
        <ele>1938.64</ele>
        <time>2012-08-06T11:19:28Z</time>
      </trkpt>
      <trkpt lat="61.642388273" lon="8.60435536131">
        <ele>1938.64</ele>
        <time>2012-08-06T11:19:47Z</time>
      </trkpt>
      <trkpt lat="61.6423796397" lon="8.60434890725">
        <ele>1938.16</ele>
        <time>2012-08-06T11:19:59Z</time>
      </trkpt>
      <trkpt lat="61.6424117424" lon="8.60433071852">
        <ele>1938.64</ele>
        <time>2012-08-06T11:20:12Z</time>
      </trkpt>
      <trkpt lat="61.6424292605" lon="8.6043134518">
        <ele>1939.6</ele>
        <time>2012-08-06T11:20:15Z</time>
      </trkpt>
      <trkpt lat="61.6425035242" lon="8.60436349176">
        <ele>1940.56</ele>
        <time>2012-08-06T11:20:25Z</time>
      </trkpt>
      <trkpt lat="61.6425725073" lon="8.60430942848">
        <ele>1942</ele>
        <time>2012-08-06T11:20:36Z</time>
      </trkpt>
      <trkpt lat="61.6426466033" lon="8.60420440324">
        <ele>1942.48</ele>
        <time>2012-08-06T11:20:47Z</time>
      </trkpt>
      <trkpt lat="61.6427099705" lon="8.60408035107">
        <ele>1943.44</ele>
        <time>2012-08-06T11:21:01Z</time>
      </trkpt>
      <trkpt lat="61.6428073682" lon="8.60396359116">
        <ele>1944.88</ele>
        <time>2012-08-06T11:21:16Z</time>
      </trkpt>
      <trkpt lat="61.6428810451" lon="8.60379871912">
        <ele>1945.85</ele>
        <time>2012-08-06T11:21:29Z</time>
      </trkpt>
      <trkpt lat="61.6429512855" lon="8.60365765169">
        <ele>1946.81</ele>
        <time>2012-08-06T11:21:42Z</time>
      </trkpt>
      <trkpt lat="61.6430159099" lon="8.60352815129">
        <ele>1948.25</ele>
        <time>2012-08-06T11:21:55Z</time>
      </trkpt>
      <trkpt lat="61.6430492699" lon="8.60338247381">
        <ele>1949.69</ele>
        <time>2012-08-06T11:22:09Z</time>
      </trkpt>
      <trkpt lat="61.6430971306" lon="8.60332245938">
        <ele>1951.13</ele>
        <time>2012-08-06T11:22:23Z</time>
      </trkpt>
      <trkpt lat="61.6431441531" lon="8.60320343636">
        <ele>1953.54</ele>
        <time>2012-08-06T11:22:33Z</time>
      </trkpt>
      <trkpt lat="61.6431619227" lon="8.60316378996">
        <ele>1954.02</ele>
        <time>2012-08-06T11:22:46Z</time>
      </trkpt>
      <trkpt lat="61.6431678738" lon="8.60314182937">
        <ele>1954.5</ele>
        <time>2012-08-06T11:22:57Z</time>
      </trkpt>
      <trkpt lat="61.6431646049" lon="8.60313185491">
        <ele>1954.5</ele>
        <time>2012-08-06T11:23:17Z</time>
      </trkpt>
      <trkpt lat="61.6431616712" lon="8.60312313773">
        <ele>1953.54</ele>
        <time>2012-08-06T11:23:40Z</time>
      </trkpt>
      <trkpt lat="61.6431576479" lon="8.60312179662">
        <ele>1954.02</ele>
        <time>2012-08-06T11:24:19Z</time>
      </trkpt>
      <trkpt lat="61.6431574803" lon="8.60307066701">
        <ele>1954.02</ele>
        <time>2012-08-06T11:24:51Z</time>
      </trkpt>
      <trkpt lat="61.6431971267" lon="8.60300268978">
        <ele>1954.98</ele>
        <time>2012-08-06T11:25:05Z</time>
      </trkpt>
      <trkpt lat="61.6432209313" lon="8.60296178609">
        <ele>1955.46</ele>
        <time>2012-08-06T11:25:10Z</time>
      </trkpt>
      <trkpt lat="61.6432703845" lon="8.60295273364">
        <ele>1954.98</ele>
        <time>2012-08-06T11:25:20Z</time>
      </trkpt>
      <trkpt lat="61.6432729829" lon="8.60295625404">
        <ele>1957.86</ele>
        <time>2012-08-06T11:25:21Z</time>
      </trkpt>
      <trkpt lat="61.6433433071" lon="8.60289070755">
        <ele>1957.86</ele>
        <time>2012-08-06T11:25:34Z</time>
      </trkpt>
      <trkpt lat="61.6433796845" lon="8.60282004811">
        <ele>1959.78</ele>
        <time>2012-08-06T11:25:41Z</time>
      </trkpt>
      <trkpt lat="61.6434061714" lon="8.60272969119">
        <ele>1960.75</ele>
        <time>2012-08-06T11:25:48Z</time>
      </trkpt>
      <trkpt lat="61.6434225161" lon="8.60269473866">
        <ele>1961.23</ele>
        <time>2012-08-06T11:25:51Z</time>
      </trkpt>
      <trkpt lat="61.643440621" lon="8.60266565345">
        <ele>1962.19</ele>
        <time>2012-08-06T11:25:54Z</time>
      </trkpt>
      <trkpt lat="61.6434598155" lon="8.6026266776">
        <ele>1961.71</ele>
        <time>2012-08-06T11:25:58Z</time>
      </trkpt>
      <trkpt lat="61.6434718855" lon="8.60261578113">
        <ele>1963.63</ele>
        <time>2012-08-06T11:25:59Z</time>
      </trkpt>
      <trkpt lat="61.6434806027" lon="8.60261024907">
        <ele>1963.15</ele>
        <time>2012-08-06T11:26:00Z</time>
      </trkpt>
      <trkpt lat="61.6434946004" lon="8.60260915942">
        <ele>1963.15</ele>
        <time>2012-08-06T11:26:02Z</time>
      </trkpt>
      <trkpt lat="61.6435593925" lon="8.60268266872">
        <ele>1964.11</ele>
        <time>2012-08-06T11:26:13Z</time>
      </trkpt>
      <trkpt lat="61.643577246" lon="8.60262525268">
        <ele>1964.59</ele>
        <time>2012-08-06T11:26:25Z</time>
      </trkpt>
      <trkpt lat="61.6435938422" lon="8.60265014693">
        <ele>1964.59</ele>
        <time>2012-08-06T11:26:37Z</time>
      </trkpt>
      <trkpt lat="61.6435894836" lon="8.60266171396">
        <ele>1965.07</ele>
        <time>2012-08-06T11:27:06Z</time>
      </trkpt>
      <trkpt lat="61.6435748152" lon="8.60267629847">
        <ele>1964.59</ele>
        <time>2012-08-06T11:27:35Z</time>
      </trkpt>
      <trkpt lat="61.6435956862" lon="8.6026473809">
        <ele>1965.55</ele>
        <time>2012-08-06T11:27:56Z</time>
      </trkpt>
      <trkpt lat="61.6436489951" lon="8.60260144807">
        <ele>1966.51</ele>
        <time>2012-08-06T11:28:09Z</time>
      </trkpt>
      <trkpt lat="61.6436815169" lon="8.60258183442">
        <ele>1968.44</ele>
        <time>2012-08-06T11:28:15Z</time>
      </trkpt>
      <trkpt lat="61.6437413637" lon="8.60248812474">
        <ele>1969.88</ele>
        <time>2012-08-06T11:28:27Z</time>
      </trkpt>
      <trkpt lat="61.6437638272" lon="8.60246205702">
        <ele>1970.36</ele>
        <time>2012-08-06T11:28:32Z</time>
      </trkpt>
      <trkpt lat="61.6437662579" lon="8.60245116055">
        <ele>1969.88</ele>
        <time>2012-08-06T11:28:33Z</time>
      </trkpt>
      <trkpt lat="61.6437738854" lon="8.60247756355">
        <ele>1969.88</ele>
        <time>2012-08-06T11:28:51Z</time>
      </trkpt>
      <trkpt lat="61.6437603068" lon="8.60244940035">
        <ele>1970.36</ele>
        <time>2012-08-06T11:28:58Z</time>
      </trkpt>
      <trkpt lat="61.6437598038" lon="8.60241143033">
        <ele>1973.24</ele>
        <time>2012-08-06T11:29:00Z</time>
      </trkpt>
      <trkpt lat="61.6437623184" lon="8.60240422189">
        <ele>1969.88</ele>
        <time>2012-08-06T11:29:01Z</time>
      </trkpt>
      <trkpt lat="61.6437636595" lon="8.60239625908">
        <ele>1969.88</ele>
        <time>2012-08-06T11:29:02Z</time>
      </trkpt>
      <trkpt lat="61.6437737178" lon="8.60231260769">
        <ele>1966.51</ele>
        <time>2012-08-06T11:29:09Z</time>
      </trkpt>
      <trkpt lat="61.6437770706" lon="8.6023051478">
        <ele>1973.72</ele>
        <time>2012-08-06T11:29:10Z</time>
      </trkpt>
      <trkpt lat="61.6437800881" lon="8.60221143812">
        <ele>1971.8</ele>
        <time>2012-08-06T11:29:26Z</time>
      </trkpt>
      <trkpt lat="61.6437990312" lon="8.60229802318">
        <ele>1971.32</ele>
        <time>2012-08-06T11:29:54Z</time>
      </trkpt>
      <trkpt lat="61.6438043118" lon="8.60231336206">
        <ele>1971.8</ele>
        <time>2012-08-06T11:30:20Z</time>
      </trkpt>
      <trkpt lat="61.6438020486" lon="8.60227103345">
        <ele>1972.76</ele>
        <time>2012-08-06T11:30:32Z</time>
      </trkpt>
      <trkpt lat="61.6438089218" lon="8.6022681836">
        <ele>1971.8</ele>
        <time>2012-08-06T11:31:06Z</time>
      </trkpt>
      <trkpt lat="61.6438219137" lon="8.60226005316">
        <ele>1972.76</ele>
        <time>2012-08-06T11:31:34Z</time>
      </trkpt>
      <trkpt lat="61.6438227519" lon="8.60224680975">
        <ele>1972.76</ele>
        <time>2012-08-06T11:31:41Z</time>
      </trkpt>
      <trkpt lat="61.6438250151" lon="8.60217271373">
        <ele>1971.32</ele>
        <time>2012-08-06T11:31:46Z</time>
      </trkpt>
      <trkpt lat="61.643837085" lon="8.60213189386">
        <ele>1973.72</ele>
        <time>2012-08-06T11:31:48Z</time>
      </trkpt>
      <trkpt lat="61.6438790783" lon="8.60201496631">
        <ele>1976.13</ele>
        <time>2012-08-06T11:31:59Z</time>
      </trkpt>
      <trkpt lat="61.6438843589" lon="8.60199736431">
        <ele>1977.57</ele>
        <time>2012-08-06T11:32:01Z</time>
      </trkpt>
      <trkpt lat="61.6439124383" lon="8.60195335932">
        <ele>1976.13</ele>
        <time>2012-08-06T11:32:05Z</time>
      </trkpt>
      <trkpt lat="61.6439383384" lon="8.60191237181">
        <ele>1978.53</ele>
        <time>2012-08-06T11:32:11Z</time>
      </trkpt>
      <trkpt lat="61.6439511627" lon="8.60181874596">
        <ele>1979.97</ele>
        <time>2012-08-06T11:32:21Z</time>
      </trkpt>
      <trkpt lat="61.6439499054" lon="8.6018118728">
        <ele>1976.61</ele>
        <time>2012-08-06T11:32:23Z</time>
      </trkpt>
      <trkpt lat="61.6440095846" lon="8.60168530606">
        <ele>1980.93</ele>
        <time>2012-08-06T11:32:36Z</time>
      </trkpt>
      <trkpt lat="61.6440345626" lon="8.60162411816">
        <ele>1981.41</ele>
        <time>2012-08-06T11:32:47Z</time>
      </trkpt>
      <trkpt lat="61.644048309" lon="8.6016092822">
        <ele>1982.38</ele>
        <time>2012-08-06T11:32:49Z</time>
      </trkpt>
      <trkpt lat="61.6440523323" lon="8.60160592943">
        <ele>1980.93</ele>
        <time>2012-08-06T11:32:50Z</time>
      </trkpt>
      <trkpt lat="61.6440742929" lon="8.60159193166">
        <ele>1984.3</ele>
        <time>2012-08-06T11:32:55Z</time>
      </trkpt>
      <trkpt lat="61.6441077366" lon="8.60159151256">
        <ele>1984.3</ele>
        <time>2012-08-06T11:33:05Z</time>
      </trkpt>
      <trkpt lat="61.6441130172" lon="8.60158824362">
        <ele>1984.3</ele>
        <time>2012-08-06T11:33:06Z</time>
      </trkpt>
      <trkpt lat="61.644164063" lon="8.60158321448">
        <ele>1986.22</ele>
        <time>2012-08-06T11:33:12Z</time>
      </trkpt>
      <trkpt lat="61.6441969201" lon="8.60156904906">
        <ele>1987.18</ele>
        <time>2012-08-06T11:33:18Z</time>
      </trkpt>
      <trkpt lat="61.6442348901" lon="8.60157868825">
        <ele>1991.99</ele>
        <time>2012-08-06T11:33:29Z</time>
      </trkpt>
      <trkpt lat="61.6443050466" lon="8.6015895009">
        <ele>1992.47</ele>
        <time>2012-08-06T11:33:45Z</time>
      </trkpt>
      <trkpt lat="61.6443089023" lon="8.6016401276">
        <ele>1992.95</ele>
        <time>2012-08-06T11:33:51Z</time>
      </trkpt>
      <trkpt lat="61.644373443" lon="8.60169486143">
        <ele>1994.39</ele>
        <time>2012-08-06T11:34:03Z</time>
      </trkpt>
      <trkpt lat="61.6443923861" lon="8.60163652338">
        <ele>1994.87</ele>
        <time>2012-08-06T11:34:17Z</time>
      </trkpt>
      <trkpt lat="61.6444316134" lon="8.60154792666">
        <ele>1997.28</ele>
        <time>2012-08-06T11:34:31Z</time>
      </trkpt>
      <trkpt lat="61.6444617044" lon="8.6014670413">
        <ele>1998.24</ele>
        <time>2012-08-06T11:34:46Z</time>
      </trkpt>
      <trkpt lat="61.6444664821" lon="8.60144365579">
        <ele>1998.72</ele>
        <time>2012-08-06T11:35:01Z</time>
      </trkpt>
      <trkpt lat="61.6444638837" lon="8.60143493861">
        <ele>1999.2</ele>
        <time>2012-08-06T11:35:04Z</time>
      </trkpt>
      <trkpt lat="61.644488778" lon="8.60139261">
        <ele>1999.2</ele>
        <time>2012-08-06T11:35:08Z</time>
      </trkpt>
      <trkpt lat="61.6445147619" lon="8.60125238076">
        <ele>1999.68</ele>
        <time>2012-08-06T11:35:19Z</time>
      </trkpt>
      <trkpt lat="61.6445315257" lon="8.60125397332">
        <ele>2000.64</ele>
        <time>2012-08-06T11:35:24Z</time>
      </trkpt>
      <trkpt lat="61.6445968207" lon="8.60118130222">
        <ele>2001.6</ele>
        <time>2012-08-06T11:35:32Z</time>
      </trkpt>
      <trkpt lat="61.64461568" lon="8.60108407214">
        <ele>2002.56</ele>
        <time>2012-08-06T11:35:39Z</time>
      </trkpt>
      <trkpt lat="61.6446682345" lon="8.60100293532">
        <ele>2004.01</ele>
        <time>2012-08-06T11:35:50Z</time>
      </trkpt>
      <trkpt lat="61.6447247285" lon="8.60102824867">
        <ele>2006.41</ele>
        <time>2012-08-06T11:36:01Z</time>
      </trkpt>
      <trkpt lat="61.6447782051" lon="8.60102682374">
        <ele>2007.85</ele>
        <time>2012-08-06T11:36:11Z</time>
      </trkpt>
      <trkpt lat="61.6447849944" lon="8.6009997502">
        <ele>2008.33</ele>
        <time>2012-08-06T11:36:20Z</time>
      </trkpt>
      <trkpt lat="61.6447916999" lon="8.60099145211">
        <ele>2008.33</ele>
        <time>2012-08-06T11:36:22Z</time>
      </trkpt>
      <trkpt lat="61.6448119842" lon="8.60080948099">
        <ele>2009.29</ele>
        <time>2012-08-06T11:36:33Z</time>
      </trkpt>
      <trkpt lat="61.6448864993" lon="8.60076379962">
        <ele>2011.22</ele>
        <time>2012-08-06T11:36:45Z</time>
      </trkpt>
      <trkpt lat="61.6449042689" lon="8.60077193007">
        <ele>2012.66</ele>
        <time>2012-08-06T11:36:59Z</time>
      </trkpt>
      <trkpt lat="61.6449230444" lon="8.6007623747">
        <ele>2013.14</ele>
        <time>2012-08-06T11:37:17Z</time>
      </trkpt>
      <trkpt lat="61.6449366231" lon="8.60067226924">
        <ele>2013.62</ele>
        <time>2012-08-06T11:37:28Z</time>
      </trkpt>
      <trkpt lat="61.6449510399" lon="8.60060018487">
        <ele>2014.58</ele>
        <time>2012-08-06T11:37:39Z</time>
      </trkpt>
      <trkpt lat="61.6449860763" lon="8.60050505027">
        <ele>2016.5</ele>
        <time>2012-08-06T11:37:48Z</time>
      </trkpt>
      <trkpt lat="61.6450291593" lon="8.60051376745">
        <ele>2017.94</ele>
        <time>2012-08-06T11:37:56Z</time>
      </trkpt>
      <trkpt lat="61.6450522095" lon="8.60044252127">
        <ele>2017.46</ele>
        <time>2012-08-06T11:38:07Z</time>
      </trkpt>
      <trkpt lat="61.6450506169" lon="8.60043874942">
        <ele>2017.94</ele>
        <time>2012-08-06T11:38:26Z</time>
      </trkpt>
      <trkpt lat="61.6450461745" lon="8.60045920126">
        <ele>2017.46</ele>
        <time>2012-08-06T11:38:47Z</time>
      </trkpt>
      <trkpt lat="61.6450447496" lon="8.60042642802">
        <ele>2017.46</ele>
        <time>2012-08-06T11:39:21Z</time>
      </trkpt>
      <trkpt lat="61.6450391337" lon="8.60046322457">
        <ele>2017.46</ele>
        <time>2012-08-06T11:39:59Z</time>
      </trkpt>
      <trkpt lat="61.6450439114" lon="8.60040061176">
        <ele>2018.43</ele>
        <time>2012-08-06T11:40:14Z</time>
      </trkpt>
      <trkpt lat="61.645058915" lon="8.60042659566">
        <ele>2017.94</ele>
        <time>2012-08-06T11:40:39Z</time>
      </trkpt>
      <trkpt lat="61.6450671293" lon="8.60042743385">
        <ele>2017.46</ele>
        <time>2012-08-06T11:40:58Z</time>
      </trkpt>
      <trkpt lat="61.6450592503" lon="8.60043724068">
        <ele>2016.98</ele>
        <time>2012-08-06T11:41:16Z</time>
      </trkpt>
      <trkpt lat="61.6450560652" lon="8.60045769252">
        <ele>2017.94</ele>
        <time>2012-08-06T11:41:49Z</time>
      </trkpt>
      <trkpt lat="61.6450481862" lon="8.6004214827">
        <ele>2018.43</ele>
        <time>2012-08-06T11:42:08Z</time>
      </trkpt>
      <trkpt lat="61.6450459231" lon="8.60044461675">
        <ele>2017.94</ele>
        <time>2012-08-06T11:42:24Z</time>
      </trkpt>
      <trkpt lat="61.6450573225" lon="8.60041645356">
        <ele>2017.94</ele>
        <time>2012-08-06T11:42:36Z</time>
      </trkpt>
      <trkpt lat="61.6450645309" lon="8.60046054237">
        <ele>2017.94</ele>
        <time>2012-08-06T11:43:00Z</time>
      </trkpt>
      <trkpt lat="61.6450569034" lon="8.6004642304">
        <ele>2017.94</ele>
        <time>2012-08-06T11:43:29Z</time>
      </trkpt>
      <trkpt lat="61.6450501978" lon="8.60047546215">
        <ele>2017.94</ele>
        <time>2012-08-06T11:43:56Z</time>
      </trkpt>
      <trkpt lat="61.6450485215" lon="8.60047722235">
        <ele>2017.94</ele>
        <time>2012-08-06T11:44:13Z</time>
      </trkpt>
      <trkpt lat="61.6450470127" lon="8.60047361813">
        <ele>2017.94</ele>
        <time>2012-08-06T11:44:32Z</time>
      </trkpt>
      <trkpt lat="61.6450646147" lon="8.60042533837">
        <ele>2018.43</ele>
        <time>2012-08-06T11:44:43Z</time>
      </trkpt>
      <trkpt lat="61.6450480185" lon="8.60040002503">
        <ele>2018.91</ele>
        <time>2012-08-06T11:45:01Z</time>
      </trkpt>
      <trkpt lat="61.6450657044" lon="8.60040673055">
        <ele>2018.43</ele>
        <time>2012-08-06T11:45:23Z</time>
      </trkpt>
      <trkpt lat="61.6450732481" lon="8.60043891706">
        <ele>2017.94</ele>
        <time>2012-08-06T11:45:51Z</time>
      </trkpt>
      <trkpt lat="61.6450555623" lon="8.60047906637">
        <ele>2018.43</ele>
        <time>2012-08-06T11:46:11Z</time>
      </trkpt>
      <trkpt lat="61.6450509522" lon="8.60045190901">
        <ele>2018.43</ele>
        <time>2012-08-06T11:46:25Z</time>
      </trkpt>
      <trkpt lat="61.6450481862" lon="8.60040966421">
        <ele>2018.91</ele>
        <time>2012-08-06T11:46:43Z</time>
      </trkpt>
      <trkpt lat="61.6450427379" lon="8.60042424873">
        <ele>2018.43</ele>
        <time>2012-08-06T11:47:08Z</time>
      </trkpt>
      <trkpt lat="61.645049192" lon="8.60039348714">
        <ele>2018.91</ele>
        <time>2012-08-06T11:47:21Z</time>
      </trkpt>
      <trkpt lat="61.6450729966" lon="8.60041586682">
        <ele>2017.94</ele>
        <time>2012-08-06T11:47:42Z</time>
      </trkpt>
      <trkpt lat="61.6450355295" lon="8.60041888431">
        <ele>2018.43</ele>
        <time>2012-08-06T11:48:06Z</time>
      </trkpt>
      <trkpt lat="61.6450988129" lon="8.60028401949">
        <ele>2020.35</ele>
        <time>2012-08-06T11:48:19Z</time>
      </trkpt>
      <trkpt lat="61.6451184265" lon="8.60020472668">
        <ele>2020.83</ele>
        <time>2012-08-06T11:48:27Z</time>
      </trkpt>
      <trkpt lat="61.6451359447" lon="8.60012568533">
        <ele>2021.31</ele>
        <time>2012-08-06T11:48:37Z</time>
      </trkpt>
      <trkpt lat="61.6451697238" lon="8.60002962872">
        <ele>2022.27</ele>
        <time>2012-08-06T11:48:48Z</time>
      </trkpt>
      <trkpt lat="61.6451857332" lon="8.59993994236">
        <ele>2023.71</ele>
        <time>2012-08-06T11:49:02Z</time>
      </trkpt>
      <trkpt lat="61.6452253796" lon="8.59994916245">
        <ele>2024.67</ele>
        <time>2012-08-06T11:49:14Z</time>
      </trkpt>
      <trkpt lat="61.645222865" lon="8.59994061291">
        <ele>2025.64</ele>
        <time>2012-08-06T11:49:36Z</time>
      </trkpt>
      <trkpt lat="61.6452687979" lon="8.59988093376">
        <ele>2027.56</ele>
        <time>2012-08-06T11:49:47Z</time>
      </trkpt>
      <trkpt lat="61.6453135572" lon="8.59984748997">
        <ele>2029</ele>
        <time>2012-08-06T11:49:59Z</time>
      </trkpt>
      <trkpt lat="61.6453486774" lon="8.59986727126">
        <ele>2029</ele>
        <time>2012-08-06T11:50:13Z</time>
      </trkpt>
      <trkpt lat="61.6453726497" lon="8.59983935952">
        <ele>2030.92</ele>
        <time>2012-08-06T11:50:25Z</time>
      </trkpt>
      <trkpt lat="61.6454084404" lon="8.59970818274">
        <ele>2031.4</ele>
        <time>2012-08-06T11:50:37Z</time>
      </trkpt>
      <trkpt lat="61.6454501823" lon="8.59974187799">
        <ele>2031.4</ele>
        <time>2012-08-06T11:50:49Z</time>
      </trkpt>
      <trkpt lat="61.6454965342" lon="8.59974757768">
        <ele>2032.84</ele>
        <time>2012-08-06T11:51:02Z</time>
      </trkpt>
      <trkpt lat="61.6455462389" lon="8.5996956937">
        <ele>2034.29</ele>
        <time>2012-08-06T11:51:14Z</time>
      </trkpt>
      <trkpt lat="61.6455529444" lon="8.59969904646">
        <ele>2034.29</ele>
        <time>2012-08-06T11:51:31Z</time>
      </trkpt>
      <trkpt lat="61.6455078498" lon="8.59974715859">
        <ele>2034.77</ele>
        <time>2012-08-06T11:51:51Z</time>
      </trkpt>
      <trkpt lat="61.6455015633" lon="8.59974849969">
        <ele>2034.77</ele>
        <time>2012-08-06T11:52:06Z</time>
      </trkpt>
      <trkpt lat="61.6455180757" lon="8.59972888604">
        <ele>2033.81</ele>
        <time>2012-08-06T11:52:28Z</time>
      </trkpt>
      <trkpt lat="61.6455397848" lon="8.59970918857">
        <ele>2033.81</ele>
        <time>2012-08-06T11:52:52Z</time>
      </trkpt>
      <trkpt lat="61.6455518547" lon="8.59968588687">
        <ele>2034.29</ele>
        <time>2012-08-06T11:53:11Z</time>
      </trkpt>
      <trkpt lat="61.6455850471" lon="8.59972125851">
        <ele>2034.29</ele>
        <time>2012-08-06T11:53:26Z</time>
      </trkpt>
      <trkpt lat="61.6456236038" lon="8.59959779307">
        <ele>2036.69</ele>
        <time>2012-08-06T11:53:40Z</time>
      </trkpt>
      <trkpt lat="61.6456442233" lon="8.5994345136">
        <ele>2037.65</ele>
        <time>2012-08-06T11:53:54Z</time>
      </trkpt>
      <trkpt lat="61.6456531081" lon="8.59932596795">
        <ele>2039.09</ele>
        <time>2012-08-06T11:54:09Z</time>
      </trkpt>
      <trkpt lat="61.6457065009" lon="8.59933560714">
        <ele>2040.05</ele>
        <time>2012-08-06T11:54:26Z</time>
      </trkpt>
      <trkpt lat="61.6457369272" lon="8.59933066182">
        <ele>2041.5</ele>
        <time>2012-08-06T11:54:53Z</time>
      </trkpt>
      <trkpt lat="61.6457977798" lon="8.59928397462">
        <ele>2042.94</ele>
        <time>2012-08-06T11:55:04Z</time>
      </trkpt>
      <trkpt lat="61.6458556149" lon="8.59921222553">
        <ele>2043.9</ele>
        <time>2012-08-06T11:55:17Z</time>
      </trkpt>
      <trkpt lat="61.6458878852" lon="8.59911130741">
        <ele>2045.34</ele>
        <time>2012-08-06T11:55:27Z</time>
      </trkpt>
      <trkpt lat="61.6459779069" lon="8.59901826829">
        <ele>2046.3</ele>
        <time>2012-08-06T11:55:43Z</time>
      </trkpt>
      <trkpt lat="61.6460383404" lon="8.59890796244">
        <ele>2047.26</ele>
        <time>2012-08-06T11:55:56Z</time>
      </trkpt>
      <trkpt lat="61.6460685153" lon="8.59881534241">
        <ele>2048.71</ele>
        <time>2012-08-06T11:56:16Z</time>
      </trkpt>
      <trkpt lat="61.6461258475" lon="8.5986756999">
        <ele>2051.11</ele>
        <time>2012-08-06T11:56:31Z</time>
      </trkpt>
      <trkpt lat="61.6461258475" lon="8.59866145067">
        <ele>2051.11</ele>
        <time>2012-08-06T11:56:49Z</time>
      </trkpt>
      <trkpt lat="61.6461394262" lon="8.59862532467">
        <ele>2052.07</ele>
        <time>2012-08-06T11:57:02Z</time>
      </trkpt>
      <trkpt lat="61.6461456288" lon="8.59862297773">
        <ele>2051.59</ele>
        <time>2012-08-06T11:57:04Z</time>
      </trkpt>
      <trkpt lat="61.6461495683" lon="8.59858819284">
        <ele>2051.59</ele>
        <time>2012-08-06T11:57:15Z</time>
      </trkpt>
      <trkpt lat="61.6461682599" lon="8.59848786145">
        <ele>2052.55</ele>
        <time>2012-08-06T11:57:32Z</time>
      </trkpt>
      <trkpt lat="61.6461788211" lon="8.59837738797">
        <ele>2053.51</ele>
        <time>2012-08-06T11:57:44Z</time>
      </trkpt>
      <trkpt lat="61.6461839341" lon="8.59833950177">
        <ele>2053.99</ele>
        <time>2012-08-06T11:57:53Z</time>
      </trkpt>
      <trkpt lat="61.6462353151" lon="8.5982779786">
        <ele>2054.96</ele>
        <time>2012-08-06T11:57:59Z</time>
      </trkpt>
      <trkpt lat="61.6462342255" lon="8.59832508489">
        <ele>2054.96</ele>
        <time>2012-08-06T11:58:03Z</time>
      </trkpt>
      <trkpt lat="61.6462677531" lon="8.59824897721">
        <ele>2056.88</ele>
        <time>2012-08-06T11:58:17Z</time>
      </trkpt>
      <trkpt lat="61.6462905519" lon="8.59822475351">
        <ele>2057.84</ele>
        <time>2012-08-06T11:58:33Z</time>
      </trkpt>
      <trkpt lat="61.646328941" lon="8.59810631722">
        <ele>2058.8</ele>
        <time>2012-08-06T11:58:47Z</time>
      </trkpt>
      <trkpt lat="61.6463340539" lon="8.59799634665">
        <ele>2059.28</ele>
        <time>2012-08-06T11:59:01Z</time>
      </trkpt>
      <trkpt lat="61.6463489737" lon="8.59787883237">
        <ele>2060.24</ele>
        <time>2012-08-06T11:59:15Z</time>
      </trkpt>
      <trkpt lat="61.6463706829" lon="8.59778512269">
        <ele>2061.2</ele>
        <time>2012-08-06T11:59:29Z</time>
      </trkpt>
      <trkpt lat="61.6463981755" lon="8.5978054069">
        <ele>2061.68</ele>
        <time>2012-08-06T11:59:48Z</time>
      </trkpt>
      <trkpt lat="61.6464311164" lon="8.59778051265">
        <ele>2062.65</ele>
        <time>2012-08-06T12:00:03Z</time>
      </trkpt>
      <trkpt lat="61.6464528255" lon="8.59767640941">
        <ele>2063.61</ele>
        <time>2012-08-06T12:00:22Z</time>
      </trkpt>
      <trkpt lat="61.6464767978" lon="8.59760038555">
        <ele>2065.05</ele>
        <time>2012-08-06T12:00:34Z</time>
      </trkpt>
      <trkpt lat="61.6465073079" lon="8.59750701115">
        <ele>2066.01</ele>
        <time>2012-08-06T12:00:47Z</time>
      </trkpt>
      <trkpt lat="61.6465282626" lon="8.59740575776">
        <ele>2066.97</ele>
        <time>2012-08-06T12:01:04Z</time>
      </trkpt>
      <trkpt lat="61.6465717647" lon="8.59738421626">
        <ele>2067.45</ele>
        <time>2012-08-06T12:01:14Z</time>
      </trkpt>
      <trkpt lat="61.646586014" lon="8.5973676201">
        <ele>2068.41</ele>
        <time>2012-08-06T12:01:20Z</time>
      </trkpt>
      <trkpt lat="61.6466029454" lon="8.59734331258">
        <ele>2069.38</ele>
        <time>2012-08-06T12:01:31Z</time>
      </trkpt>
      <trkpt lat="61.6466199607" lon="8.59724264592">
        <ele>2070.34</ele>
        <time>2012-08-06T12:01:42Z</time>
      </trkpt>
      <trkpt lat="61.6466575116" lon="8.59717290848">
        <ele>2071.3</ele>
        <time>2012-08-06T12:01:56Z</time>
      </trkpt>
      <trkpt lat="61.6466632113" lon="8.59715195373">
        <ele>2071.3</ele>
        <time>2012-08-06T12:02:07Z</time>
      </trkpt>
      <trkpt lat="61.6466422565" lon="8.59715849161">
        <ele>2072.26</ele>
        <time>2012-08-06T12:02:19Z</time>
      </trkpt>
      <trkpt lat="61.6466579307" lon="8.59711507335">
        <ele>2071.78</ele>
        <time>2012-08-06T12:02:37Z</time>
      </trkpt>
      <trkpt lat="61.6466599423" lon="8.59709646553">
        <ele>2071.78</ele>
        <time>2012-08-06T12:02:39Z</time>
      </trkpt>
      <trkpt lat="61.6467134189" lon="8.59695414081">
        <ele>2072.74</ele>
        <time>2012-08-06T12:02:52Z</time>
      </trkpt>
      <trkpt lat="61.6467487905" lon="8.59681441449">
        <ele>2075.14</ele>
        <time>2012-08-06T12:03:06Z</time>
      </trkpt>
      <trkpt lat="61.6467755288" lon="8.59668348916">
        <ele>2076.59</ele>
        <time>2012-08-06T12:03:18Z</time>
      </trkpt>
      <trkpt lat="61.6467840783" lon="8.59657888301">
        <ele>2077.55</ele>
        <time>2012-08-06T12:03:31Z</time>
      </trkpt>
      <trkpt lat="61.646805536" lon="8.59653269872">
        <ele>2078.03</ele>
        <time>2012-08-06T12:03:42Z</time>
      </trkpt>
      <trkpt lat="61.6468306817" lon="8.59644443728">
        <ele>2078.99</ele>
        <time>2012-08-06T12:03:53Z</time>
      </trkpt>
      <trkpt lat="61.6468360461" lon="8.59636296518">
        <ele>2079.47</ele>
        <time>2012-08-06T12:04:03Z</time>
      </trkpt>
      <trkpt lat="61.6468539834" lon="8.59625659883">
        <ele>2080.43</ele>
        <time>2012-08-06T12:04:12Z</time>
      </trkpt>
      <trkpt lat="61.6468648799" lon="8.59615048394">
        <ele>2082.35</ele>
        <time>2012-08-06T12:04:22Z</time>
      </trkpt>
      <trkpt lat="61.646906957" lon="8.59602995217">
        <ele>2083.79</ele>
        <time>2012-08-06T12:04:33Z</time>
      </trkpt>
      <trkpt lat="61.6469846573" lon="8.59599055722">
        <ele>2085.24</ele>
        <time>2012-08-06T12:04:47Z</time>
      </trkpt>
      <trkpt lat="61.6470018402" lon="8.59597052447">
        <ele>2086.68</ele>
        <time>2012-08-06T12:05:01Z</time>
      </trkpt>
      <trkpt lat="61.6469738446" lon="8.59581612982">
        <ele>2086.68</ele>
        <time>2012-08-06T12:05:14Z</time>
      </trkpt>
      <trkpt lat="61.6469176859" lon="8.59564731829">
        <ele>2085.72</ele>
        <time>2012-08-06T12:05:26Z</time>
      </trkpt>
      <trkpt lat="61.6469100583" lon="8.5955337435">
        <ele>2086.68</ele>
        <time>2012-08-06T12:05:36Z</time>
      </trkpt>
      <trkpt lat="61.6469156742" lon="8.59543500468">
        <ele>2087.16</ele>
        <time>2012-08-06T12:05:44Z</time>
      </trkpt>
      <trkpt lat="61.6469277442" lon="8.59528630972">
        <ele>2088.12</ele>
        <time>2012-08-06T12:05:56Z</time>
      </trkpt>
      <trkpt lat="61.6469290014" lon="8.59524423257">
        <ele>2088.12</ele>
        <time>2012-08-06T12:05:59Z</time>
      </trkpt>
      <trkpt lat="61.6469319351" lon="8.59509520233">
        <ele>2089.08</ele>
        <time>2012-08-06T12:06:13Z</time>
      </trkpt>
      <trkpt lat="61.6469424963" lon="8.59506452456">
        <ele>2090.52</ele>
        <time>2012-08-06T12:06:16Z</time>
      </trkpt>
      <trkpt lat="61.6469694022" lon="8.59496142715">
        <ele>2091.49</ele>
        <time>2012-08-06T12:06:27Z</time>
      </trkpt>
      <trkpt lat="61.6469979845" lon="8.59483888373">
        <ele>2093.41</ele>
        <time>2012-08-06T12:06:39Z</time>
      </trkpt>
      <trkpt lat="61.6470385529" lon="8.59474458732">
        <ele>2094.37</ele>
        <time>2012-08-06T12:06:50Z</time>
      </trkpt>
      <trkpt lat="61.6470606811" lon="8.59458248131">
        <ele>2096.29</ele>
        <time>2012-08-06T12:07:03Z</time>
      </trkpt>
      <trkpt lat="61.6471022554" lon="8.59446848743">
        <ele>2097.25</ele>
        <time>2012-08-06T12:07:15Z</time>
      </trkpt>
      <trkpt lat="61.6471367888" lon="8.59440704808">
        <ele>2098.21</ele>
        <time>2012-08-06T12:07:21Z</time>
      </trkpt>
      <trkpt lat="61.6471684724" lon="8.59434250742">
        <ele>2099.18</ele>
        <time>2012-08-06T12:07:36Z</time>
      </trkpt>
      <trkpt lat="61.647146428" lon="8.59431987628">
        <ele>2099.18</ele>
        <time>2012-08-06T12:07:46Z</time>
      </trkpt>
      <trkpt lat="61.6471558996" lon="8.59429942444">
        <ele>2098.7</ele>
        <time>2012-08-06T12:07:56Z</time>
      </trkpt>
      <trkpt lat="61.647157995" lon="8.59431107529">
        <ele>2099.18</ele>
        <time>2012-08-06T12:08:03Z</time>
      </trkpt>
      <trkpt lat="61.6471659578" lon="8.59434837475">
        <ele>2099.18</ele>
        <time>2012-08-06T12:08:15Z</time>
      </trkpt>
      <trkpt lat="61.6471754294" lon="8.59435977414">
        <ele>2098.7</ele>
        <time>2012-08-06T12:08:35Z</time>
      </trkpt>
      <trkpt lat="61.6471751779" lon="8.59431350604">
        <ele>2100.14</ele>
        <time>2012-08-06T12:08:53Z</time>
      </trkpt>
      <trkpt lat="61.6471668798" lon="8.59430663288">
        <ele>2099.66</ele>
        <time>2012-08-06T12:09:20Z</time>
      </trkpt>
      <trkpt lat="61.6471635271" lon="8.5943270009">
        <ele>2099.66</ele>
        <time>2012-08-06T12:09:45Z</time>
      </trkpt>
      <trkpt lat="61.64715942" lon="8.5943389032">
        <ele>2099.18</ele>
        <time>2012-08-06T12:10:15Z</time>
      </trkpt>
      <trkpt lat="61.6471694782" lon="8.59433840029">
        <ele>2099.18</ele>
        <time>2012-08-06T12:10:44Z</time>
      </trkpt>
      <trkpt lat="61.6472028382" lon="8.5942508094">
        <ele>2100.62</ele>
        <time>2012-08-06T12:11:07Z</time>
      </trkpt>
      <trkpt lat="61.6472276486" lon="8.59416078776">
        <ele>2101.1</ele>
        <time>2012-08-06T12:11:27Z</time>
      </trkpt>
      <trkpt lat="61.6472786944" lon="8.59403547831">
        <ele>2103.5</ele>
        <time>2012-08-06T12:11:38Z</time>
      </trkpt>
      <trkpt lat="61.6473050974" lon="8.59402332455">
        <ele>2104.46</ele>
        <time>2012-08-06T12:11:45Z</time>
      </trkpt>
      <trkpt lat="61.6473263875" lon="8.5939535033">
        <ele>2104.94</ele>
        <time>2012-08-06T12:11:52Z</time>
      </trkpt>
      <trkpt lat="61.6473742481" lon="8.59386515804">
        <ele>2107.35</ele>
        <time>2012-08-06T12:12:02Z</time>
      </trkpt>
      <trkpt lat="61.6474024113" lon="8.59382090159">
        <ele>2107.83</ele>
        <time>2012-08-06T12:12:06Z</time>
      </trkpt>
      <trkpt lat="61.6474263836" lon="8.59362912364">
        <ele>2109.27</ele>
        <time>2012-08-06T12:12:18Z</time>
      </trkpt>
      <trkpt lat="61.6474339273" lon="8.59358562157">
        <ele>2110.23</ele>
        <time>2012-08-06T12:12:26Z</time>
      </trkpt>
      <trkpt lat="61.6474501044" lon="8.59355058521">
        <ele>2111.19</ele>
        <time>2012-08-06T12:12:30Z</time>
      </trkpt>
      <trkpt lat="61.6474771779" lon="8.59352342784">
        <ele>2112.15</ele>
        <time>2012-08-06T12:12:36Z</time>
      </trkpt>
      <trkpt lat="61.6475134715" lon="8.59347087331">
        <ele>2113.6</ele>
        <time>2012-08-06T12:12:44Z</time>
      </trkpt>
      <trkpt lat="61.6475409642" lon="8.59338722192">
        <ele>2114.56</ele>
        <time>2012-08-06T12:12:48Z</time>
      </trkpt>
      <trkpt lat="61.6475963686" lon="8.59327775426">
        <ele>2117.92</ele>
        <time>2012-08-06T12:13:02Z</time>
      </trkpt>
      <trkpt lat="61.6476480011" lon="8.59320256859">
        <ele>2120.32</ele>
        <time>2012-08-06T12:13:14Z</time>
      </trkpt>
      <trkpt lat="61.6476878989" lon="8.59312453307">
        <ele>2121.77</ele>
        <time>2012-08-06T12:13:27Z</time>
      </trkpt>
      <trkpt lat="61.6477142181" lon="8.59301012009">
        <ele>2122.73</ele>
        <time>2012-08-06T12:13:39Z</time>
      </trkpt>
      <trkpt lat="61.6477315687" lon="8.59294507653">
        <ele>2124.65</ele>
        <time>2012-08-06T12:13:52Z</time>
      </trkpt>
      <trkpt lat="61.6477850452" lon="8.59295278788">
        <ele>2127.05</ele>
        <time>2012-08-06T12:14:07Z</time>
      </trkpt>
      <trkpt lat="61.6477986239" lon="8.59292403795">
        <ele>2127.05</ele>
        <time>2012-08-06T12:14:10Z</time>
      </trkpt>
      <trkpt lat="61.6478116997" lon="8.59276335686">
        <ele>2127.05</ele>
        <time>2012-08-06T12:14:19Z</time>
      </trkpt>
      <trkpt lat="61.6478161421" lon="8.59275287949">
        <ele>2128.5</ele>
        <time>2012-08-06T12:14:34Z</time>
      </trkpt>
      <trkpt lat="61.6478557047" lon="8.59267492779">
        <ele>2129.94</ele>
        <time>2012-08-06T12:14:49Z</time>
      </trkpt>
      <trkpt lat="61.6478901543" lon="8.5925926175">
        <ele>2130.9</ele>
        <time>2012-08-06T12:15:02Z</time>
      </trkpt>
      <trkpt lat="61.6479160544" lon="8.59246118926">
        <ele>2132.34</ele>
        <time>2012-08-06T12:15:13Z</time>
      </trkpt>
      <trkpt lat="61.6479551978" lon="8.59232473187">
        <ele>2134.74</ele>
        <time>2012-08-06T12:15:26Z</time>
      </trkpt>
      <trkpt lat="61.6479881387" lon="8.59224887565">
        <ele>2136.19</ele>
        <time>2012-08-06T12:15:35Z</time>
      </trkpt>
      <trkpt lat="61.6480515897" lon="8.59218936414">
        <ele>2138.11</ele>
        <time>2012-08-06T12:15:47Z</time>
      </trkpt>
      <trkpt lat="61.648098696" lon="8.59207235277">
        <ele>2139.55</ele>
        <time>2012-08-06T12:16:02Z</time>
      </trkpt>
      <trkpt lat="61.6481134482" lon="8.59201602638">
        <ele>2140.51</ele>
        <time>2012-08-06T12:16:14Z</time>
      </trkpt>
      <trkpt lat="61.648142701" lon="8.59195433557">
        <ele>2140.99</ele>
        <time>2012-08-06T12:16:28Z</time>
      </trkpt>
      <trkpt lat="61.6481557768" lon="8.59187244438">
        <ele>2141.47</ele>
        <time>2012-08-06T12:16:34Z</time>
      </trkpt>
      <trkpt lat="61.6481819283" lon="8.59181553125">
        <ele>2142.92</ele>
        <time>2012-08-06T12:16:41Z</time>
      </trkpt>
      <trkpt lat="61.6482008714" lon="8.59167949297">
        <ele>2143.88</ele>
        <time>2012-08-06T12:16:50Z</time>
      </trkpt>
      <trkpt lat="61.6482100915" lon="8.59155845828">
        <ele>2144.84</ele>
        <time>2012-08-06T12:17:02Z</time>
      </trkpt>
      <trkpt lat="61.6482293699" lon="8.59139098786">
        <ele>2146.76</ele>
        <time>2012-08-06T12:17:14Z</time>
      </trkpt>
      <trkpt lat="61.6482442897" lon="8.59125318937">
        <ele>2148.2</ele>
        <time>2012-08-06T12:17:28Z</time>
      </trkpt>
      <trkpt lat="61.6482812539" lon="8.59111119993">
        <ele>2150.13</ele>
        <time>2012-08-06T12:17:41Z</time>
      </trkpt>
      <trkpt lat="61.6483043041" lon="8.59107306227">
        <ele>2151.09</ele>
        <time>2012-08-06T12:17:53Z</time>
      </trkpt>
      <trkpt lat="61.6483169608" lon="8.59099946916">
        <ele>2150.61</ele>
        <time>2012-08-06T12:18:13Z</time>
      </trkpt>
      <trkpt lat="61.6483246721" lon="8.59092713334">
        <ele>2151.09</ele>
        <time>2012-08-06T12:18:25Z</time>
      </trkpt>
      <trkpt lat="61.64834328" lon="8.59082571231">
        <ele>2152.53</ele>
        <time>2012-08-06T12:18:32Z</time>
      </trkpt>
      <trkpt lat="61.6483560205" lon="8.59065472148">
        <ele>2153.01</ele>
        <time>2012-08-06T12:18:45Z</time>
      </trkpt>
      <trkpt lat="61.6483599599" lon="8.59062144533">
        <ele>2153.49</ele>
        <time>2012-08-06T12:18:47Z</time>
      </trkpt>
      <trkpt lat="61.6483854409" lon="8.59045313671">
        <ele>2155.89</ele>
        <time>2012-08-06T12:19:01Z</time>
      </trkpt>
      <trkpt lat="61.6484019533" lon="8.59036931768">
        <ele>2156.86</ele>
        <time>2012-08-06T12:19:06Z</time>
      </trkpt>
      <trkpt lat="61.6484422702" lon="8.59025448561">
        <ele>2158.3</ele>
        <time>2012-08-06T12:19:17Z</time>
      </trkpt>
      <trkpt lat="61.6484719422" lon="8.59016781673">
        <ele>2159.26</ele>
        <time>2012-08-06T12:19:29Z</time>
      </trkpt>
      <trkpt lat="61.6484576929" lon="8.59014535323">
        <ele>2160.22</ele>
        <time>2012-08-06T12:19:43Z</time>
      </trkpt>
      <trkpt lat="61.6484409291" lon="8.59013889916">
        <ele>2160.22</ele>
        <time>2012-08-06T12:20:14Z</time>
      </trkpt>
      <trkpt lat="61.6484334692" lon="8.59014149755">
        <ele>2160.22</ele>
        <time>2012-08-06T12:20:23Z</time>
      </trkpt>
      <trkpt lat="61.6484883707" lon="8.59021299519">
        <ele>2160.7</ele>
        <time>2012-08-06T12:20:36Z</time>
      </trkpt>
      <trkpt lat="61.6485576052" lon="8.59016379341">
        <ele>2162.62</ele>
        <time>2012-08-06T12:20:49Z</time>
      </trkpt>
      <trkpt lat="61.6486311983" lon="8.59004820697">
        <ele>2164.06</ele>
        <time>2012-08-06T12:21:04Z</time>
      </trkpt>
      <trkpt lat="61.6486978345" lon="8.58997184783">
        <ele>2167.43</ele>
        <time>2012-08-06T12:21:16Z</time>
      </trkpt>
      <trkpt lat="61.6487160232" lon="8.58997025527">
        <ele>2167.43</ele>
        <time>2012-08-06T12:21:19Z</time>
      </trkpt>
      <trkpt lat="61.6487583518" lon="8.58996748924">
        <ele>2168.87</ele>
        <time>2012-08-06T12:21:31Z</time>
      </trkpt>
      <trkpt lat="61.6488197912" lon="8.58997377567">
        <ele>2170.31</ele>
        <time>2012-08-06T12:21:41Z</time>
      </trkpt>
      <trkpt lat="61.6488808114" lon="8.58995332383">
        <ele>2172.24</ele>
        <time>2012-08-06T12:21:52Z</time>
      </trkpt>
      <trkpt lat="61.6489364672" lon="8.58991233632">
        <ele>2173.68</ele>
        <time>2012-08-06T12:22:02Z</time>
      </trkpt>
      <trkpt lat="61.6489707492" lon="8.58979959972">
        <ele>2176.08</ele>
        <time>2012-08-06T12:22:14Z</time>
      </trkpt>
      <trkpt lat="61.649037553" lon="8.58972441405">
        <ele>2178</ele>
        <time>2012-08-06T12:22:26Z</time>
      </trkpt>
      <trkpt lat="61.6490722541" lon="8.58964076266">
        <ele>2179.45</ele>
        <time>2012-08-06T12:22:33Z</time>
      </trkpt>
      <trkpt lat="61.6490860842" lon="8.58953934163">
        <ele>2180.41</ele>
        <time>2012-08-06T12:22:38Z</time>
      </trkpt>
      <trkpt lat="61.6491250601" lon="8.5894432012">
        <ele>2181.85</ele>
        <time>2012-08-06T12:22:50Z</time>
      </trkpt>
      <trkpt lat="61.6491599288" lon="8.58935661614">
        <ele>2183.29</ele>
        <time>2012-08-06T12:22:57Z</time>
      </trkpt>
      <trkpt lat="61.649177447" lon="8.58930850402">
        <ele>2184.25</ele>
        <time>2012-08-06T12:23:00Z</time>
      </trkpt>
      <trkpt lat="61.6492320132" lon="8.58930699527">
        <ele>2185.69</ele>
        <time>2012-08-06T12:23:14Z</time>
      </trkpt>
      <trkpt lat="61.6492531355" lon="8.58931546099">
        <ele>2185.21</ele>
        <time>2012-08-06T12:23:32Z</time>
      </trkpt>
      <trkpt lat="61.6492234636" lon="8.58932493255">
        <ele>2184.73</ele>
        <time>2012-08-06T12:24:00Z</time>
      </trkpt>
      <trkpt lat="61.6492406465" lon="8.58928570524">
        <ele>2184.25</ele>
        <time>2012-08-06T12:24:40Z</time>
      </trkpt>
      <trkpt lat="61.6492308397" lon="8.58928687871">
        <ele>2185.69</ele>
        <time>2012-08-06T12:25:02Z</time>
      </trkpt>
      <trkpt lat="61.6492313426" lon="8.5892939195">
        <ele>2185.69</ele>
        <time>2012-08-06T12:25:39Z</time>
      </trkpt>
      <trkpt lat="61.6492497828" lon="8.58926810324">
        <ele>2186.18</ele>
        <time>2012-08-06T12:25:54Z</time>
      </trkpt>
      <trkpt lat="61.6492488608" lon="8.58919107355">
        <ele>2187.14</ele>
        <time>2012-08-06T12:26:13Z</time>
      </trkpt>
      <trkpt lat="61.6493077856" lon="8.58908051625">
        <ele>2188.1</ele>
        <time>2012-08-06T12:26:27Z</time>
      </trkpt>
      <trkpt lat="61.649348354" lon="8.58905604109">
        <ele>2190.5</ele>
        <time>2012-08-06T12:26:34Z</time>
      </trkpt>
      <trkpt lat="61.6494017467" lon="8.58900457621">
        <ele>2192.42</ele>
        <time>2012-08-06T12:26:44Z</time>
      </trkpt>
      <trkpt lat="61.6494721547" lon="8.58903986402">
        <ele>2192.9</ele>
        <time>2012-08-06T12:26:48Z</time>
      </trkpt>
      <trkpt lat="61.6494999826" lon="8.58902452514">
        <ele>2194.35</ele>
        <time>2012-08-06T12:26:50Z</time>
      </trkpt>
      <trkpt lat="61.6495470889" lon="8.58900340274">
        <ele>2195.31</ele>
        <time>2012-08-06T12:26:56Z</time>
      </trkpt>
      <trkpt lat="61.649557231" lon="8.58895755373">
        <ele>2195.31</ele>
        <time>2012-08-06T12:26:58Z</time>
      </trkpt>
      <trkpt lat="61.6495429818" lon="8.58888119459">
        <ele>2195.79</ele>
        <time>2012-08-06T12:27:13Z</time>
      </trkpt>
      <trkpt lat="61.6495662834" lon="8.58886233531">
        <ele>2196.75</ele>
        <time>2012-08-06T12:27:34Z</time>
      </trkpt>
      <trkpt lat="61.6496081091" lon="8.58873216435">
        <ele>2197.23</ele>
        <time>2012-08-06T12:27:47Z</time>
      </trkpt>
      <trkpt lat="61.6496379487" lon="8.58860065229">
        <ele>2197.71</ele>
        <time>2012-08-06T12:28:02Z</time>
      </trkpt>
      <trkpt lat="61.649651695" lon="8.58856511302">
        <ele>2198.19</ele>
        <time>2012-08-06T12:28:04Z</time>
      </trkpt>
      <trkpt lat="61.6497022379" lon="8.5883589182">
        <ele>2200.59</ele>
        <time>2012-08-06T12:28:16Z</time>
      </trkpt>
      <trkpt lat="61.6497169901" lon="8.5882954672">
        <ele>2200.59</ele>
        <time>2012-08-06T12:28:21Z</time>
      </trkpt>
      <trkpt lat="61.6497713048" lon="8.58823847026">
        <ele>2203</ele>
        <time>2012-08-06T12:28:35Z</time>
      </trkpt>
      <trkpt lat="61.6497516911" lon="8.58823494986">
        <ele>2201.08</ele>
        <time>2012-08-06T12:28:51Z</time>
      </trkpt>
      <trkpt lat="61.6497495119" lon="8.58822522685">
        <ele>2201.56</ele>
        <time>2012-08-06T12:29:02Z</time>
      </trkpt>
      <trkpt lat="61.6497880686" lon="8.5882227961">
        <ele>2202.04</ele>
        <time>2012-08-06T12:29:16Z</time>
      </trkpt>
      <trkpt lat="61.6498660203" lon="8.58814341947">
        <ele>2204.44</ele>
        <time>2012-08-06T12:29:25Z</time>
      </trkpt>
      <trkpt lat="61.6498781741" lon="8.58811047859">
        <ele>2204.44</ele>
        <time>2012-08-06T12:29:27Z</time>
      </trkpt>
      <trkpt lat="61.6499352548" lon="8.58800319023">
        <ele>2206.84</ele>
        <time>2012-08-06T12:29:34Z</time>
      </trkpt>
      <trkpt lat="61.6499806009" lon="8.58785281889">
        <ele>2209.73</ele>
        <time>2012-08-06T12:29:43Z</time>
      </trkpt>
      <trkpt lat="61.6499743983" lon="8.58783060685">
        <ele>2210.21</ele>
        <time>2012-08-06T12:29:44Z</time>
      </trkpt>
      <trkpt lat="61.6499608196" lon="8.58787452802">
        <ele>2208.29</ele>
        <time>2012-08-06T12:29:59Z</time>
      </trkpt>
      <trkpt lat="61.649970375" lon="8.58783756383">
        <ele>2208.29</ele>
        <time>2012-08-06T12:30:28Z</time>
      </trkpt>
      <trkpt lat="61.6499962751" lon="8.58789154328">
        <ele>2207.81</ele>
        <time>2012-08-06T12:30:52Z</time>
      </trkpt>
      <trkpt lat="61.6499723867" lon="8.58791928738">
        <ele>2208.77</ele>
        <time>2012-08-06T12:31:10Z</time>
      </trkpt>
      <trkpt lat="61.6499764938" lon="8.58784443699">
        <ele>2208.29</ele>
        <time>2012-08-06T12:31:26Z</time>
      </trkpt>
      <trkpt lat="61.6499795951" lon="8.58786639757">
        <ele>2208.29</ele>
        <time>2012-08-06T12:31:57Z</time>
      </trkpt>
      <trkpt lat="61.6499806009" lon="8.58785776421">
        <ele>2208.29</ele>
        <time>2012-08-06T12:32:10Z</time>
      </trkpt>
      <trkpt lat="61.6499734763" lon="8.58785080723">
        <ele>2208.29</ele>
        <time>2012-08-06T12:32:34Z</time>
      </trkpt>
      <trkpt lat="61.6499707103" lon="8.58783739619">
        <ele>2209.25</ele>
        <time>2012-08-06T12:32:56Z</time>
      </trkpt>
      <trkpt lat="61.6499847081" lon="8.58784963377">
        <ele>2209.25</ele>
        <time>2012-08-06T12:33:22Z</time>
      </trkpt>
      <trkpt lat="61.6499847919" lon="8.58785659075">
        <ele>2209.25</ele>
        <time>2012-08-06T12:33:53Z</time>
      </trkpt>
      <trkpt lat="61.6499801818" lon="8.58785885386">
        <ele>2208.77</ele>
        <time>2012-08-06T12:34:20Z</time>
      </trkpt>
      <trkpt lat="61.6499822773" lon="8.58785332181">
        <ele>2209.25</ele>
        <time>2012-08-06T12:34:40Z</time>
      </trkpt>
      <trkpt lat="61.6499669384" lon="8.58786011115">
        <ele>2209.25</ele>
        <time>2012-08-06T12:35:05Z</time>
      </trkpt>
      <trkpt lat="61.6499943472" lon="8.58778031543">
        <ele>2210.21</ele>
        <time>2012-08-06T12:35:22Z</time>
      </trkpt>
      <trkpt lat="61.6500014719" lon="8.58775307424">
        <ele>2210.21</ele>
        <time>2012-08-06T12:35:23Z</time>
      </trkpt>
      <trkpt lat="61.6500839498" lon="8.58760404401">
        <ele>2210.69</ele>
        <time>2012-08-06T12:35:35Z</time>
      </trkpt>
      <trkpt lat="61.6501268651" lon="8.58755584806">
        <ele>2212.13</ele>
        <time>2012-08-06T12:35:49Z</time>
      </trkpt>
      <trkpt lat="61.6501666792" lon="8.58749197796">
        <ele>2214.05</ele>
        <time>2012-08-06T12:36:03Z</time>
      </trkpt>
      <trkpt lat="61.6501873825" lon="8.58747487888">
        <ele>2214.53</ele>
        <time>2012-08-06T12:36:15Z</time>
      </trkpt>
      <trkpt lat="61.650201045" lon="8.58745710924">
        <ele>2215.5</ele>
        <time>2012-08-06T12:36:17Z</time>
      </trkpt>
      <trkpt lat="61.6502142046" lon="8.5874450393">
        <ele>2216.46</ele>
        <time>2012-08-06T12:36:19Z</time>
      </trkpt>
      <trkpt lat="61.6502271965" lon="8.58742601238">
        <ele>2215.98</ele>
        <time>2012-08-06T12:36:20Z</time>
      </trkpt>
      <trkpt lat="61.6502401885" lon="8.58738611452">
        <ele>2215.98</ele>
        <time>2012-08-06T12:36:21Z</time>
      </trkpt>
      <trkpt lat="61.6502516717" lon="8.58735325746">
        <ele>2217.42</ele>
        <time>2012-08-06T12:36:22Z</time>
      </trkpt>
      <trkpt lat="61.6503167152" lon="8.5872737132">
        <ele>2219.34</ele>
        <time>2012-08-06T12:36:34Z</time>
      </trkpt>
      <trkpt lat="61.6503409389" lon="8.58716608956">
        <ele>2219.82</ele>
        <time>2012-08-06T12:36:46Z</time>
      </trkpt>
      <trkpt lat="61.6503504943" lon="8.58711378649">
        <ele>2220.3</ele>
        <time>2012-08-06T12:36:59Z</time>
      </trkpt>
      <trkpt lat="61.6503850278" lon="8.58695260249">
        <ele>2221.26</ele>
        <time>2012-08-06T12:37:12Z</time>
      </trkpt>
      <trkpt lat="61.6503958404" lon="8.58690407127">
        <ele>2223.19</ele>
        <time>2012-08-06T12:37:26Z</time>
      </trkpt>
      <trkpt lat="61.6504315473" lon="8.58680834994">
        <ele>2225.11</ele>
        <time>2012-08-06T12:37:38Z</time>
      </trkpt>
      <trkpt lat="61.6504660808" lon="8.58671405353">
        <ele>2225.59</ele>
        <time>2012-08-06T12:37:47Z</time>
      </trkpt>
      <trkpt lat="61.6505108401" lon="8.58661162667">
        <ele>2226.55</ele>
        <time>2012-08-06T12:37:59Z</time>
      </trkpt>
      <trkpt lat="61.6505578626" lon="8.58646477573">
        <ele>2227.99</ele>
        <time>2012-08-06T12:38:10Z</time>
      </trkpt>
      <trkpt lat="61.6506062262" lon="8.58629311435">
        <ele>2229.43</ele>
        <time>2012-08-06T12:38:22Z</time>
      </trkpt>
      <trkpt lat="61.6506809089" lon="8.58628246933">
        <ele>2230.88</ele>
        <time>2012-08-06T12:38:32Z</time>
      </trkpt>
      <trkpt lat="61.6507602017" lon="8.58625497669">
        <ele>2232.32</ele>
        <time>2012-08-06T12:38:44Z</time>
      </trkpt>
      <trkpt lat="61.6507933941" lon="8.58630836941">
        <ele>2233.28</ele>
        <time>2012-08-06T12:38:49Z</time>
      </trkpt>
      <trkpt lat="61.6508399975" lon="8.58630979434">
        <ele>2233.76</ele>
        <time>2012-08-06T12:39:01Z</time>
      </trkpt>
      <trkpt lat="61.6508038715" lon="8.58627601527">
        <ele>2233.28</ele>
        <time>2012-08-06T12:39:20Z</time>
      </trkpt>
      <trkpt lat="61.6508254129" lon="8.58613293618">
        <ele>2233.28</ele>
        <time>2012-08-06T12:39:31Z</time>
      </trkpt>
      <trkpt lat="61.6508484632" lon="8.58598398976">
        <ele>2234.72</ele>
        <time>2012-08-06T12:39:41Z</time>
      </trkpt>
      <trkpt lat="61.6508464515" lon="8.58591877855">
        <ele>2234.72</ele>
        <time>2012-08-06T12:39:44Z</time>
      </trkpt>
      <trkpt lat="61.6508480441" lon="8.58586220071">
        <ele>2234.24</ele>
        <time>2012-08-06T12:39:57Z</time>
      </trkpt>
      <trkpt lat="61.6508384049" lon="8.58582423069">
        <ele>2234.72</ele>
        <time>2012-08-06T12:40:01Z</time>
      </trkpt>
      <trkpt lat="61.6508628801" lon="8.58559842221">
        <ele>2235.68</ele>
        <time>2012-08-06T12:40:13Z</time>
      </trkpt>
      <trkpt lat="61.6508630477" lon="8.58554427512">
        <ele>2235.68</ele>
        <time>2012-08-06T12:40:16Z</time>
      </trkpt>
      <trkpt lat="61.6508902051" lon="8.585388707">
        <ele>2237.13</ele>
        <time>2012-08-06T12:40:28Z</time>
      </trkpt>
      <trkpt lat="61.6509461962" lon="8.5852913931">
        <ele>2237.61</ele>
        <time>2012-08-06T12:40:40Z</time>
      </trkpt>
      <trkpt lat="61.6509580985" lon="8.58523959294">
        <ele>2237.61</ele>
        <time>2012-08-06T12:40:54Z</time>
      </trkpt>
      <trkpt lat="61.6509915423" lon="8.58514378779">
        <ele>2238.57</ele>
        <time>2012-08-06T12:41:04Z</time>
      </trkpt>
      <trkpt lat="61.6509971581" lon="8.58507807367">
        <ele>2238.57</ele>
        <time>2012-08-06T12:41:14Z</time>
      </trkpt>
      <trkpt lat="61.6510052886" lon="8.58483885415">
        <ele>2239.53</ele>
        <time>2012-08-06T12:41:27Z</time>
      </trkpt>
      <trkpt lat="61.6510391515" lon="8.58467440121">
        <ele>2240.01</ele>
        <time>2012-08-06T12:41:38Z</time>
      </trkpt>
      <trkpt lat="61.6510813963" lon="8.58450693078">
        <ele>2241.45</ele>
        <time>2012-08-06T12:41:50Z</time>
      </trkpt>
      <trkpt lat="61.6510925442" lon="8.58431993052">
        <ele>2242.41</ele>
        <time>2012-08-06T12:42:04Z</time>
      </trkpt>
      <trkpt lat="61.6511122417" lon="8.58425388113">
        <ele>2243.37</ele>
        <time>2012-08-06T12:42:11Z</time>
      </trkpt>
      <trkpt lat="61.651114421" lon="8.58421012759">
        <ele>2242.89</ele>
        <time>2012-08-06T12:42:14Z</time>
      </trkpt>
      <trkpt lat="61.6511106491" lon="8.58415983617">
        <ele>2242.41</ele>
        <time>2012-08-06T12:42:18Z</time>
      </trkpt>
      <trkpt lat="61.6511404887" lon="8.58403687365">
        <ele>2243.37</ele>
        <time>2012-08-06T12:42:31Z</time>
      </trkpt>
      <trkpt lat="61.6511432547" lon="8.58394182287">
        <ele>2243.37</ele>
        <time>2012-08-06T12:42:42Z</time>
      </trkpt>
      <trkpt lat="61.6511585936" lon="8.58388130553">
        <ele>2243.85</ele>
        <time>2012-08-06T12:42:53Z</time>
      </trkpt>
      <trkpt lat="61.6511606053" lon="8.5838005878">
        <ele>2243.85</ele>
        <time>2012-08-06T12:43:08Z</time>
      </trkpt>
      <trkpt lat="61.6511822306" lon="8.5836503841">
        <ele>2245.3</ele>
        <time>2012-08-06T12:43:20Z</time>
      </trkpt>
      <trkpt lat="61.6511929594" lon="8.58359967358">
        <ele>2245.3</ele>
        <time>2012-08-06T12:43:24Z</time>
      </trkpt>
      <trkpt lat="61.6511976533" lon="8.58357469551">
        <ele>2245.3</ele>
        <time>2012-08-06T12:43:26Z</time>
      </trkpt>
      <trkpt lat="61.6512441728" lon="8.58346547931">
        <ele>2247.22</ele>
        <time>2012-08-06T12:43:38Z</time>
      </trkpt>
      <trkpt lat="61.6512582544" lon="8.58343035914">
        <ele>2247.22</ele>
        <time>2012-08-06T12:43:41Z</time>
      </trkpt>
      <trkpt lat="61.6512759402" lon="8.583317874">
        <ele>2247.7</ele>
        <time>2012-08-06T12:43:49Z</time>
      </trkpt>
      <trkpt lat="61.6512849927" lon="8.58318912797">
        <ele>2248.66</ele>
        <time>2012-08-06T12:44:00Z</time>
      </trkpt>
      <trkpt lat="61.6513138264" lon="8.5830633156">
        <ele>2249.14</ele>
        <time>2012-08-06T12:44:12Z</time>
      </trkpt>
      <trkpt lat="61.651355233" lon="8.58290129341">
        <ele>2250.1</ele>
        <time>2012-08-06T12:44:23Z</time>
      </trkpt>
      <trkpt lat="61.6513735056" lon="8.58278461732">
        <ele>2251.54</ele>
        <time>2012-08-06T12:44:34Z</time>
      </trkpt>
      <trkpt lat="61.6513994057" lon="8.58264363371">
        <ele>2252.51</ele>
        <time>2012-08-06T12:44:45Z</time>
      </trkpt>
      <trkpt lat="61.6514027584" lon="8.58260524459">
        <ele>2252.99</ele>
        <time>2012-08-06T12:44:48Z</time>
      </trkpt>
      <trkpt lat="61.6514041834" lon="8.58245738782">
        <ele>2253.95</ele>
        <time>2012-08-06T12:44:59Z</time>
      </trkpt>
      <trkpt lat="61.6514040157" lon="8.58234867454">
        <ele>2253.95</ele>
        <time>2012-08-06T12:45:07Z</time>
      </trkpt>
      <trkpt lat="61.6514135711" lon="8.58228446916">
        <ele>2253.95</ele>
        <time>2012-08-06T12:45:11Z</time>
      </trkpt>
      <trkpt lat="61.6514194384" lon="8.58226150274">
        <ele>2254.43</ele>
        <time>2012-08-06T12:45:12Z</time>
      </trkpt>
      <trkpt lat="61.6514217854" lon="8.58219461516">
        <ele>2254.43</ele>
        <time>2012-08-06T12:45:16Z</time>
      </trkpt>
      <trkpt lat="61.6514221206" lon="8.58221104369">
        <ele>2253.95</ele>
        <time>2012-08-06T12:45:29Z</time>
      </trkpt>
      <trkpt lat="61.6514354479" lon="8.58217198402">
        <ele>2253.95</ele>
        <time>2012-08-06T12:45:57Z</time>
      </trkpt>
      <trkpt lat="61.6514431592" lon="8.58216678724">
        <ele>2254.43</ele>
        <time>2012-08-06T12:46:29Z</time>
      </trkpt>
      <trkpt lat="61.6514294129" lon="8.58217181638">
        <ele>2254.91</ele>
        <time>2012-08-06T12:46:56Z</time>
      </trkpt>
      <trkpt lat="61.6514175106" lon="8.58215102926">
        <ele>2254.43</ele>
        <time>2012-08-06T12:47:27Z</time>
      </trkpt>
      <trkpt lat="61.6514288262" lon="8.58214667067">
        <ele>2254.91</ele>
        <time>2012-08-06T12:47:53Z</time>
      </trkpt>
      <trkpt lat="61.6514180135" lon="8.58216108754">
        <ele>2254.43</ele>
        <time>2012-08-06T12:48:23Z</time>
      </trkpt>
      <trkpt lat="61.6514233779" lon="8.58213954605">
        <ele>2254.91</ele>
        <time>2012-08-06T12:48:52Z</time>
      </trkpt>
      <trkpt lat="61.6514351126" lon="8.58218338341">
        <ele>2254.43</ele>
        <time>2012-08-06T12:49:22Z</time>
      </trkpt>
      <trkpt lat="61.6514299996" lon="8.58215731569">
        <ele>2254.43</ele>
        <time>2012-08-06T12:49:38Z</time>
      </trkpt>
      <trkpt lat="61.6514157504" lon="8.58215538785">
        <ele>2254.91</ele>
        <time>2012-08-06T12:50:10Z</time>
      </trkpt>
      <trkpt lat="61.6514245514" lon="8.58214926906">
        <ele>2254.91</ele>
        <time>2012-08-06T12:50:37Z</time>
      </trkpt>
      <trkpt lat="61.6514158342" lon="8.5821511969">
        <ele>2255.39</ele>
        <time>2012-08-06T12:51:05Z</time>
      </trkpt>
      <trkpt lat="61.6514180973" lon="8.58218623325">
        <ele>2254.91</ele>
        <time>2012-08-06T12:51:29Z</time>
      </trkpt>
      <trkpt lat="61.6514333524" lon="8.5822031647">
        <ele>2254.43</ele>
        <time>2012-08-06T12:51:55Z</time>
      </trkpt>
      <trkpt lat="61.6514393874" lon="8.58220249414">
        <ele>2255.87</ele>
        <time>2012-08-06T12:52:24Z</time>
      </trkpt>
      <trkpt lat="61.6514370404" lon="8.58219956048">
        <ele>2255.39</ele>
        <time>2012-08-06T12:52:46Z</time>
      </trkpt>
      <trkpt lat="61.651437711" lon="8.58219520189">
        <ele>2255.39</ele>
        <time>2012-08-06T12:53:16Z</time>
      </trkpt>
      <trkpt lat="61.6514371242" lon="8.58219704591">
        <ele>2255.39</ele>
        <time>2012-08-06T12:53:42Z</time>
      </trkpt>
      <trkpt lat="61.6514409799" lon="8.58220945112">
        <ele>2255.39</ele>
        <time>2012-08-06T12:54:09Z</time>
      </trkpt>
      <trkpt lat="61.6514453385" lon="8.5822256282">
        <ele>2255.87</ele>
        <time>2012-08-06T12:54:39Z</time>
      </trkpt>
      <trkpt lat="61.6514383815" lon="8.58220953494">
        <ele>2255.87</ele>
        <time>2012-08-06T12:55:07Z</time>
      </trkpt>
      <trkpt lat="61.6514435783" lon="8.58218899928">
        <ele>2255.87</ele>
        <time>2012-08-06T12:55:37Z</time>
      </trkpt>
      <trkpt lat="61.6514435783" lon="8.5821683798">
        <ele>2256.83</ele>
        <time>2012-08-06T12:55:53Z</time>
      </trkpt>
      <trkpt lat="61.6514438298" lon="8.58217433095">
        <ele>2256.83</ele>
        <time>2012-08-06T12:55:54Z</time>
      </trkpt>
      <trkpt lat="61.6514439136" lon="8.58217433095">
        <ele>2256.83</ele>
        <time>2012-08-06T12:55:55Z</time>
      </trkpt>
      <trkpt lat="61.6514417343" lon="8.58219930902">
        <ele>2257.31</ele>
        <time>2012-08-06T12:56:23Z</time>
      </trkpt>
      <trkpt lat="61.6514399741" lon="8.58217734843">
        <ele>2256.35</ele>
        <time>2012-08-06T12:56:57Z</time>
      </trkpt>
      <trkpt lat="61.6514388844" lon="8.58217332512">
        <ele>2256.35</ele>
        <time>2012-08-06T12:57:30Z</time>
      </trkpt>
      <trkpt lat="61.6514379624" lon="8.58217340894">
        <ele>2256.35</ele>
        <time>2012-08-06T12:57:31Z</time>
      </trkpt>
      <trkpt lat="61.6514373757" lon="8.58217617497">
        <ele>2256.35</ele>
        <time>2012-08-06T12:57:32Z</time>
      </trkpt>
      <trkpt lat="61.6514440812" lon="8.58218723908">
        <ele>2257.31</ele>
        <time>2012-08-06T12:58:00Z</time>
      </trkpt>
      <trkpt lat="61.6514301673" lon="8.58220232651">
        <ele>2257.31</ele>
        <time>2012-08-06T12:58:25Z</time>
      </trkpt>
      <trkpt lat="61.6514372081" lon="8.58219847083">
        <ele>2257.31</ele>
        <time>2012-08-06T12:58:46Z</time>
      </trkpt>
      <trkpt lat="61.6514104698" lon="8.58217223547">
        <ele>2257.31</ele>
        <time>2012-08-06T12:59:07Z</time>
      </trkpt>
      <trkpt lat="61.6514136549" lon="8.58216284774">
        <ele>2258.27</ele>
        <time>2012-08-06T12:59:15Z</time>
      </trkpt>
      <trkpt lat="61.6514187679" lon="8.58216611668">
        <ele>2257.79</ele>
        <time>2012-08-06T12:59:50Z</time>
      </trkpt>
      <trkpt lat="61.6514260601" lon="8.58217835426">
        <ele>2257.31</ele>
        <time>2012-08-06T13:00:16Z</time>
      </trkpt>
      <trkpt lat="61.6514196899" lon="8.58216913417">
        <ele>2257.31</ele>
        <time>2012-08-06T13:00:50Z</time>
      </trkpt>
      <trkpt lat="61.6514211986" lon="8.58217785135">
        <ele>2256.83</ele>
        <time>2012-08-06T13:01:15Z</time>
      </trkpt>
      <trkpt lat="61.6514149122" lon="8.58217382804">
        <ele>2256.83</ele>
        <time>2012-08-06T13:01:42Z</time>
      </trkpt>
      <trkpt lat="61.6514216177" lon="8.58217701316">
        <ele>2257.79</ele>
        <time>2012-08-06T13:02:09Z</time>
      </trkpt>
      <trkpt lat="61.6514239646" lon="8.58216435649">
        <ele>2256.83</ele>
        <time>2012-08-06T13:02:34Z</time>
      </trkpt>
      <trkpt lat="61.6514174268" lon="8.58217516914">
        <ele>2257.31</ele>
        <time>2012-08-06T13:03:02Z</time>
      </trkpt>
      <trkpt lat="61.6514206957" lon="8.58217298985">
        <ele>2257.31</ele>
        <time>2012-08-06T13:03:36Z</time>
      </trkpt>
      <trkpt lat="61.6514166724" lon="8.58217667788">
        <ele>2253.47</ele>
        <time>2012-08-06T13:03:59Z</time>
      </trkpt>
      <trkpt lat="61.6514184326" lon="8.58218505979">
        <ele>2260.68</ele>
        <time>2012-08-06T13:04:00Z</time>
      </trkpt>
      <trkpt lat="61.6514212824" lon="8.58219511807">
        <ele>2257.31</ele>
        <time>2012-08-06T13:04:01Z</time>
      </trkpt>
      <trkpt lat="61.6514381301" lon="8.58218816109">
        <ele>2257.31</ele>
        <time>2012-08-06T13:04:03Z</time>
      </trkpt>
      <trkpt lat="61.6514567379" lon="8.58191524632">
        <ele>2257.31</ele>
        <time>2012-08-06T13:04:10Z</time>
      </trkpt>
      <trkpt lat="61.651502084" lon="8.58151894994">
        <ele>2259.24</ele>
        <time>2012-08-06T13:04:22Z</time>
      </trkpt>
      <trkpt lat="61.651526643" lon="8.58134754002">
        <ele>2259.24</ele>
        <time>2012-08-06T13:04:29Z</time>
      </trkpt>
      <trkpt lat="61.6515972186" lon="8.58116540127">
        <ele>2259.24</ele>
        <time>2012-08-06T13:04:40Z</time>
      </trkpt>
      <trkpt lat="61.6516072769" lon="8.58118459582">
        <ele>2259.72</ele>
        <time>2012-08-06T13:04:59Z</time>
      </trkpt>
      <trkpt lat="61.6516117193" lon="8.58119624667">
        <ele>2260.2</ele>
        <time>2012-08-06T13:05:09Z</time>
      </trkpt>
      <trkpt lat="61.6515988111" lon="8.58119817451">
        <ele>2259.72</ele>
        <time>2012-08-06T13:05:12Z</time>
      </trkpt>
      <trkpt lat="61.6515816282" lon="8.58122206293">
        <ele>2259.72</ele>
        <time>2012-08-06T13:05:14Z</time>
      </trkpt>
      <trkpt lat="61.6515482683" lon="8.58134628274">
        <ele>2260.2</ele>
        <time>2012-08-06T13:05:20Z</time>
      </trkpt>
      <trkpt lat="61.6515373718" lon="8.58138542622">
        <ele>2260.2</ele>
        <time>2012-08-06T13:05:22Z</time>
      </trkpt>
      <trkpt lat="61.6514778603" lon="8.58169941232">
        <ele>2259.72</ele>
        <time>2012-08-06T13:05:35Z</time>
      </trkpt>
      <trkpt lat="61.6514622699" lon="8.58176747337">
        <ele>2259.72</ele>
        <time>2012-08-06T13:05:38Z</time>
      </trkpt>
      <trkpt lat="61.6514615156" lon="8.5817944631">
        <ele>2259.24</ele>
        <time>2012-08-06T13:05:39Z</time>
      </trkpt>
      <trkpt lat="61.6514278203" lon="8.58207098208">
        <ele>2258.75</ele>
        <time>2012-08-06T13:05:50Z</time>
      </trkpt>
      <trkpt lat="61.6514097992" lon="8.58214105479">
        <ele>2257.31</ele>
        <time>2012-08-06T13:06:03Z</time>
      </trkpt>
      <trkpt lat="61.6514028423" lon="8.58215496875">
        <ele>2249.14</ele>
        <time>2012-08-06T13:06:08Z</time>
      </trkpt>
      <trkpt lat="61.6514020879" lon="8.58215672895">
        <ele>2259.24</ele>
        <time>2012-08-06T13:06:09Z</time>
      </trkpt>
      <trkpt lat="61.6514051892" lon="8.58216896653">
        <ele>2257.79</ele>
        <time>2012-08-06T13:06:12Z</time>
      </trkpt>
      <trkpt lat="61.6514108889" lon="8.58218120411">
        <ele>2254.43</ele>
        <time>2012-08-06T13:06:17Z</time>
      </trkpt>
      <trkpt lat="61.6514123976" lon="8.58218430541">
        <ele>2259.72</ele>
        <time>2012-08-06T13:06:18Z</time>
      </trkpt>
      <trkpt lat="61.6514150798" lon="8.58218849637">
        <ele>2256.83</ele>
        <time>2012-08-06T13:06:21Z</time>
      </trkpt>
      <trkpt lat="61.651411308" lon="8.58222017996">
        <ele>2256.35</ele>
        <time>2012-08-06T13:06:43Z</time>
      </trkpt>
      <trkpt lat="61.6514107212" lon="8.58222981915">
        <ele>2256.83</ele>
        <time>2012-08-06T13:07:10Z</time>
      </trkpt>
      <trkpt lat="61.6514227074" lon="8.5822371114">
        <ele>2256.35</ele>
        <time>2012-08-06T13:07:46Z</time>
      </trkpt>
      <trkpt lat="61.6514224559" lon="8.58219671063">
        <ele>2256.35</ele>
        <time>2012-08-06T13:08:23Z</time>
      </trkpt>
      <trkpt lat="61.6514128167" lon="8.58216687106">
        <ele>2256.35</ele>
        <time>2012-08-06T13:08:57Z</time>
      </trkpt>
      <trkpt lat="61.6514154989" lon="8.58216703869">
        <ele>2256.83</ele>
        <time>2012-08-06T13:09:37Z</time>
      </trkpt>
      <trkpt lat="61.6514196899" lon="8.58217692934">
        <ele>2256.35</ele>
        <time>2012-08-06T13:10:15Z</time>
      </trkpt>
      <trkpt lat="61.6514186841" lon="8.5821732413">
        <ele>2256.35</ele>
        <time>2012-08-06T13:10:53Z</time>
      </trkpt>
      <trkpt lat="61.651419187" lon="8.58219453134">
        <ele>2256.35</ele>
        <time>2012-08-06T13:11:29Z</time>
      </trkpt>
      <trkpt lat="61.6514114756" lon="8.58216594905">
        <ele>2256.35</ele>
        <time>2012-08-06T13:11:58Z</time>
      </trkpt>
      <trkpt lat="61.6514072008" lon="8.58214457519">
        <ele>2256.83</ele>
        <time>2012-08-06T13:12:40Z</time>
      </trkpt>
      <trkpt lat="61.6514184326" lon="8.58217466623">
        <ele>2256.35</ele>
        <time>2012-08-06T13:13:14Z</time>
      </trkpt>
      <trkpt lat="61.6514113918" lon="8.5821824614">
        <ele>2256.83</ele>
        <time>2012-08-06T13:13:48Z</time>
      </trkpt>
      <trkpt lat="61.6514280718" lon="8.58220827766">
        <ele>2256.83</ele>
        <time>2012-08-06T13:14:21Z</time>
      </trkpt>
      <trkpt lat="61.6514275689" lon="8.58219855465">
        <ele>2256.83</ele>
        <time>2012-08-06T13:14:48Z</time>
      </trkpt>
      <trkpt lat="61.6514139902" lon="8.58218916692">
        <ele>2256.35</ele>
        <time>2012-08-06T13:15:15Z</time>
      </trkpt>
      <trkpt lat="61.6514257248" lon="8.58218606561">
        <ele>2256.83</ele>
        <time>2012-08-06T13:15:49Z</time>
      </trkpt>
      <trkpt lat="61.6514144093" lon="8.58217483386">
        <ele>2256.83</ele>
        <time>2012-08-06T13:16:27Z</time>
      </trkpt>
      <trkpt lat="61.6514077876" lon="8.58219369315">
        <ele>2256.83</ele>
        <time>2012-08-06T13:17:05Z</time>
      </trkpt>
      <trkpt lat="61.6514084581" lon="8.58219704591">
        <ele>2257.31</ele>
        <time>2012-08-06T13:17:40Z</time>
      </trkpt>
      <trkpt lat="61.6514035128" lon="8.58219109476">
        <ele>2256.83</ele>
        <time>2012-08-06T13:18:12Z</time>
      </trkpt>
      <trkpt lat="61.651409464" lon="8.58219847083">
        <ele>2256.83</ele>
        <time>2012-08-06T13:18:45Z</time>
      </trkpt>
      <trkpt lat="61.6514266469" lon="8.58218606561">
        <ele>2256.35</ele>
        <time>2012-08-06T13:19:17Z</time>
      </trkpt>
      <trkpt lat="61.6514253896" lon="8.58218480833">
        <ele>2256.35</ele>
        <time>2012-08-06T13:19:52Z</time>
      </trkpt>
      <trkpt lat="61.651421953" lon="8.58218179084">
        <ele>2256.35</ele>
        <time>2012-08-06T13:20:30Z</time>
      </trkpt>
      <trkpt lat="61.651413152" lon="8.58219495043">
        <ele>2256.83</ele>
        <time>2012-08-06T13:21:03Z</time>
      </trkpt>
      <trkpt lat="61.6514381301" lon="8.58219210058">
        <ele>2256.35</ele>
        <time>2012-08-06T13:21:44Z</time>
      </trkpt>
      <trkpt lat="61.6514200252" lon="8.58218137175">
        <ele>2256.83</ele>
        <time>2012-08-06T13:22:15Z</time>
      </trkpt>
      <trkpt lat="61.6514123138" lon="8.58215798624">
        <ele>2256.35</ele>
        <time>2012-08-06T13:22:48Z</time>
      </trkpt>
      <trkpt lat="61.6514099669" lon="8.58218053356">
        <ele>2256.83</ele>
        <time>2012-08-06T13:23:20Z</time>
      </trkpt>
      <trkpt lat="61.6514115594" lon="8.58218723908">
        <ele>2256.35</ele>
        <time>2012-08-06T13:23:50Z</time>
      </trkpt>
      <trkpt lat="61.6514130682" lon="8.58219386078">
        <ele>2256.83</ele>
        <time>2012-08-06T13:24:19Z</time>
      </trkpt>
      <trkpt lat="61.6514165048" lon="8.58218782581">
        <ele>2256.83</ele>
        <time>2012-08-06T13:24:55Z</time>
      </trkpt>
      <trkpt lat="61.6514134873" lon="8.58217592351">
        <ele>2256.83</ele>
        <time>2012-08-06T13:25:23Z</time>
      </trkpt>
      <trkpt lat="61.6514212824" lon="8.58215966262">
        <ele>2256.83</ele>
        <time>2012-08-06T13:25:55Z</time>
      </trkpt>
      <trkpt lat="61.6514163371" lon="8.58220442198">
        <ele>2256.83</ele>
        <time>2012-08-06T13:26:24Z</time>
      </trkpt>
      <trkpt lat="61.6514031775" lon="8.58218011446">
        <ele>2255.87</ele>
        <time>2012-08-06T13:26:55Z</time>
      </trkpt>
      <trkpt lat="61.6514145769" lon="8.58215924352">
        <ele>2255.39</ele>
        <time>2012-08-06T13:27:21Z</time>
      </trkpt>
      <trkpt lat="61.6514099669" lon="8.58217944391">
        <ele>2256.35</ele>
        <time>2012-08-06T13:27:56Z</time>
      </trkpt>
      <trkpt lat="61.6514152475" lon="8.58216284774">
        <ele>2256.35</ele>
        <time>2012-08-06T13:28:34Z</time>
      </trkpt>
      <trkpt lat="61.6514041834" lon="8.58216762543">
        <ele>2256.35</ele>
        <time>2012-08-06T13:29:16Z</time>
      </trkpt>
      <trkpt lat="61.6513818875" lon="8.58217122965">
        <ele>2256.35</ele>
        <time>2012-08-06T13:29:51Z</time>
      </trkpt>
      <trkpt lat="61.6513901018" lon="8.58218782581">
        <ele>2256.35</ele>
        <time>2012-08-06T13:30:17Z</time>
      </trkpt>
      <trkpt lat="61.6513982322" lon="8.58217583969">
        <ele>2256.35</ele>
        <time>2012-08-06T13:30:55Z</time>
      </trkpt>
      <trkpt lat="61.6513965558" lon="8.58218891546">
        <ele>2256.35</ele>
        <time>2012-08-06T13:31:14Z</time>
      </trkpt>
      <trkpt lat="61.6514146607" lon="8.5821957048">
        <ele>2256.83</ele>
        <time>2012-08-06T13:31:45Z</time>
      </trkpt>
      <trkpt lat="61.6514258087" lon="8.58217307366">
        <ele>2256.35</ele>
        <time>2012-08-06T13:32:12Z</time>
      </trkpt>
      <trkpt lat="61.6514294967" lon="8.58221339062">
        <ele>2256.83</ele>
        <time>2012-08-06T13:32:41Z</time>
      </trkpt>
      <trkpt lat="61.651422875" lon="8.58217692934">
        <ele>2256.83</ele>
        <time>2012-08-06T13:33:00Z</time>
      </trkpt>
      <trkpt lat="61.6514070332" lon="8.58218782581">
        <ele>2256.35</ele>
        <time>2012-08-06T13:33:23Z</time>
      </trkpt>
      <trkpt lat="61.6514264792" lon="8.582197465">
        <ele>2257.31</ele>
        <time>2012-08-06T13:33:44Z</time>
      </trkpt>
      <trkpt lat="61.6514090449" lon="8.58220023103">
        <ele>2258.27</ele>
        <time>2012-08-06T13:34:13Z</time>
      </trkpt>
      <trkpt lat="61.651423797" lon="8.58217022382">
        <ele>2257.31</ele>
        <time>2012-08-06T13:34:29Z</time>
      </trkpt>
      <trkpt lat="61.6514170077" lon="8.58216896653">
        <ele>2257.31</ele>
        <time>2012-08-06T13:34:44Z</time>
      </trkpt>
      <trkpt lat="61.6514262278" lon="8.5821683798">
        <ele>2260.68</ele>
        <time>2012-08-06T13:34:55Z</time>
      </trkpt>
      <trkpt lat="61.6514258087" lon="8.58215924352">
        <ele>2257.79</ele>
        <time>2012-08-06T13:34:56Z</time>
      </trkpt>
      <trkpt lat="61.6514289938" lon="8.58216418885">
        <ele>2252.99</ele>
        <time>2012-08-06T13:35:00Z</time>
      </trkpt>
      <trkpt lat="61.6514294129" lon="8.5821666196">
        <ele>2260.68</ele>
        <time>2012-08-06T13:35:01Z</time>
      </trkpt>
      <trkpt lat="61.6514292452" lon="8.58216729015">
        <ele>2256.83</ele>
        <time>2012-08-06T13:35:02Z</time>
      </trkpt>
      <trkpt lat="61.6514393035" lon="8.58219067566">
        <ele>2256.83</ele>
        <time>2012-08-06T13:35:16Z</time>
      </trkpt>
      <trkpt lat="61.6514369566" lon="8.58222378418">
        <ele>2257.31</ele>
        <time>2012-08-06T13:35:33Z</time>
      </trkpt>
      <trkpt lat="61.6515007429" lon="8.58258814551">
        <ele>2257.31</ele>
        <time>2012-08-06T13:35:48Z</time>
      </trkpt>
      <trkpt lat="61.6515137348" lon="8.5826378502">
        <ele>2257.79</ele>
        <time>2012-08-06T13:35:51Z</time>
      </trkpt>
      <trkpt lat="61.651568301" lon="8.58289852738">
        <ele>2256.83</ele>
        <time>2012-08-06T13:36:04Z</time>
      </trkpt>
      <trkpt lat="61.6516143177" lon="8.58302945271">
        <ele>2256.35</ele>
        <time>2012-08-06T13:36:18Z</time>
      </trkpt>
      <trkpt lat="61.6516310815" lon="8.58301872388">
        <ele>2256.35</ele>
        <time>2012-08-06T13:36:20Z</time>
      </trkpt>
      <trkpt lat="61.6516393796" lon="8.58303230256">
        <ele>2256.35</ele>
        <time>2012-08-06T13:36:32Z</time>
      </trkpt>
      <trkpt lat="61.6516341828" lon="8.58299366198">
        <ele>2256.35</ele>
        <time>2012-08-06T13:37:07Z</time>
      </trkpt>
      <trkpt lat="61.6516221128" lon="8.58292317018">
        <ele>2256.35</ele>
        <time>2012-08-06T13:37:10Z</time>
      </trkpt>
      <trkpt lat="61.6516015772" lon="8.58280892484">
        <ele>2257.31</ele>
        <time>2012-08-06T13:37:16Z</time>
      </trkpt>
      <trkpt lat="61.6515982244" lon="8.58269174583">
        <ele>2257.31</ele>
        <time>2012-08-06T13:37:21Z</time>
      </trkpt>
      <trkpt lat="61.6515860707" lon="8.58260415494">
        <ele>2257.79</ele>
        <time>2012-08-06T13:37:25Z</time>
      </trkpt>
      <trkpt lat="61.6514758486" lon="8.58229586855">
        <ele>2256.83</ele>
        <time>2012-08-06T13:37:41Z</time>
      </trkpt>
      <trkpt lat="61.6514376272" lon="8.58217449859">
        <ele>2257.31</ele>
        <time>2012-08-06T13:37:54Z</time>
      </trkpt>
      <trkpt lat="61.6514279041" lon="8.58217215165">
        <ele>2253.95</ele>
        <time>2012-08-06T13:38:16Z</time>
      </trkpt>
      <trkpt lat="61.6514284909" lon="8.58217298985">
        <ele>2259.72</ele>
        <time>2012-08-06T13:38:17Z</time>
      </trkpt>
      <trkpt lat="61.6514356993" lon="8.58217265457">
        <ele>2255.39</ele>
        <time>2012-08-06T13:38:33Z</time>
      </trkpt>
      <trkpt lat="61.6514331009" lon="8.58215991408">
        <ele>2258.75</ele>
        <time>2012-08-06T13:38:50Z</time>
      </trkpt>
      <trkpt lat="61.6514332686" lon="8.58215404674">
        <ele>2257.31</ele>
        <time>2012-08-06T13:39:23Z</time>
      </trkpt>
      <trkpt lat="61.6514310054" lon="8.58216016553">
        <ele>2261.16</ele>
        <time>2012-08-06T13:39:28Z</time>
      </trkpt>
      <trkpt lat="61.6514305864" lon="8.5821560584">
        <ele>2258.27</ele>
        <time>2012-08-06T13:39:29Z</time>
      </trkpt>
      <trkpt lat="61.6514315922" lon="8.58215622604">
        <ele>2256.83</ele>
        <time>2012-08-06T13:39:31Z</time>
      </trkpt>
      <trkpt lat="61.6514338553" lon="8.58216242865">
        <ele>2256.83</ele>
        <time>2012-08-06T13:39:37Z</time>
      </trkpt>
      <trkpt lat="61.6514363699" lon="8.58215949498">
        <ele>2251.06</ele>
        <time>2012-08-06T13:39:44Z</time>
      </trkpt>
      <trkpt lat="61.6514378786" lon="8.5821599979">
        <ele>2258.75</ele>
        <time>2012-08-06T13:39:45Z</time>
      </trkpt>
      <trkpt lat="61.6514375433" lon="8.58216142282">
        <ele>2258.27</ele>
        <time>2012-08-06T13:39:46Z</time>
      </trkpt>
      <trkpt lat="61.6514388006" lon="8.58216150664">
        <ele>2254.91</ele>
        <time>2012-08-06T13:39:53Z</time>
      </trkpt>
      <trkpt lat="61.6514388006" lon="8.58216142282">
        <ele>2254.43</ele>
        <time>2012-08-06T13:39:54Z</time>
      </trkpt>
      <trkpt lat="61.651440477" lon="8.58216226101">
        <ele>2259.24</ele>
        <time>2012-08-06T13:39:55Z</time>
      </trkpt>
      <trkpt lat="61.6514406446" lon="8.58216058463">
        <ele>2257.31</ele>
        <time>2012-08-06T13:39:56Z</time>
      </trkpt>
      <trkpt lat="61.6514424048" lon="8.58216536231">
        <ele>2252.03</ele>
        <time>2012-08-06T13:40:07Z</time>
      </trkpt>
      <trkpt lat="61.6514430754" lon="8.58216234483">
        <ele>2259.24</ele>
        <time>2012-08-06T13:40:08Z</time>
      </trkpt>
      <trkpt lat="61.6514414828" lon="8.58215706423">
        <ele>2256.83</ele>
        <time>2012-08-06T13:40:11Z</time>
      </trkpt>
      <trkpt lat="61.6514352802" lon="8.58216318302">
        <ele>2252.99</ele>
        <time>2012-08-06T13:40:21Z</time>
      </trkpt>
      <trkpt lat="61.6514364537" lon="8.58216368593">
        <ele>2256.35</ele>
        <time>2012-08-06T13:40:22Z</time>
      </trkpt>
      <trkpt lat="61.6514372081" lon="8.58216351829">
        <ele>2257.31</ele>
        <time>2012-08-06T13:40:24Z</time>
      </trkpt>
      <trkpt lat="61.6514338553" lon="8.58217265457">
        <ele>2255.39</ele>
        <time>2012-08-06T13:40:44Z</time>
      </trkpt>
      <trkpt lat="61.6514361184" lon="8.58217827044">
        <ele>2259.24</ele>
        <time>2012-08-06T13:40:49Z</time>
      </trkpt>
      <trkpt lat="61.6514294967" lon="8.58216938563">
        <ele>2256.35</ele>
        <time>2012-08-06T13:40:56Z</time>
      </trkpt>
      <trkpt lat="61.6514208633" lon="8.58215203509">
        <ele>2256.83</ele>
        <time>2012-08-06T13:41:29Z</time>
      </trkpt>
      <trkpt lat="61.6514143255" lon="8.58219578862">
        <ele>2248.18</ele>
        <time>2012-08-06T13:41:34Z</time>
      </trkpt>
      <trkpt lat="61.65141223" lon="8.5821996443">
        <ele>2263.08</ele>
        <time>2012-08-06T13:41:35Z</time>
      </trkpt>
      <trkpt lat="61.6514121462" lon="8.58219930902">
        <ele>2249.14</ele>
        <time>2012-08-06T13:41:36Z</time>
      </trkpt>
      <trkpt lat="61.6514119785" lon="8.58220224269">
        <ele>2257.31</ele>
        <time>2012-08-06T13:41:37Z</time>
      </trkpt>
      <trkpt lat="61.6514112242" lon="8.58220282942">
        <ele>2267.41</ele>
        <time>2012-08-06T13:41:38Z</time>
      </trkpt>
      <trkpt lat="61.6514093801" lon="8.58220433816">
        <ele>2257.79</ele>
        <time>2012-08-06T13:41:39Z</time>
      </trkpt>
      <trkpt lat="61.6514313407" lon="8.58217483386">
        <ele>2256.35</ele>
        <time>2012-08-06T13:41:55Z</time>
      </trkpt>
      <trkpt lat="61.651426563" lon="8.58220517635">
        <ele>2256.83</ele>
        <time>2012-08-06T13:42:19Z</time>
      </trkpt>
      <trkpt lat="61.6514249705" lon="8.58221909031">
        <ele>2256.35</ele>
        <time>2012-08-06T13:42:47Z</time>
      </trkpt>
      <trkpt lat="61.6514297482" lon="8.58221163042">
        <ele>2256.35</ele>
        <time>2012-08-06T13:43:12Z</time>
      </trkpt>
      <trkpt lat="61.6514248028" lon="8.5822031647">
        <ele>2256.83</ele>
        <time>2012-08-06T13:43:39Z</time>
      </trkpt>
      <trkpt lat="61.6514183488" lon="8.58220576309">
        <ele>2255.87</ele>
        <time>2012-08-06T13:44:05Z</time>
      </trkpt>
      <trkpt lat="61.6514248028" lon="8.58217684552">
        <ele>2256.83</ele>
        <time>2012-08-06T13:44:19Z</time>
      </trkpt>
      <trkpt lat="61.6514337715" lon="8.5821511969">
        <ele>2256.35</ele>
        <time>2012-08-06T13:44:44Z</time>
      </trkpt>
      <trkpt lat="61.6514354479" lon="8.5821564775">
        <ele>2255.87</ele>
        <time>2012-08-06T13:45:09Z</time>
      </trkpt>
      <trkpt lat="61.6514330171" lon="8.58219780028">
        <ele>2256.83</ele>
        <time>2012-08-06T13:45:13Z</time>
      </trkpt>
      <trkpt lat="61.6514036804" lon="8.58218061738">
        <ele>2254.43</ele>
        <time>2012-08-06T13:45:29Z</time>
      </trkpt>
      <trkpt lat="61.6514209472" lon="8.58219101094">
        <ele>2256.35</ele>
        <time>2012-08-06T13:45:47Z</time>
      </trkpt>
      <trkpt lat="61.651414074" lon="8.5822009854">
        <ele>2256.35</ele>
        <time>2012-08-06T13:46:14Z</time>
      </trkpt>
      <trkpt lat="61.6514102183" lon="8.58220735565">
        <ele>2256.35</ele>
        <time>2012-08-06T13:46:45Z</time>
      </trkpt>
      <trkpt lat="61.6514075361" lon="8.58218807727">
        <ele>2255.87</ele>
        <time>2012-08-06T13:47:11Z</time>
      </trkpt>
      <trkpt lat="61.6514282394" lon="8.58217349276">
        <ele>2256.35</ele>
        <time>2012-08-06T13:47:27Z</time>
      </trkpt>
      <trkpt lat="61.651414996" lon="8.5821714811">
        <ele>2255.87</ele>
        <time>2012-08-06T13:47:46Z</time>
      </trkpt>
      <trkpt lat="61.6514488589" lon="8.58213292435">
        <ele>2255.87</ele>
        <time>2012-08-06T13:48:10Z</time>
      </trkpt>
      <trkpt lat="61.651439555" lon="8.58209403232">
        <ele>2256.83</ele>
        <time>2012-08-06T13:48:21Z</time>
      </trkpt>
      <trkpt lat="61.6514477693" lon="8.58201800846">
        <ele>2255.87</ele>
        <time>2012-08-06T13:48:27Z</time>
      </trkpt>
      <trkpt lat="61.6514541395" lon="8.58197928406">
        <ele>2256.83</ele>
        <time>2012-08-06T13:48:29Z</time>
      </trkpt>
      <trkpt lat="61.6514626052" lon="8.58192211948">
        <ele>2255.87</ele>
        <time>2012-08-06T13:48:32Z</time>
      </trkpt>
      <trkpt lat="61.6514618509" lon="8.58188632876">
        <ele>2257.79</ele>
        <time>2012-08-06T13:48:34Z</time>
      </trkpt>
      <trkpt lat="61.651442321" lon="8.58177409507">
        <ele>2257.31</ele>
        <time>2012-08-06T13:48:45Z</time>
      </trkpt>
      <trkpt lat="61.6514379624" lon="8.58176244423">
        <ele>2255.87</ele>
        <time>2012-08-06T13:48:54Z</time>
      </trkpt>
      <trkpt lat="61.651425641" lon="8.58158701099">
        <ele>2255.39</ele>
        <time>2012-08-06T13:49:04Z</time>
      </trkpt>
      <trkpt lat="61.6514295805" lon="8.58152020723">
        <ele>2257.31</ele>
        <time>2012-08-06T13:49:07Z</time>
      </trkpt>
      <trkpt lat="61.6514229588" lon="8.58149833046">
        <ele>2256.35</ele>
        <time>2012-08-06T13:49:09Z</time>
      </trkpt>
      <trkpt lat="61.651411308" lon="8.58126129024">
        <ele>2256.83</ele>
        <time>2012-08-06T13:49:21Z</time>
      </trkpt>
      <trkpt lat="61.6513618547" lon="8.58100027777">
        <ele>2255.87</ele>
        <time>2012-08-06T13:49:34Z</time>
      </trkpt>
      <trkpt lat="61.651283484" lon="8.58083649538">
        <ele>2256.35</ele>
        <time>2012-08-06T13:49:46Z</time>
      </trkpt>
      <trkpt lat="61.6511947196" lon="8.58060775325">
        <ele>2255.87</ele>
        <time>2012-08-06T13:50:00Z</time>
      </trkpt>
      <trkpt lat="61.6511827335" lon="8.58054120094">
        <ele>2255.87</ele>
        <time>2012-08-06T13:50:14Z</time>
      </trkpt>
      <trkpt lat="61.6511817276" lon="8.58042033389">
        <ele>2255.87</ele>
        <time>2012-08-06T13:50:27Z</time>
      </trkpt>
      <trkpt lat="61.6511827335" lon="8.58037222177">
        <ele>2254.91</ele>
        <time>2012-08-06T13:50:29Z</time>
      </trkpt>
      <trkpt lat="61.6511867568" lon="8.58016376384">
        <ele>2257.31</ele>
        <time>2012-08-06T13:50:40Z</time>
      </trkpt>
      <trkpt lat="61.6512020119" lon="8.58002646826">
        <ele>2258.75</ele>
        <time>2012-08-06T13:50:47Z</time>
      </trkpt>
      <trkpt lat="61.6512321867" lon="8.57981625013">
        <ele>2259.72</ele>
        <time>2012-08-06T13:51:02Z</time>
      </trkpt>
      <trkpt lat="61.651241323" lon="8.5797201097">
        <ele>2260.68</ele>
        <time>2012-08-06T13:51:13Z</time>
      </trkpt>
      <trkpt lat="61.6512399819" lon="8.57959186658">
        <ele>2260.68</ele>
        <time>2012-08-06T13:51:26Z</time>
      </trkpt>
      <trkpt lat="61.6512396466" lon="8.57945214026">
        <ele>2260.68</ele>
        <time>2012-08-06T13:51:39Z</time>
      </trkpt>
      <trkpt lat="61.6512388084" lon="8.57938818634">
        <ele>2261.64</ele>
        <time>2012-08-06T13:51:44Z</time>
      </trkpt>
      <trkpt lat="61.6512381379" lon="8.5792057123">
        <ele>2262.6</ele>
        <time>2012-08-06T13:51:56Z</time>
      </trkpt>
      <trkpt lat="61.6512435023" lon="8.57899046503">
        <ele>2264.04</ele>
        <time>2012-08-06T13:52:08Z</time>
      </trkpt>
      <trkpt lat="61.6512609366" lon="8.57863951474">
        <ele>2265.96</ele>
        <time>2012-08-06T13:52:24Z</time>
      </trkpt>
      <trkpt lat="61.6512434185" lon="8.57840892859">
        <ele>2267.41</ele>
        <time>2012-08-06T13:52:40Z</time>
      </trkpt>
      <trkpt lat="61.6512454301" lon="8.57836727053">
        <ele>2267.89</ele>
        <time>2012-08-06T13:52:42Z</time>
      </trkpt>
      <trkpt lat="61.6512357909" lon="8.57804289088">
        <ele>2269.81</ele>
        <time>2012-08-06T13:52:58Z</time>
      </trkpt>
      <trkpt lat="61.6512192786" lon="8.57763888314">
        <ele>2271.25</ele>
        <time>2012-08-06T13:53:16Z</time>
      </trkpt>
      <trkpt lat="61.6512208711" lon="8.57749873772">
        <ele>2273.66</ele>
        <time>2012-08-06T13:53:27Z</time>
      </trkpt>
      <trkpt lat="61.6512263194" lon="8.57725189067">
        <ele>2274.14</ele>
        <time>2012-08-06T13:53:43Z</time>
      </trkpt>
      <trkpt lat="61.6512235533" lon="8.57709439471">
        <ele>2276.54</ele>
        <time>2012-08-06T13:53:55Z</time>
      </trkpt>
      <trkpt lat="61.6512250621" lon="8.57708928175">
        <ele>2273.66</ele>
        <time>2012-08-06T13:53:56Z</time>
      </trkpt>
      <trkpt lat="61.6512231342" lon="8.5770934727">
        <ele>2277.02</ele>
        <time>2012-08-06T13:53:57Z</time>
      </trkpt>
      <trkpt lat="61.6512062028" lon="8.57706874609">
        <ele>2274.62</ele>
        <time>2012-08-06T13:54:16Z</time>
      </trkpt>
      <trkpt lat="61.6512073763" lon="8.57706078328">
        <ele>2274.62</ele>
        <time>2012-08-06T13:54:17Z</time>
      </trkpt>
      <trkpt lat="61.6512099747" lon="8.57694645412">
        <ele>2276.06</ele>
        <time>2012-08-06T13:54:30Z</time>
      </trkpt>
      <trkpt lat="61.6512125731" lon="8.5768639762">
        <ele>2277.02</ele>
        <time>2012-08-06T13:54:36Z</time>
      </trkpt>
      <trkpt lat="61.6512096394" lon="8.57675417326">
        <ele>2277.98</ele>
        <time>2012-08-06T13:54:44Z</time>
      </trkpt>
      <trkpt lat="61.6512126569" lon="8.57664923184">
        <ele>2278.94</ele>
        <time>2012-08-06T13:54:51Z</time>
      </trkpt>
      <trkpt lat="61.6512129921" lon="8.57650623657">
        <ele>2279.42</ele>
        <time>2012-08-06T13:55:00Z</time>
      </trkpt>
      <trkpt lat="61.6512266546" lon="8.57627992518">
        <ele>2281.35</ele>
        <time>2012-08-06T13:55:14Z</time>
      </trkpt>
      <trkpt lat="61.6512263194" lon="8.57621102594">
        <ele>2282.31</ele>
        <time>2012-08-06T13:55:19Z</time>
      </trkpt>
      <trkpt lat="61.6512281634" lon="8.57616132125">
        <ele>2282.31</ele>
        <time>2012-08-06T13:55:23Z</time>
      </trkpt>
      <trkpt lat="61.6512331087" lon="8.57606853358">
        <ele>2283.27</ele>
        <time>2012-08-06T13:55:28Z</time>
      </trkpt>
      <trkpt lat="61.6512441728" lon="8.57594456524">
        <ele>2284.23</ele>
        <time>2012-08-06T13:55:37Z</time>
      </trkpt>
      <trkpt lat="61.6512414068" lon="8.57587097213">
        <ele>2285.19</ele>
        <time>2012-08-06T13:55:42Z</time>
      </trkpt>
      <trkpt lat="61.6512098908" lon="8.57568564825">
        <ele>2286.15</ele>
        <time>2012-08-06T13:55:53Z</time>
      </trkpt>
      <trkpt lat="61.6511883494" lon="8.57555572875">
        <ele>2286.63</ele>
        <time>2012-08-06T13:56:02Z</time>
      </trkpt>
      <trkpt lat="61.6511164326" lon="8.57530435547">
        <ele>2288.08</ele>
        <time>2012-08-06T13:56:19Z</time>
      </trkpt>
      <trkpt lat="61.651073182" lon="8.57518399134">
        <ele>2287.11</ele>
        <time>2012-08-06T13:56:26Z</time>
      </trkpt>
      <trkpt lat="61.6510409117" lon="8.57506220229">
        <ele>2290.48</ele>
        <time>2012-08-06T13:56:34Z</time>
      </trkpt>
      <trkpt lat="61.65100554" lon="8.57500780374">
        <ele>2290.48</ele>
        <time>2012-08-06T13:56:52Z</time>
      </trkpt>
      <trkpt lat="61.6509955656" lon="8.57501098886">
        <ele>2290</ele>
        <time>2012-08-06T13:57:27Z</time>
      </trkpt>
      <trkpt lat="61.651001852" lon="8.57499196194">
        <ele>2291.44</ele>
        <time>2012-08-06T13:57:36Z</time>
      </trkpt>
      <trkpt lat="61.6509942245" lon="8.57499439269">
        <ele>2291.92</ele>
        <time>2012-08-06T13:58:11Z</time>
      </trkpt>
      <trkpt lat="61.650993051" lon="8.57496597804">
        <ele>2291.92</ele>
        <time>2012-08-06T13:58:43Z</time>
      </trkpt>
      <trkpt lat="61.6510211304" lon="8.57492155395">
        <ele>2290.96</ele>
        <time>2012-08-06T13:59:02Z</time>
      </trkpt>
      <trkpt lat="61.6510197055" lon="8.5749420058">
        <ele>2289.52</ele>
        <time>2012-08-06T13:59:10Z</time>
      </trkpt>
      <trkpt lat="61.6510215495" lon="8.57494468801">
        <ele>2292.4</ele>
        <time>2012-08-06T13:59:12Z</time>
      </trkpt>
      <trkpt lat="61.6510242317" lon="8.5749120824">
        <ele>2290.96</ele>
        <time>2012-08-06T13:59:46Z</time>
      </trkpt>
      <trkpt lat="61.6510083061" lon="8.57488039881">
        <ele>2289.52</ele>
        <time>2012-08-06T14:00:02Z</time>
      </trkpt>
      <trkpt lat="61.6510070488" lon="8.57486782596">
        <ele>2290.96</ele>
        <time>2012-08-06T14:00:03Z</time>
      </trkpt>
      <trkpt lat="61.6510063782" lon="8.57482759282">
        <ele>2291.92</ele>
        <time>2012-08-06T14:00:05Z</time>
      </trkpt>
      <trkpt lat="61.6509762872" lon="8.57464612462">
        <ele>2293.36</ele>
        <time>2012-08-06T14:00:18Z</time>
      </trkpt>
      <trkpt lat="61.6509269178" lon="8.57437010854">
        <ele>2295.28</ele>
        <time>2012-08-06T14:00:34Z</time>
      </trkpt>
      <trkpt lat="61.6509184521" lon="8.57431814075">
        <ele>2294.8</ele>
        <time>2012-08-06T14:00:37Z</time>
      </trkpt>
      <trkpt lat="61.6508895345" lon="8.57405972667">
        <ele>2296.25</ele>
        <time>2012-08-06T14:00:51Z</time>
      </trkpt>
      <trkpt lat="61.6508459486" lon="8.57380282134">
        <ele>2298.65</ele>
        <time>2012-08-06T14:01:07Z</time>
      </trkpt>
      <trkpt lat="61.6508099902" lon="8.57358355075">
        <ele>2300.57</ele>
        <time>2012-08-06T14:01:19Z</time>
      </trkpt>
      <trkpt lat="61.6507677455" lon="8.57331264764">
        <ele>2302.49</ele>
        <time>2012-08-06T14:01:35Z</time>
      </trkpt>
      <trkpt lat="61.6507629678" lon="8.57326512225">
        <ele>2302.98</ele>
        <time>2012-08-06T14:01:38Z</time>
      </trkpt>
      <trkpt lat="61.6507522389" lon="8.57321483083">
        <ele>2303.94</ele>
        <time>2012-08-06T14:01:42Z</time>
      </trkpt>
      <trkpt lat="61.6507467069" lon="8.57317149639">
        <ele>2303.94</ele>
        <time>2012-08-06T14:01:57Z</time>
      </trkpt>
      <trkpt lat="61.6507465392" lon="8.57312413864">
        <ele>2303.94</ele>
        <time>2012-08-06T14:02:26Z</time>
      </trkpt>
      <trkpt lat="61.6507067252" lon="8.5729495436">
        <ele>2305.86</ele>
        <time>2012-08-06T14:02:39Z</time>
      </trkpt>
      <trkpt lat="61.6506913863" lon="8.57287695631">
        <ele>2304.42</ele>
        <time>2012-08-06T14:02:46Z</time>
      </trkpt>
      <trkpt lat="61.6506820824" lon="8.57283672318">
        <ele>2308.26</ele>
        <time>2012-08-06T14:02:50Z</time>
      </trkpt>
      <trkpt lat="61.6506662406" lon="8.57270604931">
        <ele>2307.3</ele>
        <time>2012-08-06T14:03:01Z</time>
      </trkpt>
      <trkpt lat="61.650659116" lon="8.57263287529">
        <ele>2306.82</ele>
        <time>2012-08-06T14:03:13Z</time>
      </trkpt>
      <trkpt lat="61.6506553441" lon="8.57259322889">
        <ele>2307.3</ele>
        <time>2012-08-06T14:03:28Z</time>
      </trkpt>
      <trkpt lat="61.6506412625" lon="8.57242215425">
        <ele>2310.67</ele>
        <time>2012-08-06T14:03:41Z</time>
      </trkpt>
      <trkpt lat="61.6506322939" lon="8.57236750424">
        <ele>2308.74</ele>
        <time>2012-08-06T14:03:57Z</time>
      </trkpt>
      <trkpt lat="61.6506322939" lon="8.57236457057">
        <ele>2309.22</ele>
        <time>2012-08-06T14:04:00Z</time>
      </trkpt>
      <trkpt lat="61.650626678" lon="8.5723343119">
        <ele>2312.59</ele>
        <time>2012-08-06T14:04:02Z</time>
      </trkpt>
      <trkpt lat="61.6506236605" lon="8.57231779955">
        <ele>2311.15</ele>
        <time>2012-08-06T14:04:04Z</time>
      </trkpt>
      <trkpt lat="61.6506196372" lon="8.57227077708">
        <ele>2310.67</ele>
        <time>2012-08-06T14:04:08Z</time>
      </trkpt>
      <trkpt lat="61.6506099142" lon="8.57214110903">
        <ele>2310.67</ele>
        <time>2012-08-06T14:04:19Z</time>
      </trkpt>
      <trkpt lat="61.6506126802" lon="8.57201479375">
        <ele>2313.07</ele>
        <time>2012-08-06T14:04:32Z</time>
      </trkpt>
      <trkpt lat="61.6506242473" lon="8.57188889757">
        <ele>2313.55</ele>
        <time>2012-08-06T14:04:45Z</time>
      </trkpt>
      <trkpt lat="61.6506265942" lon="8.57176710851">
        <ele>2316.91</ele>
        <time>2012-08-06T14:04:55Z</time>
      </trkpt>
      <trkpt lat="61.6506315395" lon="8.57170122676">
        <ele>2316.43</ele>
        <time>2012-08-06T14:05:00Z</time>
      </trkpt>
      <trkpt lat="61.6506229062" lon="8.57156150043">
        <ele>2316.91</ele>
        <time>2012-08-06T14:05:13Z</time>
      </trkpt>
      <trkpt lat="61.6506146081" lon="8.57140534557">
        <ele>2319.32</ele>
        <time>2012-08-06T14:05:25Z</time>
      </trkpt>
      <trkpt lat="61.6506136023" lon="8.5713636037">
        <ele>2320.76</ele>
        <time>2012-08-06T14:05:29Z</time>
      </trkpt>
      <trkpt lat="61.6506108362" lon="8.57134482823">
        <ele>2319.32</ele>
        <time>2012-08-06T14:05:31Z</time>
      </trkpt>
      <trkpt lat="61.6506025381" lon="8.57122412883">
        <ele>2321.24</ele>
        <time>2012-08-06T14:05:43Z</time>
      </trkpt>
      <trkpt lat="61.6505950782" lon="8.57104944997">
        <ele>2320.28</ele>
        <time>2012-08-06T14:05:58Z</time>
      </trkpt>
      <trkpt lat="61.6505835112" lon="8.57090301812">
        <ele>2323.64</ele>
        <time>2012-08-06T14:06:08Z</time>
      </trkpt>
      <trkpt lat="61.6505484749" lon="8.57073311694">
        <ele>2324.12</ele>
        <time>2012-08-06T14:06:22Z</time>
      </trkpt>
      <trkpt lat="61.6505601257" lon="8.57068659738">
        <ele>2324.61</ele>
        <time>2012-08-06T14:06:37Z</time>
      </trkpt>
      <trkpt lat="61.6505317949" lon="8.57064384967">
        <ele>2323.16</ele>
        <time>2012-08-06T14:06:43Z</time>
      </trkpt>
      <trkpt lat="61.6505251732" lon="8.57060110196">
        <ele>2327.49</ele>
        <time>2012-08-06T14:06:45Z</time>
      </trkpt>
      <trkpt lat="61.6505123489" lon="8.57057310641">
        <ele>2326.05</ele>
        <time>2012-08-06T14:06:47Z</time>
      </trkpt>
      <trkpt lat="61.6504694335" lon="8.57043069787">
        <ele>2326.05</ele>
        <time>2012-08-06T14:06:59Z</time>
      </trkpt>
      <trkpt lat="61.65044236" lon="8.57028032653">
        <ele>2327.01</ele>
        <time>2012-08-06T14:07:11Z</time>
      </trkpt>
      <trkpt lat="61.6504255123" lon="8.5702088289">
        <ele>2326.53</ele>
        <time>2012-08-06T14:07:24Z</time>
      </trkpt>
      <trkpt lat="61.6504271887" lon="8.57018837705">
        <ele>2327.01</ele>
        <time>2012-08-06T14:07:50Z</time>
      </trkpt>
      <trkpt lat="61.6504174657" lon="8.57021134347">
        <ele>2327.49</ele>
        <time>2012-08-06T14:08:18Z</time>
      </trkpt>
      <trkpt lat="61.6504219919" lon="8.57019768097">
        <ele>2327.97</ele>
        <time>2012-08-06T14:08:48Z</time>
      </trkpt>
      <trkpt lat="61.6504162923" lon="8.57016004622">
        <ele>2327.01</ele>
        <time>2012-08-06T14:09:18Z</time>
      </trkpt>
      <trkpt lat="61.6504095029" lon="8.5699661728">
        <ele>2328.93</ele>
        <time>2012-08-06T14:09:31Z</time>
      </trkpt>
      <trkpt lat="61.650378406" lon="8.56974874623">
        <ele>2329.89</ele>
        <time>2012-08-06T14:09:43Z</time>
      </trkpt>
      <trkpt lat="61.6503696889" lon="8.56971605681">
        <ele>2331.81</ele>
        <time>2012-08-06T14:09:46Z</time>
      </trkpt>
      <trkpt lat="61.6503296234" lon="8.56949913315">
        <ele>2332.78</ele>
        <time>2012-08-06T14:09:58Z</time>
      </trkpt>
      <trkpt lat="61.6502997838" lon="8.56930249371">
        <ele>2334.22</ele>
        <time>2012-08-06T14:10:10Z</time>
      </trkpt>
      <trkpt lat="61.6502748895" lon="8.56910794973">
        <ele>2335.66</ele>
        <time>2012-08-06T14:10:25Z</time>
      </trkpt>
      <trkpt lat="61.6502746381" lon="8.56908330694">
        <ele>2337.58</ele>
        <time>2012-08-06T14:10:27Z</time>
      </trkpt>
      <trkpt lat="61.6502766497" lon="8.56907350011">
        <ele>2336.62</ele>
        <time>2012-08-06T14:10:29Z</time>
      </trkpt>
      <trkpt lat="61.6502891388" lon="8.5689289961">
        <ele>2338.54</ele>
        <time>2012-08-06T14:10:42Z</time>
      </trkpt>
      <trkpt lat="61.6502913181" lon="8.56886076741">
        <ele>2339.02</ele>
        <time>2012-08-06T14:10:48Z</time>
      </trkpt>
      <trkpt lat="61.6502908152" lon="8.56879153289">
        <ele>2339.51</ele>
        <time>2012-08-06T14:10:53Z</time>
      </trkpt>
      <trkpt lat="61.6502915695" lon="8.56871902943">
        <ele>2339.51</ele>
        <time>2012-08-06T14:10:59Z</time>
      </trkpt>
      <trkpt lat="61.6502850316" lon="8.56852389872">
        <ele>2342.39</ele>
        <time>2012-08-06T14:11:13Z</time>
      </trkpt>
      <trkpt lat="61.6503019631" lon="8.56839221902">
        <ele>2343.83</ele>
        <time>2012-08-06T14:11:26Z</time>
      </trkpt>
      <trkpt lat="61.6503333952" lon="8.56835190207">
        <ele>2345.75</ele>
        <time>2012-08-06T14:11:47Z</time>
      </trkpt>
      <trkpt lat="61.6503007896" lon="8.56835483573">
        <ele>2343.83</ele>
        <time>2012-08-06T14:12:03Z</time>
      </trkpt>
      <trkpt lat="61.650314955" lon="8.56832457706">
        <ele>2346.72</ele>
        <time>2012-08-06T14:12:05Z</time>
      </trkpt>
      <trkpt lat="61.6503203195" lon="8.56831393205">
        <ele>2345.75</ele>
        <time>2012-08-06T14:12:06Z</time>
      </trkpt>
      <trkpt lat="61.6503661685" lon="8.56819943525">
        <ele>2348.16</ele>
        <time>2012-08-06T14:12:19Z</time>
      </trkpt>
      <trkpt lat="61.6504087485" lon="8.56807881966">
        <ele>2350.08</ele>
        <time>2012-08-06T14:12:32Z</time>
      </trkpt>
      <trkpt lat="61.6504149511" lon="8.56806255877">
        <ele>2351.04</ele>
        <time>2012-08-06T14:12:34Z</time>
      </trkpt>
      <trkpt lat="61.6504338104" lon="8.56800220907">
        <ele>2350.08</ele>
        <time>2012-08-06T14:12:40Z</time>
      </trkpt>
      <trkpt lat="61.6504872032" lon="8.56787580997">
        <ele>2354.41</ele>
        <time>2012-08-06T14:12:53Z</time>
      </trkpt>
      <trkpt lat="61.6505032126" lon="8.56783490628">
        <ele>2354.89</ele>
        <time>2012-08-06T14:13:01Z</time>
      </trkpt>
      <trkpt lat="61.6505108401" lon="8.5677517578">
        <ele>2355.85</ele>
        <time>2012-08-06T14:13:20Z</time>
      </trkpt>
      <trkpt lat="61.6505157016" lon="8.56772082858">
        <ele>2356.81</ele>
        <time>2012-08-06T14:13:24Z</time>
      </trkpt>
      <trkpt lat="61.6505343094" lon="8.56761563569">
        <ele>2356.81</ele>
        <time>2012-08-06T14:13:36Z</time>
      </trkpt>
      <trkpt lat="61.6505444515" lon="8.56754757464">
        <ele>2360.65</ele>
        <time>2012-08-06T14:13:42Z</time>
      </trkpt>
      <trkpt lat="61.6505470499" lon="8.56751823798">
        <ele>2359.21</ele>
        <time>2012-08-06T14:13:45Z</time>
      </trkpt>
      <trkpt lat="61.6505645681" lon="8.56744020246">
        <ele>2362.58</ele>
        <time>2012-08-06T14:13:53Z</time>
      </trkpt>
      <trkpt lat="61.6505682562" lon="8.56742025353">
        <ele>2359.21</ele>
        <time>2012-08-06T14:13:55Z</time>
      </trkpt>
      <trkpt lat="61.6505703516" lon="8.5674139671">
        <ele>2362.58</ele>
        <time>2012-08-06T14:13:56Z</time>
      </trkpt>
      <trkpt lat="61.6505936533" lon="8.56733844616">
        <ele>2363.54</ele>
        <time>2012-08-06T14:14:08Z</time>
      </trkpt>
      <trkpt lat="61.6505908873" lon="8.56726719998">
        <ele>2365.46</ele>
        <time>2012-08-06T14:14:23Z</time>
      </trkpt>
      <trkpt lat="61.6506042983" lon="8.56711682864">
        <ele>2365.46</ele>
        <time>2012-08-06T14:14:36Z</time>
      </trkpt>
      <trkpt lat="61.6506092437" lon="8.56707827188">
        <ele>2367.38</ele>
        <time>2012-08-06T14:14:41Z</time>
      </trkpt>
      <trkpt lat="61.6506404243" lon="8.56700803153">
        <ele>2368.83</ele>
        <time>2012-08-06T14:14:57Z</time>
      </trkpt>
      <trkpt lat="61.6506614629" lon="8.56696193106">
        <ele>2369.31</ele>
        <time>2012-08-06T14:15:09Z</time>
      </trkpt>
      <trkpt lat="61.6506699286" lon="8.56691088527">
        <ele>2372.67</ele>
        <time>2012-08-06T14:15:19Z</time>
      </trkpt>
      <trkpt lat="61.6506731138" lon="8.56689982116">
        <ele>2370.27</ele>
        <time>2012-08-06T14:15:20Z</time>
      </trkpt>
      <trkpt lat="61.65067764" lon="8.56687911786">
        <ele>2369.31</ele>
        <time>2012-08-06T14:15:22Z</time>
      </trkpt>
      <trkpt lat="61.6506945714" lon="8.56680368073">
        <ele>2373.63</ele>
        <time>2012-08-06T14:15:28Z</time>
      </trkpt>
      <trkpt lat="61.6506940685" lon="8.56679454446">
        <ele>2371.71</ele>
        <time>2012-08-06T14:15:29Z</time>
      </trkpt>
      <trkpt lat="61.6507033724" lon="8.56672237627">
        <ele>2375.07</ele>
        <time>2012-08-06T14:15:34Z</time>
      </trkpt>
      <trkpt lat="61.6507091559" lon="8.56668541208">
        <ele>2370.27</ele>
        <time>2012-08-06T14:15:37Z</time>
      </trkpt>
      <trkpt lat="61.6507091559" lon="8.56667158194">
        <ele>2376.04</ele>
        <time>2012-08-06T14:15:38Z</time>
      </trkpt>
      <trkpt lat="61.6507116705" lon="8.56664383784">
        <ele>2372.67</ele>
        <time>2012-08-06T14:15:40Z</time>
      </trkpt>
      <trkpt lat="61.6507265903" lon="8.56653420255">
        <ele>2375.55</ele>
        <time>2012-08-06T14:15:51Z</time>
      </trkpt>
      <trkpt lat="61.6507338826" lon="8.5664604418">
        <ele>2379.4</ele>
        <time>2012-08-06T14:15:59Z</time>
      </trkpt>
      <trkpt lat="61.6507340502" lon="8.5664502997">
        <ele>2375.55</ele>
        <time>2012-08-06T14:16:00Z</time>
      </trkpt>
      <trkpt lat="61.6507482156" lon="8.56635415927">
        <ele>2379.4</ele>
        <time>2012-08-06T14:16:09Z</time>
      </trkpt>
      <trkpt lat="61.6507497244" lon="8.56633320451">
        <ele>2375.55</ele>
        <time>2012-08-06T14:16:11Z</time>
      </trkpt>
      <trkpt lat="61.6507509816" lon="8.56632029638">
        <ele>2380.36</ele>
        <time>2012-08-06T14:16:12Z</time>
      </trkpt>
      <trkpt lat="61.6507676616" lon="8.56634099968">
        <ele>2378.44</ele>
        <time>2012-08-06T14:16:32Z</time>
      </trkpt>
      <trkpt lat="61.6507688351" lon="8.56633664109">
        <ele>2378.44</ele>
        <time>2012-08-06T14:16:52Z</time>
      </trkpt>
      <trkpt lat="61.6507628001" lon="8.56621501967">
        <ele>2377.48</ele>
        <time>2012-08-06T14:17:05Z</time>
      </trkpt>
      <trkpt lat="61.6507642251" lon="8.56620336883">
        <ele>2382.28</ele>
        <time>2012-08-06T14:17:06Z</time>
      </trkpt>
      <trkpt lat="61.6507645603" lon="8.56619674712">
        <ele>2380.84</ele>
        <time>2012-08-06T14:17:07Z</time>
      </trkpt>
      <trkpt lat="61.6507650632" lon="8.56609624811">
        <ele>2382.28</ele>
        <time>2012-08-06T14:17:15Z</time>
      </trkpt>
      <trkpt lat="61.6507743672" lon="8.56596984901">
        <ele>2384.69</ele>
        <time>2012-08-06T14:17:26Z</time>
      </trkpt>
      <trkpt lat="61.6507836711" lon="8.56591561809">
        <ele>2384.69</ele>
        <time>2012-08-06T14:17:31Z</time>
      </trkpt>
      <trkpt lat="61.6507898737" lon="8.56586591341">
        <ele>2381.32</ele>
        <time>2012-08-06T14:17:34Z</time>
      </trkpt>
      <trkpt lat="61.6507927235" lon="8.56585677713">
        <ele>2387.57</ele>
        <time>2012-08-06T14:17:35Z</time>
      </trkpt>
      <trkpt lat="61.6507943999" lon="8.56584219262">
        <ele>2384.69</ele>
        <time>2012-08-06T14:17:38Z</time>
      </trkpt>
      <trkpt lat="61.6507949028" lon="8.56582392007">
        <ele>2385.65</ele>
        <time>2012-08-06T14:17:39Z</time>
      </trkpt>
      <trkpt lat="61.65080823" lon="8.56575041078">
        <ele>2386.13</ele>
        <time>2012-08-06T14:17:45Z</time>
      </trkpt>
      <trkpt lat="61.6508265864" lon="8.56563381851">
        <ele>2389.49</ele>
        <time>2012-08-06T14:17:56Z</time>
      </trkpt>
      <trkpt lat="61.6508274246" lon="8.56562862173">
        <ele>2387.57</ele>
        <time>2012-08-06T14:17:57Z</time>
      </trkpt>
      <trkpt lat="61.6508287657" lon="8.56561546214">
        <ele>2386.61</ele>
        <time>2012-08-06T14:17:59Z</time>
      </trkpt>
      <trkpt lat="61.650833711" lon="8.56560607441">
        <ele>2385.17</ele>
        <time>2012-08-06T14:18:11Z</time>
      </trkpt>
      <trkpt lat="61.6508359741" lon="8.56554832309">
        <ele>2385.65</ele>
        <time>2012-08-06T14:18:16Z</time>
      </trkpt>
      <trkpt lat="61.6508438531" lon="8.56539971195">
        <ele>2390.46</ele>
        <time>2012-08-06T14:18:29Z</time>
      </trkpt>
      <trkpt lat="61.6508405004" lon="8.56533265673">
        <ele>2389.97</ele>
        <time>2012-08-06T14:18:35Z</time>
      </trkpt>
      <trkpt lat="61.6508292686" lon="8.56522754766">
        <ele>2389.01</ele>
        <time>2012-08-06T14:18:44Z</time>
      </trkpt>
      <trkpt lat="61.6508286819" lon="8.56508295983">
        <ele>2391.42</ele>
        <time>2012-08-06T14:18:55Z</time>
      </trkpt>
      <trkpt lat="61.6508287657" lon="8.56500056572">
        <ele>2389.01</ele>
        <time>2012-08-06T14:19:03Z</time>
      </trkpt>
      <trkpt lat="61.6508145165" lon="8.56482177973">
        <ele>2389.97</ele>
        <time>2012-08-06T14:19:15Z</time>
      </trkpt>
      <trkpt lat="61.6508166958" lon="8.56481306255">
        <ele>2394.78</ele>
        <time>2012-08-06T14:19:16Z</time>
      </trkpt>
      <trkpt lat="61.6508197132" lon="8.56468548998">
        <ele>2395.26</ele>
        <time>2012-08-06T14:19:27Z</time>
      </trkpt>
      <trkpt lat="61.6508201323" lon="8.56467635371">
        <ele>2392.86</ele>
        <time>2012-08-06T14:19:28Z</time>
      </trkpt>
      <trkpt lat="61.6508140136" lon="8.56454651803">
        <ele>2393.82</ele>
        <time>2012-08-06T14:19:44Z</time>
      </trkpt>
      <trkpt lat="61.6508163605" lon="8.56449153274">
        <ele>2394.78</ele>
        <time>2012-08-06T14:19:59Z</time>
      </trkpt>
      <trkpt lat="61.6508059669" lon="8.56446127407">
        <ele>2395.74</ele>
        <time>2012-08-06T14:20:23Z</time>
      </trkpt>
      <trkpt lat="61.650793897" lon="8.56437502429">
        <ele>2395.74</ele>
        <time>2012-08-06T14:20:26Z</time>
      </trkpt>
      <trkpt lat="61.6507803183" lon="8.56425885111">
        <ele>2396.22</ele>
        <time>2012-08-06T14:20:33Z</time>
      </trkpt>
      <trkpt lat="61.6507835872" lon="8.56422197074">
        <ele>2397.18</ele>
        <time>2012-08-06T14:20:35Z</time>
      </trkpt>
      <trkpt lat="61.6507866047" lon="8.56394520029">
        <ele>2399.59</ele>
        <time>2012-08-06T14:20:50Z</time>
      </trkpt>
      <trkpt lat="61.6507845093" lon="8.56373934075">
        <ele>2401.03</ele>
        <time>2012-08-06T14:21:02Z</time>
      </trkpt>
      <trkpt lat="61.6507752892" lon="8.56347740628">
        <ele>2402.47</ele>
        <time>2012-08-06T14:21:16Z</time>
      </trkpt>
      <trkpt lat="61.6507746186" lon="8.56343063526">
        <ele>2401.99</ele>
        <time>2012-08-06T14:21:20Z</time>
      </trkpt>
      <trkpt lat="61.6507766303" lon="8.56328286231">
        <ele>2404.39</ele>
        <time>2012-08-06T14:21:33Z</time>
      </trkpt>
      <trkpt lat="61.6507597826" lon="8.56326023117">
        <ele>2405.84</ele>
        <time>2012-08-06T14:21:45Z</time>
      </trkpt>
      <trkpt lat="61.6507600341" lon="8.56325738132">
        <ele>2404.88</ele>
        <time>2012-08-06T14:21:46Z</time>
      </trkpt>
      <trkpt lat="61.6507626325" lon="8.56325386092">
        <ele>2401.51</ele>
        <time>2012-08-06T14:21:48Z</time>
      </trkpt>
      <trkpt lat="61.6507622972" lon="8.56325578876">
        <ele>2407.76</ele>
        <time>2012-08-06T14:21:49Z</time>
      </trkpt>
      <trkpt lat="61.6507596988" lon="8.56325780042">
        <ele>2404.88</ele>
        <time>2012-08-06T14:21:50Z</time>
      </trkpt>
      <trkpt lat="61.6507273447" lon="8.56319443323">
        <ele>2403.43</ele>
        <time>2012-08-06T14:22:11Z</time>
      </trkpt>
      <trkpt lat="61.6507296078" lon="8.56307113543">
        <ele>2404.88</ele>
        <time>2012-08-06T14:22:17Z</time>
      </trkpt>
      <trkpt lat="61.6507193819" lon="8.56288899668">
        <ele>2406.32</ele>
        <time>2012-08-06T14:22:27Z</time>
      </trkpt>
      <trkpt lat="61.6507148556" lon="8.56266804971">
        <ele>2407.76</ele>
        <time>2012-08-06T14:22:42Z</time>
      </trkpt>
      <trkpt lat="61.6507143527" lon="8.5626534652">
        <ele>2408.24</ele>
        <time>2012-08-06T14:22:43Z</time>
      </trkpt>
      <trkpt lat="61.6507099941" lon="8.56241818517">
        <ele>2409.68</ele>
        <time>2012-08-06T14:22:58Z</time>
      </trkpt>
      <trkpt lat="61.6507016961" lon="8.56222674251">
        <ele>2411.12</ele>
        <time>2012-08-06T14:23:11Z</time>
      </trkpt>
      <trkpt lat="61.6507037077" lon="8.56206027791">
        <ele>2412.09</ele>
        <time>2012-08-06T14:23:23Z</time>
      </trkpt>
      <trkpt lat="61.650699852" lon="8.56190638617">
        <ele>2412.57</ele>
        <time>2012-08-06T14:23:36Z</time>
      </trkpt>
      <trkpt lat="61.6506904643" lon="8.56173455715">
        <ele>2413.05</ele>
        <time>2012-08-06T14:23:49Z</time>
      </trkpt>
      <trkpt lat="61.6506806575" lon="8.56159944087">
        <ele>2413.53</ele>
        <time>2012-08-06T14:24:01Z</time>
      </trkpt>
      <trkpt lat="61.6507016122" lon="8.56143171899">
        <ele>2410.64</ele>
        <time>2012-08-06T14:24:16Z</time>
      </trkpt>
      <trkpt lat="61.650704043" lon="8.56141805649">
        <ele>2420.26</ele>
        <time>2012-08-06T14:24:17Z</time>
      </trkpt>
      <trkpt lat="61.6507063899" lon="8.56140187941">
        <ele>2414.49</ele>
        <time>2012-08-06T14:24:18Z</time>
      </trkpt>
      <trkpt lat="61.6507124249" lon="8.56121605262">
        <ele>2416.41</ele>
        <time>2012-08-06T14:24:31Z</time>
      </trkpt>
      <trkpt lat="61.6507170349" lon="8.56114597991">
        <ele>2417.85</ele>
        <time>2012-08-06T14:24:36Z</time>
      </trkpt>
      <trkpt lat="61.6507462878" lon="8.56096191332">
        <ele>2419.78</ele>
        <time>2012-08-06T14:24:50Z</time>
      </trkpt>
      <trkpt lat="61.6507473774" lon="8.56092461385">
        <ele>2419.3</ele>
        <time>2012-08-06T14:25:06Z</time>
      </trkpt>
      <trkpt lat="61.6507555917" lon="8.56077407487">
        <ele>2421.7</ele>
        <time>2012-08-06T14:25:15Z</time>
      </trkpt>
      <trkpt lat="61.6507775523" lon="8.56064189225">
        <ele>2423.62</ele>
        <time>2012-08-06T14:25:29Z</time>
      </trkpt>
      <trkpt lat="61.6508030333" lon="8.56052236632">
        <ele>2425.54</ele>
        <time>2012-08-06T14:25:41Z</time>
      </trkpt>
      <trkpt lat="61.6508452781" lon="8.56038020924">
        <ele>2427.95</ele>
        <time>2012-08-06T14:25:58Z</time>
      </trkpt>
      <trkpt lat="61.6508529894" lon="8.56029639021">
        <ele>2428.43</ele>
        <time>2012-08-06T14:26:06Z</time>
      </trkpt>
      <trkpt lat="61.6508607008" lon="8.56016563252">
        <ele>2431.79</ele>
        <time>2012-08-06T14:26:17Z</time>
      </trkpt>
      <trkpt lat="61.6508803144" lon="8.5601409059">
        <ele>2431.79</ele>
        <time>2012-08-06T14:26:36Z</time>
      </trkpt>
      <trkpt lat="61.6508783028" lon="8.56014174409">
        <ele>2431.79</ele>
        <time>2012-08-06T14:27:05Z</time>
      </trkpt>
      <trkpt lat="61.6509028617" lon="8.56000210159">
        <ele>2432.75</ele>
        <time>2012-08-06T14:27:29Z</time>
      </trkpt>
      <trkpt lat="61.6509124171" lon="8.55987327173">
        <ele>2436.12</ele>
        <time>2012-08-06T14:27:41Z</time>
      </trkpt>
      <trkpt lat="61.6509396583" lon="8.55970362201">
        <ele>2437.56</ele>
        <time>2012-08-06T14:27:58Z</time>
      </trkpt>
      <trkpt lat="61.6509660613" lon="8.55956029147">
        <ele>2439.96</ele>
        <time>2012-08-06T14:28:14Z</time>
      </trkpt>
      <trkpt lat="61.6510071326" lon="8.55941151269">
        <ele>2442.37</ele>
        <time>2012-08-06T14:28:29Z</time>
      </trkpt>
      <trkpt lat="61.6510108206" lon="8.55936164036">
        <ele>2444.77</ele>
        <time>2012-08-06T14:28:34Z</time>
      </trkpt>
      <trkpt lat="61.6510269139" lon="8.55929961428">
        <ele>2443.81</ele>
        <time>2012-08-06T14:28:51Z</time>
      </trkpt>
      <trkpt lat="61.6510522272" lon="8.55922459625">
        <ele>2445.25</ele>
        <time>2012-08-06T14:29:10Z</time>
      </trkpt>
      <trkpt lat="61.6510802228" lon="8.55906156823">
        <ele>2448.13</ele>
        <time>2012-08-06T14:29:24Z</time>
      </trkpt>
      <trkpt lat="61.651090784" lon="8.55889837258">
        <ele>2449.58</ele>
        <time>2012-08-06T14:29:37Z</time>
      </trkpt>
      <trkpt lat="61.6511000879" lon="8.55887490325">
        <ele>2450.54</ele>
        <time>2012-08-06T14:29:41Z</time>
      </trkpt>
      <trkpt lat="61.6511069611" lon="8.55883307755">
        <ele>2451.5</ele>
        <time>2012-08-06T14:29:47Z</time>
      </trkpt>
      <trkpt lat="61.6511311848" lon="8.55873174034">
        <ele>2453.9</ele>
        <time>2012-08-06T14:30:00Z</time>
      </trkpt>
      <trkpt lat="61.6511344537" lon="8.55872134678">
        <ele>2452.94</ele>
        <time>2012-08-06T14:30:01Z</time>
      </trkpt>
      <trkpt lat="61.6511712503" lon="8.55857877061">
        <ele>2454.38</ele>
        <time>2012-08-06T14:30:15Z</time>
      </trkpt>
      <trkpt lat="61.6511840746" lon="8.55844139121">
        <ele>2456.79</ele>
        <time>2012-08-06T14:30:30Z</time>
      </trkpt>
      <trkpt lat="61.6511985753" lon="8.55837433599">
        <ele>2457.75</ele>
        <time>2012-08-06T14:30:42Z</time>
      </trkpt>
      <trkpt lat="61.6512051132" lon="8.5582647007">
        <ele>2459.67</ele>
        <time>2012-08-06T14:31:07Z</time>
      </trkpt>
      <trkpt lat="61.6512198653" lon="8.55819001794">
        <ele>2460.15</ele>
        <time>2012-08-06T14:31:14Z</time>
      </trkpt>
      <trkpt lat="61.651239479" lon="8.55813637376">
        <ele>2462.07</ele>
        <time>2012-08-06T14:31:20Z</time>
      </trkpt>
      <trkpt lat="61.6512580868" lon="8.55799522251">
        <ele>2463.04</ele>
        <time>2012-08-06T14:31:34Z</time>
      </trkpt>
      <trkpt lat="61.6512671392" lon="8.55787821114">
        <ele>2465.92</ele>
        <time>2012-08-06T14:31:43Z</time>
      </trkpt>
      <trkpt lat="61.6512852442" lon="8.55774770491">
        <ele>2464.48</ele>
        <time>2012-08-06T14:31:56Z</time>
      </trkpt>
      <trkpt lat="61.651318185" lon="8.55767905712">
        <ele>2467.84</ele>
        <time>2012-08-06T14:32:05Z</time>
      </trkpt>
      <trkpt lat="61.6513212863" lon="8.55767075904">
        <ele>2467.84</ele>
        <time>2012-08-06T14:32:06Z</time>
      </trkpt>
      <trkpt lat="61.6513272375" lon="8.55767201632">
        <ele>2467.84</ele>
        <time>2012-08-06T14:32:17Z</time>
      </trkpt>
      <trkpt lat="61.6513263993" lon="8.5577256605">
        <ele>2468.32</ele>
        <time>2012-08-06T14:32:33Z</time>
      </trkpt>
      <trkpt lat="61.6513398942" lon="8.55768458918">
        <ele>2468.32</ele>
        <time>2012-08-06T14:32:57Z</time>
      </trkpt>
      <trkpt lat="61.6513413191" lon="8.55768123642">
        <ele>2467.36</ele>
        <time>2012-08-06T14:33:21Z</time>
      </trkpt>
      <trkpt lat="61.651336709" lon="8.55770227499">
        <ele>2467.84</ele>
        <time>2012-08-06T14:33:53Z</time>
      </trkpt>
      <trkpt lat="61.6513325181" lon="8.55769582093">
        <ele>2467.36</ele>
        <time>2012-08-06T14:34:16Z</time>
      </trkpt>
      <trkpt lat="61.651330255" lon="8.55770126916">
        <ele>2467.84</ele>
        <time>2012-08-06T14:34:37Z</time>
      </trkpt>
      <trkpt lat="61.6513225436" lon="8.55767503381">
        <ele>2466.88</ele>
        <time>2012-08-06T14:35:05Z</time>
      </trkpt>
      <trkpt lat="61.651346432" lon="8.55769950897">
        <ele>2467.36</ele>
        <time>2012-08-06T14:35:33Z</time>
      </trkpt>
      <trkpt lat="61.6513315123" lon="8.55768500827">
        <ele>2466.88</ele>
        <time>2012-08-06T14:35:54Z</time>
      </trkpt>
      <trkpt lat="61.6513065342" lon="8.5576895345">
        <ele>2466.88</ele>
        <time>2012-08-06T14:36:17Z</time>
      </trkpt>
      <trkpt lat="61.6512962244" lon="8.55770093389">
        <ele>2466.88</ele>
        <time>2012-08-06T14:36:46Z</time>
      </trkpt>
      <trkpt lat="61.6513061151" lon="8.55768266134">
        <ele>2466.88</ele>
        <time>2012-08-06T14:37:06Z</time>
      </trkpt>
      <trkpt lat="61.6513193585" lon="8.55770621449">
        <ele>2467.84</ele>
        <time>2012-08-06T14:37:29Z</time>
      </trkpt>
      <trkpt lat="61.6513316799" lon="8.55767796747">
        <ele>2466.88</ele>
        <time>2012-08-06T14:38:00Z</time>
      </trkpt>
      <trkpt lat="61.6513346974" lon="8.55764091946">
        <ele>2466.88</ele>
        <time>2012-08-06T14:38:04Z</time>
      </trkpt>
      <trkpt lat="61.6513174307" lon="8.55763664469">
        <ele>2465.92</ele>
        <time>2012-08-06T14:38:17Z</time>
      </trkpt>
      <trkpt lat="61.651323298" lon="8.55765952729">
        <ele>2466.4</ele>
        <time>2012-08-06T14:38:50Z</time>
      </trkpt>
      <trkpt lat="61.6513171792" lon="8.55757319368">
        <ele>2466.4</ele>
        <time>2012-08-06T14:39:17Z</time>
      </trkpt>
      <trkpt lat="61.651316341" lon="8.55755215511">
        <ele>2465.44</ele>
        <time>2012-08-06T14:39:18Z</time>
      </trkpt>
      <trkpt lat="61.6513287462" lon="8.55753019452">
        <ele>2466.88</ele>
        <time>2012-08-06T14:39:31Z</time>
      </trkpt>
      <trkpt lat="61.6513258964" lon="8.55755793862">
        <ele>2466.4</ele>
        <time>2012-08-06T14:40:04Z</time>
      </trkpt>
      <trkpt lat="61.6513389722" lon="8.55754318647">
        <ele>2466.4</ele>
        <time>2012-08-06T14:40:28Z</time>
      </trkpt>
      <trkpt lat="61.6513294168" lon="8.55767101049">
        <ele>2466.4</ele>
        <time>2012-08-06T14:40:49Z</time>
      </trkpt>
      <trkpt lat="61.6513577476" lon="8.5576565098">
        <ele>2465.92</ele>
        <time>2012-08-06T14:41:13Z</time>
      </trkpt>
      <trkpt lat="61.6513335239" lon="8.55765441433">
        <ele>2465.92</ele>
        <time>2012-08-06T14:41:17Z</time>
      </trkpt>
      <trkpt lat="61.6513025947" lon="8.5576164443">
        <ele>2466.4</ele>
        <time>2012-08-06T14:41:30Z</time>
      </trkpt>
      <trkpt lat="61.651305696" lon="8.55762675405">
        <ele>2462.55</ele>
        <time>2012-08-06T14:41:32Z</time>
      </trkpt>
      <trkpt lat="61.6513067018" lon="8.55762784369">
        <ele>2467.36</ele>
        <time>2012-08-06T14:41:33Z</time>
      </trkpt>
      <trkpt lat="61.6513014212" lon="8.55765022337">
        <ele>2468.8</ele>
        <time>2012-08-06T14:41:40Z</time>
      </trkpt>
      <trkpt lat="61.6512828972" lon="8.55766992085">
        <ele>2464.48</ele>
        <time>2012-08-06T14:41:44Z</time>
      </trkpt>
      <trkpt lat="61.6512808856" lon="8.55767277069">
        <ele>2464.96</ele>
        <time>2012-08-06T14:41:45Z</time>
      </trkpt>
      <trkpt lat="61.6512837354" lon="8.55758995749">
        <ele>2464.96</ele>
        <time>2012-08-06T14:42:09Z</time>
      </trkpt>
      <trkpt lat="61.651317263" lon="8.55762809515">
        <ele>2464.96</ele>
        <time>2012-08-06T14:42:22Z</time>
      </trkpt>
      <trkpt lat="61.6513350327" lon="8.55772750452">
        <ele>2465.44</ele>
        <time>2012-08-06T14:42:28Z</time>
      </trkpt>
      <trkpt lat="61.6513642855" lon="8.55774410069">
        <ele>2466.4</ele>
        <time>2012-08-06T14:42:40Z</time>
      </trkpt>
      <trkpt lat="61.6513409838" lon="8.5577379819">
        <ele>2465.92</ele>
        <time>2012-08-06T14:43:08Z</time>
      </trkpt>
      <trkpt lat="61.6513209511" lon="8.55772054754">
        <ele>2465.92</ele>
        <time>2012-08-06T14:43:26Z</time>
      </trkpt>
      <trkpt lat="61.651341822" lon="8.55762256309">
        <ele>2466.4</ele>
        <time>2012-08-06T14:43:41Z</time>
      </trkpt>
      <trkpt lat="61.6513475217" lon="8.55768752284">
        <ele>2466.4</ele>
        <time>2012-08-06T14:43:59Z</time>
      </trkpt>
      <trkpt lat="61.6513284948" lon="8.55771400966">
        <ele>2466.4</ele>
        <time>2012-08-06T14:44:20Z</time>
      </trkpt>
      <trkpt lat="61.6513134073" lon="8.55773295276">
        <ele>2466.4</ele>
        <time>2012-08-06T14:44:45Z</time>
      </trkpt>
      <trkpt lat="61.6513230465" lon="8.55770085007">
        <ele>2467.36</ele>
        <time>2012-08-06T14:45:13Z</time>
      </trkpt>
      <trkpt lat="61.6513218731" lon="8.5577159375">
        <ele>2465.92</ele>
        <time>2012-08-06T14:45:18Z</time>
      </trkpt>
      <trkpt lat="61.6513212863" lon="8.55771753006">
        <ele>2465.92</ele>
        <time>2012-08-06T14:45:49Z</time>
      </trkpt>
      <trkpt lat="61.6513184365" lon="8.55772281066">
        <ele>2465.92</ele>
        <time>2012-08-06T14:46:16Z</time>
      </trkpt>
      <trkpt lat="61.6513301712" lon="8.55772247538">
        <ele>2465.92</ele>
        <time>2012-08-06T14:46:50Z</time>
      </trkpt>
      <trkpt lat="61.6513314284" lon="8.55771040544">
        <ele>2465.92</ele>
        <time>2012-08-06T14:47:22Z</time>
      </trkpt>
      <trkpt lat="61.6513129044" lon="8.55772473849">
        <ele>2464.96</ele>
        <time>2012-08-06T14:48:01Z</time>
      </trkpt>
      <trkpt lat="61.6513237171" lon="8.55770520866">
        <ele>2465.92</ele>
        <time>2012-08-06T14:48:51Z</time>
      </trkpt>
      <trkpt lat="61.6513345297" lon="8.55771266855">
        <ele>2464.48</ele>
        <time>2012-08-06T14:49:17Z</time>
      </trkpt>
      <trkpt lat="61.6513137426" lon="8.55771979317">
        <ele>2464.96</ele>
        <time>2012-08-06T14:49:42Z</time>
      </trkpt>
      <trkpt lat="61.6513113119" lon="8.55773898773">
        <ele>2464.96</ele>
        <time>2012-08-06T14:50:17Z</time>
      </trkpt>
      <trkpt lat="61.6512979008" lon="8.55768408626">
        <ele>2464.96</ele>
        <time>2012-08-06T14:50:47Z</time>
      </trkpt>
      <trkpt lat="61.651305696" lon="8.55767377652">
        <ele>2461.59</ele>
        <time>2012-08-06T14:51:19Z</time>
      </trkpt>
      <trkpt lat="61.6513159219" lon="8.55766925029">
        <ele>2468.32</ele>
        <time>2012-08-06T14:51:20Z</time>
      </trkpt>
      <trkpt lat="61.6513175145" lon="8.55766832829">
        <ele>2462.07</ele>
        <time>2012-08-06T14:51:23Z</time>
      </trkpt>
      <trkpt lat="61.6513176821" lon="8.55767025612">
        <ele>2465.44</ele>
        <time>2012-08-06T14:51:24Z</time>
      </trkpt>
      <trkpt lat="61.6513220407" lon="8.55767444707">
        <ele>2465.44</ele>
        <time>2012-08-06T14:51:28Z</time>
      </trkpt>
      <trkpt lat="61.6512993257" lon="8.55767293833">
        <ele>2465.44</ele>
        <time>2012-08-06T14:51:37Z</time>
      </trkpt>
      <trkpt lat="61.6513048578" lon="8.55768132024">
        <ele>2462.07</ele>
        <time>2012-08-06T14:51:49Z</time>
      </trkpt>
      <trkpt lat="61.6513027623" lon="8.55770638213">
        <ele>2465.44</ele>
        <time>2012-08-06T14:51:52Z</time>
      </trkpt>
      <trkpt lat="61.6513067018" lon="8.55767042376">
        <ele>2465.44</ele>
        <time>2012-08-06T14:52:20Z</time>
      </trkpt>
      <trkpt lat="61.6513137426" lon="8.55766329914">
        <ele>2464.96</ele>
        <time>2012-08-06T14:52:41Z</time>
      </trkpt>
      <trkpt lat="61.6513169277" lon="8.55765642598">
        <ele>2467.36</ele>
        <time>2012-08-06T14:52:50Z</time>
      </trkpt>
      <trkpt lat="61.6513118986" lon="8.55766338296">
        <ele>2464.96</ele>
        <time>2012-08-06T14:52:52Z</time>
      </trkpt>
      <trkpt lat="61.6513082106" lon="8.5576657299">
        <ele>2461.11</ele>
        <time>2012-08-06T14:53:14Z</time>
      </trkpt>
      <trkpt lat="61.6513087973" lon="8.55766723864">
        <ele>2461.11</ele>
        <time>2012-08-06T14:53:15Z</time>
      </trkpt>
      <trkpt lat="61.6513090488" lon="8.55766782537">
        <ele>2466.88</ele>
        <time>2012-08-06T14:53:16Z</time>
      </trkpt>
      <trkpt lat="61.6513091326" lon="8.55766933411">
        <ele>2464.48</ele>
        <time>2012-08-06T14:53:17Z</time>
      </trkpt>
      <trkpt lat="61.6513100546" lon="8.55768701993">
        <ele>2460.15</ele>
        <time>2012-08-06T14:53:30Z</time>
      </trkpt>
      <trkpt lat="61.6513103899" lon="8.55768710375">
        <ele>2463.04</ele>
        <time>2012-08-06T14:53:31Z</time>
      </trkpt>
      <trkpt lat="61.6513118986" lon="8.557684673">
        <ele>2464.96</ele>
        <time>2012-08-06T14:53:33Z</time>
      </trkpt>
      <trkpt lat="61.6513140779" lon="8.55768299662">
        <ele>2468.32</ele>
        <time>2012-08-06T14:53:36Z</time>
      </trkpt>
      <trkpt lat="61.6513112281" lon="8.55768324807">
        <ele>2468.32</ele>
        <time>2012-08-06T14:53:37Z</time>
      </trkpt>
      <trkpt lat="61.6513072886" lon="8.55768869631">
        <ele>2464</ele>
        <time>2012-08-06T14:53:39Z</time>
      </trkpt>
      <trkpt lat="61.6513060313" lon="8.55769238435">
        <ele>2465.44</ele>
        <time>2012-08-06T14:53:40Z</time>
      </trkpt>
      <trkpt lat="61.6512946319" lon="8.55767285451">
        <ele>2465.44</ele>
        <time>2012-08-06T14:54:13Z</time>
      </trkpt>
      <trkpt lat="61.6513018403" lon="8.55766405351">
        <ele>2464.48</ele>
        <time>2012-08-06T14:54:52Z</time>
      </trkpt>
      <trkpt lat="61.6513132397" lon="8.55764670298">
        <ele>2465.44</ele>
        <time>2012-08-06T14:55:12Z</time>
      </trkpt>
      <trkpt lat="61.6513300035" lon="8.55767595582">
        <ele>2460.63</ele>
        <time>2012-08-06T14:55:26Z</time>
      </trkpt>
      <trkpt lat="61.6513305902" lon="8.5576811526">
        <ele>2467.84</ele>
        <time>2012-08-06T14:55:27Z</time>
      </trkpt>
      <trkpt lat="61.6513300873" lon="8.5576824937">
        <ele>2464.48</ele>
        <time>2012-08-06T14:55:28Z</time>
      </trkpt>
      <trkpt lat="61.6513295006" lon="8.5576807335">
        <ele>2465.92</ele>
        <time>2012-08-06T14:55:31Z</time>
      </trkpt>
      <trkpt lat="61.651342744" lon="8.55768919922">
        <ele>2461.59</ele>
        <time>2012-08-06T14:55:58Z</time>
      </trkpt>
      <trkpt lat="61.6513445042" lon="8.55768869631">
        <ele>2468.8</ele>
        <time>2012-08-06T14:55:59Z</time>
      </trkpt>
      <trkpt lat="61.6513443366" lon="8.55768919922">
        <ele>2466.88</ele>
        <time>2012-08-06T14:56:00Z</time>
      </trkpt>
      <trkpt lat="61.6513439175" lon="8.55768718757">
        <ele>2464.48</ele>
        <time>2012-08-06T14:56:02Z</time>
      </trkpt>
      <trkpt lat="61.6513345297" lon="8.55766455643">
        <ele>2465.92</ele>
        <time>2012-08-06T14:56:20Z</time>
      </trkpt>
      <trkpt lat="61.6513360385" lon="8.55769976042">
        <ele>2464.96</ele>
        <time>2012-08-06T14:56:42Z</time>
      </trkpt>
      <trkpt lat="61.6513122339" lon="8.55770110153">
        <ele>2463.52</ele>
        <time>2012-08-06T14:57:10Z</time>
      </trkpt>
      <trkpt lat="61.6513113119" lon="8.55770730413">
        <ele>2455.34</ele>
        <time>2012-08-06T14:57:11Z</time>
      </trkpt>
      <trkpt lat="61.6513149999" lon="8.55771258473">
        <ele>2472.65</ele>
        <time>2012-08-06T14:57:12Z</time>
      </trkpt>
      <trkpt lat="61.6513160896" lon="8.55771803297">
        <ele>2466.88</ele>
        <time>2012-08-06T14:57:13Z</time>
      </trkpt>
      <trkpt lat="61.6513134912" lon="8.55771987699">
        <ele>2463.52</ele>
        <time>2012-08-06T14:57:15Z</time>
      </trkpt>
      <trkpt lat="61.6513123177" lon="8.55774980038">
        <ele>2464.96</ele>
        <time>2012-08-06T14:57:23Z</time>
      </trkpt>
      <trkpt lat="61.6512782034" lon="8.55783797801">
        <ele>2462.07</ele>
        <time>2012-08-06T14:57:39Z</time>
      </trkpt>
      <trkpt lat="61.6512711626" lon="8.55784669518">
        <ele>2464</ele>
        <time>2012-08-06T14:57:45Z</time>
      </trkpt>
      <trkpt lat="61.6512632836" lon="8.55783093721">
        <ele>2463.04</ele>
        <time>2012-08-06T14:57:49Z</time>
      </trkpt>
      <trkpt lat="61.6513414867" lon="8.55771568604">
        <ele>2465.92</ele>
        <time>2012-08-06T14:58:02Z</time>
      </trkpt>
      <trkpt lat="61.651336709" lon="8.55771384202">
        <ele>2466.88</ele>
        <time>2012-08-06T14:58:20Z</time>
      </trkpt>
      <trkpt lat="61.6513414867" lon="8.55771853589">
        <ele>2466.4</ele>
        <time>2012-08-06T14:58:22Z</time>
      </trkpt>
      <trkpt lat="61.6513437498" lon="8.55772532523">
        <ele>2463.04</ele>
        <time>2012-08-06T14:58:27Z</time>
      </trkpt>
      <trkpt lat="61.6513525508" lon="8.55772297829">
        <ele>2466.4</ele>
        <time>2012-08-06T14:58:33Z</time>
      </trkpt>
      <trkpt lat="61.6513091326" lon="8.55774477124">
        <ele>2466.4</ele>
        <time>2012-08-06T14:58:45Z</time>
      </trkpt>
      <trkpt lat="61.6512951348" lon="8.55776807293">
        <ele>2464.48</ele>
        <time>2012-08-06T14:58:48Z</time>
      </trkpt>
      <trkpt lat="61.6512930393" lon="8.55781157501">
        <ele>2464</ele>
        <time>2012-08-06T14:58:50Z</time>
      </trkpt>
      <trkpt lat="61.6512807179" lon="8.55797627941">
        <ele>2463.04</ele>
        <time>2012-08-06T14:58:56Z</time>
      </trkpt>
      <trkpt lat="61.6512445919" lon="8.55822312646">
        <ele>2458.71</ele>
        <time>2012-08-06T14:59:03Z</time>
      </trkpt>
      <trkpt lat="61.6512337793" lon="8.55825573206">
        <ele>2459.19</ele>
        <time>2012-08-06T14:59:04Z</time>
      </trkpt>
      <trkpt lat="61.6512075439" lon="8.55836603791">
        <ele>2456.79</ele>
        <time>2012-08-06T14:59:10Z</time>
      </trkpt>
      <trkpt lat="61.651180638" lon="8.55852730572">
        <ele>2453.9</ele>
        <time>2012-08-06T14:59:17Z</time>
      </trkpt>
      <trkpt lat="61.6511456855" lon="8.55873391964">
        <ele>2450.06</ele>
        <time>2012-08-06T14:59:26Z</time>
      </trkpt>
      <trkpt lat="61.6511368845" lon="8.55878915638">
        <ele>2446.69</ele>
        <time>2012-08-06T14:59:30Z</time>
      </trkpt>
      <trkpt lat="61.6510902811" lon="8.5590257775">
        <ele>2446.21</ele>
        <time>2012-08-06T14:59:41Z</time>
      </trkpt>
      <trkpt lat="61.6510833241" lon="8.55911940336">
        <ele>2440.92</ele>
        <time>2012-08-06T14:59:46Z</time>
      </trkpt>
      <trkpt lat="61.6510800552" lon="8.55914329179">
        <ele>2445.25</ele>
        <time>2012-08-06T14:59:47Z</time>
      </trkpt>
      <trkpt lat="61.6510508861" lon="8.55926809832">
        <ele>2442.37</ele>
        <time>2012-08-06T14:59:55Z</time>
      </trkpt>
      <trkpt lat="61.6510132514" lon="8.55941000395">
        <ele>2439.48</ele>
        <time>2012-08-06T15:00:10Z</time>
      </trkpt>
      <trkpt lat="61.6510023549" lon="8.55943808332">
        <ele>2439</ele>
        <time>2012-08-06T15:00:14Z</time>
      </trkpt>
      <trkpt lat="61.6509928834" lon="8.5594661627">
        <ele>2439</ele>
        <time>2012-08-06T15:00:16Z</time>
      </trkpt>
      <trkpt lat="61.6509760357" lon="8.55953791179">
        <ele>2437.08</ele>
        <time>2012-08-06T15:00:19Z</time>
      </trkpt>
      <trkpt lat="61.6509371437" lon="8.55974561535">
        <ele>2434.68</ele>
        <time>2012-08-06T15:00:34Z</time>
      </trkpt>
      <trkpt lat="61.650920799" lon="8.55990227312">
        <ele>2431.31</ele>
        <time>2012-08-06T15:00:47Z</time>
      </trkpt>
      <trkpt lat="61.6509032808" lon="8.56002925895">
        <ele>2431.79</ele>
        <time>2012-08-06T15:00:55Z</time>
      </trkpt>
      <trkpt lat="61.6508706752" lon="8.56023897417">
        <ele>2426.5</ele>
        <time>2012-08-06T15:01:08Z</time>
      </trkpt>
      <trkpt lat="61.6508685797" lon="8.56027191505">
        <ele>2426.5</ele>
        <time>2012-08-06T15:01:10Z</time>
      </trkpt>
      <trkpt lat="61.6508307774" lon="8.56049906462">
        <ele>2423.14</ele>
        <time>2012-08-06T15:01:22Z</time>
      </trkpt>
      <trkpt lat="61.6507885326" lon="8.56067676097">
        <ele>2420.26</ele>
        <time>2012-08-06T15:01:35Z</time>
      </trkpt>
      <trkpt lat="61.6507915501" lon="8.56070701964">
        <ele>2420.26</ele>
        <time>2012-08-06T15:01:38Z</time>
      </trkpt>
      <trkpt lat="61.6507757921" lon="8.56079553254">
        <ele>2418.81</ele>
        <time>2012-08-06T15:01:44Z</time>
      </trkpt>
      <trkpt lat="61.6507544182" lon="8.56085521169">
        <ele>2418.33</ele>
        <time>2012-08-06T15:01:54Z</time>
      </trkpt>
      <trkpt lat="61.6507376544" lon="8.56087205932">
        <ele>2416.89</ele>
        <time>2012-08-06T15:02:08Z</time>
      </trkpt>
      <trkpt lat="61.650736481" lon="8.5609081015">
        <ele>2416.89</ele>
        <time>2012-08-06T15:02:41Z</time>
      </trkpt>
      <trkpt lat="61.650751736" lon="8.56089938432">
        <ele>2417.37</ele>
        <time>2012-08-06T15:03:18Z</time>
      </trkpt>
      <trkpt lat="61.6507498082" lon="8.56089745648">
        <ele>2416.89</ele>
        <time>2012-08-06T15:03:48Z</time>
      </trkpt>
      <trkpt lat="61.6507624649" lon="8.56098446064">
        <ele>2417.37</ele>
        <time>2012-08-06T15:03:57Z</time>
      </trkpt>
      <trkpt lat="61.6507520713" lon="8.56123776175">
        <ele>2413.53</ele>
        <time>2012-08-06T15:04:10Z</time>
      </trkpt>
      <trkpt lat="61.6507482994" lon="8.56139232405">
        <ele>2412.09</ele>
        <time>2012-08-06T15:04:21Z</time>
      </trkpt>
      <trkpt lat="61.6507525742" lon="8.56145108119">
        <ele>2409.68</ele>
        <time>2012-08-06T15:04:23Z</time>
      </trkpt>
      <trkpt lat="61.6507435217" lon="8.56151184998">
        <ele>2410.16</ele>
        <time>2012-08-06T15:04:24Z</time>
      </trkpt>
      <trkpt lat="61.650731368" lon="8.56157949194">
        <ele>2410.16</ele>
        <time>2012-08-06T15:04:25Z</time>
      </trkpt>
      <trkpt lat="61.6507231537" lon="8.56164143421">
        <ele>2410.64</ele>
        <time>2012-08-06T15:04:26Z</time>
      </trkpt>
      <trkpt lat="61.6507199686" lon="8.561683679">
        <ele>2410.64</ele>
        <time>2012-08-06T15:04:27Z</time>
      </trkpt>
      <trkpt lat="61.6507050488" lon="8.56184109114">
        <ele>2408.72</ele>
        <time>2012-08-06T15:04:30Z</time>
      </trkpt>
      <trkpt lat="61.6506908834" lon="8.56189565733">
        <ele>2397.18</ele>
        <time>2012-08-06T15:04:31Z</time>
      </trkpt>
      <trkpt lat="61.6506760474" lon="8.56194142252">
        <ele>2413.53</ele>
        <time>2012-08-06T15:04:32Z</time>
      </trkpt>
      <trkpt lat="61.6506607085" lon="8.5619831644">
        <ele>2407.28</ele>
        <time>2012-08-06T15:04:33Z</time>
      </trkpt>
      <trkpt lat="61.6506274324" lon="8.5620628763">
        <ele>2409.68</ele>
        <time>2012-08-06T15:04:37Z</time>
      </trkpt>
      <trkpt lat="61.6506499797" lon="8.56201861985">
        <ele>2406.32</ele>
        <time>2012-08-06T15:04:39Z</time>
      </trkpt>
      <trkpt lat="61.6506586969" lon="8.56201199815">
        <ele>2410.16</ele>
        <time>2012-08-06T15:04:40Z</time>
      </trkpt>
      <trkpt lat="61.6506677493" lon="8.56200990267">
        <ele>2409.68</ele>
        <time>2012-08-06T15:04:41Z</time>
      </trkpt>
      <trkpt lat="61.6506797355" lon="8.56201216578">
        <ele>2406.8</ele>
        <time>2012-08-06T15:04:44Z</time>
      </trkpt>
      <trkpt lat="61.6507101618" lon="8.56220603921">
        <ele>2406.8</ele>
        <time>2012-08-06T15:04:56Z</time>
      </trkpt>
      <trkpt lat="61.6507197171" lon="8.56237065978">
        <ele>2405.84</ele>
        <time>2012-08-06T15:05:08Z</time>
      </trkpt>
      <trkpt lat="61.6507252492" lon="8.5624403134">
        <ele>2405.36</ele>
        <time>2012-08-06T15:05:14Z</time>
      </trkpt>
      <trkpt lat="61.6507308651" lon="8.56245858595">
        <ele>2404.88</ele>
        <time>2012-08-06T15:05:15Z</time>
      </trkpt>
      <trkpt lat="61.6507435217" lon="8.56273686513">
        <ele>2403.43</ele>
        <time>2012-08-06T15:05:29Z</time>
      </trkpt>
      <trkpt lat="61.6507444438" lon="8.56275614351">
        <ele>2403.43</ele>
        <time>2012-08-06T15:05:30Z</time>
      </trkpt>
      <trkpt lat="61.6507716849" lon="8.56315881014">
        <ele>2401.03</ele>
        <time>2012-08-06T15:05:45Z</time>
      </trkpt>
      <trkpt lat="61.6507725231" lon="8.56318412349">
        <ele>2400.55</ele>
        <time>2012-08-06T15:05:46Z</time>
      </trkpt>
      <trkpt lat="61.6507591121" lon="8.56323114596">
        <ele>2399.59</ele>
        <time>2012-08-06T15:06:03Z</time>
      </trkpt>
      <trkpt lat="61.6507635545" lon="8.56328613125">
        <ele>2401.03</ele>
        <time>2012-08-06T15:06:06Z</time>
      </trkpt>
      <trkpt lat="61.6507710144" lon="8.56337573379">
        <ele>2399.11</ele>
        <time>2012-08-06T15:06:16Z</time>
      </trkpt>
      <trkpt lat="61.6507758759" lon="8.56344840489">
        <ele>2398.63</ele>
        <time>2012-08-06T15:06:21Z</time>
      </trkpt>
      <trkpt lat="61.6507778876" lon="8.56346910819">
        <ele>2399.11</ele>
        <time>2012-08-06T15:06:22Z</time>
      </trkpt>
      <trkpt lat="61.6507830005" lon="8.56360891834">
        <ele>2397.18</ele>
        <time>2012-08-06T15:06:29Z</time>
      </trkpt>
      <trkpt lat="61.6507863533" lon="8.56387412176">
        <ele>2395.74</ele>
        <time>2012-08-06T15:06:38Z</time>
      </trkpt>
      <trkpt lat="61.6508000158" lon="8.56410403736">
        <ele>2391.9</ele>
        <time>2012-08-06T15:06:48Z</time>
      </trkpt>
      <trkpt lat="61.650783252" lon="8.56423387304">
        <ele>2392.38</ele>
        <time>2012-08-06T15:06:54Z</time>
      </trkpt>
      <trkpt lat="61.6507858504" lon="8.56432448141">
        <ele>2389.97</ele>
        <time>2012-08-06T15:06:58Z</time>
      </trkpt>
      <trkpt lat="61.6507952381" lon="8.56440084055">
        <ele>2391.9</ele>
        <time>2012-08-06T15:07:01Z</time>
      </trkpt>
      <trkpt lat="61.6508068889" lon="8.56452221051">
        <ele>2390.94</ele>
        <time>2012-08-06T15:07:06Z</time>
      </trkpt>
      <trkpt lat="61.6507756244" lon="8.56458281167">
        <ele>2390.94</ele>
        <time>2012-08-06T15:07:19Z</time>
      </trkpt>
      <trkpt lat="61.6507819947" lon="8.56458222494">
        <ele>2389.97</ele>
        <time>2012-08-06T15:07:46Z</time>
      </trkpt>
      <trkpt lat="61.6507858504" lon="8.56455800124">
        <ele>2383.25</ele>
        <time>2012-08-06T15:08:17Z</time>
      </trkpt>
      <trkpt lat="61.6507882811" lon="8.56455724686">
        <ele>2394.78</ele>
        <time>2012-08-06T15:08:18Z</time>
      </trkpt>
      <trkpt lat="61.6507884488" lon="8.56455758214">
        <ele>2390.46</ele>
        <time>2012-08-06T15:08:19Z</time>
      </trkpt>
      <trkpt lat="61.650788784" lon="8.56456730515">
        <ele>2385.17</ele>
        <time>2012-08-06T15:08:21Z</time>
      </trkpt>
      <trkpt lat="61.6507891193" lon="8.56457032263">
        <ele>2394.3</ele>
        <time>2012-08-06T15:08:22Z</time>
      </trkpt>
      <trkpt lat="61.6507895384" lon="8.56457426213">
        <ele>2394.3</ele>
        <time>2012-08-06T15:08:23Z</time>
      </trkpt>
      <trkpt lat="61.650788784" lon="8.56457652524">
        <ele>2384.21</ele>
        <time>2012-08-06T15:08:24Z</time>
      </trkpt>
      <trkpt lat="61.650788784" lon="8.564579878">
        <ele>2384.21</ele>
        <time>2012-08-06T15:08:25Z</time>
      </trkpt>
      <trkpt lat="61.6507892869" lon="8.56457971036">
        <ele>2396.22</ele>
        <time>2012-08-06T15:08:26Z</time>
      </trkpt>
      <trkpt lat="61.6507900413" lon="8.56457903981">
        <ele>2392.86</ele>
        <time>2012-08-06T15:08:27Z</time>
      </trkpt>
      <trkpt lat="61.6507908795" lon="8.56458943337">
        <ele>2388.05</ele>
        <time>2012-08-06T15:08:29Z</time>
      </trkpt>
      <trkpt lat="61.6507900413" lon="8.56459169649">
        <ele>2391.9</ele>
        <time>2012-08-06T15:08:31Z</time>
      </trkpt>
      <trkpt lat="61.6507909633" lon="8.5645926185">
        <ele>2389.01</ele>
        <time>2012-08-06T15:08:33Z</time>
      </trkpt>
      <trkpt lat="61.6507923882" lon="8.56459672563">
        <ele>2392.38</ele>
        <time>2012-08-06T15:08:38Z</time>
      </trkpt>
      <trkpt lat="61.6507930588" lon="8.56459605508">
        <ele>2386.13</ele>
        <time>2012-08-06T15:08:39Z</time>
      </trkpt>
      <trkpt lat="61.6507959086" lon="8.56459303759">
        <ele>2394.78</ele>
        <time>2012-08-06T15:08:40Z</time>
      </trkpt>
      <trkpt lat="61.6507990099" lon="8.56459655799">
        <ele>2381.32</ele>
        <time>2012-08-06T15:08:41Z</time>
      </trkpt>
      <trkpt lat="61.6508001834" lon="8.56459999457">
        <ele>2385.17</ele>
        <time>2012-08-06T15:08:42Z</time>
      </trkpt>
      <trkpt lat="61.6508027818" lon="8.56460477225">
        <ele>2391.9</ele>
        <time>2012-08-06T15:08:43Z</time>
      </trkpt>
      <trkpt lat="61.6508040391" lon="8.56460636482">
        <ele>2389.97</ele>
        <time>2012-08-06T15:08:44Z</time>
      </trkpt>
      <trkpt lat="61.6508095711" lon="8.56460795738">
        <ele>2391.9</ele>
        <time>2012-08-06T15:08:49Z</time>
      </trkpt>
      <trkpt lat="61.6508053802" lon="8.56460477225">
        <ele>2386.61</ele>
        <time>2012-08-06T15:08:52Z</time>
      </trkpt>
      <trkpt lat="61.6508052126" lon="8.56460493989">
        <ele>2390.94</ele>
        <time>2012-08-06T15:08:53Z</time>
      </trkpt>
      <trkpt lat="61.6508088168" lon="8.56460678391">
        <ele>2389.49</ele>
        <time>2012-08-06T15:08:56Z</time>
      </trkpt>
      <trkpt lat="61.6508138459" lon="8.56460032985">
        <ele>2393.34</ele>
        <time>2012-08-06T15:09:14Z</time>
      </trkpt>
      <trkpt lat="61.6508135945" lon="8.56460091658">
        <ele>2393.34</ele>
        <time>2012-08-06T15:09:15Z</time>
      </trkpt>
      <trkpt lat="61.6508148517" lon="8.56460167095">
        <ele>2386.61</ele>
        <time>2012-08-06T15:09:17Z</time>
      </trkpt>
      <trkpt lat="61.650815187" lon="8.56459957547">
        <ele>2391.9</ele>
        <time>2012-08-06T15:09:18Z</time>
      </trkpt>
      <trkpt lat="61.6508164443" lon="8.56459546834">
        <ele>2388.05</ele>
        <time>2012-08-06T15:09:20Z</time>
      </trkpt>
      <trkpt lat="61.6508168634" lon="8.56459211558">
        <ele>2389.97</ele>
        <time>2012-08-06T15:09:21Z</time>
      </trkpt>
      <trkpt lat="61.6508101579" lon="8.5645693168">
        <ele>2390.46</ele>
        <time>2012-08-06T15:09:56Z</time>
      </trkpt>
      <trkpt lat="61.6508171987" lon="8.56457669288">
        <ele>2386.61</ele>
        <time>2012-08-06T15:10:19Z</time>
      </trkpt>
      <trkpt lat="61.6508177854" lon="8.56457945891">
        <ele>2389.97</ele>
        <time>2012-08-06T15:10:20Z</time>
      </trkpt>
      <trkpt lat="61.6508146003" lon="8.56455808505">
        <ele>2390.46</ele>
        <time>2012-08-06T15:10:52Z</time>
      </trkpt>
      <trkpt lat="61.6508202162" lon="8.56457074173">
        <ele>2390.94</ele>
        <time>2012-08-06T15:11:26Z</time>
      </trkpt>
      <trkpt lat="61.6508202162" lon="8.56457225047">
        <ele>2388.05</ele>
        <time>2012-08-06T15:11:27Z</time>
      </trkpt>
      <trkpt lat="61.6508181207" lon="8.56456604786">
        <ele>2391.42</ele>
        <time>2012-08-06T15:11:35Z</time>
      </trkpt>
      <trkpt lat="61.6508166958" lon="8.56457334012">
        <ele>2391.9</ele>
        <time>2012-08-06T15:12:01Z</time>
      </trkpt>
      <trkpt lat="61.6508155223" lon="8.56457702816">
        <ele>2387.09</ele>
        <time>2012-08-06T15:12:04Z</time>
      </trkpt>
      <trkpt lat="61.6508154385" lon="8.56458432041">
        <ele>2397.18</ele>
        <time>2012-08-06T15:12:05Z</time>
      </trkpt>
      <trkpt lat="61.650815187" lon="8.56458985247">
        <ele>2382.28</ele>
        <time>2012-08-06T15:12:06Z</time>
      </trkpt>
      <trkpt lat="61.6508161929" lon="8.56459136121">
        <ele>2385.17</ele>
        <time>2012-08-06T15:12:07Z</time>
      </trkpt>
      <trkpt lat="61.6508190427" lon="8.56459362432">
        <ele>2392.38</ele>
        <time>2012-08-06T15:12:09Z</time>
      </trkpt>
      <trkpt lat="61.6508208867" lon="8.56459479779">
        <ele>2389.49</ele>
        <time>2012-08-06T15:12:10Z</time>
      </trkpt>
      <trkpt lat="61.6508204676" lon="8.5646005813">
        <ele>2391.42</ele>
        <time>2012-08-06T15:12:33Z</time>
      </trkpt>
      <trkpt lat="61.650805464" lon="8.56457996182">
        <ele>2389.49</ele>
        <time>2012-08-06T15:12:57Z</time>
      </trkpt>
      <trkpt lat="61.6507943161" lon="8.56458046474">
        <ele>2394.3</ele>
        <time>2012-08-06T15:13:11Z</time>
      </trkpt>
      <trkpt lat="61.6507949028" lon="8.56458708644">
        <ele>2393.82</ele>
        <time>2012-08-06T15:13:12Z</time>
      </trkpt>
      <trkpt lat="61.6507950705" lon="8.56459722854">
        <ele>2390.94</ele>
        <time>2012-08-06T15:13:13Z</time>
      </trkpt>
      <trkpt lat="61.6507982556" lon="8.56459999457">
        <ele>2389.01</ele>
        <time>2012-08-06T15:13:15Z</time>
      </trkpt>
      <trkpt lat="61.650795741" lon="8.56460385025">
        <ele>2390.46</ele>
        <time>2012-08-06T15:13:17Z</time>
      </trkpt>
      <trkpt lat="61.6507715173" lon="8.56461390853">
        <ele>2390.94</ele>
        <time>2012-08-06T15:13:40Z</time>
      </trkpt>
      <trkpt lat="61.6507648118" lon="8.564588679">
        <ele>2387.57</ele>
        <time>2012-08-06T15:14:03Z</time>
      </trkpt>
      <trkpt lat="61.6507627163" lon="8.56458155438">
        <ele>2391.42</ele>
        <time>2012-08-06T15:14:10Z</time>
      </trkpt>
      <trkpt lat="61.6507643927" lon="8.56459999457">
        <ele>2395.74</ele>
        <time>2012-08-06T15:14:22Z</time>
      </trkpt>
      <trkpt lat="61.6507649794" lon="8.56458993629">
        <ele>2391.9</ele>
        <time>2012-08-06T15:14:24Z</time>
      </trkpt>
      <trkpt lat="61.65076565" lon="8.56458574533">
        <ele>2392.38</ele>
        <time>2012-08-06T15:14:25Z</time>
      </trkpt>
      <trkpt lat="61.6507919692" lon="8.56456780806">
        <ele>2390.46</ele>
        <time>2012-08-06T15:14:40Z</time>
      </trkpt>
      <trkpt lat="61.6507855989" lon="8.56460334733">
        <ele>2390.94</ele>
        <time>2012-08-06T15:14:58Z</time>
      </trkpt>
      <trkpt lat="61.6507959925" lon="8.56463905424">
        <ele>2391.42</ele>
        <time>2012-08-06T15:15:20Z</time>
      </trkpt>
      <trkpt lat="61.6508158576" lon="8.56472304091">
        <ele>2391.42</ele>
        <time>2012-08-06T15:15:25Z</time>
      </trkpt>
      <trkpt lat="61.6508217249" lon="8.56476813555">
        <ele>2389.49</ele>
        <time>2012-08-06T15:15:27Z</time>
      </trkpt>
      <trkpt lat="61.6508085653" lon="8.56484474614">
        <ele>2390.94</ele>
        <time>2012-08-06T15:15:30Z</time>
      </trkpt>
      <trkpt lat="61.6508037038" lon="8.5648793634">
        <ele>2389.49</ele>
        <time>2012-08-06T15:15:32Z</time>
      </trkpt>
      <trkpt lat="61.6508061346" lon="8.56489017606">
        <ele>2389.01</ele>
        <time>2012-08-06T15:15:36Z</time>
      </trkpt>
      <trkpt lat="61.6508002672" lon="8.56521639973">
        <ele>2385.65</ele>
        <time>2012-08-06T15:15:51Z</time>
      </trkpt>
      <trkpt lat="61.6508012731" lon="8.56523810886">
        <ele>2385.17</ele>
        <time>2012-08-06T15:15:52Z</time>
      </trkpt>
      <trkpt lat="61.6508079786" lon="8.56533626094">
        <ele>2387.09</ele>
        <time>2012-08-06T15:16:00Z</time>
      </trkpt>
      <trkpt lat="61.6507973336" lon="8.56554388069">
        <ele>2386.13</ele>
        <time>2012-08-06T15:16:11Z</time>
      </trkpt>
      <trkpt lat="61.6507699247" lon="8.5658442881">
        <ele>2383.25</ele>
        <time>2012-08-06T15:16:25Z</time>
      </trkpt>
      <trkpt lat="61.6507390793" lon="8.56603791006">
        <ele>2380.36</ele>
        <time>2012-08-06T15:16:36Z</time>
      </trkpt>
      <trkpt lat="61.650700774" lon="8.56608979404">
        <ele>2378.92</ele>
        <time>2012-08-06T15:16:51Z</time>
      </trkpt>
      <trkpt lat="61.6506942362" lon="8.56609105133">
        <ele>2371.71</ele>
        <time>2012-08-06T15:16:53Z</time>
      </trkpt>
      <trkpt lat="61.6506999359" lon="8.56608878821">
        <ele>2379.88</ele>
        <time>2012-08-06T15:16:54Z</time>
      </trkpt>
      <trkpt lat="61.6507008579" lon="8.56608526781">
        <ele>2376.52</ele>
        <time>2012-08-06T15:16:55Z</time>
      </trkpt>
      <trkpt lat="61.6506818309" lon="8.56610773131">
        <ele>2376.52</ele>
        <time>2012-08-06T15:17:11Z</time>
      </trkpt>
      <trkpt lat="61.6506669112" lon="8.5660843458">
        <ele>2377.48</ele>
        <time>2012-08-06T15:17:24Z</time>
      </trkpt>
      <trkpt lat="61.6506577749" lon="8.56608920731">
        <ele>2373.15</ele>
        <time>2012-08-06T15:17:27Z</time>
      </trkpt>
      <trkpt lat="61.6506517399" lon="8.5660953261">
        <ele>2373.15</ele>
        <time>2012-08-06T15:17:29Z</time>
      </trkpt>
      <trkpt lat="61.65064428" lon="8.56607780792">
        <ele>2376.04</ele>
        <time>2012-08-06T15:17:32Z</time>
      </trkpt>
      <trkpt lat="61.650688285" lon="8.56607965194">
        <ele>2376.52</ele>
        <time>2012-08-06T15:17:45Z</time>
      </trkpt>
      <trkpt lat="61.6506876983" lon="8.56606766582">
        <ele>2371.23</ele>
        <time>2012-08-06T15:17:48Z</time>
      </trkpt>
      <trkpt lat="61.6506868601" lon="8.56608325616">
        <ele>2385.17</ele>
        <time>2012-08-06T15:17:49Z</time>
      </trkpt>
      <trkpt lat="61.6506854352" lon="8.56609071605">
        <ele>2378.92</ele>
        <time>2012-08-06T15:17:50Z</time>
      </trkpt>
      <trkpt lat="61.650687363" lon="8.56608954258">
        <ele>2377.96</ele>
        <time>2012-08-06T15:17:52Z</time>
      </trkpt>
      <trkpt lat="61.6506889556" lon="8.5660865251">
        <ele>2373.63</ele>
        <time>2012-08-06T15:17:56Z</time>
      </trkpt>
      <trkpt lat="61.6506914701" lon="8.56608602218">
        <ele>2373.63</ele>
        <time>2012-08-06T15:17:57Z</time>
      </trkpt>
      <trkpt lat="61.6506931465" lon="8.56608769856">
        <ele>2379.4</ele>
        <time>2012-08-06T15:17:58Z</time>
      </trkpt>
      <trkpt lat="61.6506942362" lon="8.56608929113">
        <ele>2377</ele>
        <time>2012-08-06T15:17:59Z</time>
      </trkpt>
      <trkpt lat="61.6506962478" lon="8.5660931468">
        <ele>2377</ele>
        <time>2012-08-06T15:18:21Z</time>
      </trkpt>
      <trkpt lat="61.6506865248" lon="8.56613891199">
        <ele>2376.52</ele>
        <time>2012-08-06T15:18:41Z</time>
      </trkpt>
      <trkpt lat="61.650684597" lon="8.56615257449">
        <ele>2375.55</ele>
        <time>2012-08-06T15:18:44Z</time>
      </trkpt>
      <trkpt lat="61.6506560985" lon="8.56621627696">
        <ele>2376.04</ele>
        <time>2012-08-06T15:18:59Z</time>
      </trkpt>
      <trkpt lat="61.650653081" lon="8.56622960418">
        <ele>2375.07</ele>
        <time>2012-08-06T15:19:19Z</time>
      </trkpt>
      <trkpt lat="61.650648471" lon="8.56624787673">
        <ele>2373.63</ele>
        <time>2012-08-06T15:19:41Z</time>
      </trkpt>
      <trkpt lat="61.6506379936" lon="8.56629054062">
        <ele>2373.63</ele>
        <time>2012-08-06T15:19:43Z</time>
      </trkpt>
      <trkpt lat="61.650594743" lon="8.56645113789">
        <ele>2373.15</ele>
        <time>2012-08-06T15:19:46Z</time>
      </trkpt>
      <trkpt lat="61.6505483072" lon="8.56659832411">
        <ele>2369.31</ele>
        <time>2012-08-06T15:19:49Z</time>
      </trkpt>
      <trkpt lat="61.65048494" lon="8.56676864438">
        <ele>2365.46</ele>
        <time>2012-08-06T15:19:54Z</time>
      </trkpt>
      <trkpt lat="61.6504864488" lon="8.56677342206">
        <ele>2364.02</ele>
        <time>2012-08-06T15:19:56Z</time>
      </trkpt>
      <trkpt lat="61.6504732054" lon="8.56673025526">
        <ele>2364.5</ele>
        <time>2012-08-06T15:20:15Z</time>
      </trkpt>
      <trkpt lat="61.6504737921" lon="8.56674483977">
        <ele>2364.98</ele>
        <time>2012-08-06T15:20:18Z</time>
      </trkpt>
      <trkpt lat="61.6504307929" lon="8.56681658886">
        <ele>2363.54</ele>
        <time>2012-08-06T15:20:20Z</time>
      </trkpt>
      <trkpt lat="61.6503887996" lon="8.56684559025">
        <ele>2361.62</ele>
        <time>2012-08-06T15:20:28Z</time>
      </trkpt>
      <trkpt lat="61.6504061501" lon="8.56683343649">
        <ele>2361.14</ele>
        <time>2012-08-06T15:20:44Z</time>
      </trkpt>
      <trkpt lat="61.6504050605" lon="8.56683720835">
        <ele>2352.96</ele>
        <time>2012-08-06T15:20:45Z</time>
      </trkpt>
      <trkpt lat="61.6504031327" lon="8.56684089638">
        <ele>2357.77</ele>
        <time>2012-08-06T15:20:46Z</time>
      </trkpt>
      <trkpt lat="61.6504023783" lon="8.5668431595">
        <ele>2363.06</ele>
        <time>2012-08-06T15:20:47Z</time>
      </trkpt>
      <trkpt lat="61.6504022107" lon="8.56684441678">
        <ele>2362.58</ele>
        <time>2012-08-06T15:20:48Z</time>
      </trkpt>
      <trkpt lat="61.6504030488" lon="8.56684986502">
        <ele>2359.21</ele>
        <time>2012-08-06T15:20:53Z</time>
      </trkpt>
      <trkpt lat="61.6504043061" lon="8.56684718281">
        <ele>2362.1</ele>
        <time>2012-08-06T15:20:57Z</time>
      </trkpt>
      <trkpt lat="61.6504021268" lon="8.56684902683">
        <ele>2361.14</ele>
        <time>2012-08-06T15:21:28Z</time>
      </trkpt>
      <trkpt lat="61.6503958404" lon="8.56682932936">
        <ele>2361.14</ele>
        <time>2012-08-06T15:22:04Z</time>
      </trkpt>
      <trkpt lat="61.6503907274" lon="8.56683603488">
        <ele>2361.14</ele>
        <time>2012-08-06T15:22:41Z</time>
      </trkpt>
      <trkpt lat="61.6503830999" lon="8.56685372069">
        <ele>2360.65</ele>
        <time>2012-08-06T15:23:13Z</time>
      </trkpt>
      <trkpt lat="61.6503855307" lon="8.5668621026">
        <ele>2354.89</ele>
        <time>2012-08-06T15:23:27Z</time>
      </trkpt>
      <trkpt lat="61.6503848601" lon="8.56687140651">
        <ele>2367.86</ele>
        <time>2012-08-06T15:23:28Z</time>
      </trkpt>
      <trkpt lat="61.6503883805" lon="8.56686620973">
        <ele>2361.62</ele>
        <time>2012-08-06T15:23:29Z</time>
      </trkpt>
      <trkpt lat="61.6503438726" lon="8.56697710231">
        <ele>2359.21</ele>
        <time>2012-08-06T15:23:52Z</time>
      </trkpt>
      <trkpt lat="61.6503136978" lon="8.5670492705">
        <ele>2361.62</ele>
        <time>2012-08-06T15:23:53Z</time>
      </trkpt>
      <trkpt lat="61.6502818465" lon="8.56712630019">
        <ele>2359.69</ele>
        <time>2012-08-06T15:23:54Z</time>
      </trkpt>
      <trkpt lat="61.6502246819" lon="8.5672946088">
        <ele>2355.85</ele>
        <time>2012-08-06T15:23:57Z</time>
      </trkpt>
      <trkpt lat="61.6502286214" lon="8.56728949584">
        <ele>2353.93</ele>
        <time>2012-08-06T15:23:59Z</time>
      </trkpt>
      <trkpt lat="61.6502350755" lon="8.56724096462">
        <ele>2352.96</ele>
        <time>2012-08-06T15:24:24Z</time>
      </trkpt>
      <trkpt lat="61.6502254363" lon="8.56725756079">
        <ele>2353.44</ele>
        <time>2012-08-06T15:24:25Z</time>
      </trkpt>
      <trkpt lat="61.650142204" lon="8.56746677309">
        <ele>2350.56</ele>
        <time>2012-08-06T15:24:29Z</time>
      </trkpt>
      <trkpt lat="61.6500660963" lon="8.56767355464">
        <ele>2345.75</ele>
        <time>2012-08-06T15:24:32Z</time>
      </trkpt>
      <trkpt lat="61.6500596423" lon="8.56770800427">
        <ele>2343.83</ele>
        <time>2012-08-06T15:24:35Z</time>
      </trkpt>
      <trkpt lat="61.6500580497" lon="8.5676517617">
        <ele>2342.87</ele>
        <time>2012-08-06T15:24:49Z</time>
      </trkpt>
      <trkpt lat="61.650074143" lon="8.56764916331">
        <ele>2342.39</ele>
        <time>2012-08-06T15:25:04Z</time>
      </trkpt>
      <trkpt lat="61.6500396095" lon="8.56774245389">
        <ele>2344.31</ele>
        <time>2012-08-06T15:25:06Z</time>
      </trkpt>
      <trkpt lat="61.6499552876" lon="8.56793599203">
        <ele>2340.95</ele>
        <time>2012-08-06T15:25:09Z</time>
      </trkpt>
      <trkpt lat="61.6499429662" lon="8.56798854657">
        <ele>2336.62</ele>
        <time>2012-08-06T15:25:12Z</time>
      </trkpt>
      <trkpt lat="61.6499591433" lon="8.56795954518">
        <ele>2337.1</ele>
        <time>2012-08-06T15:25:27Z</time>
      </trkpt>
      <trkpt lat="61.6499374341" lon="8.56806096621">
        <ele>2336.14</ele>
        <time>2012-08-06T15:25:31Z</time>
      </trkpt>
      <trkpt lat="61.6499080136" lon="8.56816322543">
        <ele>2334.7</ele>
        <time>2012-08-06T15:25:36Z</time>
      </trkpt>
      <trkpt lat="61.6498532798" lon="8.56831208803">
        <ele>2330.37</ele>
        <time>2012-08-06T15:25:44Z</time>
      </trkpt>
      <trkpt lat="61.6498455685" lon="8.56833463535">
        <ele>2330.85</ele>
        <time>2012-08-06T15:25:45Z</time>
      </trkpt>
      <trkpt lat="61.6498408746" lon="8.56835517101">
        <ele>2330.37</ele>
        <time>2012-08-06T15:25:46Z</time>
      </trkpt>
      <trkpt lat="61.6498229373" lon="8.56841744855">
        <ele>2328.45</ele>
        <time>2012-08-06T15:25:50Z</time>
      </trkpt>
      <trkpt lat="61.6497862246" lon="8.56858684681">
        <ele>2324.61</ele>
        <time>2012-08-06T15:26:00Z</time>
      </trkpt>
      <trkpt lat="61.6497742385" lon="8.56858936138">
        <ele>2325.09</ele>
        <time>2012-08-06T15:26:04Z</time>
      </trkpt>
      <trkpt lat="61.649748506" lon="8.56856597587">
        <ele>2321.72</ele>
        <time>2012-08-06T15:26:06Z</time>
      </trkpt>
      <trkpt lat="61.6497437283" lon="8.56854585931">
        <ele>2323.16</ele>
        <time>2012-08-06T15:26:07Z</time>
      </trkpt>
      <trkpt lat="61.6497428063" lon="8.56854200363">
        <ele>2317.4</ele>
        <time>2012-08-06T15:26:08Z</time>
      </trkpt>
      <trkpt lat="61.6497433931" lon="8.56851643883">
        <ele>2322.68</ele>
        <time>2012-08-06T15:26:09Z</time>
      </trkpt>
      <trkpt lat="61.6497417167" lon="8.56850470416">
        <ele>2326.53</ele>
        <time>2012-08-06T15:26:10Z</time>
      </trkpt>
      <trkpt lat="61.6497404594" lon="8.5684964899">
        <ele>2321.24</ele>
        <time>2012-08-06T15:26:11Z</time>
      </trkpt>
      <trkpt lat="61.6497392021" lon="8.56848718598">
        <ele>2327.01</ele>
        <time>2012-08-06T15:26:13Z</time>
      </trkpt>
      <trkpt lat="61.6497432254" lon="8.56849573553">
        <ele>2327.01</ele>
        <time>2012-08-06T15:26:14Z</time>
      </trkpt>
      <trkpt lat="61.6497498471" lon="8.56851266697">
        <ele>2323.64</ele>
        <time>2012-08-06T15:26:15Z</time>
      </trkpt>
      <trkpt lat="61.6497521941" lon="8.56852632947">
        <ele>2324.12</ele>
        <time>2012-08-06T15:26:16Z</time>
      </trkpt>
      <trkpt lat="61.6497329157" lon="8.56863378547">
        <ele>2322.2</ele>
        <time>2012-08-06T15:26:29Z</time>
      </trkpt>
      <trkpt lat="61.649736017" lon="8.56863076799">
        <ele>2311.63</ele>
        <time>2012-08-06T15:26:30Z</time>
      </trkpt>
      <trkpt lat="61.6497328319" lon="8.56864635833">
        <ele>2328.93</ele>
        <time>2012-08-06T15:26:31Z</time>
      </trkpt>
      <trkpt lat="61.6497302335" lon="8.56865113601">
        <ele>2323.64</ele>
        <time>2012-08-06T15:26:32Z</time>
      </trkpt>
      <trkpt lat="61.6497304011" lon="8.56864929199">
        <ele>2322.68</ele>
        <time>2012-08-06T15:26:34Z</time>
      </trkpt>
      <trkpt lat="61.6497265454" lon="8.56866580434">
        <ele>2311.15</ele>
        <time>2012-08-06T15:26:35Z</time>
      </trkpt>
      <trkpt lat="61.6497293115" lon="8.56864753179">
        <ele>2323.16</ele>
        <time>2012-08-06T15:26:36Z</time>
      </trkpt>
      <trkpt lat="61.6497320775" lon="8.56863428839">
        <ele>2317.88</ele>
        <time>2012-08-06T15:26:38Z</time>
      </trkpt>
      <trkpt lat="61.6497329157" lon="8.56862716377">
        <ele>2321.24</ele>
        <time>2012-08-06T15:26:39Z</time>
      </trkpt>
      <trkpt lat="61.6497310717" lon="8.56861568056">
        <ele>2316.91</ele>
        <time>2012-08-06T15:26:42Z</time>
      </trkpt>
      <trkpt lat="61.6497311555" lon="8.56861735694">
        <ele>2325.57</ele>
        <time>2012-08-06T15:26:43Z</time>
      </trkpt>
      <trkpt lat="61.6496867314" lon="8.56875440106">
        <ele>2320.28</ele>
        <time>2012-08-06T15:26:48Z</time>
      </trkpt>
      <trkpt lat="61.6496811155" lon="8.56877594255">
        <ele>2318.84</ele>
        <time>2012-08-06T15:26:49Z</time>
      </trkpt>
      <trkpt lat="61.6496083606" lon="8.56897551566">
        <ele>2316.43</ele>
        <time>2012-08-06T15:26:55Z</time>
      </trkpt>
      <trkpt lat="61.6495967936" lon="8.56903519481">
        <ele>2314.51</ele>
        <time>2012-08-06T15:26:57Z</time>
      </trkpt>
      <trkpt lat="61.6495928541" lon="8.56906260364">
        <ele>2311.15</ele>
        <time>2012-08-06T15:26:58Z</time>
      </trkpt>
      <trkpt lat="61.6495915968" lon="8.569071237">
        <ele>2310.67</ele>
        <time>2012-08-06T15:26:59Z</time>
      </trkpt>
      <trkpt lat="61.6495880764" lon="8.56910258532">
        <ele>2314.99</ele>
        <time>2012-08-06T15:27:01Z</time>
      </trkpt>
      <trkpt lat="61.6495822929" lon="8.56920409016">
        <ele>2312.59</ele>
        <time>2012-08-06T15:27:04Z</time>
      </trkpt>
      <trkpt lat="61.6495786048" lon="8.56923216954">
        <ele>2305.86</ele>
        <time>2012-08-06T15:27:10Z</time>
      </trkpt>
      <trkpt lat="61.649575755" lon="8.56923426501">
        <ele>2316.91</ele>
        <time>2012-08-06T15:27:11Z</time>
      </trkpt>
      <trkpt lat="61.6495709773" lon="8.56923577376">
        <ele>2312.11</ele>
        <time>2012-08-06T15:27:12Z</time>
      </trkpt>
      <trkpt lat="61.6495677084" lon="8.56930039823">
        <ele>2310.19</ele>
        <time>2012-08-06T15:27:33Z</time>
      </trkpt>
      <trkpt lat="61.6495562252" lon="8.56942864135">
        <ele>2309.7</ele>
        <time>2012-08-06T15:27:46Z</time>
      </trkpt>
      <trkpt lat="61.6495614219" lon="8.56944305822">
        <ele>2309.7</ele>
        <time>2012-08-06T15:27:59Z</time>
      </trkpt>
      <trkpt lat="61.6495244578" lon="8.56968060136">
        <ele>2305.86</ele>
        <time>2012-08-06T15:28:07Z</time>
      </trkpt>
      <trkpt lat="61.6494834702" lon="8.56998955831">
        <ele>2303.46</ele>
        <time>2012-08-06T15:28:12Z</time>
      </trkpt>
      <trkpt lat="61.6494493559" lon="8.57014881447">
        <ele>2300.09</ele>
        <time>2012-08-06T15:28:15Z</time>
      </trkpt>
      <trkpt lat="61.6494266409" lon="8.57019893825">
        <ele>2295.77</ele>
        <time>2012-08-06T15:28:20Z</time>
      </trkpt>
      <trkpt lat="61.6494042613" lon="8.57021385804">
        <ele>2297.21</ele>
        <time>2012-08-06T15:28:42Z</time>
      </trkpt>
      <trkpt lat="61.6494119726" lon="8.57024244033">
        <ele>2297.69</ele>
        <time>2012-08-06T15:29:12Z</time>
      </trkpt>
      <trkpt lat="61.6494125593" lon="8.5702793207">
        <ele>2297.69</ele>
        <time>2012-08-06T15:29:48Z</time>
      </trkpt>
      <trkpt lat="61.6493942868" lon="8.57024394907">
        <ele>2296.73</ele>
        <time>2012-08-06T15:30:12Z</time>
      </trkpt>
      <trkpt lat="61.6494050995" lon="8.57028552331">
        <ele>2297.21</ele>
        <time>2012-08-06T15:30:47Z</time>
      </trkpt>
      <trkpt lat="61.6494036745" lon="8.57029315084">
        <ele>2297.21</ele>
        <time>2012-08-06T15:31:21Z</time>
      </trkpt>
      <trkpt lat="61.6494050995" lon="8.57028133236">
        <ele>2297.21</ele>
        <time>2012-08-06T15:31:32Z</time>
      </trkpt>
      <trkpt lat="61.6493655369" lon="8.57038375922">
        <ele>2294.8</ele>
        <time>2012-08-06T15:31:37Z</time>
      </trkpt>
      <trkpt lat="61.649316838" lon="8.57052742504">
        <ele>2292.4</ele>
        <time>2012-08-06T15:31:43Z</time>
      </trkpt>
      <trkpt lat="61.6492926981" lon="8.57055768371">
        <ele>2290</ele>
        <time>2012-08-06T15:31:55Z</time>
      </trkpt>
      <trkpt lat="61.6492855735" lon="8.57057226822">
        <ele>2290.48</ele>
        <time>2012-08-06T15:32:27Z</time>
      </trkpt>
      <trkpt lat="61.6492929496" lon="8.57059389353">
        <ele>2290.96</ele>
        <time>2012-08-06T15:33:07Z</time>
      </trkpt>
      <trkpt lat="61.6492917761" lon="8.5705964081">
        <ele>2290.48</ele>
        <time>2012-08-06T15:33:35Z</time>
      </trkpt>
      <trkpt lat="61.6492824722" lon="8.57057495043">
        <ele>2290</ele>
        <time>2012-08-06T15:33:38Z</time>
      </trkpt>
      <trkpt lat="61.6492666304" lon="8.57044855133">
        <ele>2292.4</ele>
        <time>2012-08-06T15:33:42Z</time>
      </trkpt>
      <trkpt lat="61.6492781136" lon="8.57042147778">
        <ele>2290.48</ele>
        <time>2012-08-06T15:33:48Z</time>
      </trkpt>
      <trkpt lat="61.6492782813" lon="8.5705166962">
        <ele>2290.48</ele>
        <time>2012-08-06T15:34:05Z</time>
      </trkpt>
      <trkpt lat="61.6492784489" lon="8.57054125518">
        <ele>2291.44</ele>
        <time>2012-08-06T15:34:18Z</time>
      </trkpt>
      <trkpt lat="61.6492690612" lon="8.57056497596">
        <ele>2290.48</ele>
        <time>2012-08-06T15:34:21Z</time>
      </trkpt>
      <trkpt lat="61.6492217872" lon="8.57073479332">
        <ele>2287.11</ele>
        <time>2012-08-06T15:34:30Z</time>
      </trkpt>
      <trkpt lat="61.6492046043" lon="8.57078726403">
        <ele>2286.63</ele>
        <time>2012-08-06T15:34:34Z</time>
      </trkpt>
      <trkpt lat="61.6491516307" lon="8.5709249787">
        <ele>2283.75</ele>
        <time>2012-08-06T15:34:43Z</time>
      </trkpt>
      <trkpt lat="61.6491049435" lon="8.5710271541">
        <ele>2281.83</ele>
        <time>2012-08-06T15:34:49Z</time>
      </trkpt>
      <trkpt lat="61.6490371339" lon="8.57112438418">
        <ele>2278.46</ele>
        <time>2012-08-06T15:34:58Z</time>
      </trkpt>
      <trkpt lat="61.6490331106" lon="8.57113016769">
        <ele>2277.98</ele>
        <time>2012-08-06T15:34:59Z</time>
      </trkpt>
      <trkpt lat="61.649014838" lon="8.57119001448">
        <ele>2276.54</ele>
        <time>2012-08-06T15:35:03Z</time>
      </trkpt>
      <trkpt lat="61.648971336" lon="8.57136217877">
        <ele>2273.66</ele>
        <time>2012-08-06T15:35:13Z</time>
      </trkpt>
      <trkpt lat="61.6489433404" lon="8.57144918293">
        <ele>2271.25</ele>
        <time>2012-08-06T15:35:19Z</time>
      </trkpt>
      <trkpt lat="61.648936132" lon="8.57147784904">
        <ele>2271.73</ele>
        <time>2012-08-06T15:35:21Z</time>
      </trkpt>
      <trkpt lat="61.6489050351" lon="8.57153669">
        <ele>2265.48</ele>
        <time>2012-08-06T15:35:27Z</time>
      </trkpt>
      <trkpt lat="61.6489044484" lon="8.57150483876">
        <ele>2273.17</ele>
        <time>2012-08-06T15:35:28Z</time>
      </trkpt>
      <trkpt lat="61.6489026044" lon="8.57150576077">
        <ele>2269.81</ele>
        <time>2012-08-06T15:35:29Z</time>
      </trkpt>
      <trkpt lat="61.6489040293" lon="8.57151741162">
        <ele>2269.81</ele>
        <time>2012-08-06T15:35:45Z</time>
      </trkpt>
      <trkpt lat="61.6489049513" lon="8.5715107061">
        <ele>2269.33</ele>
        <time>2012-08-06T15:36:02Z</time>
      </trkpt>
      <trkpt lat="61.6488551628" lon="8.57176509686">
        <ele>2265</ele>
        <time>2012-08-06T15:36:08Z</time>
      </trkpt>
      <trkpt lat="61.6488252394" lon="8.57188101858">
        <ele>2264.52</ele>
        <time>2012-08-06T15:36:10Z</time>
      </trkpt>
      <trkpt lat="61.6488003451" lon="8.57202786952">
        <ele>2260.2</ele>
        <time>2012-08-06T15:36:13Z</time>
      </trkpt>
      <trkpt lat="61.6487986688" lon="8.57205896638">
        <ele>2248.66</ele>
        <time>2012-08-06T15:36:15Z</time>
      </trkpt>
      <trkpt lat="61.6487961542" lon="8.57206198387">
        <ele>2256.35</ele>
        <time>2012-08-06T15:36:16Z</time>
      </trkpt>
      <trkpt lat="61.6487988364" lon="8.57204320841">
        <ele>2262.12</ele>
        <time>2012-08-06T15:36:18Z</time>
      </trkpt>
      <trkpt lat="61.6487979982" lon="8.57203851454">
        <ele>2266.45</ele>
        <time>2012-08-06T15:36:19Z</time>
      </trkpt>
      <trkpt lat="61.6487954836" lon="8.57203776017">
        <ele>2260.68</ele>
        <time>2012-08-06T15:36:20Z</time>
      </trkpt>
      <trkpt lat="61.6487945616" lon="8.57203859836">
        <ele>2260.68</ele>
        <time>2012-08-06T15:36:21Z</time>
      </trkpt>
      <trkpt lat="61.6487830784" lon="8.57203080319">
        <ele>2251.06</ele>
        <time>2012-08-06T15:36:28Z</time>
      </trkpt>
      <trkpt lat="61.648781402" lon="8.57203197666">
        <ele>2259.72</ele>
        <time>2012-08-06T15:36:29Z</time>
      </trkpt>
      <trkpt lat="61.648782324" lon="8.57202451676">
        <ele>2261.16</ele>
        <time>2012-08-06T15:36:32Z</time>
      </trkpt>
      <trkpt lat="61.6487817373" lon="8.57203767635">
        <ele>2265</ele>
        <time>2012-08-06T15:36:42Z</time>
      </trkpt>
      <trkpt lat="61.6487829946" lon="8.57203415595">
        <ele>2260.2</ele>
        <time>2012-08-06T15:36:44Z</time>
      </trkpt>
      <trkpt lat="61.648781905" lon="8.57203725725">
        <ele>2254.43</ele>
        <time>2012-08-06T15:36:45Z</time>
      </trkpt>
      <trkpt lat="61.648784671" lon="8.57204203494">
        <ele>2260.2</ele>
        <time>2012-08-06T15:36:46Z</time>
      </trkpt>
      <trkpt lat="61.6487876046" lon="8.57204731554">
        <ele>2261.16</ele>
        <time>2012-08-06T15:36:48Z</time>
      </trkpt>
      <trkpt lat="61.6487859283" lon="8.57203868218">
        <ele>2260.68</ele>
        <time>2012-08-06T15:37:21Z</time>
      </trkpt>
      <trkpt lat="61.6487917118" lon="8.57203910127">
        <ele>2267.41</ele>
        <time>2012-08-06T15:37:37Z</time>
      </trkpt>
      <trkpt lat="61.6487923823" lon="8.57204572298">
        <ele>2262.6</ele>
        <time>2012-08-06T15:37:38Z</time>
      </trkpt>
      <trkpt lat="61.6487992555" lon="8.57205033302">
        <ele>2261.16</ele>
        <time>2012-08-06T15:37:41Z</time>
      </trkpt>
      <trkpt lat="61.6488023568" lon="8.57204429805">
        <ele>2261.16</ele>
        <time>2012-08-06T15:37:45Z</time>
      </trkpt>
      <trkpt lat="61.6487379838" lon="8.572236076">
        <ele>2259.24</ele>
        <time>2012-08-06T15:37:49Z</time>
      </trkpt>
      <trkpt lat="61.6486662347" lon="8.57247395441">
        <ele>2255.39</ele>
        <time>2012-08-06T15:37:52Z</time>
      </trkpt>
      <trkpt lat="61.6486488841" lon="8.57252173126">
        <ele>2255.39</ele>
        <time>2012-08-06T15:37:53Z</time>
      </trkpt>
      <trkpt lat="61.64863321" lon="8.57257319614">
        <ele>2252.51</ele>
        <time>2012-08-06T15:37:56Z</time>
      </trkpt>
      <trkpt lat="61.6486255825" lon="8.57265693136">
        <ele>2250.58</ele>
        <time>2012-08-06T15:38:08Z</time>
      </trkpt>
      <trkpt lat="61.6485793982" lon="8.57286773622">
        <ele>2249.14</ele>
        <time>2012-08-06T15:38:19Z</time>
      </trkpt>
      <trkpt lat="61.6485417634" lon="8.57306160964">
        <ele>2246.26</ele>
        <time>2012-08-06T15:38:30Z</time>
      </trkpt>
      <trkpt lat="61.6485301964" lon="8.57314048335">
        <ele>2243.85</ele>
        <time>2012-08-06T15:38:34Z</time>
      </trkpt>
      <trkpt lat="61.6485176235" lon="8.57329085469">
        <ele>2243.37</ele>
        <time>2012-08-06T15:38:40Z</time>
      </trkpt>
      <trkpt lat="61.648504464" lon="8.57333108783">
        <ele>2243.37</ele>
        <time>2012-08-06T15:38:42Z</time>
      </trkpt>
      <trkpt lat="61.6484929807" lon="8.57338397764">
        <ele>2241.93</ele>
        <time>2012-08-06T15:38:45Z</time>
      </trkpt>
      <trkpt lat="61.648465069" lon="8.57347961515">
        <ele>2240.97</ele>
        <time>2012-08-06T15:38:49Z</time>
      </trkpt>
      <trkpt lat="61.6484593693" lon="8.57352538034">
        <ele>2240.01</ele>
        <time>2012-08-06T15:38:51Z</time>
      </trkpt>
      <trkpt lat="61.6484605428" lon="8.57354532927">
        <ele>2239.53</ele>
        <time>2012-08-06T15:38:52Z</time>
      </trkpt>
      <trkpt lat="61.6484431922" lon="8.5736004822">
        <ele>2239.05</ele>
        <time>2012-08-06T15:38:56Z</time>
      </trkpt>
      <trkpt lat="61.6483825073" lon="8.57373886742">
        <ele>2235.68</ele>
        <time>2012-08-06T15:39:05Z</time>
      </trkpt>
      <trkpt lat="61.6483431961" lon="8.57378262095">
        <ele>2233.28</ele>
        <time>2012-08-06T15:39:15Z</time>
      </trkpt>
      <trkpt lat="61.648339089" lon="8.57377868146">
        <ele>2233.76</ele>
        <time>2012-08-06T15:39:20Z</time>
      </trkpt>
      <trkpt lat="61.6482742131" lon="8.5739999637">
        <ele>2229.92</ele>
        <time>2012-08-06T15:39:26Z</time>
      </trkpt>
      <trkpt lat="61.6482695192" lon="8.57400055043">
        <ele>2229.92</ele>
        <time>2012-08-06T15:39:27Z</time>
      </trkpt>
      <trkpt lat="61.6482402664" lon="8.57399971224">
        <ele>2228.95</ele>
        <time>2012-08-06T15:39:39Z</time>
      </trkpt>
      <trkpt lat="61.6482381709" lon="8.57397607528">
        <ele>2228.95</ele>
        <time>2012-08-06T15:39:42Z</time>
      </trkpt>
      <trkpt lat="61.6481549386" lon="8.5742721241">
        <ele>2225.59</ele>
        <time>2012-08-06T15:39:48Z</time>
      </trkpt>
      <trkpt lat="61.6481242608" lon="8.57439508662">
        <ele>2221.26</ele>
        <time>2012-08-06T15:39:51Z</time>
      </trkpt>
      <trkpt lat="61.6481235903" lon="8.57438184321">
        <ele>2222.22</ele>
        <time>2012-08-06T15:39:52Z</time>
      </trkpt>
      <trkpt lat="61.6481096763" lon="8.57435896061">
        <ele>2222.71</ele>
        <time>2012-08-06T15:39:58Z</time>
      </trkpt>
      <trkpt lat="61.6480818484" lon="8.57433473691">
        <ele>2223.19</ele>
        <time>2012-08-06T15:40:08Z</time>
      </trkpt>
      <trkpt lat="61.6480639949" lon="8.57443414629">
        <ele>2221.26</ele>
        <time>2012-08-06T15:40:12Z</time>
      </trkpt>
      <trkpt lat="61.6480486561" lon="8.57452576049">
        <ele>2219.82</ele>
        <time>2012-08-06T15:40:16Z</time>
      </trkpt>
      <trkpt lat="61.6479777452" lon="8.57464109547">
        <ele>2216.94</ele>
        <time>2012-08-06T15:40:27Z</time>
      </trkpt>
      <trkpt lat="61.6479021404" lon="8.57481879182">
        <ele>2212.13</ele>
        <time>2012-08-06T15:40:33Z</time>
      </trkpt>
      <trkpt lat="61.647900464" lon="8.57481460087">
        <ele>2214.05</ele>
        <time>2012-08-06T15:40:35Z</time>
      </trkpt>
      <trkpt lat="61.6478764918" lon="8.57484653592">
        <ele>2212.61</ele>
        <time>2012-08-06T15:40:40Z</time>
      </trkpt>
      <trkpt lat="61.6478620749" lon="8.57490093447">
        <ele>2211.17</ele>
        <time>2012-08-06T15:40:43Z</time>
      </trkpt>
      <trkpt lat="61.6477887332" lon="8.5751014296">
        <ele>2208.29</ele>
        <time>2012-08-06T15:40:52Z</time>
      </trkpt>
      <trkpt lat="61.6477288865" lon="8.57519824058">
        <ele>2204.92</ele>
        <time>2012-08-06T15:40:58Z</time>
      </trkpt>
      <trkpt lat="61.6476969514" lon="8.57526294887">
        <ele>2203.48</ele>
        <time>2012-08-06T15:41:01Z</time>
      </trkpt>
      <trkpt lat="61.6476646811" lon="8.57533092611">
        <ele>2202.04</ele>
        <time>2012-08-06T15:41:05Z</time>
      </trkpt>
      <trkpt lat="61.6476190835" lon="8.57541130856">
        <ele>2199.63</ele>
        <time>2012-08-06T15:41:10Z</time>
      </trkpt>
      <trkpt lat="61.6475693788" lon="8.57549705543">
        <ele>2197.71</ele>
        <time>2012-08-06T15:41:16Z</time>
      </trkpt>
      <trkpt lat="61.6475288104" lon="8.57557944953">
        <ele>2195.31</ele>
        <time>2012-08-06T15:41:21Z</time>
      </trkpt>
      <trkpt lat="61.6475036647" lon="8.57558833435">
        <ele>2189.06</ele>
        <time>2012-08-06T15:41:35Z</time>
      </trkpt>
      <trkpt lat="61.6474983003" lon="8.57559872791">
        <ele>2197.71</ele>
        <time>2012-08-06T15:41:36Z</time>
      </trkpt>
      <trkpt lat="61.6475050896" lon="8.57558699325">
        <ele>2195.79</ele>
        <time>2012-08-06T15:41:37Z</time>
      </trkpt>
      <trkpt lat="61.6475032456" lon="8.57559688389">
        <ele>2194.83</ele>
        <time>2012-08-06T15:41:39Z</time>
      </trkpt>
      <trkpt lat="61.6475007311" lon="8.57561934739">
        <ele>2193.87</ele>
        <time>2012-08-06T15:41:42Z</time>
      </trkpt>
      <trkpt lat="61.6474792734" lon="8.57567416504">
        <ele>2192.9</ele>
        <time>2012-08-06T15:41:47Z</time>
      </trkpt>
      <trkpt lat="61.6474637669" lon="8.57576619834">
        <ele>2190.98</ele>
        <time>2012-08-06T15:41:51Z</time>
      </trkpt>
      <trkpt lat="61.6474210192" lon="8.57580383308">
        <ele>2190.5</ele>
        <time>2012-08-06T15:41:56Z</time>
      </trkpt>
      <trkpt lat="61.6473713983" lon="8.57595076784">
        <ele>2187.14</ele>
        <time>2012-08-06T15:42:04Z</time>
      </trkpt>
      <trkpt lat="61.6473146528" lon="8.57606878504">
        <ele>2184.73</ele>
        <time>2012-08-06T15:42:16Z</time>
      </trkpt>
      <trkpt lat="61.6472623497" lon="8.57621907257">
        <ele>2181.37</ele>
        <time>2012-08-06T15:42:24Z</time>
      </trkpt>
      <trkpt lat="61.6472543031" lon="8.57623717748">
        <ele>2181.37</ele>
        <time>2012-08-06T15:42:25Z</time>
      </trkpt>
      <trkpt lat="61.6472376231" lon="8.57623365708">
        <ele>2180.89</ele>
        <time>2012-08-06T15:42:38Z</time>
      </trkpt>
      <trkpt lat="61.647245083" lon="8.57620867901">
        <ele>2180.41</ele>
        <time>2012-08-06T15:42:59Z</time>
      </trkpt>
      <trkpt lat="61.6472290736" lon="8.57622745447">
        <ele>2180.89</ele>
        <time>2012-08-06T15:43:23Z</time>
      </trkpt>
      <trkpt lat="61.6472370364" lon="8.57623835094">
        <ele>2181.37</ele>
        <time>2012-08-06T15:43:54Z</time>
      </trkpt>
      <trkpt lat="61.6472294088" lon="8.57623650692">
        <ele>2181.37</ele>
        <time>2012-08-06T15:44:22Z</time>
      </trkpt>
      <trkpt lat="61.6472154949" lon="8.57630339451">
        <ele>2181.37</ele>
        <time>2012-08-06T15:44:54Z</time>
      </trkpt>
      <trkpt lat="61.6472210269" lon="8.57630230486">
        <ele>2180.89</ele>
        <time>2012-08-06T15:45:20Z</time>
      </trkpt>
      <trkpt lat="61.6472206917" lon="8.5763059929">
        <ele>2180.89</ele>
        <time>2012-08-06T15:45:50Z</time>
      </trkpt>
      <trkpt lat="61.6471758485" lon="8.57645804062">
        <ele>2178.48</ele>
        <time>2012-08-06T15:46:17Z</time>
      </trkpt>
      <trkpt lat="61.6471428238" lon="8.57656390406">
        <ele>2176.08</ele>
        <time>2012-08-06T15:46:22Z</time>
      </trkpt>
      <trkpt lat="61.6470825579" lon="8.57667312026">
        <ele>2174.16</ele>
        <time>2012-08-06T15:46:28Z</time>
      </trkpt>
      <trkpt lat="61.6470224597" lon="8.57676465064">
        <ele>2173.2</ele>
        <time>2012-08-06T15:46:35Z</time>
      </trkpt>
      <trkpt lat="61.646991279" lon="8.57688208111">
        <ele>2169.83</ele>
        <time>2012-08-06T15:46:46Z</time>
      </trkpt>
      <trkpt lat="61.646923637" lon="8.57710244134">
        <ele>2166.47</ele>
        <time>2012-08-06T15:46:59Z</time>
      </trkpt>
      <trkpt lat="61.6468493734" lon="8.57724200003">
        <ele>2164.06</ele>
        <time>2012-08-06T15:47:07Z</time>
      </trkpt>
      <trkpt lat="61.646779133" lon="8.57740838081">
        <ele>2160.22</ele>
        <time>2012-08-06T15:47:15Z</time>
      </trkpt>
      <trkpt lat="61.6467695776" lon="8.57741927728">
        <ele>2160.22</ele>
        <time>2012-08-06T15:47:16Z</time>
      </trkpt>
      <trkpt lat="61.6466824897" lon="8.57759605162">
        <ele>2156.86</ele>
        <time>2012-08-06T15:47:25Z</time>
      </trkpt>
      <trkpt lat="61.6466768738" lon="8.57760636136">
        <ele>2157.34</ele>
        <time>2012-08-06T15:47:26Z</time>
      </trkpt>
      <trkpt lat="61.6466059629" lon="8.57774131">
        <ele>2153.97</ele>
        <time>2012-08-06T15:47:33Z</time>
      </trkpt>
      <trkpt lat="61.6465521511" lon="8.5778628476">
        <ele>2152.05</ele>
        <time>2012-08-06T15:47:38Z</time>
      </trkpt>
      <trkpt lat="61.646483168" lon="8.57799804769">
        <ele>2149.65</ele>
        <time>2012-08-06T15:47:45Z</time>
      </trkpt>
      <trkpt lat="61.6464115866" lon="8.57813886367">
        <ele>2145.8</ele>
        <time>2012-08-06T15:47:53Z</time>
      </trkpt>
      <trkpt lat="61.6463302821" lon="8.57830130495">
        <ele>2142.44</ele>
        <time>2012-08-06T15:48:02Z</time>
      </trkpt>
      <trkpt lat="61.6463236604" lon="8.57831153087">
        <ele>2142.92</ele>
        <time>2012-08-06T15:48:03Z</time>
      </trkpt>
      <trkpt lat="61.6462312918" lon="8.57849375345">
        <ele>2139.55</ele>
        <time>2012-08-06T15:48:11Z</time>
      </trkpt>
      <trkpt lat="61.6461299546" lon="8.57867874205">
        <ele>2135.71</ele>
        <time>2012-08-06T15:48:22Z</time>
      </trkpt>
      <trkpt lat="61.6461041383" lon="8.578807991">
        <ele>2133.78</ele>
        <time>2012-08-06T15:48:28Z</time>
      </trkpt>
      <trkpt lat="61.6460253485" lon="8.57898300514">
        <ele>2130.42</ele>
        <time>2012-08-06T15:48:41Z</time>
      </trkpt>
      <trkpt lat="61.6460029688" lon="8.57898736373">
        <ele>2130.9</ele>
        <time>2012-08-06T15:48:58Z</time>
      </trkpt>
      <trkpt lat="61.6459318064" lon="8.57914921828">
        <ele>2129.46</ele>
        <time>2012-08-06T15:49:12Z</time>
      </trkpt>
      <trkpt lat="61.645864835" lon="8.5793114081">
        <ele>2125.61</ele>
        <time>2012-08-06T15:49:18Z</time>
      </trkpt>
      <trkpt lat="61.6458551958" lon="8.57936932705">
        <ele>2124.17</ele>
        <time>2012-08-06T15:49:21Z</time>
      </trkpt>
      <trkpt lat="61.645802306" lon="8.57943319716">
        <ele>2124.17</ele>
        <time>2012-08-06T15:49:26Z</time>
      </trkpt>
      <trkpt lat="61.6457390226" lon="8.57955456711">
        <ele>2122.25</ele>
        <time>2012-08-06T15:49:32Z</time>
      </trkpt>
      <trkpt lat="61.6457319818" lon="8.57960795984">
        <ele>2122.25</ele>
        <time>2012-08-06T15:49:34Z</time>
      </trkpt>
      <trkpt lat="61.6457029805" lon="8.57969379053">
        <ele>2120.81</ele>
        <time>2012-08-06T15:49:38Z</time>
      </trkpt>
      <trkpt lat="61.6456475761" lon="8.57981893234">
        <ele>2120.32</ele>
        <time>2012-08-06T15:49:45Z</time>
      </trkpt>
      <trkpt lat="61.6456039902" lon="8.5799015779">
        <ele>2117.44</ele>
        <time>2012-08-06T15:49:51Z</time>
      </trkpt>
      <trkpt lat="61.6455429699" lon="8.58004407026">
        <ele>2114.08</ele>
        <time>2012-08-06T15:50:03Z</time>
      </trkpt>
      <trkpt lat="61.6455240268" lon="8.58011070639">
        <ele>2111.67</ele>
        <time>2012-08-06T15:50:09Z</time>
      </trkpt>
      <trkpt lat="61.6455177404" lon="8.58010550961">
        <ele>2113.12</ele>
        <time>2012-08-06T15:50:11Z</time>
      </trkpt>
      <trkpt lat="61.6454879846" lon="8.58013593592">
        <ele>2112.63</ele>
        <time>2012-08-06T15:50:15Z</time>
      </trkpt>
      <trkpt lat="61.6453960352" lon="8.58033299446">
        <ele>2109.27</ele>
        <time>2012-08-06T15:50:26Z</time>
      </trkpt>
      <trkpt lat="61.6453340091" lon="8.58047691174">
        <ele>2107.35</ele>
        <time>2012-08-06T15:50:33Z</time>
      </trkpt>
      <trkpt lat="61.6452994756" lon="8.58053650707">
        <ele>2105.42</ele>
        <time>2012-08-06T15:50:37Z</time>
      </trkpt>
      <trkpt lat="61.6452119686" lon="8.58074110933">
        <ele>2102.06</ele>
        <time>2012-08-06T15:50:47Z</time>
      </trkpt>
      <trkpt lat="61.6451947019" lon="8.58077731915">
        <ele>2101.58</ele>
        <time>2012-08-06T15:50:49Z</time>
      </trkpt>
      <trkpt lat="61.6451277304" lon="8.5809567757">
        <ele>2099.66</ele>
        <time>2012-08-06T15:50:56Z</time>
      </trkpt>
      <trkpt lat="61.6450517904" lon="8.58110756613">
        <ele>2095.33</ele>
        <time>2012-08-06T15:51:05Z</time>
      </trkpt>
      <trkpt lat="61.6450413968" lon="8.58113220893">
        <ele>2095.81</ele>
        <time>2012-08-06T15:51:06Z</time>
      </trkpt>
      <trkpt lat="61.6449756827" lon="8.5812509805">
        <ele>2093.41</ele>
        <time>2012-08-06T15:51:13Z</time>
      </trkpt>
      <trkpt lat="61.6449302528" lon="8.58130957">
        <ele>2092.45</ele>
        <time>2012-08-06T15:51:17Z</time>
      </trkpt>
      <trkpt lat="61.6448232159" lon="8.58147528023">
        <ele>2089.08</ele>
        <time>2012-08-06T15:51:27Z</time>
      </trkpt>
      <trkpt lat="61.6448116489" lon="8.5814932175">
        <ele>2089.08</ele>
        <time>2012-08-06T15:51:28Z</time>
      </trkpt>
      <trkpt lat="61.6447209567" lon="8.58164526522">
        <ele>2086.2</ele>
        <time>2012-08-06T15:51:37Z</time>
      </trkpt>
      <trkpt lat="61.6446116567" lon="8.58177635819">
        <ele>2083.79</ele>
        <time>2012-08-06T15:51:46Z</time>
      </trkpt>
      <trkpt lat="61.6444974113" lon="8.58190552332">
        <ele>2079.95</ele>
        <time>2012-08-06T15:51:58Z</time>
      </trkpt>
      <trkpt lat="61.6443983372" lon="8.58197383583">
        <ele>2077.07</ele>
        <time>2012-08-06T15:52:07Z</time>
      </trkpt>
      <trkpt lat="61.6443249118" lon="8.58207508922">
        <ele>2074.66</ele>
        <time>2012-08-06T15:52:13Z</time>
      </trkpt>
      <trkpt lat="61.6442271788" lon="8.58222722076">
        <ele>2071.3</ele>
        <time>2012-08-06T15:52:23Z</time>
      </trkpt>
      <trkpt lat="61.6442000214" lon="8.5822630953">
        <ele>2071.78</ele>
        <time>2012-08-06T15:52:26Z</time>
      </trkpt>
      <trkpt lat="61.644147886" lon="8.58237667009">
        <ele>2068.41</ele>
        <time>2012-08-06T15:52:39Z</time>
      </trkpt>
      <trkpt lat="61.6441633087" lon="8.58236300759">
        <ele>2068.41</ele>
        <time>2012-08-06T15:53:07Z</time>
      </trkpt>
      <trkpt lat="61.6441632248" lon="8.58235546388">
        <ele>2067.93</ele>
        <time>2012-08-06T15:53:23Z</time>
      </trkpt>
      <trkpt lat="61.6441607941" lon="8.58235931955">
        <ele>2069.38</ele>
        <time>2012-08-06T15:53:25Z</time>
      </trkpt>
      <trkpt lat="61.6441596206" lon="8.5823709704">
        <ele>2067.45</ele>
        <time>2012-08-06T15:53:36Z</time>
      </trkpt>
      <trkpt lat="61.644158531" lon="8.5823705513">
        <ele>2071.78</ele>
        <time>2012-08-06T15:53:38Z</time>
      </trkpt>
      <trkpt lat="61.644155262" lon="8.58239921741">
        <ele>2068.89</ele>
        <time>2012-08-06T15:53:44Z</time>
      </trkpt>
      <trkpt lat="61.6441439465" lon="8.58240089379">
        <ele>2068.41</ele>
        <time>2012-08-06T15:54:11Z</time>
      </trkpt>
      <trkpt lat="61.6441312898" lon="8.58241790906">
        <ele>2069.38</ele>
        <time>2012-08-06T15:54:34Z</time>
      </trkpt>
      <trkpt lat="61.6441333853" lon="8.58241179027">
        <ele>2068.41</ele>
        <time>2012-08-06T15:55:01Z</time>
      </trkpt>
      <trkpt lat="61.6441395041" lon="8.58240634203">
        <ele>2069.38</ele>
        <time>2012-08-06T15:55:36Z</time>
      </trkpt>
      <trkpt lat="61.64414973" lon="8.58240407892">
        <ele>2069.38</ele>
        <time>2012-08-06T15:56:06Z</time>
      </trkpt>
      <trkpt lat="61.6441396717" lon="8.58240634203">
        <ele>2068.89</ele>
        <time>2012-08-06T15:56:36Z</time>
      </trkpt>
      <trkpt lat="61.6441481374" lon="8.58238538727">
        <ele>2068.89</ele>
        <time>2012-08-06T15:56:58Z</time>
      </trkpt>
      <trkpt lat="61.6441431921" lon="8.58240248635">
        <ele>2069.38</ele>
        <time>2012-08-06T15:57:28Z</time>
      </trkpt>
      <trkpt lat="61.6441362351" lon="8.58240382746">
        <ele>2069.38</ele>
        <time>2012-08-06T15:57:56Z</time>
      </trkpt>
      <trkpt lat="61.644082088" lon="8.58255176805">
        <ele>2066.97</ele>
        <time>2012-08-06T15:58:18Z</time>
      </trkpt>
      <trkpt lat="61.644048309" lon="8.58262795955">
        <ele>2065.53</ele>
        <time>2012-08-06T15:58:21Z</time>
      </trkpt>
      <trkpt lat="61.6440256778" lon="8.58274287544">
        <ele>2064.09</ele>
        <time>2012-08-06T15:58:26Z</time>
      </trkpt>
      <trkpt lat="61.644005226" lon="8.58278444968">
        <ele>2063.13</ele>
        <time>2012-08-06T15:58:28Z</time>
      </trkpt>
      <trkpt lat="61.6439430322" lon="8.58299978077">
        <ele>2058.8</ele>
        <time>2012-08-06T15:58:37Z</time>
      </trkpt>
      <trkpt lat="61.6439457983" lon="8.58302291483">
        <ele>2058.32</ele>
        <time>2012-08-06T15:58:39Z</time>
      </trkpt>
      <trkpt lat="61.6439426132" lon="8.58302886598">
        <ele>2056.88</ele>
        <time>2012-08-06T15:58:40Z</time>
      </trkpt>
      <trkpt lat="61.6438916512" lon="8.58316264115">
        <ele>2055.44</ele>
        <time>2012-08-06T15:58:46Z</time>
      </trkpt>
      <trkpt lat="61.6438256018" lon="8.58328551985">
        <ele>2053.03</ele>
        <time>2012-08-06T15:58:54Z</time>
      </trkpt>
      <trkpt lat="61.6437927447" lon="8.58334301971">
        <ele>2051.59</ele>
        <time>2012-08-06T15:58:58Z</time>
      </trkpt>
      <trkpt lat="61.6437508352" lon="8.58344594948">
        <ele>2048.23</ele>
        <time>2012-08-06T15:59:04Z</time>
      </trkpt>
      <trkpt lat="61.6437417828" lon="8.5834420938">
        <ele>2049.67</ele>
        <time>2012-08-06T15:59:10Z</time>
      </trkpt>
      <trkpt lat="61.6437308863" lon="8.58346749097">
        <ele>2046.3</ele>
        <time>2012-08-06T15:59:12Z</time>
      </trkpt>
      <trkpt lat="61.6437318921" lon="8.58343471773">
        <ele>2047.26</ele>
        <time>2012-08-06T15:59:28Z</time>
      </trkpt>
      <trkpt lat="61.6437450517" lon="8.58346430585">
        <ele>2047.75</ele>
        <time>2012-08-06T15:59:56Z</time>
      </trkpt>
      <trkpt lat="61.643674057" lon="8.58355994336">
        <ele>2044.38</ele>
        <time>2012-08-06T16:00:02Z</time>
      </trkpt>
      <trkpt lat="61.6436605621" lon="8.58360311016">
        <ele>2044.38</ele>
        <time>2012-08-06T16:00:06Z</time>
      </trkpt>
      <trkpt lat="61.6436282918" lon="8.58362649567">
        <ele>2041.5</ele>
        <time>2012-08-06T16:00:17Z</time>
      </trkpt>
      <trkpt lat="61.643552687" lon="8.58378432691">
        <ele>2039.09</ele>
        <time>2012-08-06T16:00:25Z</time>
      </trkpt>
      <trkpt lat="61.6434756573" lon="8.58398213983">
        <ele>2034.77</ele>
        <time>2012-08-06T16:00:34Z</time>
      </trkpt>
      <trkpt lat="61.6434457339" lon="8.58405279927">
        <ele>2032.84</ele>
        <time>2012-08-06T16:00:38Z</time>
      </trkpt>
      <trkpt lat="61.643390581" lon="8.58418288641">
        <ele>2031.4</ele>
        <time>2012-08-06T16:00:44Z</time>
      </trkpt>
      <trkpt lat="61.6433556285" lon="8.58424063772">
        <ele>2029.48</ele>
        <time>2012-08-06T16:00:48Z</time>
      </trkpt>
      <trkpt lat="61.6433230229" lon="8.58431490138">
        <ele>2027.56</ele>
        <time>2012-08-06T16:00:52Z</time>
      </trkpt>
      <trkpt lat="61.6432525311" lon="8.58446636237">
        <ele>2024.67</ele>
        <time>2012-08-06T16:01:00Z</time>
      </trkpt>
      <trkpt lat="61.6431762557" lon="8.58465177007">
        <ele>2021.31</ele>
        <time>2012-08-06T16:01:09Z</time>
      </trkpt>
      <trkpt lat="61.6431634314" lon="8.5847082641">
        <ele>2020.83</ele>
        <time>2012-08-06T16:01:11Z</time>
      </trkpt>
      <trkpt lat="61.6431110445" lon="8.58485218138">
        <ele>2018.91</ele>
        <time>2012-08-06T16:01:17Z</time>
      </trkpt>
      <trkpt lat="61.6430419777" lon="8.58501160517">
        <ele>2015.54</ele>
        <time>2012-08-06T16:01:25Z</time>
      </trkpt>
      <trkpt lat="61.6429829691" lon="8.58516155742">
        <ele>2012.66</ele>
        <time>2012-08-06T16:01:32Z</time>
      </trkpt>
      <trkpt lat="61.6429756768" lon="8.58517220244">
        <ele>2012.66</ele>
        <time>2012-08-06T16:01:33Z</time>
      </trkpt>
      <trkpt lat="61.6429462563" lon="8.5852478072">
        <ele>2011.22</ele>
        <time>2012-08-06T16:01:37Z</time>
      </trkpt>
      <trkpt lat="61.6428895947" lon="8.5853658244">
        <ele>2009.29</ele>
        <time>2012-08-06T16:01:42Z</time>
      </trkpt>
      <trkpt lat="61.6428015847" lon="8.58558811247">
        <ele>2005.93</ele>
        <time>2012-08-06T16:01:49Z</time>
      </trkpt>
      <trkpt lat="61.6427519638" lon="8.58567142859">
        <ele>2003.52</ele>
        <time>2012-08-06T16:01:59Z</time>
      </trkpt>
      <trkpt lat="61.6427150834" lon="8.58574250713">
        <ele>2002.08</ele>
        <time>2012-08-06T16:02:01Z</time>
      </trkpt>
      <trkpt lat="61.6426828969" lon="8.58583152294">
        <ele>1999.68</ele>
        <time>2012-08-06T16:02:08Z</time>
      </trkpt>
      <trkpt lat="61.6426600982" lon="8.58588868752">
        <ele>1999.2</ele>
        <time>2012-08-06T16:02:22Z</time>
      </trkpt>
      <trkpt lat="61.64263051" lon="8.58597368002">
        <ele>1998.24</ele>
        <time>2012-08-06T16:02:35Z</time>
      </trkpt>
      <trkpt lat="61.6425600182" lon="8.5861105565">
        <ele>1994.39</ele>
        <time>2012-08-06T16:02:43Z</time>
      </trkpt>
      <trkpt lat="61.6425491218" lon="8.58612061478">
        <ele>1994.39</ele>
        <time>2012-08-06T16:02:44Z</time>
      </trkpt>
      <trkpt lat="61.6425057873" lon="8.58619395643">
        <ele>1992.95</ele>
        <time>2012-08-06T16:02:48Z</time>
      </trkpt>
      <trkpt lat="61.6424456891" lon="8.58631239273">
        <ele>1989.59</ele>
        <time>2012-08-06T16:02:54Z</time>
      </trkpt>
      <trkpt lat="61.6424326971" lon="8.58633200638">
        <ele>1990.07</ele>
        <time>2012-08-06T16:03:06Z</time>
      </trkpt>
      <trkpt lat="61.6423705034" lon="8.58643284068">
        <ele>1986.22</ele>
        <time>2012-08-06T16:03:13Z</time>
      </trkpt>
      <trkpt lat="61.6423267499" lon="8.58655630611">
        <ele>1984.3</ele>
        <time>2012-08-06T16:03:20Z</time>
      </trkpt>
      <trkpt lat="61.6423206311" lon="8.58656510711">
        <ele>1984.78</ele>
        <time>2012-08-06T16:03:21Z</time>
      </trkpt>
      <trkpt lat="61.6423004307" lon="8.58658103272">
        <ele>1984.3</ele>
        <time>2012-08-06T16:03:41Z</time>
      </trkpt>
      <trkpt lat="61.6422944795" lon="8.58657591976">
        <ele>1982.38</ele>
        <time>2012-08-06T16:03:57Z</time>
      </trkpt>
      <trkpt lat="61.6422184557" lon="8.58678027056">
        <ele>1979.97</ele>
        <time>2012-08-06T16:04:07Z</time>
      </trkpt>
      <trkpt lat="61.6421920527" lon="8.5867667757">
        <ele>1980.45</ele>
        <time>2012-08-06T16:04:20Z</time>
      </trkpt>
      <trkpt lat="61.642178474" lon="8.58687884174">
        <ele>1977.57</ele>
        <time>2012-08-06T16:04:26Z</time>
      </trkpt>
      <trkpt lat="61.6421699245" lon="8.58693600632">
        <ele>1977.09</ele>
        <time>2012-08-06T16:04:40Z</time>
      </trkpt>
      <trkpt lat="61.6421612911" lon="8.58695201576">
        <ele>1977.09</ele>
        <time>2012-08-06T16:05:10Z</time>
      </trkpt>
      <trkpt lat="61.6421276797" lon="8.58702317812">
        <ele>1975.65</ele>
        <time>2012-08-06T16:05:24Z</time>
      </trkpt>
      <trkpt lat="61.6420654021" lon="8.58718989417">
        <ele>1971.8</ele>
        <time>2012-08-06T16:05:30Z</time>
      </trkpt>
      <trkpt lat="61.6419913899" lon="8.58732685447">
        <ele>1967.96</ele>
        <time>2012-08-06T16:05:37Z</time>
      </trkpt>
      <trkpt lat="61.6419395059" lon="8.58742626384">
        <ele>1966.99</ele>
        <time>2012-08-06T16:05:43Z</time>
      </trkpt>
      <trkpt lat="61.6419153661" lon="8.5875177104">
        <ele>1964.11</ele>
        <time>2012-08-06T16:05:49Z</time>
      </trkpt>
      <trkpt lat="61.6418531723" lon="8.58763036318">
        <ele>1963.15</ele>
        <time>2012-08-06T16:05:55Z</time>
      </trkpt>
      <trkpt lat="61.641847305" lon="8.58766456135">
        <ele>1961.71</ele>
        <time>2012-08-06T16:06:12Z</time>
      </trkpt>
      <trkpt lat="61.6418237519" lon="8.58773522079">
        <ele>1961.23</ele>
        <time>2012-08-06T16:06:19Z</time>
      </trkpt>
      <trkpt lat="61.6418163758" lon="8.58776807785">
        <ele>1960.27</ele>
        <time>2012-08-06T16:06:21Z</time>
      </trkpt>
      <trkpt lat="61.641790811" lon="8.58780948445">
        <ele>1959.78</ele>
        <time>2012-08-06T16:06:24Z</time>
      </trkpt>
      <trkpt lat="61.6417312156" lon="8.58792213723">
        <ele>1956.42</ele>
        <time>2012-08-06T16:06:33Z</time>
      </trkpt>
      <trkpt lat="61.6416955926" lon="8.58795859851">
        <ele>1955.46</ele>
        <time>2012-08-06T16:06:46Z</time>
      </trkpt>
      <trkpt lat="61.6417090036" lon="8.5880109854">
        <ele>1954.98</ele>
        <time>2012-08-06T16:07:11Z</time>
      </trkpt>
      <trkpt lat="61.6416985262" lon="8.58798877336">
        <ele>1953.54</ele>
        <time>2012-08-06T16:07:23Z</time>
      </trkpt>
      <trkpt lat="61.6416468099" lon="8.58808080666">
        <ele>1952.57</ele>
        <time>2012-08-06T16:07:28Z</time>
      </trkpt>
      <trkpt lat="61.6415455565" lon="8.58827115968">
        <ele>1949.21</ele>
        <time>2012-08-06T16:07:36Z</time>
      </trkpt>
      <trkpt lat="61.6415320616" lon="8.58828901313">
        <ele>1948.73</ele>
        <time>2012-08-06T16:07:37Z</time>
      </trkpt>
      <trkpt lat="61.6414814349" lon="8.58836914413">
        <ele>1945.85</ele>
        <time>2012-08-06T16:07:45Z</time>
      </trkpt>
      <trkpt lat="61.6414771602" lon="8.58837576583">
        <ele>1946.33</ele>
        <time>2012-08-06T16:07:46Z</time>
      </trkpt>
      <trkpt lat="61.6414180677" lon="8.58847676776">
        <ele>1942.96</ele>
        <time>2012-08-06T16:07:58Z</time>
      </trkpt>
      <trkpt lat="61.6413948499" lon="8.58851498924">
        <ele>1942</ele>
        <time>2012-08-06T16:08:16Z</time>
      </trkpt>
      <trkpt lat="61.6413898207" lon="8.58852848411">
        <ele>1942.96</ele>
        <time>2012-08-06T16:08:18Z</time>
      </trkpt>
      <trkpt lat="61.6413730569" lon="8.58860962093">
        <ele>1941.04</ele>
        <time>2012-08-06T16:08:22Z</time>
      </trkpt>
      <trkpt lat="61.6413029004" lon="8.58874842525">
        <ele>1938.64</ele>
        <time>2012-08-06T16:08:29Z</time>
      </trkpt>
      <trkpt lat="61.6412823647" lon="8.58883291483">
        <ele>1936.71</ele>
        <time>2012-08-06T16:08:33Z</time>
      </trkpt>
      <trkpt lat="61.6412381921" lon="8.58895059675">
        <ele>1933.83</ele>
        <time>2012-08-06T16:08:39Z</time>
      </trkpt>
      <trkpt lat="61.64122805" lon="8.58896853402">
        <ele>1934.31</ele>
        <time>2012-08-06T16:08:40Z</time>
      </trkpt>
      <trkpt lat="61.6411830392" lon="8.58906081878">
        <ele>1930.95</ele>
        <time>2012-08-06T16:08:45Z</time>
      </trkpt>
      <trkpt lat="61.6411771718" lon="8.58908504248">
        <ele>1933.83</ele>
        <time>2012-08-06T16:08:46Z</time>
      </trkpt>
      <trkpt lat="61.6411340889" lon="8.58916718513">
        <ele>1929.5</ele>
        <time>2012-08-06T16:08:50Z</time>
      </trkpt>
      <trkpt lat="61.6411202587" lon="8.58920892701">
        <ele>1928.54</ele>
        <time>2012-08-06T16:08:52Z</time>
      </trkpt>
      <trkpt lat="61.6411042493" lon="8.58927564695">
        <ele>1927.58</ele>
        <time>2012-08-06T16:08:55Z</time>
      </trkpt>
      <trkpt lat="61.6410665307" lon="8.58940229751">
        <ele>1925.18</ele>
        <time>2012-08-06T16:09:01Z</time>
      </trkpt>
      <trkpt lat="61.6409819573" lon="8.58957479708">
        <ele>1921.81</ele>
        <time>2012-08-06T16:09:10Z</time>
      </trkpt>
      <trkpt lat="61.6409517825" lon="8.58961234801">
        <ele>1920.85</ele>
        <time>2012-08-06T16:09:12Z</time>
      </trkpt>
      <trkpt lat="61.6408752557" lon="8.58974771574">
        <ele>1916.53</ele>
        <time>2012-08-06T16:09:17Z</time>
      </trkpt>
      <trkpt lat="61.6408581566" lon="8.58983631246">
        <ele>1915.56</ele>
        <time>2012-08-06T16:09:27Z</time>
      </trkpt>
      <trkpt lat="61.6408045962" lon="8.5899919644">
        <ele>1911.72</ele>
        <time>2012-08-06T16:09:36Z</time>
      </trkpt>
      <trkpt lat="61.6407429893" lon="8.59009388834">
        <ele>1911.24</ele>
        <time>2012-08-06T16:09:42Z</time>
      </trkpt>
      <trkpt lat="61.6406700667" lon="8.59027669765">
        <ele>1907.87</ele>
        <time>2012-08-06T16:09:52Z</time>
      </trkpt>
      <trkpt lat="61.6406025924" lon="8.59045699239">
        <ele>1904.03</ele>
        <time>2012-08-06T16:10:01Z</time>
      </trkpt>
      <trkpt lat="61.6405865829" lon="8.59048498794">
        <ele>1903.07</ele>
        <time>2012-08-06T16:10:03Z</time>
      </trkpt>
      <trkpt lat="61.6405196954" lon="8.59060250223">
        <ele>1901.63</ele>
        <time>2012-08-06T16:10:10Z</time>
      </trkpt>
      <trkpt lat="61.6404782049" lon="8.59069017693">
        <ele>1900.18</ele>
        <time>2012-08-06T16:10:17Z</time>
      </trkpt>
      <trkpt lat="61.6404262371" lon="8.59076896682">
        <ele>1898.74</ele>
        <time>2012-08-06T16:10:24Z</time>
      </trkpt>
      <trkpt lat="61.6403425019" lon="8.59097692184">
        <ele>1895.86</ele>
        <time>2012-08-06T16:10:35Z</time>
      </trkpt>
      <trkpt lat="61.6403106507" lon="8.59105747193">
        <ele>1893.45</ele>
        <time>2012-08-06T16:10:40Z</time>
      </trkpt>
      <trkpt lat="61.6402840801" lon="8.59114162624">
        <ele>1890.57</ele>
        <time>2012-08-06T16:10:45Z</time>
      </trkpt>
      <trkpt lat="61.6402708367" lon="8.59115797095">
        <ele>1892.49</ele>
        <time>2012-08-06T16:10:47Z</time>
      </trkpt>
      <trkpt lat="61.6402458586" lon="8.59123265371">
        <ele>1890.09</ele>
        <time>2012-08-06T16:10:55Z</time>
      </trkpt>
      <trkpt lat="61.6401856765" lon="8.59136709943">
        <ele>1888.17</ele>
        <time>2012-08-06T16:11:03Z</time>
      </trkpt>
      <trkpt lat="61.6401203815" lon="8.59157337807">
        <ele>1884.32</ele>
        <time>2012-08-06T16:11:15Z</time>
      </trkpt>
      <trkpt lat="61.640094649" lon="8.59162827954">
        <ele>1882.88</ele>
        <time>2012-08-06T16:11:30Z</time>
      </trkpt>
      <trkpt lat="61.640087273" lon="8.59162551351">
        <ele>1882.88</ele>
        <time>2012-08-06T16:11:59Z</time>
      </trkpt>
      <trkpt lat="61.6400506441" lon="8.591566002">
        <ele>1882.4</ele>
        <time>2012-08-06T16:12:22Z</time>
      </trkpt>
      <trkpt lat="61.6400420107" lon="8.59155938029">
        <ele>1882.88</ele>
        <time>2012-08-06T16:12:46Z</time>
      </trkpt>
      <trkpt lat="61.6400375683" lon="8.59159424901">
        <ele>1883.84</ele>
        <time>2012-08-06T16:13:09Z</time>
      </trkpt>
      <trkpt lat="61.6400244087" lon="8.59164588153">
        <ele>1882.88</ele>
        <time>2012-08-06T16:13:14Z</time>
      </trkpt>
      <trkpt lat="61.640018709" lon="8.59165610746">
        <ele>1879.51</ele>
        <time>2012-08-06T16:13:23Z</time>
      </trkpt>
      <trkpt lat="61.6400193796" lon="8.59166046605">
        <ele>1886.24</ele>
        <time>2012-08-06T16:13:24Z</time>
      </trkpt>
      <trkpt lat="61.6400180385" lon="8.59166717157">
        <ele>1884.8</ele>
        <time>2012-08-06T16:13:25Z</time>
      </trkpt>
      <trkpt lat="61.6400102433" lon="8.59168955125">
        <ele>1883.36</ele>
        <time>2012-08-06T16:13:47Z</time>
      </trkpt>
      <trkpt lat="61.6400149371" lon="8.59168024734">
        <ele>1883.36</ele>
        <time>2012-08-06T16:14:10Z</time>
      </trkpt>
      <trkpt lat="61.640004795" lon="8.59166457318">
        <ele>1883.84</ele>
        <time>2012-08-06T16:14:26Z</time>
      </trkpt>
      <trkpt lat="61.6399937309" lon="8.59163029119">
        <ele>1883.36</ele>
        <time>2012-08-06T16:14:56Z</time>
      </trkpt>
      <trkpt lat="61.6399905458" lon="8.59162165783">
        <ele>1883.84</ele>
        <time>2012-08-06T16:15:31Z</time>
      </trkpt>
      <trkpt lat="61.6399940662" lon="8.59162718989">
        <ele>1883.36</ele>
        <time>2012-08-06T16:15:55Z</time>
      </trkpt>
      <trkpt lat="61.63998954" lon="8.59162710607">
        <ele>1883.84</ele>
        <time>2012-08-06T16:16:21Z</time>
      </trkpt>
      <trkpt lat="61.640035389" lon="8.59173062257">
        <ele>1883.84</ele>
        <time>2012-08-06T16:16:41Z</time>
      </trkpt>
      <trkpt lat="61.6400254983" lon="8.59168686904">
        <ele>1883.36</ele>
        <time>2012-08-06T16:17:00Z</time>
      </trkpt>
      <trkpt lat="61.6400120035" lon="8.59168879688">
        <ele>1877.11</ele>
        <time>2012-08-06T16:17:19Z</time>
      </trkpt>
      <trkpt lat="61.6400291864" lon="8.59168175608">
        <ele>1888.17</ele>
        <time>2012-08-06T16:17:20Z</time>
      </trkpt>
      <trkpt lat="61.6400306113" lon="8.59167555347">
        <ele>1884.32</ele>
        <time>2012-08-06T16:17:21Z</time>
      </trkpt>
      <trkpt lat="61.6400330421" lon="8.59168083407">
        <ele>1883.36</ele>
        <time>2012-08-06T16:17:23Z</time>
      </trkpt>
      <trkpt lat="61.6400354728" lon="8.59169290401">
        <ele>1883.84</ele>
        <time>2012-08-06T16:17:38Z</time>
      </trkpt>
      <trkpt lat="61.6399762128" lon="8.59188761562">
        <ele>1880.96</ele>
        <time>2012-08-06T16:17:48Z</time>
      </trkpt>
      <trkpt lat="61.6399716865" lon="8.59190924093">
        <ele>1880.96</ele>
        <time>2012-08-06T16:17:49Z</time>
      </trkpt>
      <trkpt lat="61.6399441939" lon="8.59200395644">
        <ele>1879.51</ele>
        <time>2012-08-06T16:17:53Z</time>
      </trkpt>
      <trkpt lat="61.6399289388" lon="8.59204486012">
        <ele>1878.55</ele>
        <time>2012-08-06T16:17:55Z</time>
      </trkpt>
      <trkpt lat="61.6399084032" lon="8.59209959395">
        <ele>1877.59</ele>
        <time>2012-08-06T16:17:58Z</time>
      </trkpt>
      <trkpt lat="61.6398315411" lon="8.59233143739">
        <ele>1873.75</ele>
        <time>2012-08-06T16:18:08Z</time>
      </trkpt>
      <trkpt lat="61.6398088261" lon="8.59238030389">
        <ele>1875.19</ele>
        <time>2012-08-06T16:18:10Z</time>
      </trkpt>
      <trkpt lat="61.6397192236" lon="8.59265397303">
        <ele>1870.38</ele>
        <time>2012-08-06T16:18:23Z</time>
      </trkpt>
      <trkpt lat="61.6396681778" lon="8.59279562719">
        <ele>1869.42</ele>
        <time>2012-08-06T16:18:30Z</time>
      </trkpt>
      <trkpt lat="61.6396235023" lon="8.5928850621">
        <ele>1867.98</ele>
        <time>2012-08-06T16:18:36Z</time>
      </trkpt>
      <trkpt lat="61.6395401862" lon="8.59310592525">
        <ele>1865.58</ele>
        <time>2012-08-06T16:18:47Z</time>
      </trkpt>
      <trkpt lat="61.6395306308" lon="8.59314129688">
        <ele>1864.13</ele>
        <time>2012-08-06T16:18:49Z</time>
      </trkpt>
      <trkpt lat="61.6394225881" lon="8.59339694493">
        <ele>1861.73</ele>
        <time>2012-08-06T16:19:02Z</time>
      </trkpt>
      <trkpt lat="61.6393808462" lon="8.59348939732">
        <ele>1860.29</ele>
        <time>2012-08-06T16:19:12Z</time>
      </trkpt>
      <trkpt lat="61.6393251903" lon="8.59359827824">
        <ele>1859.81</ele>
        <time>2012-08-06T16:19:18Z</time>
      </trkpt>
      <trkpt lat="61.6392667685" lon="8.59368285164">
        <ele>1856.44</ele>
        <time>2012-08-06T16:19:25Z</time>
      </trkpt>
      <trkpt lat="61.6392505076" lon="8.59372543171">
        <ele>1857.89</ele>
        <time>2012-08-06T16:19:28Z</time>
      </trkpt>
      <trkpt lat="61.6392083466" lon="8.59378946945">
        <ele>1853.56</ele>
        <time>2012-08-06T16:19:37Z</time>
      </trkpt>
      <trkpt lat="61.639202144" lon="8.59380656853">
        <ele>1857.89</ele>
        <time>2012-08-06T16:19:38Z</time>
      </trkpt>
      <trkpt lat="61.6391761601" lon="8.59385694377">
        <ele>1855.96</ele>
        <time>2012-08-06T16:19:41Z</time>
      </trkpt>
      <trkpt lat="61.6391691193" lon="8.59388594516">
        <ele>1855.96</ele>
        <time>2012-08-06T16:19:43Z</time>
      </trkpt>
      <trkpt lat="61.6390864737" lon="8.59406657517">
        <ele>1852.12</ele>
        <time>2012-08-06T16:19:55Z</time>
      </trkpt>
      <trkpt lat="61.6390811093" lon="8.59408141114">
        <ele>1852.12</ele>
        <time>2012-08-06T16:19:56Z</time>
      </trkpt>
      <trkpt lat="61.638999721" lon="8.59431836754">
        <ele>1850.68</ele>
        <time>2012-08-06T16:20:07Z</time>
      </trkpt>
      <trkpt lat="61.6389063466" lon="8.59453923069">
        <ele>1847.79</ele>
        <time>2012-08-06T16:20:20Z</time>
      </trkpt>
      <trkpt lat="61.6388673708" lon="8.59460762702">
        <ele>1846.83</ele>
        <time>2012-08-06T16:20:25Z</time>
      </trkpt>
      <trkpt lat="61.6388462484" lon="8.5946564097">
        <ele>1846.35</ele>
        <time>2012-08-06T16:20:28Z</time>
      </trkpt>
      <trkpt lat="61.6387718171" lon="8.59489554539">
        <ele>1843.47</ele>
        <time>2012-08-06T16:20:40Z</time>
      </trkpt>
      <trkpt lat="61.6387265548" lon="8.5951840505">
        <ele>1840.58</ele>
        <time>2012-08-06T16:20:52Z</time>
      </trkpt>
      <trkpt lat="61.6387097072" lon="8.59524993226">
        <ele>1839.62</ele>
        <time>2012-08-06T16:20:55Z</time>
      </trkpt>
      <trkpt lat="61.6386626009" lon="8.59530466609">
        <ele>1839.14</ele>
        <time>2012-08-06T16:21:08Z</time>
      </trkpt>
      <trkpt lat="61.6386669595" lon="8.59534297138">
        <ele>1838.66</ele>
        <time>2012-08-06T16:21:39Z</time>
      </trkpt>
      <trkpt lat="61.6386605054" lon="8.59536509961">
        <ele>1835.77</ele>
        <time>2012-08-06T16:21:41Z</time>
      </trkpt>
      <trkpt lat="61.6386369523" lon="8.59544062056">
        <ele>1837.7</ele>
        <time>2012-08-06T16:21:45Z</time>
      </trkpt>
      <trkpt lat="61.6386289895" lon="8.59548110515">
        <ele>1837.22</ele>
        <time>2012-08-06T16:21:47Z</time>
      </trkpt>
      <trkpt lat="61.6385835595" lon="8.59563197941">
        <ele>1835.77</ele>
        <time>2012-08-06T16:21:55Z</time>
      </trkpt>
      <trkpt lat="61.6385534685" lon="8.59577656724">
        <ele>1831.93</ele>
        <time>2012-08-06T16:22:02Z</time>
      </trkpt>
      <trkpt lat="61.6385442484" lon="8.59581805766">
        <ele>1833.85</ele>
        <time>2012-08-06T16:22:04Z</time>
      </trkpt>
      <trkpt lat="61.6384737566" lon="8.59602861106">
        <ele>1830.97</ele>
        <time>2012-08-06T16:22:15Z</time>
      </trkpt>
      <trkpt lat="61.6383808013" lon="8.59632415697">
        <ele>1828.56</ele>
        <time>2012-08-06T16:22:29Z</time>
      </trkpt>
      <trkpt lat="61.638297569" lon="8.59662540257">
        <ele>1826.64</ele>
        <time>2012-08-06T16:22:43Z</time>
      </trkpt>
      <trkpt lat="61.6382373869" lon="8.59677108005">
        <ele>1824.72</ele>
        <time>2012-08-06T16:22:52Z</time>
      </trkpt>
      <trkpt lat="61.6381872632" lon="8.59690711834">
        <ele>1823.28</ele>
        <time>2012-08-06T16:23:06Z</time>
      </trkpt>
      <trkpt lat="61.638120627" lon="8.5971038416">
        <ele>1822.32</ele>
        <time>2012-08-06T16:23:26Z</time>
      </trkpt>
      <trkpt lat="61.638049297" lon="8.59738471918">
        <ele>1819.91</ele>
        <time>2012-08-06T16:23:32Z</time>
      </trkpt>
      <trkpt lat="61.638044687" lon="8.597420929">
        <ele>1818.95</ele>
        <time>2012-08-06T16:23:35Z</time>
      </trkpt>
      <trkpt lat="61.637954833" lon="8.59752729535">
        <ele>1817.99</ele>
        <time>2012-08-06T16:23:50Z</time>
      </trkpt>
      <trkpt lat="61.6379437689" lon="8.59755629674">
        <ele>1817.99</ele>
        <time>2012-08-06T16:23:53Z</time>
      </trkpt>
      <trkpt lat="61.6379301902" lon="8.59757959843">
        <ele>1817.51</ele>
        <time>2012-08-06T16:23:56Z</time>
      </trkpt>
      <trkpt lat="61.6379189584" lon="8.59767431393">
        <ele>1817.03</ele>
        <time>2012-08-06T16:24:02Z</time>
      </trkpt>
      <trkpt lat="61.6378718521" lon="8.59789769165">
        <ele>1814.63</ele>
        <time>2012-08-06T16:24:13Z</time>
      </trkpt>
      <trkpt lat="61.6378311999" lon="8.59798519872">
        <ele>1813.18</ele>
        <time>2012-08-06T16:24:18Z</time>
      </trkpt>
      <trkpt lat="61.6377182119" lon="8.59820446931">
        <ele>1811.74</ele>
        <time>2012-08-06T16:24:31Z</time>
      </trkpt>
      <trkpt lat="61.6376678366" lon="8.59829901718">
        <ele>1811.74</ele>
        <time>2012-08-06T16:24:46Z</time>
      </trkpt>
      <trkpt lat="61.6376636457" lon="8.5982713569">
        <ele>1812.22</ele>
        <time>2012-08-06T16:25:03Z</time>
      </trkpt>
      <trkpt lat="61.6375758871" lon="8.59848299995">
        <ele>1809.82</ele>
        <time>2012-08-06T16:25:17Z</time>
      </trkpt>
      <trkpt lat="61.6375291161" lon="8.59862557612">
        <ele>1808.86</ele>
        <time>2012-08-06T16:25:41Z</time>
      </trkpt>
      <trkpt lat="61.6374350712" lon="8.59886781313">
        <ele>1807.42</ele>
        <time>2012-08-06T16:25:54Z</time>
      </trkpt>
      <trkpt lat="61.6373264417" lon="8.59906621277">
        <ele>1805.49</ele>
        <time>2012-08-06T16:26:07Z</time>
      </trkpt>
      <trkpt lat="61.6372074187" lon="8.59932454303">
        <ele>1803.57</ele>
        <time>2012-08-06T16:26:23Z</time>
      </trkpt>
      <trkpt lat="61.6370750684" lon="8.59962495044">
        <ele>1800.69</ele>
        <time>2012-08-06T16:26:38Z</time>
      </trkpt>
      <trkpt lat="61.6369300615" lon="8.59992032871">
        <ele>1797.8</ele>
        <time>2012-08-06T16:26:54Z</time>
      </trkpt>
      <trkpt lat="61.6368226055" lon="8.60013104975">
        <ele>1794.44</ele>
        <time>2012-08-06T16:27:07Z</time>
      </trkpt>
      <trkpt lat="61.6366722342" lon="8.60034545884">
        <ele>1793.48</ele>
        <time>2012-08-06T16:27:20Z</time>
      </trkpt>
      <trkpt lat="61.636574585" lon="8.60051217489">
        <ele>1790.11</ele>
        <time>2012-08-06T16:27:30Z</time>
      </trkpt>
      <trkpt lat="61.6365621798" lon="8.60054142773">
        <ele>1791.07</ele>
        <time>2012-08-06T16:27:32Z</time>
      </trkpt>
      <trkpt lat="61.6365229525" lon="8.60060588457">
        <ele>1789.63</ele>
        <time>2012-08-06T16:27:36Z</time>
      </trkpt>
      <trkpt lat="61.6364001576" lon="8.60085994005">
        <ele>1787.23</ele>
        <time>2012-08-06T16:27:49Z</time>
      </trkpt>
      <trkpt lat="61.6362711601" lon="8.60105297528">
        <ele>1784.34</ele>
        <time>2012-08-06T16:28:03Z</time>
      </trkpt>
      <trkpt lat="61.6361380555" lon="8.60126470216">
        <ele>1784.34</ele>
        <time>2012-08-06T16:28:17Z</time>
      </trkpt>
      <trkpt lat="61.6361265723" lon="8.60129462555">
        <ele>1783.38</ele>
        <time>2012-08-06T16:28:19Z</time>
      </trkpt>
      <trkpt lat="61.6360888537" lon="8.60131784342">
        <ele>1783.86</ele>
        <time>2012-08-06T16:28:22Z</time>
      </trkpt>
      <trkpt lat="61.6360357963" lon="8.60135807656">
        <ele>1781.46</ele>
        <time>2012-08-06T16:28:25Z</time>
      </trkpt>
      <trkpt lat="61.635983577" lon="8.60141071491">
        <ele>1781.46</ele>
        <time>2012-08-06T16:28:29Z</time>
      </trkpt>
      <trkpt lat="61.6358258296" lon="8.60156326555">
        <ele>1780.5</ele>
        <time>2012-08-06T16:28:45Z</time>
      </trkpt>
      <trkpt lat="61.6357965767" lon="8.60157910734">
        <ele>1778.58</ele>
        <time>2012-08-06T16:28:48Z</time>
      </trkpt>
      <trkpt lat="61.6357041243" lon="8.60175152309">
        <ele>1778.1</ele>
        <time>2012-08-06T16:29:00Z</time>
      </trkpt>
      <trkpt lat="61.6356957424" lon="8.60176929273">
        <ele>1778.1</ele>
        <time>2012-08-06T16:29:01Z</time>
      </trkpt>
      <trkpt lat="61.6355856881" lon="8.60190927051">
        <ele>1776.17</ele>
        <time>2012-08-06T16:29:15Z</time>
      </trkpt>
      <trkpt lat="61.635455098" lon="8.60210314393">
        <ele>1774.25</ele>
        <time>2012-08-06T16:29:30Z</time>
      </trkpt>
      <trkpt lat="61.6354427766" lon="8.60211781226">
        <ele>1773.29</ele>
        <time>2012-08-06T16:29:32Z</time>
      </trkpt>
      <trkpt lat="61.6353551857" lon="8.60219894908">
        <ele>1771.85</ele>
        <time>2012-08-06T16:29:40Z</time>
      </trkpt>
      <trkpt lat="61.6351859551" lon="8.60237622634">
        <ele>1769.44</ele>
        <time>2012-08-06T16:29:55Z</time>
      </trkpt>
      <trkpt lat="61.6350981127" lon="8.60245082527">
        <ele>1767.52</ele>
        <time>2012-08-06T16:30:03Z</time>
      </trkpt>
      <trkpt lat="61.6349348333" lon="8.60255040228">
        <ele>1764.16</ele>
        <time>2012-08-06T16:30:17Z</time>
      </trkpt>
      <trkpt lat="61.6348741483" lon="8.60256616026">
        <ele>1763.2</ele>
        <time>2012-08-06T16:30:21Z</time>
      </trkpt>
      <trkpt lat="61.6348592285" lon="8.60256833956">
        <ele>1762.71</ele>
        <time>2012-08-06T16:30:22Z</time>
      </trkpt>
      <trkpt lat="61.6347774211" lon="8.60263355076">
        <ele>1760.79</ele>
        <time>2012-08-06T16:30:28Z</time>
      </trkpt>
      <trkpt lat="61.6347388644" lon="8.60264981166">
        <ele>1759.35</ele>
        <time>2012-08-06T16:30:31Z</time>
      </trkpt>
      <trkpt lat="61.6346912552" lon="8.60268602148">
        <ele>1758.39</ele>
        <time>2012-08-06T16:30:35Z</time>
      </trkpt>
      <trkpt lat="61.6346303187" lon="8.6026892066">
        <ele>1753.1</ele>
        <time>2012-08-06T16:30:48Z</time>
      </trkpt>
      <trkpt lat="61.6346320789" lon="8.60268903896">
        <ele>1759.83</ele>
        <time>2012-08-06T16:30:49Z</time>
      </trkpt>
      <trkpt lat="61.6346322466" lon="8.6026896257">
        <ele>1755.99</ele>
        <time>2012-08-06T16:30:50Z</time>
      </trkpt>
      <trkpt lat="61.6346322466" lon="8.60270077363">
        <ele>1755.99</ele>
        <time>2012-08-06T16:31:13Z</time>
      </trkpt>
      <trkpt lat="61.6346077714" lon="8.60271141864">
        <ele>1755.99</ele>
        <time>2012-08-06T16:31:33Z</time>
      </trkpt>
      <trkpt lat="61.6346347611" lon="8.60270312056">
        <ele>1755.99</ele>
        <time>2012-08-06T16:31:59Z</time>
      </trkpt>
      <trkpt lat="61.6346495133" lon="8.6026843451">
        <ele>1756.47</ele>
        <time>2012-08-06T16:32:23Z</time>
      </trkpt>
      <trkpt lat="61.6346507706" lon="8.60268518329">
        <ele>1755.99</ele>
        <time>2012-08-06T16:32:46Z</time>
      </trkpt>
      <trkpt lat="61.634655213" lon="8.60269306228">
        <ele>1755.5</ele>
        <time>2012-08-06T16:33:07Z</time>
      </trkpt>
      <trkpt lat="61.6346511059" lon="8.60267671756">
        <ele>1755.99</ele>
        <time>2012-08-06T16:33:29Z</time>
      </trkpt>
      <trkpt lat="61.6346352641" lon="8.6027085688">
        <ele>1755.99</ele>
        <time>2012-08-06T16:33:50Z</time>
      </trkpt>
      <trkpt lat="61.6346342582" lon="8.60271066427">
        <ele>1756.47</ele>
        <time>2012-08-06T16:34:10Z</time>
      </trkpt>
      <trkpt lat="61.6346471664" lon="8.60271669924">
        <ele>1755.99</ele>
        <time>2012-08-06T16:34:31Z</time>
      </trkpt>
      <trkpt lat="61.6346546263" lon="8.60271636397">
        <ele>1754.54</ele>
        <time>2012-08-06T16:34:38Z</time>
      </trkpt>
      <trkpt lat="61.6346564703" lon="8.60271451995">
        <ele>1761.27</ele>
        <time>2012-08-06T16:34:39Z</time>
      </trkpt>
      <trkpt lat="61.6346554644" lon="8.60271150246">
        <ele>1755.99</ele>
        <time>2012-08-06T16:34:40Z</time>
      </trkpt>
      <trkpt lat="61.6346448194" lon="8.60270253383">
        <ele>1756.47</ele>
        <time>2012-08-06T16:34:56Z</time>
      </trkpt>
      <trkpt lat="61.6346635111" lon="8.60270672478">
        <ele>1751.66</ele>
        <time>2012-08-06T16:35:19Z</time>
      </trkpt>
      <trkpt lat="61.6346625052" lon="8.60270949081">
        <ele>1759.83</ele>
        <time>2012-08-06T16:35:20Z</time>
      </trkpt>
      <trkpt lat="61.6346336715" lon="8.60268451273">
        <ele>1756.47</ele>
        <time>2012-08-06T16:35:23Z</time>
      </trkpt>
      <trkpt lat="61.6346253734" lon="8.60266104341">
        <ele>1755.5</ele>
        <time>2012-08-06T16:35:24Z</time>
      </trkpt>
      <trkpt lat="61.6344479285" lon="8.60242073424">
        <ele>1752.14</ele>
        <time>2012-08-06T16:35:38Z</time>
      </trkpt>
      <trkpt lat="61.634341646" lon="8.60220448114">
        <ele>1750.22</ele>
        <time>2012-08-06T16:35:50Z</time>
      </trkpt>
      <trkpt lat="61.6343002394" lon="8.6021783296">
        <ele>1748.29</ele>
        <time>2012-08-06T16:35:59Z</time>
      </trkpt>
      <trkpt lat="61.6342198569" lon="8.60223415308">
        <ele>1746.37</ele>
        <time>2012-08-06T16:36:05Z</time>
      </trkpt>
      <trkpt lat="61.6341747623" lon="8.60228595324">
        <ele>1744.45</ele>
        <time>2012-08-06T16:36:08Z</time>
      </trkpt>
      <trkpt lat="61.6340779513" lon="8.60235929489">
        <ele>1741.08</ele>
        <time>2012-08-06T16:36:15Z</time>
      </trkpt>
      <trkpt lat="61.6340424959" lon="8.6023756396">
        <ele>1739.64</ele>
        <time>2012-08-06T16:36:17Z</time>
      </trkpt>
      <trkpt lat="61.6339908633" lon="8.60242727213">
        <ele>1737.24</ele>
        <time>2012-08-06T16:36:21Z</time>
      </trkpt>
      <trkpt lat="61.6338955611" lon="8.60247412696">
        <ele>1733.39</ele>
        <time>2012-08-06T16:36:27Z</time>
      </trkpt>
      <trkpt lat="61.6337982472" lon="8.60257102177">
        <ele>1730.03</ele>
        <time>2012-08-06T16:36:33Z</time>
      </trkpt>
      <trkpt lat="61.6337718442" lon="8.60260488465">
        <ele>1729.55</ele>
        <time>2012-08-06T16:36:35Z</time>
      </trkpt>
      <trkpt lat="61.6337388195" lon="8.60262684524">
        <ele>1728.11</ele>
        <time>2012-08-06T16:36:37Z</time>
      </trkpt>
      <trkpt lat="61.6336486302" lon="8.60270848498">
        <ele>1724.74</ele>
        <time>2012-08-06T16:36:43Z</time>
      </trkpt>
      <trkpt lat="61.6336062178" lon="8.60274209641">
        <ele>1722.82</ele>
        <time>2012-08-06T16:36:46Z</time>
      </trkpt>
      <trkpt lat="61.633529691" lon="8.60280755907">
        <ele>1719.94</ele>
        <time>2012-08-06T16:36:51Z</time>
      </trkpt>
      <trkpt lat="61.63344495" lon="8.60287302174">
        <ele>1716.57</ele>
        <time>2012-08-06T16:36:56Z</time>
      </trkpt>
      <trkpt lat="61.6333975922" lon="8.60288660042">
        <ele>1715.13</ele>
        <time>2012-08-06T16:36:59Z</time>
      </trkpt>
      <trkpt lat="61.6333819181" lon="8.60289154574">
        <ele>1714.17</ele>
        <time>2012-08-06T16:37:00Z</time>
      </trkpt>
      <trkpt lat="61.6333549283" lon="8.60292607918">
        <ele>1712.73</ele>
        <time>2012-08-06T16:37:03Z</time>
      </trkpt>
      <trkpt lat="61.6333388351" lon="8.60296463594">
        <ele>1711.76</ele>
        <time>2012-08-06T16:37:05Z</time>
      </trkpt>
      <trkpt lat="61.6333057266" lon="8.60300109722">
        <ele>1709.84</ele>
        <time>2012-08-06T16:37:08Z</time>
      </trkpt>
      <trkpt lat="61.6332779825" lon="8.60302808695">
        <ele>1707.44</ele>
        <time>2012-08-06T16:37:12Z</time>
      </trkpt>
      <trkpt lat="61.6332586203" lon="8.60306253657">
        <ele>1707.44</ele>
        <time>2012-08-06T16:37:15Z</time>
      </trkpt>
      <trkpt lat="61.6332475562" lon="8.60310025513">
        <ele>1707.44</ele>
        <time>2012-08-06T16:37:33Z</time>
      </trkpt>
      <trkpt lat="61.6332266852" lon="8.60309212469">
        <ele>1706.96</ele>
        <time>2012-08-06T16:37:39Z</time>
      </trkpt>
      <trkpt lat="61.6331085842" lon="8.60313780606">
        <ele>1704.07</ele>
        <time>2012-08-06T16:37:47Z</time>
      </trkpt>
      <trkpt lat="61.6329969373" lon="8.60322413966">
        <ele>1701.19</ele>
        <time>2012-08-06T16:37:55Z</time>
      </trkpt>
      <trkpt lat="61.632875232" lon="8.60337266698">
        <ele>1697.83</ele>
        <time>2012-08-06T16:38:05Z</time>
      </trkpt>
      <trkpt lat="61.6328519303" lon="8.60340476967">
        <ele>1696.86</ele>
        <time>2012-08-06T16:38:07Z</time>
      </trkpt>
      <trkpt lat="61.6328177322" lon="8.60345154069">
        <ele>1695.9</ele>
        <time>2012-08-06T16:38:11Z</time>
      </trkpt>
      <trkpt lat="61.63268907" lon="8.60361448489">
        <ele>1691.58</ele>
        <time>2012-08-06T16:38:23Z</time>
      </trkpt>
      <trkpt lat="61.6325329989" lon="8.60383627005">
        <ele>1688.21</ele>
        <time>2012-08-06T16:38:37Z</time>
      </trkpt>
      <trkpt lat="61.6324640159" lon="8.60399024561">
        <ele>1686.29</ele>
        <time>2012-08-06T16:38:44Z</time>
      </trkpt>
      <trkpt lat="61.6323784366" lon="8.60419099219">
        <ele>1683.89</ele>
        <time>2012-08-06T16:38:55Z</time>
      </trkpt>
      <trkpt lat="61.6323558893" lon="8.60433524475">
        <ele>1682.93</ele>
        <time>2012-08-06T16:39:04Z</time>
      </trkpt>
      <trkpt lat="61.6323403828" lon="8.60440297052">
        <ele>1680.52</ele>
        <time>2012-08-06T16:39:09Z</time>
      </trkpt>
      <trkpt lat="61.6321732476" lon="8.6045416072">
        <ele>1679.08</ele>
        <time>2012-08-06T16:39:25Z</time>
      </trkpt>
      <trkpt lat="61.6320388857" lon="8.60457999632">
        <ele>1675.72</ele>
        <time>2012-08-06T16:39:36Z</time>
      </trkpt>
      <trkpt lat="61.6319460981" lon="8.60459114425">
        <ele>1672.83</ele>
        <time>2012-08-06T16:39:47Z</time>
      </trkpt>
      <trkpt lat="61.6319292504" lon="8.60458586365">
        <ele>1672.35</ele>
        <time>2012-08-06T16:40:09Z</time>
      </trkpt>
      <trkpt lat="61.6319326032" lon="8.60459089279">
        <ele>1672.83</ele>
        <time>2012-08-06T16:40:41Z</time>
      </trkpt>
      <trkpt lat="61.6319186054" lon="8.60455594026">
        <ele>1672.35</ele>
        <time>2012-08-06T16:41:06Z</time>
      </trkpt>
      <trkpt lat="61.6318117362" lon="8.60452936962">
        <ele>1670.43</ele>
        <time>2012-08-06T16:41:29Z</time>
      </trkpt>
      <trkpt lat="61.6316782963" lon="8.60440799966">
        <ele>1667.06</ele>
        <time>2012-08-06T16:41:37Z</time>
      </trkpt>
      <trkpt lat="61.6316256579" lon="8.60440724529">
        <ele>1664.18</ele>
        <time>2012-08-06T16:41:40Z</time>
      </trkpt>
      <trkpt lat="61.631610319" lon="8.60440447927">
        <ele>1664.18</ele>
        <time>2012-08-06T16:41:41Z</time>
      </trkpt>
      <trkpt lat="61.6315244045" lon="8.60441990197">
        <ele>1661.3</ele>
        <time>2012-08-06T16:41:49Z</time>
      </trkpt>
      <trkpt lat="61.6314980015" lon="8.60443951562">
        <ele>1660.33</ele>
        <time>2012-08-06T16:41:57Z</time>
      </trkpt>
      <trkpt lat="61.6314233188" lon="8.60452149063">
        <ele>1656.97</ele>
        <time>2012-08-06T16:42:04Z</time>
      </trkpt>
      <trkpt lat="61.6314171162" lon="8.60457144678">
        <ele>1656.49</ele>
        <time>2012-08-06T16:42:21Z</time>
      </trkpt>
      <trkpt lat="61.6313349735" lon="8.60458443873">
        <ele>1652.64</ele>
        <time>2012-08-06T16:42:29Z</time>
      </trkpt>
      <trkpt lat="61.6313246638" lon="8.60458997078">
        <ele>1652.64</ele>
        <time>2012-08-06T16:42:30Z</time>
      </trkpt>
      <trkpt lat="61.6312726121" lon="8.60461913981">
        <ele>1649.28</ele>
        <time>2012-08-06T16:42:35Z</time>
      </trkpt>
      <trkpt lat="61.6312543396" lon="8.60460053198">
        <ele>1649.76</ele>
        <time>2012-08-06T16:42:58Z</time>
      </trkpt>
      <trkpt lat="61.6311780643" lon="8.60465660691">
        <ele>1646.4</ele>
        <time>2012-08-06T16:43:05Z</time>
      </trkpt>
      <trkpt lat="61.6311308742" lon="8.60478417948">
        <ele>1643.51</ele>
        <time>2012-08-06T16:43:11Z</time>
      </trkpt>
      <trkpt lat="61.6310452949" lon="8.60487294383">
        <ele>1639.67</ele>
        <time>2012-08-06T16:43:17Z</time>
      </trkpt>
      <trkpt lat="61.6309527587" lon="8.60495701432">
        <ele>1636.78</ele>
        <time>2012-08-06T16:43:23Z</time>
      </trkpt>
      <trkpt lat="61.6309260204" lon="8.60499003902">
        <ele>1635.34</ele>
        <time>2012-08-06T16:43:25Z</time>
      </trkpt>
      <trkpt lat="61.6308684368" lon="8.60507469624">
        <ele>1631.49</ele>
        <time>2012-08-06T16:43:32Z</time>
      </trkpt>
      <trkpt lat="61.6308281198" lon="8.60511769541">
        <ele>1630.05</ele>
        <time>2012-08-06T16:43:36Z</time>
      </trkpt>
      <trkpt lat="61.6307923291" lon="8.60516111366">
        <ele>1628.13</ele>
        <time>2012-08-06T16:43:40Z</time>
      </trkpt>
      <trkpt lat="61.6307580471" lon="8.60520419665">
        <ele>1625.73</ele>
        <time>2012-08-06T16:43:43Z</time>
      </trkpt>
      <trkpt lat="61.6307177301" lon="8.60524895601">
        <ele>1624.28</ele>
        <time>2012-08-06T16:43:47Z</time>
      </trkpt>
      <trkpt lat="61.6306868847" lon="8.60530318692">
        <ele>1621.88</ele>
        <time>2012-08-06T16:43:52Z</time>
      </trkpt>
      <trkpt lat="61.6306736413" lon="8.60527871177">
        <ele>1621.4</ele>
        <time>2012-08-06T16:44:10Z</time>
      </trkpt>
      <trkpt lat="61.63063257" lon="8.60535976477">
        <ele>1619</ele>
        <time>2012-08-06T16:44:15Z</time>
      </trkpt>
      <trkpt lat="61.6305847093" lon="8.60542883165">
        <ele>1615.15</ele>
        <time>2012-08-06T16:44:20Z</time>
      </trkpt>
      <trkpt lat="61.6305579711" lon="8.60547275282">
        <ele>1613.71</ele>
        <time>2012-08-06T16:44:24Z</time>
      </trkpt>
      <trkpt lat="61.6304785945" lon="8.60554785468">
        <ele>1609.86</ele>
        <time>2012-08-06T16:44:30Z</time>
      </trkpt>
      <trkpt lat="61.6304659378" lon="8.60556327738">
        <ele>1609.86</ele>
        <time>2012-08-06T16:44:31Z</time>
      </trkpt>
      <trkpt lat="61.6304526944" lon="8.60558632761">
        <ele>1609.38</ele>
        <time>2012-08-06T16:44:32Z</time>
      </trkpt>
      <trkpt lat="61.6304193344" lon="8.60565287992">
        <ele>1606.98</ele>
        <time>2012-08-06T16:44:35Z</time>
      </trkpt>
      <trkpt lat="61.630412126" lon="8.60565237701">
        <ele>1607.94</ele>
        <time>2012-08-06T16:44:46Z</time>
      </trkpt>
      <trkpt lat="61.6304329131" lon="8.60568732955">
        <ele>1606.98</ele>
        <time>2012-08-06T16:45:15Z</time>
      </trkpt>
      <trkpt lat="61.6304391157" lon="8.60569420271">
        <ele>1607.46</ele>
        <time>2012-08-06T16:45:37Z</time>
      </trkpt>
      <trkpt lat="61.6304207593" lon="8.605687581">
        <ele>1606.98</ele>
        <time>2012-08-06T16:45:52Z</time>
      </trkpt>
      <trkpt lat="61.6304013133" lon="8.60564600676">
        <ele>1606.02</ele>
        <time>2012-08-06T16:45:57Z</time>
      </trkpt>
      <trkpt lat="61.6303655226" lon="8.60562806949">
        <ele>1604.58</ele>
        <time>2012-08-06T16:46:00Z</time>
      </trkpt>
      <trkpt lat="61.6303376947" lon="8.60563259572">
        <ele>1602.66</ele>
        <time>2012-08-06T16:46:03Z</time>
      </trkpt>
      <trkpt lat="61.630245829" lon="8.60567794181">
        <ele>1599.29</ele>
        <time>2012-08-06T16:46:10Z</time>
      </trkpt>
      <trkpt lat="61.6301752534" lon="8.60570627265">
        <ele>1596.41</ele>
        <time>2012-08-06T16:46:20Z</time>
      </trkpt>
      <trkpt lat="61.6301308293" lon="8.60573368147">
        <ele>1594.48</ele>
        <time>2012-08-06T16:46:25Z</time>
      </trkpt>
      <trkpt lat="61.6301080305" lon="8.60578120686">
        <ele>1594</ele>
        <time>2012-08-06T16:46:27Z</time>
      </trkpt>
      <trkpt lat="61.630054554" lon="8.60587365925">
        <ele>1589.2</ele>
        <time>2012-08-06T16:46:33Z</time>
      </trkpt>
      <trkpt lat="61.6300468426" lon="8.60589226708">
        <ele>1589.2</ele>
        <time>2012-08-06T16:46:34Z</time>
      </trkpt>
      <trkpt lat="61.6300139017" lon="8.60595320351">
        <ele>1587.75</ele>
        <time>2012-08-06T16:46:37Z</time>
      </trkpt>
      <trkpt lat="61.6299716569" lon="8.60601472668">
        <ele>1586.31</ele>
        <time>2012-08-06T16:46:40Z</time>
      </trkpt>
      <trkpt lat="61.6299411468" lon="8.6060517747">
        <ele>1584.87</ele>
        <time>2012-08-06T16:46:43Z</time>
      </trkpt>
      <trkpt lat="61.6299045179" lon="8.60610877164">
        <ele>1582.47</ele>
        <time>2012-08-06T16:46:48Z</time>
      </trkpt>
      <trkpt lat="61.629896136" lon="8.60611815937">
        <ele>1582.47</ele>
        <time>2012-08-06T16:46:49Z</time>
      </trkpt>
      <trkpt lat="61.6298216209" lon="8.60624103807">
        <ele>1579.58</ele>
        <time>2012-08-06T16:47:03Z</time>
      </trkpt>
      <trkpt lat="61.62982204" lon="8.6062195804">
        <ele>1580.06</ele>
        <time>2012-08-06T16:47:24Z</time>
      </trkpt>
      <trkpt lat="61.6298196092" lon="8.60620164312">
        <ele>1580.54</ele>
        <time>2012-08-06T16:47:44Z</time>
      </trkpt>
      <trkpt lat="61.6298209503" lon="8.60619309358">
        <ele>1580.54</ele>
        <time>2012-08-06T16:47:53Z</time>
      </trkpt>
      <trkpt lat="61.6298274882" lon="8.60616828315">
        <ele>1576.22</ele>
        <time>2012-08-06T16:47:57Z</time>
      </trkpt>
      <trkpt lat="61.6298252251" lon="8.60616476275">
        <ele>1576.7</ele>
        <time>2012-08-06T16:47:58Z</time>
      </trkpt>
      <trkpt lat="61.6298243031" lon="8.60618110746">
        <ele>1584.39</ele>
        <time>2012-08-06T16:47:59Z</time>
      </trkpt>
      <trkpt lat="61.6298279073" lon="8.60617624596">
        <ele>1578.14</ele>
        <time>2012-08-06T16:48:00Z</time>
      </trkpt>
      <trkpt lat="61.6298256442" lon="8.60617968254">
        <ele>1581.51</ele>
        <time>2012-08-06T16:48:02Z</time>
      </trkpt>
      <trkpt lat="61.6298276559" lon="8.60615973361">
        <ele>1576.7</ele>
        <time>2012-08-06T16:48:05Z</time>
      </trkpt>
      <trkpt lat="61.62982204" lon="8.60616249964">
        <ele>1580.06</ele>
        <time>2012-08-06T16:48:06Z</time>
      </trkpt>
      <trkpt lat="61.629814161" lon="8.60616317019">
        <ele>1575.74</ele>
        <time>2012-08-06T16:48:10Z</time>
      </trkpt>
      <trkpt lat="61.6298159212" lon="8.60615948215">
        <ele>1577.18</ele>
        <time>2012-08-06T16:48:11Z</time>
      </trkpt>
      <trkpt lat="61.6298196092" lon="8.60615361482">
        <ele>1581.51</ele>
        <time>2012-08-06T16:48:13Z</time>
      </trkpt>
      <trkpt lat="61.6298221238" lon="8.60614934005">
        <ele>1579.58</ele>
        <time>2012-08-06T16:48:14Z</time>
      </trkpt>
      <trkpt lat="61.6298232134" lon="8.60614959151">
        <ele>1584.39</ele>
        <time>2012-08-06T16:48:16Z</time>
      </trkpt>
      <trkpt lat="61.6298304219" lon="8.6061504297">
        <ele>1575.26</ele>
        <time>2012-08-06T16:48:17Z</time>
      </trkpt>
      <trkpt lat="61.6298351157" lon="8.60615252517">
        <ele>1584.87</ele>
        <time>2012-08-06T16:48:18Z</time>
      </trkpt>
      <trkpt lat="61.6298409831" lon="8.60616920516">
        <ele>1581.03</ele>
        <time>2012-08-06T16:48:19Z</time>
      </trkpt>
      <trkpt lat="61.6298529692" lon="8.60619384795">
        <ele>1580.54</ele>
        <time>2012-08-06T16:48:37Z</time>
      </trkpt>
      <trkpt lat="61.6297808848" lon="8.60628160648">
        <ele>1579.58</ele>
        <time>2012-08-06T16:48:45Z</time>
      </trkpt>
      <trkpt lat="61.6297574993" lon="8.60633248463">
        <ele>1577.18</ele>
        <time>2012-08-06T16:48:49Z</time>
      </trkpt>
      <trkpt lat="61.6297572479" lon="8.60641990788">
        <ele>1577.66</ele>
        <time>2012-08-06T16:49:02Z</time>
      </trkpt>
      <trkpt lat="61.6297486145" lon="8.60639694147">
        <ele>1578.62</ele>
        <time>2012-08-06T16:49:25Z</time>
      </trkpt>
      <trkpt lat="61.6297341138" lon="8.6064080894">
        <ele>1578.14</ele>
        <time>2012-08-06T16:49:46Z</time>
      </trkpt>
      <trkpt lat="61.6297614388" lon="8.6064292118">
        <ele>1577.66</ele>
        <time>2012-08-06T16:49:59Z</time>
      </trkpt>
      <trkpt lat="61.6297580022" lon="8.60642099753">
        <ele>1574.3</ele>
        <time>2012-08-06T16:50:16Z</time>
      </trkpt>
      <trkpt lat="61.6297583375" lon="8.60642242245">
        <ele>1577.66</ele>
        <time>2012-08-06T16:50:17Z</time>
      </trkpt>
      <trkpt lat="61.6297801305" lon="8.60646173358">
        <ele>1575.26</ele>
        <time>2012-08-06T16:50:48Z</time>
      </trkpt>
      <trkpt lat="61.6297810525" lon="8.60646391287">
        <ele>1578.62</ele>
        <time>2012-08-06T16:50:49Z</time>
      </trkpt>
      <trkpt lat="61.6297771968" lon="8.60645678826">
        <ele>1573.82</ele>
        <time>2012-08-06T16:50:51Z</time>
      </trkpt>
      <trkpt lat="61.6297776159" lon="8.60645251349">
        <ele>1584.39</ele>
        <time>2012-08-06T16:50:52Z</time>
      </trkpt>
      <trkpt lat="61.6297787894" lon="8.60644966364">
        <ele>1578.62</ele>
        <time>2012-08-06T16:50:53Z</time>
      </trkpt>
      <trkpt lat="61.6297448426" lon="8.60644656233">
        <ele>1578.14</ele>
        <time>2012-08-06T16:51:09Z</time>
      </trkpt>
      <trkpt lat="61.6297413222" lon="8.6064111907">
        <ele>1578.14</ele>
        <time>2012-08-06T16:51:31Z</time>
      </trkpt>
      <trkpt lat="61.6297480278" lon="8.60640490428">
        <ele>1577.66</ele>
        <time>2012-08-06T16:51:53Z</time>
      </trkpt>
      <trkpt lat="61.629753476" lon="8.60640339553">
        <ele>1573.33</ele>
        <time>2012-08-06T16:52:07Z</time>
      </trkpt>
      <trkpt lat="61.629760433" lon="8.60640213825">
        <ele>1580.06</ele>
        <time>2012-08-06T16:52:08Z</time>
      </trkpt>
      <trkpt lat="61.6297454294" lon="8.60640297644">
        <ele>1576.7</ele>
        <time>2012-08-06T16:52:13Z</time>
      </trkpt>
      <trkpt lat="61.6297410708" lon="8.60640482046">
        <ele>1577.66</ele>
        <time>2012-08-06T16:52:34Z</time>
      </trkpt>
      <trkpt lat="61.6297423281" lon="8.60639886931">
        <ele>1577.66</ele>
        <time>2012-08-06T16:53:01Z</time>
      </trkpt>
      <trkpt lat="61.6297304258" lon="8.60639492981">
        <ele>1577.66</ele>
        <time>2012-08-06T16:53:20Z</time>
      </trkpt>
      <trkpt lat="61.6297265701" lon="8.606386967">
        <ele>1577.18</ele>
        <time>2012-08-06T16:53:48Z</time>
      </trkpt>
      <trkpt lat="61.6297432501" lon="8.6063891463">
        <ele>1576.7</ele>
        <time>2012-08-06T16:53:54Z</time>
      </trkpt>
      <trkpt lat="61.6297481954" lon="8.60639132559">
        <ele>1578.14</ele>
        <time>2012-08-06T16:53:56Z</time>
      </trkpt>
      <trkpt lat="61.6297552362" lon="8.60644513741">
        <ele>1577.18</ele>
        <time>2012-08-06T16:54:14Z</time>
      </trkpt>
      <trkpt lat="61.6297573317" lon="8.60644304194">
        <ele>1577.18</ele>
        <time>2012-08-06T16:54:51Z</time>
      </trkpt>
      <trkpt lat="61.6297439206" lon="8.60644413158">
        <ele>1578.14</ele>
        <time>2012-08-06T16:55:10Z</time>
      </trkpt>
      <trkpt lat="61.6297376342" lon="8.60649065115">
        <ele>1576.7</ele>
        <time>2012-08-06T16:55:35Z</time>
      </trkpt>
      <trkpt lat="61.629727995" lon="8.60652107745">
        <ele>1575.74</ele>
        <time>2012-08-06T16:56:04Z</time>
      </trkpt>
      <trkpt lat="61.6296819784" lon="8.60648629256">
        <ele>1576.22</ele>
        <time>2012-08-06T16:56:15Z</time>
      </trkpt>
      <trkpt lat="61.6296354588" lon="8.60652945936">
        <ele>1573.82</ele>
        <time>2012-08-06T16:56:23Z</time>
      </trkpt>
      <trkpt lat="61.629602937" lon="8.60654940829">
        <ele>1573.82</ele>
        <time>2012-08-06T16:56:28Z</time>
      </trkpt>
      <trkpt lat="61.6295824852" lon="8.60656407662">
        <ele>1572.37</ele>
        <time>2012-08-06T16:56:30Z</time>
      </trkpt>
      <trkpt lat="61.6295742709" lon="8.60656826757">
        <ele>1573.33</ele>
        <time>2012-08-06T16:56:31Z</time>
      </trkpt>
      <trkpt lat="61.629539486" lon="8.60660439357">
        <ele>1572.37</ele>
        <time>2012-08-06T16:56:42Z</time>
      </trkpt>
      <trkpt lat="61.6295205429" lon="8.60663649626">
        <ele>1571.41</ele>
        <time>2012-08-06T16:56:45Z</time>
      </trkpt>
      <trkpt lat="61.629405627" lon="8.60678636469">
        <ele>1569.97</ele>
        <time>2012-08-06T16:56:58Z</time>
      </trkpt>
      <trkpt lat="61.6293192096" lon="8.60688879155">
        <ele>1568.05</ele>
        <time>2012-08-06T16:57:07Z</time>
      </trkpt>
      <trkpt lat="61.6293191258" lon="8.606915446">
        <ele>1569.49</ele>
        <time>2012-08-06T16:57:09Z</time>
      </trkpt>
      <trkpt lat="61.6293237358" lon="8.60696598887">
        <ele>1569.01</ele>
        <time>2012-08-06T16:57:32Z</time>
      </trkpt>
      <trkpt lat="61.629305128" lon="8.60695500858">
        <ele>1568.53</ele>
        <time>2012-08-06T16:57:55Z</time>
      </trkpt>
      <trkpt lat="61.6293075588" lon="8.60694897361">
        <ele>1568.53</ele>
        <time>2012-08-06T16:57:58Z</time>
      </trkpt>
      <trkpt lat="61.6292493884" lon="8.60701435246">
        <ele>1567.57</ele>
        <time>2012-08-06T16:58:06Z</time>
      </trkpt>
      <trkpt lat="61.6292023659" lon="8.6071021948">
        <ele>1566.12</ele>
        <time>2012-08-06T16:58:11Z</time>
      </trkpt>
      <trkpt lat="61.629106896" lon="8.60728441738">
        <ele>1566.12</ele>
        <time>2012-08-06T16:58:23Z</time>
      </trkpt>
      <trkpt lat="61.6290669143" lon="8.60734853894">
        <ele>1564.68</ele>
        <time>2012-08-06T16:58:28Z</time>
      </trkpt>
      <trkpt lat="61.629025843" lon="8.60743076541">
        <ele>1564.68</ele>
        <time>2012-08-06T16:58:33Z</time>
      </trkpt>
      <trkpt lat="61.629012851" lon="8.60745750368">
        <ele>1563.72</ele>
        <time>2012-08-06T16:58:35Z</time>
      </trkpt>
      <trkpt lat="61.6289130226" lon="8.60754819587">
        <ele>1562.28</ele>
        <time>2012-08-06T16:58:50Z</time>
      </trkpt>
      <trkpt lat="61.6288613062" lon="8.60764928162">
        <ele>1560.84</ele>
        <time>2012-08-06T16:58:59Z</time>
      </trkpt>
      <trkpt lat="61.6287897248" lon="8.60782848671">
        <ele>1561.32</ele>
        <time>2012-08-06T16:59:12Z</time>
      </trkpt>
      <trkpt lat="61.6287826002" lon="8.60785312951">
        <ele>1559.88</ele>
        <time>2012-08-06T16:59:16Z</time>
      </trkpt>
      <trkpt lat="61.628706241" lon="8.60796796158">
        <ele>1558.43</ele>
        <time>2012-08-06T16:59:28Z</time>
      </trkpt>
      <trkpt lat="61.6286672652" lon="8.60801087692">
        <ele>1557.95</ele>
        <time>2012-08-06T16:59:40Z</time>
      </trkpt>
      <trkpt lat="61.6286301333" lon="8.6080164928">
        <ele>1556.03</ele>
        <time>2012-08-06T16:59:55Z</time>
      </trkpt>
      <trkpt lat="61.6285860445" lon="8.60810768791">
        <ele>1555.55</ele>
        <time>2012-08-06T17:00:06Z</time>
      </trkpt>
      <trkpt lat="61.6285644192" lon="8.60812436789">
        <ele>1553.63</ele>
        <time>2012-08-06T17:00:10Z</time>
      </trkpt>
      <trkpt lat="61.6285290476" lon="8.60814481974">
        <ele>1553.15</ele>
        <time>2012-08-06T17:00:28Z</time>
      </trkpt>
      <trkpt lat="61.6285117809" lon="8.60812914558">
        <ele>1552.19</ele>
        <time>2012-08-06T17:00:31Z</time>
      </trkpt>
      <trkpt lat="61.6284873895" lon="8.60811263323">
        <ele>1551.71</ele>
        <time>2012-08-06T17:00:35Z</time>
      </trkpt>
      <trkpt lat="61.6284205858" lon="8.60811271705">
        <ele>1550.26</ele>
        <time>2012-08-06T17:00:40Z</time>
      </trkpt>
      <trkpt lat="61.628412623" lon="8.60811447725">
        <ele>1554.11</ele>
        <time>2012-08-06T17:00:41Z</time>
      </trkpt>
      <trkpt lat="61.6284024809" lon="8.60812109895">
        <ele>1552.19</ele>
        <time>2012-08-06T17:00:42Z</time>
      </trkpt>
      <trkpt lat="61.6283731442" lon="8.60814205371">
        <ele>1550.74</ele>
        <time>2012-08-06T17:00:45Z</time>
      </trkpt>
      <trkpt lat="61.6283658519" lon="8.60815797932">
        <ele>1553.15</ele>
        <time>2012-08-06T17:00:47Z</time>
      </trkpt>
      <trkpt lat="61.6283437237" lon="8.60825336538">
        <ele>1551.71</ele>
        <time>2012-08-06T17:00:52Z</time>
      </trkpt>
      <trkpt lat="61.6283249483" lon="8.60830533318">
        <ele>1552.67</ele>
        <time>2012-08-06T17:00:56Z</time>
      </trkpt>
      <trkpt lat="61.6282570548" lon="8.60847003758">
        <ele>1549.78</ele>
        <time>2012-08-06T17:01:07Z</time>
      </trkpt>
      <trkpt lat="61.6282633413" lon="8.6085062474">
        <ele>1548.82</ele>
        <time>2012-08-06T17:01:09Z</time>
      </trkpt>
      <trkpt lat="61.6282221023" lon="8.60858738422">
        <ele>1548.82</ele>
        <time>2012-08-06T17:01:14Z</time>
      </trkpt>
      <trkpt lat="61.628163429" lon="8.60874387436">
        <ele>1547.38</ele>
        <time>2012-08-06T17:01:24Z</time>
      </trkpt>
      <trkpt lat="61.6281630099" lon="8.60879014246">
        <ele>1545.94</ele>
        <time>2012-08-06T17:01:26Z</time>
      </trkpt>
      <trkpt lat="61.6281479225" lon="8.60888619907">
        <ele>1545.94</ele>
        <time>2012-08-06T17:01:32Z</time>
      </trkpt>
      <trkpt lat="61.6281172447" lon="8.60895065591">
        <ele>1544.98</ele>
        <time>2012-08-06T17:01:36Z</time>
      </trkpt>
      <trkpt lat="61.6280946974" lon="8.60898502171">
        <ele>1544.98</ele>
        <time>2012-08-06T17:01:39Z</time>
      </trkpt>
      <trkpt lat="61.6280230321" lon="8.6091765482">
        <ele>1542.57</ele>
        <time>2012-08-06T17:01:52Z</time>
      </trkpt>
      <trkpt lat="61.6279731598" lon="8.60930923373">
        <ele>1542.09</ele>
        <time>2012-08-06T17:02:02Z</time>
      </trkpt>
      <trkpt lat="61.6278701462" lon="8.60947871581">
        <ele>1540.17</ele>
        <time>2012-08-06T17:02:16Z</time>
      </trkpt>
      <trkpt lat="61.6278126463" lon="8.60954568721">
        <ele>1538.25</ele>
        <time>2012-08-06T17:02:23Z</time>
      </trkpt>
      <trkpt lat="61.627795212" lon="8.60958600417">
        <ele>1538.25</ele>
        <time>2012-08-06T17:02:34Z</time>
      </trkpt>
      <trkpt lat="61.6277503688" lon="8.60961173661">
        <ele>1537.77</ele>
        <time>2012-08-06T17:02:39Z</time>
      </trkpt>
      <trkpt lat="61.6277343594" lon="8.60966253094">
        <ele>1538.25</ele>
        <time>2012-08-06T17:02:44Z</time>
      </trkpt>
      <trkpt lat="61.6277346946" lon="8.60967711546">
        <ele>1535.84</ele>
        <time>2012-08-06T17:03:02Z</time>
      </trkpt>
      <trkpt lat="61.6276983172" lon="8.6097336933">
        <ele>1536.32</ele>
        <time>2012-08-06T17:03:16Z</time>
      </trkpt>
      <trkpt lat="61.6276929528" lon="8.6096887663">
        <ele>1537.77</ele>
        <time>2012-08-06T17:03:40Z</time>
      </trkpt>
      <trkpt lat="61.6276621912" lon="8.60977602191">
        <ele>1537.77</ele>
        <time>2012-08-06T17:04:02Z</time>
      </trkpt>
      <trkpt lat="61.6276144143" lon="8.6099939514">
        <ele>1537.29</ele>
        <time>2012-08-06T17:04:11Z</time>
      </trkpt>
      <trkpt lat="61.6275791265" lon="8.61004801467">
        <ele>1535.36</ele>
        <time>2012-08-06T17:04:16Z</time>
      </trkpt>
      <trkpt lat="61.6274949722" lon="8.61025102437">
        <ele>1535.36</ele>
        <time>2012-08-06T17:04:27Z</time>
      </trkpt>
      <trkpt lat="61.6274217982" lon="8.61042344011">
        <ele>1534.4</ele>
        <time>2012-08-06T17:04:39Z</time>
      </trkpt>
      <trkpt lat="61.6274089739" lon="8.61044104211">
        <ele>1534.4</ele>
        <time>2012-08-06T17:04:41Z</time>
      </trkpt>
      <trkpt lat="61.6273743566" lon="8.61048278399">
        <ele>1533.92</ele>
        <time>2012-08-06T17:04:44Z</time>
      </trkpt>
      <trkpt lat="61.6272662301" lon="8.61066156998">
        <ele>1533.92</ele>
        <time>2012-08-06T17:04:57Z</time>
      </trkpt>
      <trkpt lat="61.6272389889" lon="8.61069794744">
        <ele>1532.48</ele>
        <time>2012-08-06T17:05:00Z</time>
      </trkpt>
      <trkpt lat="61.6271774657" lon="8.61082451418">
        <ele>1534.4</ele>
        <time>2012-08-06T17:05:12Z</time>
      </trkpt>
      <trkpt lat="61.6271400824" lon="8.61088394187">
        <ele>1532.96</ele>
        <time>2012-08-06T17:05:19Z</time>
      </trkpt>
      <trkpt lat="61.627087947" lon="8.61098569818">
        <ele>1532.96</ele>
        <time>2012-08-06T17:05:25Z</time>
      </trkpt>
      <trkpt lat="61.6269998532" lon="8.61123271286">
        <ele>1534.88</ele>
        <time>2012-08-06T17:05:39Z</time>
      </trkpt>
      <trkpt lat="61.6269803233" lon="8.611281747">
        <ele>1534.4</ele>
        <time>2012-08-06T17:05:42Z</time>
      </trkpt>
      <trkpt lat="61.6269257572" lon="8.61137947999">
        <ele>1535.36</ele>
        <time>2012-08-06T17:05:49Z</time>
      </trkpt>
      <trkpt lat="61.6269042995" lon="8.61142474227">
        <ele>1534.88</ele>
        <time>2012-08-06T17:06:02Z</time>
      </trkpt>
      <trkpt lat="61.6269248351" lon="8.61147000454">
        <ele>1533.92</ele>
        <time>2012-08-06T17:06:22Z</time>
      </trkpt>
      <trkpt lat="61.6269222368" lon="8.61148660071">
        <ele>1533.44</ele>
        <time>2012-08-06T17:06:50Z</time>
      </trkpt>
      <trkpt lat="61.6269174591" lon="8.61148056574">
        <ele>1533.44</ele>
        <time>2012-08-06T17:06:52Z</time>
      </trkpt>
      <trkpt lat="61.6268155351" lon="8.61159606837">
        <ele>1532</ele>
        <time>2012-08-06T17:07:06Z</time>
      </trkpt>
      <trkpt lat="61.6268111765" lon="8.6116120778">
        <ele>1532.48</ele>
        <time>2012-08-06T17:07:07Z</time>
      </trkpt>
      <trkpt lat="61.6267321352" lon="8.61176362261">
        <ele>1529.11</ele>
        <time>2012-08-06T17:07:19Z</time>
      </trkpt>
      <trkpt lat="61.62670766" lon="8.6118129082">
        <ele>1529.59</ele>
        <time>2012-08-06T17:07:22Z</time>
      </trkpt>
      <trkpt lat="61.6266711988" lon="8.61184827983">
        <ele>1530.08</ele>
        <time>2012-08-06T17:07:26Z</time>
      </trkpt>
      <trkpt lat="61.62663633" lon="8.6119080428">
        <ele>1529.11</ele>
        <time>2012-08-06T17:07:31Z</time>
      </trkpt>
      <trkpt lat="61.6265717056" lon="8.61214256845">
        <ele>1528.63</ele>
        <time>2012-08-06T17:07:43Z</time>
      </trkpt>
      <trkpt lat="61.6265607253" lon="8.61224113964">
        <ele>1528.15</ele>
        <time>2012-08-06T17:07:48Z</time>
      </trkpt>
      <trkpt lat="61.6265052371" lon="8.61245688982">
        <ele>1527.19</ele>
        <time>2012-08-06T17:07:59Z</time>
      </trkpt>
      <trkpt lat="61.6264656745" lon="8.6126197502">
        <ele>1527.67</ele>
        <time>2012-08-06T17:08:06Z</time>
      </trkpt>
      <trkpt lat="61.6263708752" lon="8.61279074103">
        <ele>1528.63</ele>
        <time>2012-08-06T17:08:18Z</time>
      </trkpt>
      <trkpt lat="61.6263614036" lon="8.61280809157">
        <ele>1528.15</ele>
        <time>2012-08-06T17:08:19Z</time>
      </trkpt>
      <trkpt lat="61.6263474897" lon="8.61285427585">
        <ele>1527.19</ele>
        <time>2012-08-06T17:08:21Z</time>
      </trkpt>
      <trkpt lat="61.6262655985" lon="8.61307782121">
        <ele>1528.63</ele>
        <time>2012-08-06T17:08:33Z</time>
      </trkpt>
      <trkpt lat="61.6261992976" lon="8.61332776956">
        <ele>1527.67</ele>
        <time>2012-08-06T17:08:46Z</time>
      </trkpt>
      <trkpt lat="61.6260960326" lon="8.61350202933">
        <ele>1527.19</ele>
        <time>2012-08-06T17:08:58Z</time>
      </trkpt>
      <trkpt lat="61.6259947792" lon="8.61366715282">
        <ele>1527.67</ele>
        <time>2012-08-06T17:09:09Z</time>
      </trkpt>
      <trkpt lat="61.6259795241" lon="8.61370059662">
        <ele>1527.19</ele>
        <time>2012-08-06T17:09:13Z</time>
      </trkpt>
      <trkpt lat="61.6259459127" lon="8.61377829686">
        <ele>1527.67</ele>
        <time>2012-08-06T17:09:17Z</time>
      </trkpt>
      <trkpt lat="61.6258514486" lon="8.61395901069">
        <ele>1527.67</ele>
        <time>2012-08-06T17:09:30Z</time>
      </trkpt>
      <trkpt lat="61.625816999" lon="8.61400494352">
        <ele>1526.71</ele>
        <time>2012-08-06T17:09:34Z</time>
      </trkpt>
      <trkpt lat="61.6257609241" lon="8.61409504898">
        <ele>1525.75</ele>
        <time>2012-08-06T17:09:40Z</time>
      </trkpt>
      <trkpt lat="61.6257268097" lon="8.61417844892">
        <ele>1525.27</ele>
        <time>2012-08-06T17:09:45Z</time>
      </trkpt>
      <trkpt lat="61.6257026698" lon="8.61423175782">
        <ele>1526.23</ele>
        <time>2012-08-06T17:09:49Z</time>
      </trkpt>
      <trkpt lat="61.6256931983" lon="8.61426201649">
        <ele>1526.23</ele>
        <time>2012-08-06T17:09:51Z</time>
      </trkpt>
      <trkpt lat="61.6256382968" lon="8.61442655325">
        <ele>1525.75</ele>
        <time>2012-08-06T17:10:02Z</time>
      </trkpt>
      <trkpt lat="61.6255932022" lon="8.61452721991">
        <ele>1524.31</ele>
        <time>2012-08-06T17:10:09Z</time>
      </trkpt>
      <trkpt lat="61.6255056951" lon="8.614742551">
        <ele>1524.31</ele>
        <time>2012-08-06T17:10:22Z</time>
      </trkpt>
      <trkpt lat="61.6254362091" lon="8.61488764174">
        <ele>1522.39</ele>
        <time>2012-08-06T17:10:33Z</time>
      </trkpt>
      <trkpt lat="61.625357084" lon="8.61502602696">
        <ele>1523.83</ele>
        <time>2012-08-06T17:10:44Z</time>
      </trkpt>
      <trkpt lat="61.6252666432" lon="8.61519861035">
        <ele>1521.42</ele>
        <time>2012-08-06T17:10:56Z</time>
      </trkpt>
      <trkpt lat="61.6252497118" lon="8.61523046158">
        <ele>1520.94</ele>
        <time>2012-08-06T17:10:58Z</time>
      </trkpt>
      <trkpt lat="61.6251657251" lon="8.61544252373">
        <ele>1520.46</ele>
        <time>2012-08-06T17:11:10Z</time>
      </trkpt>
      <trkpt lat="61.6251180321" lon="8.61553950235">
        <ele>1520.46</ele>
        <time>2012-08-06T17:11:17Z</time>
      </trkpt>
      <trkpt lat="61.6249987576" lon="8.61568149179">
        <ele>1519.98</ele>
        <time>2012-08-06T17:11:30Z</time>
      </trkpt>
      <trkpt lat="61.6248857696" lon="8.61580898054">
        <ele>1519.02</ele>
        <time>2012-08-06T17:11:42Z</time>
      </trkpt>
      <trkpt lat="61.6248783097" lon="8.61582566053">
        <ele>1518.06</ele>
        <time>2012-08-06T17:11:43Z</time>
      </trkpt>
      <trkpt lat="61.62481796" lon="8.61591836438">
        <ele>1517.1</ele>
        <time>2012-08-06T17:11:52Z</time>
      </trkpt>
      <trkpt lat="61.6247325484" lon="8.61607049592">
        <ele>1517.1</ele>
        <time>2012-08-06T17:12:04Z</time>
      </trkpt>
      <trkpt lat="61.6247234959" lon="8.61610704102">
        <ele>1515.18</ele>
        <time>2012-08-06T17:12:07Z</time>
      </trkpt>
      <trkpt lat="61.6247006133" lon="8.61620142125">
        <ele>1516.14</ele>
        <time>2012-08-06T17:12:11Z</time>
      </trkpt>
      <trkpt lat="61.6246814188" lon="8.61627291888">
        <ele>1515.66</ele>
        <time>2012-08-06T17:12:15Z</time>
      </trkpt>
      <trkpt lat="61.6246489808" lon="8.61637182534">
        <ele>1514.69</ele>
        <time>2012-08-06T17:12:20Z</time>
      </trkpt>
      <trkpt lat="61.6246044729" lon="8.61659754999">
        <ele>1514.69</ele>
        <time>2012-08-06T17:12:33Z</time>
      </trkpt>
      <trkpt lat="61.6245993599" lon="8.61661154777">
        <ele>1513.73</ele>
        <time>2012-08-06T17:12:34Z</time>
      </trkpt>
      <trkpt lat="61.62454932" lon="8.61673861742">
        <ele>1515.18</ele>
        <time>2012-08-06T17:12:42Z</time>
      </trkpt>
      <trkpt lat="61.6244960111" lon="8.61688144505">
        <ele>1514.21</ele>
        <time>2012-08-06T17:12:54Z</time>
      </trkpt>
      <trkpt lat="61.6244781576" lon="8.61694472842">
        <ele>1514.21</ele>
        <time>2012-08-06T17:12:58Z</time>
      </trkpt>
      <trkpt lat="61.6244256031" lon="8.61712678336">
        <ele>1515.18</ele>
        <time>2012-08-06T17:13:08Z</time>
      </trkpt>
      <trkpt lat="61.6243637446" lon="8.61740891822">
        <ele>1513.73</ele>
        <time>2012-08-06T17:13:21Z</time>
      </trkpt>
      <trkpt lat="61.6243468132" lon="8.61753322184">
        <ele>1512.29</ele>
        <time>2012-08-06T17:13:27Z</time>
      </trkpt>
      <trkpt lat="61.6242803447" lon="8.61767579801">
        <ele>1513.73</ele>
        <time>2012-08-06T17:13:37Z</time>
      </trkpt>
      <trkpt lat="61.6242265329" lon="8.61784075387">
        <ele>1514.21</ele>
        <time>2012-08-06T17:13:46Z</time>
      </trkpt>
      <trkpt lat="61.6241734754" lon="8.61801166087">
        <ele>1513.73</ele>
        <time>2012-08-06T17:13:54Z</time>
      </trkpt>
      <trkpt lat="61.62405462" lon="8.61828709021">
        <ele>1514.21</ele>
        <time>2012-08-06T17:14:10Z</time>
      </trkpt>
      <trkpt lat="61.624030564" lon="8.61842958257">
        <ele>1512.77</ele>
        <time>2012-08-06T17:14:16Z</time>
      </trkpt>
      <trkpt lat="61.6239949409" lon="8.61870274879">
        <ele>1513.25</ele>
        <time>2012-08-06T17:14:29Z</time>
      </trkpt>
      <trkpt lat="61.6239502653" lon="8.618956469">
        <ele>1510.37</ele>
        <time>2012-08-06T17:14:41Z</time>
      </trkpt>
      <trkpt lat="61.6239521094" lon="8.61899904907">
        <ele>1510.37</ele>
        <time>2012-08-06T17:14:43Z</time>
      </trkpt>
      <trkpt lat="61.6239519417" lon="8.61906099133">
        <ele>1510.85</ele>
        <time>2012-08-06T17:14:47Z</time>
      </trkpt>
      <trkpt lat="61.6239391174" lon="8.61918076873">
        <ele>1508.45</ele>
        <time>2012-08-06T17:14:52Z</time>
      </trkpt>
      <trkpt lat="61.623864267" lon="8.61941454001">
        <ele>1508.45</ele>
        <time>2012-08-06T17:15:05Z</time>
      </trkpt>
      <trkpt lat="61.6238525324" lon="8.61947053112">
        <ele>1510.37</ele>
        <time>2012-08-06T17:15:08Z</time>
      </trkpt>
      <trkpt lat="61.6238066833" lon="8.61969809979">
        <ele>1510.85</ele>
        <time>2012-08-06T17:15:20Z</time>
      </trkpt>
      <trkpt lat="61.6237592418" lon="8.61987998709">
        <ele>1507.97</ele>
        <time>2012-08-06T17:15:30Z</time>
      </trkpt>
      <trkpt lat="61.6237119678" lon="8.6201147642">
        <ele>1507.48</ele>
        <time>2012-08-06T17:15:42Z</time>
      </trkpt>
      <trkpt lat="61.6236794461" lon="8.62043646164">
        <ele>1507</ele>
        <time>2012-08-06T17:15:55Z</time>
      </trkpt>
      <trkpt lat="61.6236767638" lon="8.62058758736">
        <ele>1507.48</ele>
        <time>2012-08-06T17:16:03Z</time>
      </trkpt>
      <trkpt lat="61.6236730758" lon="8.62069185823">
        <ele>1507.48</ele>
        <time>2012-08-06T17:16:07Z</time>
      </trkpt>
      <trkpt lat="61.6236594971" lon="8.62099276856">
        <ele>1507</ele>
        <time>2012-08-06T17:16:20Z</time>
      </trkpt>
      <trkpt lat="61.6236449126" lon="8.62112721428">
        <ele>1505.08</ele>
        <time>2012-08-06T17:16:30Z</time>
      </trkpt>
      <trkpt lat="61.623603506" lon="8.62136794254">
        <ele>1503.64</ele>
        <time>2012-08-06T17:16:43Z</time>
      </trkpt>
      <trkpt lat="61.6236130614" lon="8.62150423229">
        <ele>1503.64</ele>
        <time>2012-08-06T17:16:57Z</time>
      </trkpt>
      <trkpt lat="61.6235957108" lon="8.62148562446">
        <ele>1502.68</ele>
        <time>2012-08-06T17:17:29Z</time>
      </trkpt>
      <trkpt lat="61.623607697" lon="8.62162719481">
        <ele>1502.68</ele>
        <time>2012-08-06T17:17:57Z</time>
      </trkpt>
      <trkpt lat="61.6236088704" lon="8.62183749676">
        <ele>1500.76</ele>
        <time>2012-08-06T17:18:07Z</time>
      </trkpt>
      <trkpt lat="61.6236237064" lon="8.62198862247">
        <ele>1501.24</ele>
        <time>2012-08-06T17:18:16Z</time>
      </trkpt>
      <trkpt lat="61.6236128937" lon="8.62215022556">
        <ele>1499.31</ele>
        <time>2012-08-06T17:18:25Z</time>
      </trkpt>
      <trkpt lat="61.6236166656" lon="8.6222318653">
        <ele>1500.27</ele>
        <time>2012-08-06T17:18:29Z</time>
      </trkpt>
      <trkpt lat="61.6235889215" lon="8.62238617614">
        <ele>1498.35</ele>
        <time>2012-08-06T17:18:42Z</time>
      </trkpt>
      <trkpt lat="61.6235865746" lon="8.6224485375">
        <ele>1494.51</ele>
        <time>2012-08-06T17:18:46Z</time>
      </trkpt>
      <trkpt lat="61.6235859878" lon="8.62243705429">
        <ele>1502.68</ele>
        <time>2012-08-06T17:18:47Z</time>
      </trkpt>
      <trkpt lat="61.623585904" lon="8.62244174816">
        <ele>1497.87</ele>
        <time>2012-08-06T17:18:48Z</time>
      </trkpt>
      <trkpt lat="61.6235640272" lon="8.62262246199">
        <ele>1496.43</ele>
        <time>2012-08-06T17:19:02Z</time>
      </trkpt>
      <trkpt lat="61.6235484369" lon="8.6227947101">
        <ele>1495.95</ele>
        <time>2012-08-06T17:19:11Z</time>
      </trkpt>
      <trkpt lat="61.6235339362" lon="8.62287232652">
        <ele>1495.47</ele>
        <time>2012-08-06T17:19:14Z</time>
      </trkpt>
      <trkpt lat="61.6235162504" lon="8.62305128016">
        <ele>1492.1</ele>
        <time>2012-08-06T17:19:29Z</time>
      </trkpt>
      <trkpt lat="61.623530332" lon="8.62318740226">
        <ele>1491.62</ele>
        <time>2012-08-06T17:19:41Z</time>
      </trkpt>
      <trkpt lat="61.6235241294" lon="8.62322688103">
        <ele>1490.66</ele>
        <time>2012-08-06T17:19:45Z</time>
      </trkpt>
      <trkpt lat="61.6235045996" lon="8.62337239087">
        <ele>1489.22</ele>
        <time>2012-08-06T17:19:56Z</time>
      </trkpt>
      <trkpt lat="61.6235035099" lon="8.623618735">
        <ele>1486.34</ele>
        <time>2012-08-06T17:20:10Z</time>
      </trkpt>
      <trkpt lat="61.6234745923" lon="8.62384035252">
        <ele>1484.89</ele>
        <time>2012-08-06T17:20:23Z</time>
      </trkpt>
      <trkpt lat="61.6234623548" lon="8.62404822372">
        <ele>1482.49</ele>
        <time>2012-08-06T17:20:35Z</time>
      </trkpt>
      <trkpt lat="61.6234763525" lon="8.62413355149">
        <ele>1482.97</ele>
        <time>2012-08-06T17:20:40Z</time>
      </trkpt>
      <trkpt lat="61.6234771907" lon="8.62419943325">
        <ele>1481.53</ele>
        <time>2012-08-06T17:20:43Z</time>
      </trkpt>
      <trkpt lat="61.6235254705" lon="8.62441820092">
        <ele>1479.61</ele>
        <time>2012-08-06T17:20:57Z</time>
      </trkpt>
      <trkpt lat="61.6235331818" lon="8.62461425364">
        <ele>1478.16</ele>
        <time>2012-08-06T17:21:10Z</time>
      </trkpt>
      <trkpt lat="61.623531254" lon="8.62464501522">
        <ele>1478.16</ele>
        <time>2012-08-06T17:21:12Z</time>
      </trkpt>
      <trkpt lat="61.6234833095" lon="8.62478591502">
        <ele>1475.28</ele>
        <time>2012-08-06T17:21:22Z</time>
      </trkpt>
      <trkpt lat="61.6235038452" lon="8.6250161659">
        <ele>1473.84</ele>
        <time>2012-08-06T17:21:35Z</time>
      </trkpt>
      <trkpt lat="61.6234761011" lon="8.62524130382">
        <ele>1470.47</ele>
        <time>2012-08-06T17:21:49Z</time>
      </trkpt>
      <trkpt lat="61.623502085" lon="8.62540986389">
        <ele>1469.03</ele>
        <time>2012-08-06T17:22:01Z</time>
      </trkpt>
      <trkpt lat="61.6235205252" lon="8.62563491799">
        <ele>1466.63</ele>
        <time>2012-08-06T17:22:14Z</time>
      </trkpt>
      <trkpt lat="61.6235221177" lon="8.62574279308">
        <ele>1466.15</ele>
        <time>2012-08-06T17:22:19Z</time>
      </trkpt>
      <trkpt lat="61.6235208604" lon="8.62596005201">
        <ele>1464.23</ele>
        <time>2012-08-06T17:22:31Z</time>
      </trkpt>
      <trkpt lat="61.6235390492" lon="8.62614545971">
        <ele>1461.82</ele>
        <time>2012-08-06T17:22:43Z</time>
      </trkpt>
      <trkpt lat="61.6235394683" lon="8.62618778832">
        <ele>1459.42</ele>
        <time>2012-08-06T17:22:47Z</time>
      </trkpt>
      <trkpt lat="61.6235723253" lon="8.62644678913">
        <ele>1459.42</ele>
        <time>2012-08-06T17:23:01Z</time>
      </trkpt>
      <trkpt lat="61.623569224" lon="8.62648459151">
        <ele>1459.42</ele>
        <time>2012-08-06T17:23:03Z</time>
      </trkpt>
      <trkpt lat="61.6235269792" lon="8.62663898617">
        <ele>1455.57</ele>
        <time>2012-08-06T17:23:12Z</time>
      </trkpt>
      <trkpt lat="61.6235155798" lon="8.62671190873">
        <ele>1456.05</ele>
        <time>2012-08-06T17:23:16Z</time>
      </trkpt>
      <trkpt lat="61.623534523" lon="8.62682682462">
        <ele>1454.61</ele>
        <time>2012-08-06T17:23:21Z</time>
      </trkpt>
      <trkpt lat="61.6235319246" lon="8.62704525702">
        <ele>1453.65</ele>
        <time>2012-08-06T17:23:28Z</time>
      </trkpt>
      <trkpt lat="61.6235368699" lon="8.62705280073">
        <ele>1454.13</ele>
        <time>2012-08-06T17:23:45Z</time>
      </trkpt>
      <trkpt lat="61.6235297453" lon="8.62706621177">
        <ele>1454.13</ele>
        <time>2012-08-06T17:24:20Z</time>
      </trkpt>
      <trkpt lat="61.6235304158" lon="8.62706361338">
        <ele>1454.13</ele>
        <time>2012-08-06T17:24:56Z</time>
      </trkpt>
      <trkpt lat="61.6235448327" lon="8.62709990703">
        <ele>1452.69</ele>
        <time>2012-08-06T17:25:25Z</time>
      </trkpt>
      <trkpt lat="61.6235737503" lon="8.62719143741">
        <ele>1450.77</ele>
        <time>2012-08-06T17:25:35Z</time>
      </trkpt>
      <trkpt lat="61.6235804558" lon="8.62725715153">
        <ele>1451.25</ele>
        <time>2012-08-06T17:25:40Z</time>
      </trkpt>
      <trkpt lat="61.6235237941" lon="8.627455635">
        <ele>1448.84</ele>
        <time>2012-08-06T17:25:51Z</time>
      </trkpt>
      <trkpt lat="61.6235601716" lon="8.62765110098">
        <ele>1446.92</ele>
        <time>2012-08-06T17:26:01Z</time>
      </trkpt>
      <trkpt lat="61.6235432401" lon="8.62773626111">
        <ele>1444.52</ele>
        <time>2012-08-06T17:26:06Z</time>
      </trkpt>
      <trkpt lat="61.6235332657" lon="8.62777775154">
        <ele>1444.52</ele>
        <time>2012-08-06T17:26:10Z</time>
      </trkpt>
      <trkpt lat="61.623540055" lon="8.6278449744">
        <ele>1441.63</ele>
        <time>2012-08-06T17:26:14Z</time>
      </trkpt>
      <trkpt lat="61.6235122271" lon="8.62789585255">
        <ele>1438.27</ele>
        <time>2012-08-06T17:26:24Z</time>
      </trkpt>
      <trkpt lat="61.6234849021" lon="8.62798780203">
        <ele>1437.79</ele>
        <time>2012-08-06T17:26:36Z</time>
      </trkpt>
      <trkpt lat="61.6234797053" lon="8.62809014507">
        <ele>1435.39</ele>
        <time>2012-08-06T17:26:43Z</time>
      </trkpt>
      <trkpt lat="61.6234804597" lon="8.62810221501">
        <ele>1435.87</ele>
        <time>2012-08-06T17:26:44Z</time>
      </trkpt>
      <trkpt lat="61.623480292" lon="8.62817605957">
        <ele>1435.39</ele>
        <time>2012-08-06T17:26:49Z</time>
      </trkpt>
      <trkpt lat="61.6234715749" lon="8.62824353389">
        <ele>1435.87</ele>
        <time>2012-08-06T17:26:51Z</time>
      </trkpt>
      <trkpt lat="61.6234722454" lon="8.62828971818">
        <ele>1434.42</ele>
        <time>2012-08-06T17:26:53Z</time>
      </trkpt>
      <trkpt lat="61.6234499495" lon="8.62836238928">
        <ele>1432.02</ele>
        <time>2012-08-06T17:26:57Z</time>
      </trkpt>
      <trkpt lat="61.6234235466" lon="8.62839792855">
        <ele>1431.54</ele>
        <time>2012-08-06T17:27:02Z</time>
      </trkpt>
      <trkpt lat="61.6234176792" lon="8.62842952833">
        <ele>1430.58</ele>
        <time>2012-08-06T17:27:04Z</time>
      </trkpt>
      <trkpt lat="61.6233848222" lon="8.62855332904">
        <ele>1429.14</ele>
        <time>2012-08-06T17:27:09Z</time>
      </trkpt>
      <trkpt lat="61.6233545635" lon="8.62864729017">
        <ele>1428.18</ele>
        <time>2012-08-06T17:27:13Z</time>
      </trkpt>
      <trkpt lat="61.6233439185" lon="8.6287297681">
        <ele>1425.77</ele>
        <time>2012-08-06T17:27:17Z</time>
      </trkpt>
      <trkpt lat="61.6233402304" lon="8.62883881666">
        <ele>1424.81</ele>
        <time>2012-08-06T17:27:23Z</time>
      </trkpt>
      <trkpt lat="61.6233341955" lon="8.62885817885">
        <ele>1424.81</ele>
        <time>2012-08-06T17:27:25Z</time>
      </trkpt>
      <trkpt lat="61.6232905257" lon="8.62896018662">
        <ele>1422.41</ele>
        <time>2012-08-06T17:27:31Z</time>
      </trkpt>
      <trkpt lat="61.6232600994" lon="8.62910837866">
        <ele>1419.52</ele>
        <time>2012-08-06T17:27:39Z</time>
      </trkpt>
      <trkpt lat="61.6232425813" lon="8.62921097316">
        <ele>1418.56</ele>
        <time>2012-08-06T17:27:43Z</time>
      </trkpt>
      <trkpt lat="61.6232341994" lon="8.62924668007">
        <ele>1418.08</ele>
        <time>2012-08-06T17:27:44Z</time>
      </trkpt>
      <trkpt lat="61.623224644" lon="8.62927769311">
        <ele>1419.04</ele>
        <time>2012-08-06T17:27:45Z</time>
      </trkpt>
      <trkpt lat="61.6232180223" lon="8.62929345109">
        <ele>1417.6</ele>
        <time>2012-08-06T17:27:46Z</time>
      </trkpt>
      <trkpt lat="61.6232077964" lon="8.62930996343">
        <ele>1417.6</ele>
        <time>2012-08-06T17:27:47Z</time>
      </trkpt>
      <trkpt lat="61.6231556609" lon="8.62938347273">
        <ele>1415.68</ele>
        <time>2012-08-06T17:27:53Z</time>
      </trkpt>
      <trkpt lat="61.6231487039" lon="8.62939671613">
        <ele>1416.16</ele>
        <time>2012-08-06T17:27:54Z</time>
      </trkpt>
      <trkpt lat="61.6231385618" lon="8.6294256337">
        <ele>1416.16</ele>
        <time>2012-08-06T17:27:56Z</time>
      </trkpt>
      <trkpt lat="61.6231164336" lon="8.62947114743">
        <ele>1414.24</ele>
        <time>2012-08-06T17:28:01Z</time>
      </trkpt>
      <trkpt lat="61.62312272" lon="8.62955429591">
        <ele>1413.28</ele>
        <time>2012-08-06T17:28:11Z</time>
      </trkpt>
      <trkpt lat="61.6231161822" lon="8.62959494814">
        <ele>1412.31</ele>
        <time>2012-08-06T17:28:13Z</time>
      </trkpt>
      <trkpt lat="61.6231008433" lon="8.62969762646">
        <ele>1411.35</ele>
        <time>2012-08-06T17:28:16Z</time>
      </trkpt>
      <trkpt lat="61.6230965685" lon="8.62975060008">
        <ele>1410.87</ele>
        <time>2012-08-06T17:28:20Z</time>
      </trkpt>
      <trkpt lat="61.6230570059" lon="8.62985906191">
        <ele>1408.47</ele>
        <time>2012-08-06T17:28:24Z</time>
      </trkpt>
      <trkpt lat="61.6230494622" lon="8.62988295034">
        <ele>1408.95</ele>
        <time>2012-08-06T17:28:25Z</time>
      </trkpt>
      <trkpt lat="61.6230438463" lon="8.62990792841">
        <ele>1408.95</ele>
        <time>2012-08-06T17:28:26Z</time>
      </trkpt>
      <trkpt lat="61.6230399907" lon="8.62992871553">
        <ele>1407.99</ele>
        <time>2012-08-06T17:28:27Z</time>
      </trkpt>
      <trkpt lat="61.6230304353" lon="8.62996643409">
        <ele>1407.51</ele>
        <time>2012-08-06T17:28:28Z</time>
      </trkpt>
      <trkpt lat="61.6230181139" lon="8.6300224252">
        <ele>1406.55</ele>
        <time>2012-08-06T17:28:29Z</time>
      </trkpt>
      <trkpt lat="61.6230082233" lon="8.63005385734">
        <ele>1407.03</ele>
        <time>2012-08-06T17:28:30Z</time>
      </trkpt>
      <trkpt lat="61.622980563" lon="8.63012937829">
        <ele>1406.55</ele>
        <time>2012-08-06T17:28:35Z</time>
      </trkpt>
      <trkpt lat="61.6229739413" lon="8.63015226088">
        <ele>1406.55</ele>
        <time>2012-08-06T17:28:36Z</time>
      </trkpt>
      <trkpt lat="61.622968493" lon="8.63017363474">
        <ele>1405.58</ele>
        <time>2012-08-06T17:28:37Z</time>
      </trkpt>
      <trkpt lat="61.6229663137" lon="8.63019500859">
        <ele>1407.51</ele>
        <time>2012-08-06T17:28:38Z</time>
      </trkpt>
      <trkpt lat="61.6229634639" lon="8.63022308797">
        <ele>1406.07</ele>
        <time>2012-08-06T17:28:39Z</time>
      </trkpt>
      <trkpt lat="61.6229565907" lon="8.63025175408">
        <ele>1406.07</ele>
        <time>2012-08-06T17:28:40Z</time>
      </trkpt>
      <trkpt lat="61.6229485441" lon="8.6302826833">
        <ele>1406.07</ele>
        <time>2012-08-06T17:28:41Z</time>
      </trkpt>
      <trkpt lat="61.622927757" lon="8.63041863777">
        <ele>1405.1</ele>
        <time>2012-08-06T17:28:46Z</time>
      </trkpt>
      <trkpt lat="61.6229188722" lon="8.63045853563">
        <ele>1405.1</ele>
        <time>2012-08-06T17:28:48Z</time>
      </trkpt>
      <trkpt lat="61.622843435" lon="8.63088140264">
        <ele>1403.18</ele>
        <time>2012-08-06T17:29:07Z</time>
      </trkpt>
      <trkpt lat="61.6228009388" lon="8.63110587001">
        <ele>1401.74</ele>
        <time>2012-08-06T17:29:20Z</time>
      </trkpt>
      <trkpt lat="61.6227959935" lon="8.63113604486">
        <ele>1401.74</ele>
        <time>2012-08-06T17:29:22Z</time>
      </trkpt>
      <trkpt lat="61.6227057204" lon="8.63142362796">
        <ele>1400.3</ele>
        <time>2012-08-06T17:29:34Z</time>
      </trkpt>
      <trkpt lat="61.622660961" lon="8.63166469149">
        <ele>1399.34</ele>
        <time>2012-08-06T17:29:46Z</time>
      </trkpt>
      <trkpt lat="61.6226182133" lon="8.63183325157">
        <ele>1397.41</ele>
        <time>2012-08-06T17:29:54Z</time>
      </trkpt>
      <trkpt lat="61.6225372441" lon="8.63209300674">
        <ele>1395.49</ele>
        <time>2012-08-06T17:30:06Z</time>
      </trkpt>
      <trkpt lat="61.6225416027" lon="8.63212251104">
        <ele>1395.01</ele>
        <time>2012-08-06T17:30:08Z</time>
      </trkpt>
      <trkpt lat="61.6226384137" lon="8.63240481354">
        <ele>1395.01</ele>
        <time>2012-08-06T17:30:22Z</time>
      </trkpt>
      <trkpt lat="61.6226738691" lon="8.63251687959">
        <ele>1396.45</ele>
        <time>2012-08-06T17:30:35Z</time>
      </trkpt>
      <trkpt lat="61.6226686724" lon="8.63251964562">
        <ele>1392.13</ele>
        <time>2012-08-06T17:30:37Z</time>
      </trkpt>
      <trkpt lat="61.6226695105" lon="8.63250925206">
        <ele>1395.01</ele>
        <time>2012-08-06T17:30:38Z</time>
      </trkpt>
      <trkpt lat="61.6226683371" lon="8.63250397146">
        <ele>1395.97</ele>
        <time>2012-08-06T17:30:40Z</time>
      </trkpt>
      <trkpt lat="61.6226932313" lon="8.63245250657">
        <ele>1395.49</ele>
        <time>2012-08-06T17:31:10Z</time>
      </trkpt>
      <trkpt lat="61.6226913873" lon="8.63248175941">
        <ele>1398.37</ele>
        <time>2012-08-06T17:31:22Z</time>
      </trkpt>
      <trkpt lat="61.6226939019" lon="8.63247714937">
        <ele>1398.37</ele>
        <time>2012-08-06T17:31:23Z</time>
      </trkpt>
      <trkpt lat="61.6226923931" lon="8.6324830167">
        <ele>1395.49</ele>
        <time>2012-08-06T17:31:25Z</time>
      </trkpt>
      <trkpt lat="61.6226692591" lon="8.63259164616">
        <ele>1396.45</ele>
        <time>2012-08-06T17:31:51Z</time>
      </trkpt>
    </trkseg>
  </trk>
</gpx>